# Wetter Temperatur Luftdruck Luftfeuchtigkeit Sichtweite Windgeschwindigkeit Windrichtung Zeit
1 Clear 2 1017 67 16093 3.13 275.742 12:42 14.10.2019
2 Clear 3 1017 64 16093 3.18 289.135 12:21 14.10.2019
3 Clear 3 1016 64 16093 3.18 289.135 11:57 14.10.2019
4 Clear 3 1016 64 16093 3.18 289.135 11:38 14.10.2019
5 Clear 3 1016 65 16093 3.1 280 11:20 14.10.2019
6 Clouds 4 1016 70 16093 3.18 289.135 10:44 14.10.2019
7 Clear 4 1016 60 16093 2.6 280 10:44 14.10.2019
8 Clouds 4 1016 70 16093 3.18 289.135 10:21 14.10.2019
9 Clouds 4 1016 65 16093 3.18 289.135 09:59 14.10.2019
10 Clouds 4 1016 65 16093 2.6 300 09:40 14.10.2019
11 Clouds 5 1016 65 16093 2.6 300 09:20 14.10.2019
12 Clouds 5 1015 52 16093 3.1 280 08:48 14.10.2019
13 Clouds 6 1015 65 16093 3.37 282.261 08:23 14.10.2019
14 Clouds 7 1015 61 16093 2.1 260 07:44 14.10.2019
15 Clouds 7 1015 65 16093 3.37 282.261 07:22 14.10.2019
16 Clouds 7 1015 61 16093 1.5 270 06:56 14.10.2019
17 Clouds 7 1015 61 16093 3.37 282.261 06:28 14.10.2019
18 Clouds 7 1014 58 16093 3.6 300 05:53 14.10.2019
19 Rain 8 1014 58 16093 3.6 290 04:53 14.10.2019
20 Clouds 8 1013 65 16093 2.1 320 03:49 14.10.2019
21 Clouds 8 1014 57 16093 3.1 300 03:22 14.10.2019
22 Clouds 9 1012 53 16093 4.6 300 01:52 14.10.2019
23 Clouds 9 1012 53 16093 5.1 310 01:18 14.10.2019
24 Clouds 10 1011 57 16093 2.1 300 00:40 14.10.2019
25 Clouds 10 1011 47 16093 5.1 280 00:18 14.10.2019
26 Clouds 11 1010 47 16093 5.1 260 23:40 13.10.2019
27 Clouds 11 1010 47 16093 5.1 260 23:19 13.10.2019
28 Clouds 11 1010 46 16093 6.2 270 22:55 13.10.2019
29 Clouds 11 1010 47 16093 5.7 250 22:55 13.10.2019
30 Clouds 11 1010 44 16093 7.7 240 22:37 13.10.2019
31 Clouds 11 1010 44 16093 7.7 240 22:19 13.10.2019
32 Clouds 11 1010 44 16093 7.7 240 22:19 13.10.2019
33 -273 0 0 0 0 0 21:55 13.10.2019
34 Clear 12 1010 44 16093 5.1 230 21:36 13.10.2019
35 Clear 11 1010 44 16093 5.1 230 21:18 13.10.2019
36 Clear 11 1010 44 16093 5.1 230 21:18 13.10.2019
37 Clear 11 1010 47 16093 7.7 250 20:55 13.10.2019
38 Clouds 11 1009 46 16093 10.3 250 20:55 13.10.2019
39 Clear 11 1011 46 16093 7.7 260 20:36 13.10.2019
40 Clear 11 1011 46 16093 7.7 260 20:18 13.10.2019
41 Clear 10 1012 46 16093 7.2 270 19:40 13.10.2019
42 Clear 10 1012 46 16093 7.2 270 19:22 13.10.2019
43 Clouds 9 1011 47 16093 8.7 260 18:59 13.10.2019
44 Clear 9 1012 53 16093 8.2 260 18:38 13.10.2019
45 Clouds 9 1012 49 16093 9.8 260 18:20 13.10.2019
46 Clear 8 1012 49 16093 8.7 260 17:59 13.10.2019
47 Clear 8 1012 49 16093 7.7 250 17:40 13.10.2019
48 Clear 7 1012 49 16093 7.7 250 17:22 13.10.2019
49 Clear 7 1012 49 16093 7.7 250 17:22 13.10.2019
50 Clear 6 1012 61 16093 5.7 240 16:43 13.10.2019
51 Clear 6 1012 61 16093 5.7 240 16:19 13.10.2019
52 Clear 5 1012 81 16093 4.6 230 15:57 13.10.2019
53 Clear 5 1012 81 16093 6.28 252.053 15:39 13.10.2019
54 Clouds 5 1010 52 16093 2.1 240 15:20 13.10.2019
55 Clear 4 1012 86 16093 5.11 244.303 14:58 13.10.2019
56 Clear 4 1011 86 16093 3.6 230 14:39 13.10.2019
57 Clear 4 1011 86 16093 3.6 230 14:20 13.10.2019
58 Clear 3 1011 80 16093 4.1 220 13:55 13.10.2019
59 Clear 3 1011 80 16093 4.1 230 13:37 13.10.2019
60 Clear 3 1011 80 16093 4.1 230 13:37 13.10.2019
61 Clouds 3 1010 80 16093 2.6 210 13:18 13.10.2019
62 Clear 3 1011 80 16093 4.1 230 13:18 13.10.2019
63 Clouds 3 1010 80 16093 3.1 200 12:55 13.10.2019
64 Clear 3 1011 75 16093 4.1 230 12:55 13.10.2019
65 Clear 3 1011 75 16093 1.5 220 12:36 13.10.2019
66 Clear 3 1011 75 16093 1.5 220 12:36 13.10.2019
67 Clear 3 1011 75 16093 1.5 220 12:18 13.10.2019
68 Clear 3 1011 75 16093 5.7 200 11:54 13.10.2019
69 Clear 3 1011 75 16093 5.1 200 11:36 13.10.2019
70 Clouds 3 1010 80 16093 2.1 280 11:18 13.10.2019
71 Clear 4 1011 70 16093 4.6 200 10:41 13.10.2019
72 Clear 4 1011 70 16093 4.6 200 10:22 13.10.2019
73 Clear 4 1011 70 16093 4.6 200 10:22 13.10.2019
74 Clear 4 1011 70 16093 4.6 200 10:22 13.10.2019
75 Clear 4 1011 70 16093 3.41 252.998 09:40 13.10.2019
76 Clear 4 1011 70 16093 6.77 233.709 09:21 13.10.2019
77 Clear 4 1011 70 16093 6.77 233.709 09:21 13.10.2019
78 Clouds 5 1010 61 16093 3.6 240 08:57 13.10.2019
79 Clouds 5 1011 61 16093 5.1 230 08:37 13.10.2019
80 Clouds 6 1011 61 16093 5.1 230 08:18 13.10.2019
81 Clouds 6 1011 61 16093 9.3 210 07:45 13.10.2019
82 Clouds 6 1011 61 16093 9.3 210 07:45 13.10.2019
83 Clear 7 1011 46 16093 5.7 190 06:58 13.10.2019
84 Clear 8 1011 57 16093 6.7 200 06:31 13.10.2019
85 Clear 10 1011 57 16093 8.2 200 05:34 13.10.2019
86 Clear 10 1011 57 16093 8.2 200 05:34 13.10.2019
87 Clouds 10 1010 53 16093 2.6 240 04:46 13.10.2019
88 Clouds 10 1010 53 16093 6.7 210 03:39 13.10.2019
89 Clear 11 1011 53 16093 6.7 200 02:35 13.10.2019
90 Clear 11 1012 40 16093 6.2 200 01:51 13.10.2019
91 Clear 11 1012 40 16093 5.1 200 01:22 13.10.2019
92 Rain 12 1012 40 16093 9.8 210 00:44 13.10.2019
93 Rain 12 1012 36 16093 9.8 210 00:21 13.10.2019
94 Clear 12 1012 36 16093 8.7 210 23:55 12.10.2019
95 Clear 12 1012 36 16093 10.8 220 23:36 12.10.2019
96 Clear 12 1012 36 16093 10.8 220 23:18 12.10.2019
97 Clear 12 1013 36 16093 7.7 210 22:55 12.10.2019
98 Clear 12 1013 36 16093 10.3 200 22:36 12.10.2019
99 Clear 12 1013 36 16093 10.3 200 22:18 12.10.2019
100 Clear 11 1015 36 16093 8.7 210 21:41 12.10.2019
101 Clear 11 1015 35 16093 8.7 210 21:23 12.10.2019
102 Clouds 11 1014 37 16093 7.7 210 20:56 12.10.2019
103 Clear 10 1016 46 16093 9.3 210 20:38 12.10.2019
104 Clear 10 1016 46 16093 9.3 210 20:38 12.10.2019
105 Clear 10 1016 46 16093 9.3 210 20:20 12.10.2019
106 Clear 9 1017 49 16093 9.3 240 19:37 12.10.2019
107 Clear 8 1017 49 16093 9.3 240 19:19 12.10.2019
108 Clear 7 1017 49 16093 7.7 250 18:44 12.10.2019
109 Clear 7 1017 49 16093 7.7 250 18:26 12.10.2019
110 Clear 6 1018 52 16093 8.7 230 17:56 12.10.2019
111 Clear 6 1018 52 16093 8.7 230 17:56 12.10.2019
112 Clear 6 1018 60 16093 6.7 230 17:37 12.10.2019
113 Clouds 6 1017 48 16093 10.8 230 17:18 12.10.2019
114 Clear 5 1018 69 16093 7.2 220 16:41 12.10.2019
115 Clear 4 1018 69 16093 7.2 220 16:21 12.10.2019
116 Clouds 3 1017 60 16093 7.2 230 15:58 12.10.2019
117 Clear 3 1018 80 16093 5.7 220 15:38 12.10.2019
118 Clear 2 1018 80 16093 5.7 220 15:19 12.10.2019
119 Clear 2 1018 86 16093 4.6 220 14:41 12.10.2019
120 Clouds 2 1017 64 16093 5.7 230 14:20 12.10.2019
121 Clear 2 1018 86 16093 4.1 220 13:52 12.10.2019
122 Clear 2 1018 86 16093 4.6 220 13:33 12.10.2019
123 Clear 2 1017 64 16093 5.1 240 12:57 12.10.2019
124 Clear 2 1017 80 16093 3.6 220 12:38 12.10.2019
125 Clouds 3 1017 55 16093 6.7 250 12:20 12.10.2019
126 Clouds 3 1018 60 16093 2.1 210 11:47 12.10.2019
127 Clouds 3 1017 74 16093 4.1 220 11:24 12.10.2019
128 Clouds 4 1018 64 16093 3.1 210 10:58 12.10.2019
129 Clouds 4 1018 64 16093 3.1 210 10:40 12.10.2019
130 Clouds 4 1017 60 16093 6.2 250 10:21 12.10.2019
131 Clouds 4 1018 60 16093 1.5 210 09:57 12.10.2019
132 Clouds 3 1017 74 16093 3.6 230 09:38 12.10.2019
133 Clouds 4 1017 60 16093 4.1 240 09:20 12.10.2019
134 Clouds 4 1017 60 16093 4.1 240 09:20 12.10.2019
135 Clouds 4 1018 60 16093 2.1 240 08:55 12.10.2019
136 Clear 4 1018 69 16093 6.15 248.755 08:36 12.10.2019
137 Clouds 4 1017 55 16093 5.1 240 08:18 12.10.2019
138 Clouds 3 1018 64 16093 2.1 260 07:32 12.10.2019
139 Clouds 4 1018 64 16093 5.7 280 06:38 12.10.2019
140 Clouds 4 1018 55 16093 5.88 261.244 05:44 12.10.2019
141 Clouds 5 1018 55 16093 4.6 270 04:43 12.10.2019
142 Clouds 5 1018 75 16093 5.1 270 03:56 12.10.2019
143 -273 0 0 0 0 0 02:54 12.10.2019
144 Rain 5 1016 87 16093 7.7 270 01:35 12.10.2019
145 Rain 6 1015 81 16093 6.2 250 00:57 12.10.2019
146 Rain 6 1015 81 16093 6.2 250 00:38 12.10.2019
147 Rain 6 1015 93 11265 5.7 270 23:55 11.10.2019
148 Rain 6 1014 75 16093 5.1 270 23:37 11.10.2019
149 Rain 6 1014 81 6437 8.2 260 23:18 11.10.2019
150 Rain 6 1013 81 6437 7.2 280 22:39 11.10.2019
151 Drizzle 6 1013 81 14484 7.2 270 22:20 11.10.2019
152 Drizzle 7 1013 100 4023 7.2 260 21:55 11.10.2019
153 Mist 7 1013 93 6437 7.2 260 21:36 11.10.2019
154 Mist 7 1013 93 6437 7.2 260 21:18 11.10.2019
155 Rain 8 1012 100 16093 6.2 270 20:42 11.10.2019
156 Rain 9 1012 100 16093 6.2 270 20:24 11.10.2019
157 Rain 9 1012 81 16093 8.2 250 19:56 11.10.2019
158 Rain 9 1013 87 16093 8.2 270 19:38 11.10.2019
159 Rain 10 1012 87 16093 6.7 250 19:18 11.10.2019
160 Rain 10 1011 87 16093 5.7 250 18:56 11.10.2019
161 Rain 10 1011 87 16093 5.7 250 18:56 11.10.2019
162 Rain 10 1011 87 16093 5.7 250 18:37 11.10.2019
163 Rain 11 1012 100 16093 5.7 240 18:18 11.10.2019
164 Rain 11 1011 93 16093 4.6 270 17:57 11.10.2019
165 Rain 12 1011 87 4023 6.2 280 17:37 11.10.2019
166 Rain 12 1010 100 4828 4.6 190 17:18 11.10.2019
167 Rain 14 1010 100 8047 1.5 210 16:42 11.10.2019
168 Rain 16 1011 93 11265 6.2 180 16:21 11.10.2019
169 Rain 18 1011 93 16093 5.7 180 15:59 11.10.2019
170 Rain 18 1010 88 14484 5.1 170 15:39 11.10.2019
171 Rain 18 1011 93 16093 4.6 150 15:19 11.10.2019
172 Rain 18 1011 88 16093 3.6 170 14:47 11.10.2019
173 Rain 18 1011 88 16093 3.6 170 14:29 11.10.2019
174 Rain 18 1011 82 16093 4.6 180 13:57 11.10.2019
175 Rain 18 1011 82 16093 4.1 180 13:38 11.10.2019
176 Rain 18 1011 88 16093 3.1 180 13:19 11.10.2019
177 Rain 18 1012 93 16093 2.6 180 12:56 11.10.2019
178 Rain 18 1012 93 16093 3.6 170 12:38 11.10.2019
179 Rain 19 1011 93 16093 3.6 190 12:18 11.10.2019
180 Rain 19 1012 93 16093 4.6 190 11:41 11.10.2019
181 Rain 19 1012 93 16093 4.6 190 11:22 11.10.2019
182 Rain 19 1011 88 14484 7.2 170 10:58 11.10.2019
183 Rain 19 1012 93 16093 5.1 160 10:40 11.10.2019
184 Rain 19 1012 93 16093 5.1 160 10:22 11.10.2019
185 Clouds 18 1012 93 16093 3.6 160 09:55 11.10.2019
186 Clouds 18 1013 93 16093 3.6 160 09:37 11.10.2019
187 Clouds 18 1013 93 16093 3.6 160 09:19 11.10.2019
188 Rain 18 1012 88 16093 5.1 160 08:55 11.10.2019
189 Rain 18 1013 88 16093 3.6 150 08:36 11.10.2019
190 Rain 18 1012 88 16093 2.6 160 08:18 11.10.2019
191 Rain 18 1012 88 9656 4.1 150 07:41 11.10.2019
192 Rain 18 1013 82 16093 3.1 140 07:22 11.10.2019
193 Rain 18 1013 88 16093 4.6 150 06:47 11.10.2019
194 Rain 18 1014 88 16093 4.92 156.113 06:22 11.10.2019
195 Rain 19 1014 77 16093 2.6 150 05:39 11.10.2019
196 Rain 19 1015 77 16093 4.92 156.113 04:59 11.10.2019
197 Rain 19 1014 77 16093 4.92 156.113 04:24 11.10.2019
198 Clouds 19 1015 73 16093 3.6 130 02:32 11.10.2019
199 Rain 19 1014 88 16093 3.1 110 00:49 11.10.2019
200 Rain 19 1015 82 16093 3.94 161.97 00:29 11.10.2019
201 Rain 19 1016 77 16093 4.24 163.778 23:44 10.10.2019
202 Rain 19 1016 77 16093 4.24 163.778 23:22 10.10.2019
203 Rain 20 1016 73 16093 4.24 163.778 22:58 10.10.2019
204 Rain 20 1016 73 16093 3.6 140 22:39 10.10.2019
205 Clouds 21 1015 64 16093 4.6 130 22:20 10.10.2019
206 Clear 21 1016 73 16093 4.6 130 21:57 10.10.2019
207 Clouds 21 1016 73 16093 3.1 120 21:39 10.10.2019
208 Clouds 21 1016 73 16093 3.1 120 21:20 10.10.2019
209 Clouds 21 1018 77 16093 2.6 130 20:43 10.10.2019
210 Clouds 20 1018 77 16093 2.6 130 20:22 10.10.2019
211 Clouds 20 1018 64 16093 3.6 150 19:59 10.10.2019
212 Clouds 20 1019 77 16093 2.6 130 19:41 10.10.2019
213 Clouds 20 1019 77 16093 2.6 130 19:41 10.10.2019
214 Clouds 20 1019 77 16093 2.6 130 19:41 10.10.2019
215 Clouds 20 1018 72 16093 2.6 130 19:21 10.10.2019
216 Clear 19 1018 72 16093 3.6 140 18:59 10.10.2019
217 Rain 19 1019 77 16093 4.6 160 18:39 10.10.2019
218 Rain 18 1019 72 16093 3.1 180 18:20 10.10.2019
219 Clear 18 1019 82 16093 3.1 160 17:55 10.10.2019
220 Clear 17 1019 82 16093 3.1 140 17:36 10.10.2019
221 Clouds 17 1020 87 11265 3.6 150 17:18 10.10.2019
222 Clear 16 1019 82 16093 3.6 130 16:44 10.10.2019
223 Clear 15 1019 93 16093 3.1 150 16:26 10.10.2019
224 Clouds 14 1020 87 16093 1.5 150 15:54 10.10.2019
225 Clouds 14 1018 82 16093 4.6 120 15:36 10.10.2019
226 Clouds 13 1018 82 16093 4.1 140 15:18 10.10.2019
227 Clear 12 1018 82 16093 2.6 110 14:54 10.10.2019
228 Clouds 12 1019 93 16093 2.1 130 14:36 10.10.2019
229 Clouds 12 1018 76 16093 3.1 110 14:18 10.10.2019
230 Clear 12 1018 87 16093 2.6 110 13:41 10.10.2019
231 Clouds 12 1019 76 16093 2.6 140 13:23 10.10.2019
232 Clear 12 1020 87 16093 2.6 120 12:57 10.10.2019
233 Clear 13 1020 87 16093 2.6 130 12:39 10.10.2019
234 Clouds 13 1019 71 16093 2.6 150 12:20 10.10.2019
235 Clear 13 1019 76 16093 2.1 130 11:55 10.10.2019
236 Clear 13 1019 76 16093 3.6 140 11:37 10.10.2019
237 Clouds 13 1019 67 16093 4.1 140 11:18 10.10.2019
238 Clear 14 1019 76 16093 4.1 130 10:44 10.10.2019
239 Clear 14 1019 76 16093 4.1 130 10:26 10.10.2019
240 Clouds 14 1019 62 16093 1.5 140 09:56 10.10.2019
241 Clear 14 1019 76 16093 2.6 130 09:38 10.10.2019
242 Clear 14 1019 76 16093 2.6 130 09:19 10.10.2019
243 Clear 15 1019 67 16093 3.1 130 08:41 10.10.2019
244 Clear 15 1019 67 16093 3.1 130 08:23 10.10.2019
245 Clear 15 1019 55 16093 4.6 110 07:59 10.10.2019
246 Clear 15 1019 55 16093 4.6 110 07:40 10.10.2019
247 Clear 15 1019 67 16093 3.6 130 07:20 10.10.2019
248 Clear 15 1019 58 16093 3.6 110 06:45 10.10.2019
249 Clear 15 1019 67 16093 2.6 110 06:26 10.10.2019
250 Clear 15 1020 67 16093 3.23 120.967 05:25 10.10.2019
251 Clear 14 1020 67 16093 3.23 120.967 04:37 10.10.2019
252 Clear 15 1019 67 16093 3.1 100 03:42 10.10.2019
253 Clear 17 1019 59 16093 3.03 107.622 01:43 10.10.2019
254 Clear 17 1019 59 16093 3.03 107.622 01:43 10.10.2019
255 Clear 17 1019 59 16093 2.57 113.767 01:24 10.10.2019
256 Clear 18 1019 49 16093 2.1 120 00:53 10.10.2019
257 Clear 19 1019 49 16093 2.6 110 00:21 10.10.2019
258 Clear 21 1019 46 16093 3.6 110 23:39 09.10.2019
259 Clear 21 1019 46 16093 3.6 110 23:20 09.10.2019
260 Clear 21 1019 43 16093 3.6 90 22:44 09.10.2019
261 Clear 21 1019 43 16093 3.6 90 22:24 09.10.2019
262 Clear 21 1020 46 16093 4.1 130 21:59 09.10.2019
263 Clear 21 1020 49 16093 3.6 120 21:40 09.10.2019
264 Clear 21 1020 49 16093 3.6 120 21:20 09.10.2019
265 Clear 21 1021 46 16093 4.1 150 20:56 09.10.2019
266 Clear 21 1021 46 16093 4.1 150 20:56 09.10.2019
267 Clear 21 1021 46 16093 4.1 150 20:56 09.10.2019
268 Clear 21 1021 46 16093 3.1 130 20:37 09.10.2019
269 Clear 21 1021 46 16093 3.1 130 20:37 09.10.2019
270 Clear 21 1021 46 16093 3.1 130 20:18 09.10.2019
271 Clear 21 1022 49 16093 4.6 130 19:46 09.10.2019
272 Clear 21 1022 49 16093 4.6 130 19:24 09.10.2019
273 Clear 20 1022 49 16093 3.1 130 18:58 09.10.2019
274 Clear 20 1022 52 16093 4.1 150 18:38 09.10.2019
275 Clear 19 1022 49 16093 3.6 190 18:19 09.10.2019
276 Clear 18 1023 59 16093 4.6 80 17:56 09.10.2019
277 Clear 18 1023 59 16093 3.1 160 17:37 09.10.2019
278 Rain 17 1022 51 16093 4.1 170 17:19 09.10.2019
279 Clear 15 1023 71 16093 2.47 157.712 16:42 09.10.2019
280 Clear 14 1023 71 16093 2.47 157.712 16:23 09.10.2019
281 Clear 13 1023 76 16093 2.47 157.712 15:58 09.10.2019
282 Clear 12 1023 76 16093 2.47 157.712 15:39 09.10.2019
283 Rain 10 1023 76 16093 1.74 154.764 15:20 09.10.2019
284 Rain 9 1022 71 16093 2.6 150 14:59 09.10.2019
285 Clear 8 1022 87 16093 1.74 154.764 14:41 09.10.2019
286 Clear 8 1022 87 16093 1.74 154.764 14:18 09.10.2019
287 Clear 9 1022 81 16093 1.74 154.764 13:40 09.10.2019
288 Clear 9 1022 81 16093 1.9 159.426 13:22 09.10.2019
289 Clear 9 1022 66 16093 2.1 160 12:59 09.10.2019
290 Clear 9 1022 66 16093 2.1 160 12:59 09.10.2019
291 Clear 9 1022 81 16093 1.9 159.426 12:41 09.10.2019
292 Clear 9 1022 81 16093 2.17 156.798 12:21 09.10.2019
293 Clear 9 1021 76 16093 2.17 156.798 11:55 09.10.2019
294 Clear 10 1021 81 16093 2.17 156.798 11:37 09.10.2019
295 Clear 10 1021 81 16093 2.17 156.798 11:19 09.10.2019
296 Clear 10 1021 66 16093 2.1 130 10:44 09.10.2019
297 Clear 10 1021 76 16093 2.17 156.798 10:22 09.10.2019
298 Clear 11 1021 58 16093 2.6 160 09:59 09.10.2019
299 Clear 11 1021 81 16093 2.17 156.798 09:40 09.10.2019
300 Clear 11 1021 81 16093 2.43 146.806 09:19 09.10.2019
301 Clear 12 1021 76 16093 2.52 155.624 08:41 09.10.2019
302 Clear 12 1021 76 16093 2.52 155.624 08:23 09.10.2019
303 Clear 12 1021 62 16093 2.1 140 07:58 09.10.2019
304 Clear 12 1021 71 16093 2.52 155.624 07:39 09.10.2019
305 Clear 12 1020 82 16093 2.1 140 07:20 09.10.2019
306 Clear 12 1021 66 16093 2.1 130 06:51 09.10.2019
307 Clear 12 1021 66 16093 2.1 130 06:51 09.10.2019
308 Clear 12 1021 77 16093 2.6 120 05:56 09.10.2019
309 Clear 12 1021 71 16093 1.8 147.192 05:28 09.10.2019
310 Clear 13 1021 71 16093 1.8 147.192 04:25 09.10.2019
311 Clear 14 1021 67 16093 2.6 90 02:52 09.10.2019
312 Clear 17 1020 59 16093 1.37 179.499 01:43 09.10.2019
313 Clear 18 1021 48 16093 1.5 110 01:20 09.10.2019
314 Clear 18 1021 48 16093 1.5 110 01:20 09.10.2019
315 Clear 19 1021 45 16093 1.25 192.261 00:56 09.10.2019
316 Clear 20 1021 45 16093 1.5 180 00:38 09.10.2019
317 Clear 21 1021 40 16093 2.1 170 00:19 09.10.2019
318 Clear 21 1021 40 16093 2.9 225.406 23:39 08.10.2019
319 Clear 21 1021 37 16093 2.1 210 23:18 08.10.2019
320 Clouds 21 1021 30 16093 1.5 220 22:56 08.10.2019
321 Clear 21 1022 43 16093 2.9 225.406 22:38 08.10.2019
322 Clear 21 1022 43 16093 2.9 225.406 22:38 08.10.2019
323 Clear 21 1022 43 16093 2.9 225.406 22:19 08.10.2019
324 Clear 21 1022 40 16093 3.6 200 21:57 08.10.2019
325 Clear 21 1022 43 16093 3.1 180 21:38 08.10.2019
326 Clear 21 1022 43 16093 3.1 180 21:18 08.10.2019
327 Clear 21 1023 40 16093 2.6 170 20:55 08.10.2019
328 Clear 21 1023 43 16093 2.6 200 20:37 08.10.2019
329 Clear 21 1023 43 16093 2.6 200 20:37 08.10.2019
330 Clear 21 1023 43 16093 2.6 200 20:19 08.10.2019
331 Clear 21 1023 42 16093 2.1 170 19:56 08.10.2019
332 Clear 20 1024 42 16093 2.6 210 19:36 08.10.2019
333 Clear 20 1024 42 16093 2.6 210 19:18 08.10.2019
334 Clear 19 1024 45 16093 2.1 230 18:45 08.10.2019
335 Clear 19 1024 52 16093 2.1 187.906 18:25 08.10.2019
336 Clear 18 1024 55 16093 2.1 187.906 17:58 08.10.2019
337 Haze 17 1024 59 16093 2.1 160 17:39 08.10.2019
338 Clear 16 1024 59 16093 2.1 160 17:20 08.10.2019
339 Clear 15 1025 67 16093 2.1 180 16:56 08.10.2019
340 Clear 15 1025 67 16093 2.1 180 16:56 08.10.2019
341 Clear 15 1025 67 16093 2.1 180 16:56 08.10.2019
342 Clear 14 1025 71 16093 1.5 150 16:37 08.10.2019
343 Mist 13 1025 71 16093 1.5 150 16:18 08.10.2019
344 Mist 9 1024 87 16093 2.1 187.906 15:39 08.10.2019
345 Mist 9 1024 87 16093 2.1 187.906 15:39 08.10.2019
346 Mist 9 1024 87 16093 1.43 165.778 15:20 08.10.2019
347 Rain 7 1024 100 16093 1.43 165.778 14:56 08.10.2019
348 Rain 6 1024 93 16093 1.43 165.778 14:38 08.10.2019
349 Rain 6 1024 87 16093 1.43 165.778 14:19 08.10.2019
350 Mist 7 1024 100 16093 1.43 165.778 13:55 08.10.2019
351 Mist 7 1024 100 16093 1.43 165.778 13:37 08.10.2019
352 Clear 7 1024 100 16093 1.43 165.778 13:18 08.10.2019
353 Mist 7 1024 100 16093 0.47 254.918 12:41 08.10.2019
354 Mist 6 1024 100 16093 0.45 303.083 12:20 08.10.2019
355 Mist 6 1024 100 16093 0.45 303.083 12:20 08.10.2019
356 Mist 7 1024 100 16093 0.45 303.083 11:58 08.10.2019
357 Clear 7 1023 100 16093 0.45 303.083 11:39 08.10.2019
358 Clear 7 1023 100 16093 0.45 303.083 11:21 08.10.2019
359 Clear 7 1023 100 16093 0.45 303.083 11:21 08.10.2019
360 Clear 7 1023 100 16093 0.45 303.083 10:42 08.10.2019
361 Clear 7 1023 100 16093 0.45 303.083 10:23 08.10.2019
362 Clouds 7 1023 81 16093 0.45 303.083 09:59 08.10.2019
363 Mist 8 1023 100 16093 0.45 303.083 09:40 08.10.2019
364 Mist 7 1023 100 16093 1.13 349.259 09:22 08.10.2019
365 Clear 8 1023 100 16093 0.93 327.59 08:45 08.10.2019
366 Clear 8 1023 100 16093 0.93 327.59 08:25 08.10.2019
367 Mist 8 1023 100 16093 0.93 327.59 07:57 08.10.2019
368 Clear 8 1023 93 16093 0.93 327.59 07:38 08.10.2019
369 Clear 9 1023 93 16093 0.93 327.59 07:19 08.10.2019
370 Clear 9 1023 93 16093 0.93 327.59 06:45 08.10.2019
371 Clear 9 1023 93 16093 1.08 299.639 06:21 08.10.2019
372 Clear 10 1023 93 16093 1.08 299.639 05:43 08.10.2019
373 Clear 10 1023 93 16093 1.08 299.639 05:43 08.10.2019
374 Clear 10 1023 71 16093 1.08 299.639 05:19 08.10.2019
375 Clear 12 1022 81 16093 1.08 299.639 03:31 08.10.2019
376 Clear 14 1022 67 16093 2.18 303.748 02:43 08.10.2019
377 Clear 15 1022 67 16093 2.18 303.748 02:25 08.10.2019
378 Clear 18 1022 45 16093 1.5 270 01:41 08.10.2019
379 Clear 19 1021 34 16093 3.6 290 00:56 08.10.2019
380 Clear 20 1021 40 16093 3.1 290 00:25 08.10.2019
381 Clear 20 1021 37 16093 4.1 290 23:56 07.10.2019
382 Clear 20 1021 37 16093 3.6 300 23:37 07.10.2019
383 Clear 21 1021 37 16093 3.6 300 23:19 07.10.2019
384 Clear 21 1021 40 16093 4.6 260 22:54 07.10.2019
385 Clear 21 1021 40 16093 4.6 260 22:54 07.10.2019
386 Clear 21 1021 37 16093 5.1 280 22:36 07.10.2019
387 Clear 21 1021 35 16093 3.6 280 22:18 07.10.2019
388 Clear 21 1021 37 16093 5.1 260 21:54 07.10.2019
389 Clear 21 1022 40 16093 5.7 290 21:36 07.10.2019
390 Clear 21 1022 40 16093 5.7 290 21:18 07.10.2019
391 Clear 21 1022 40 16093 3.6 270 20:54 07.10.2019
392 Clear 20 1022 43 16093 4.1 290 20:36 07.10.2019
393 Clouds 20 1022 37 16093 4.6 280 20:18 07.10.2019
394 Clear 20 1023 42 16093 5.1 260 19:41 07.10.2019
395 Clear 19 1023 42 16093 5.1 260 19:20 07.10.2019
396 Clear 19 1023 48 16093 3.6 270 18:59 07.10.2019
397 Clear 18 1023 48 16093 4.75 280.718 18:40 07.10.2019
398 Clear 18 1023 48 16093 4.06 261.672 18:19 07.10.2019
399 Clear 18 1023 48 16093 4.06 261.672 18:19 07.10.2019
400 Clear 17 1023 55 16093 2.1 270 17:55 07.10.2019
401 Clear 16 1023 59 16093 4.06 261.672 17:37 07.10.2019
402 Clear 15 1023 59 16093 4.06 261.672 17:18 07.10.2019
403 Clear 14 1023 76 16093 4.06 261.672 16:43 07.10.2019
404 Clear 13 1023 76 16093 4.06 261.672 16:25 07.10.2019
405 Clear 10 1022 87 16093 4.06 261.672 15:46 07.10.2019
406 Mist 9 1022 76 16093 3.1 220 15:27 07.10.2019
407 Mist 9 1022 100 16093 2.57 260.384 14:59 07.10.2019
408 Mist 9 1022 100 16093 2.57 260.384 14:59 07.10.2019
409 Clear 8 1022 93 16093 2.57 260.384 14:40 07.10.2019
410 Clear 8 1022 93 16093 2.57 260.384 14:22 07.10.2019
411 Mist 8 1022 87 16093 2.57 260.384 13:44 07.10.2019
412 Mist 8 1022 87 16093 3.06 259.109 13:21 07.10.2019
413 Clear 9 1022 93 16093 3.06 259.109 12:57 07.10.2019
414 Clear 9 1022 87 16093 3.06 259.109 12:39 07.10.2019
415 Clear 9 1022 87 16093 3.08 252.283 12:20 07.10.2019
416 Clear 9 1022 87 16093 3.08 252.283 12:20 07.10.2019
417 Clouds 9 1021 76 16093 2.6 270 11:59 07.10.2019
418 Clear 10 1022 87 16093 3.08 252.283 11:39 07.10.2019
419 Clear 10 1022 87 16093 3.08 252.283 11:20 07.10.2019
420 Clear 10 1021 87 16093 3.08 252.283 10:42 07.10.2019
421 Clear 10 1021 87 16093 3.08 252.283 10:23 07.10.2019
422 Clouds 11 1021 76 16093 3.6 260 09:57 07.10.2019
423 Clear 11 1021 81 16093 3.08 252.283 09:38 07.10.2019
424 Clear 11 1021 81 16093 3.08 252.283 09:38 07.10.2019
425 Clear 11 1021 81 16093 3.81 273.496 09:20 07.10.2019
426 Clear 11 1021 76 16093 3.54 248.655 08:43 07.10.2019
427 Clear 12 1021 76 16093 3.54 248.655 08:20 07.10.2019
428 Clear 12 1021 71 16093 3.54 248.655 07:47 07.10.2019
429 Clear 12 1021 71 16093 3.54 248.655 07:27 07.10.2019
430 Clear 13 1021 71 16093 2.1 250 06:57 07.10.2019
431 Clear 13 1021 67 16093 2.6 240 06:38 07.10.2019
432 Clouds 14 1021 62 16093 4.1 250 05:56 07.10.2019
433 Clear 14 1021 67 16093 3.89 261.239 05:25 07.10.2019
434 Clear 14 1021 62 16093 3.89 261.239 04:47 07.10.2019
435 Clear 15 1020 62 16093 3.89 261.239 03:46 07.10.2019
436 Clear 15 1020 62 16093 3.69 244.677 03:27 07.10.2019
437 Clouds 15 1020 51 16093 3.69 244.677 02:37 07.10.2019
438 Clouds 15 1020 51 16093 3.69 244.677 02:18 07.10.2019
439 Clouds 15 1020 51 16093 3.69 244.677 02:18 07.10.2019
440 Clouds 16 1020 51 16093 3.85 256.491 01:23 07.10.2019
441 Clear 17 1020 45 16093 2.6 270 00:49 07.10.2019
442 Clear 17 1020 45 16093 2.6 270 00:23 07.10.2019
443 Clear 18 1020 42 16093 4.6 270 23:59 06.10.2019
444 Clear 18 1020 40 16093 4.1 270 23:40 06.10.2019
445 Clouds 18 1019 37 16093 6.2 270 23:19 06.10.2019
446 Clear 18 1020 40 16093 2.1 250 22:55 06.10.2019
447 Clear 18 1020 40 16093 2.1 250 22:55 06.10.2019
448 Clear 19 1020 42 16093 3.6 300 22:37 06.10.2019
449 Clear 19 1020 42 16093 3.6 300 22:18 06.10.2019
450 Clouds 19 1019 34 16093 7.7 300 21:55 06.10.2019
451 Clear 19 1020 45 16093 5.7 270 21:36 06.10.2019
452 Clear 19 1020 45 16093 5.7 270 21:36 06.10.2019
453 Clouds 19 1019 34 16093 5.7 290 21:18 06.10.2019
454 Clear 19 1020 45 16093 3.6 280 20:54 06.10.2019
455 Clear 19 1020 45 16093 3.6 280 20:54 06.10.2019
456 Clear 19 1020 48 16093 3.1 310 20:36 06.10.2019
457 Clouds 19 1020 42 16093 6.2 280 20:18 06.10.2019
458 Clear 18 1020 52 16093 3.6 320 19:54 06.10.2019
459 Clear 18 1020 52 16093 3.1 340 19:36 06.10.2019
460 Clear 18 1020 52 16093 3.1 340 19:18 06.10.2019
461 Haze 18 1021 52 16093 3.6 310 18:54 06.10.2019
462 Haze 17 1020 55 16093 4.6 290 18:36 06.10.2019
463 Haze 17 1020 55 16093 4.6 290 18:18 06.10.2019
464 Clear 16 1020 63 16093 3.57 268.137 17:42 06.10.2019
465 Clear 15 1020 63 16093 3.57 268.137 17:20 06.10.2019
466 Clear 14 1019 71 16093 3.57 268.137 16:55 06.10.2019
467 Clear 14 1019 71 16093 3.57 268.137 16:55 06.10.2019
468 Clear 13 1019 71 16093 3.57 268.137 16:36 06.10.2019
469 Clouds 13 1019 76 16093 3.1 220 16:18 06.10.2019
470 Clear 11 1019 81 16093 2.6 280 15:42 06.10.2019
471 Clear 10 1019 81 16093 2.6 280 15:19 06.10.2019
472 Clear 10 1019 81 16093 2.6 280 15:19 06.10.2019
473 Clear 10 1019 81 16093 2.6 280 15:19 06.10.2019
474 Clear 10 1019 81 16093 2.6 280 15:19 06.10.2019
475 Clear 10 1019 81 16093 2.6 280 15:19 06.10.2019
476 Rain 9 1018 93 16093 3.99 309.971 14:44 06.10.2019
477 Rain 9 1018 93 16093 3.99 309.971 14:25 06.10.2019
478 Clouds 10 1017 76 16093 2.1 250 13:58 06.10.2019
479 Haze 10 1017 87 16093 3.99 309.971 13:39 06.10.2019
480 Haze 10 1017 87 16093 3.91 301.255 13:21 06.10.2019
481 Haze 10 1017 71 16093 2.6 280 12:58 06.10.2019
482 Haze 11 1016 76 16093 3.91 301.255 12:39 06.10.2019
483 Haze 11 1016 76 16093 3.91 301.255 12:39 06.10.2019
484 Haze 11 1016 76 16093 4.42 288.074 12:21 06.10.2019
485 Haze 11 1016 76 16093 3.6 310 11:58 06.10.2019
486 Haze 12 1015 87 16093 3.1 290 11:39 06.10.2019
487 Haze 12 1015 87 16093 3.1 290 11:20 06.10.2019
488 Haze 12 1015 71 16093 3.6 280 11:20 06.10.2019
489 Haze 13 1015 87 16093 3.6 290 10:45 06.10.2019
490 Haze 13 1015 87 16093 3.6 290 10:26 06.10.2019
491 Rain 14 1014 87 16093 5.7 260 09:58 06.10.2019
492 Rain 15 1015 87 16093 2.6 240 09:40 06.10.2019
493 Clouds 15 1014 82 16093 3.6 260 09:19 06.10.2019
494 Clouds 15 1014 82 16093 3.6 260 09:19 06.10.2019
495 Clouds 15 1014 87 16093 4.6 240 08:47 06.10.2019
496 Clouds 15 1014 93 16093 3.6 230 08:21 06.10.2019
497 Clouds 15 1014 93 16093 3.1 220 07:57 06.10.2019
498 Clouds 15 1014 93 16093 3.1 240 07:38 06.10.2019
499 Clouds 14 1013 87 16093 3.6 200 06:39 06.10.2019
500 Clouds 14 1013 87 16093 3.6 220 05:36 06.10.2019
501 Rain 14 1013 93 16093 2.6 170 04:29 06.10.2019
502 Rain 14 1014 93 16093 3.1 140 02:48 06.10.2019
503 Rain 14 1014 93 16093 3.6 120 02:28 06.10.2019
504 Rain 14 1013 93 16093 4.6 150 01:46 06.10.2019
505 Rain 14 1015 93 16093 4.1 150 01:27 06.10.2019
506 Rain 14 1015 93 16093 4.1 150 01:27 06.10.2019
507 Rain 14 1017 72 16093 3.1 350 00:59 06.10.2019
508 Rain 14 1017 72 16093 3.1 350 00:59 06.10.2019
509 Rain 15 1017 72 16093 1.5 350 00:31 06.10.2019
510 Rain 17 1016 72 2816 2.1 110 23:46 05.10.2019
511 Rain 17 1015 59 16093 3.12 184.991 23:24 05.10.2019
512 Clear 17 1015 59 16093 2.1 150 22:59 05.10.2019
513 Clear 17 1015 59 16093 5.7 160 22:40 05.10.2019
514 Clear 17 1015 59 16093 5.7 160 22:21 05.10.2019
515 Clear 17 1015 59 16093 5.7 160 22:21 05.10.2019
516 Clouds 18 1015 55 16093 5.7 140 21:59 05.10.2019
517 Clear 18 1016 63 16093 3.6 140 21:40 05.10.2019
518 Clear 18 1016 63 16093 3.6 140 21:21 05.10.2019
519 Clear 17 1017 63 16093 3.6 160 20:56 05.10.2019
520 Clear 17 1018 63 16093 4.1 150 20:38 05.10.2019
521 Clouds 17 1018 55 16093 6.7 170 20:19 05.10.2019
522 Clear 16 1019 63 16093 4.6 160 19:39 05.10.2019
523 Clear 16 1019 63 16093 4.6 160 19:21 05.10.2019
524 Clouds 15 1019 59 16093 6.2 150 18:57 05.10.2019
525 Clear 15 1020 67 16093 4.6 130 18:39 05.10.2019
526 Clear 15 1020 67 16093 4.6 130 18:20 05.10.2019
527 Clear 14 1020 71 16093 4.6 130 17:55 05.10.2019
528 Clear 14 1020 71 16093 4.6 130 17:55 05.10.2019
529 Clear 14 1020 76 16093 5.7 140 17:37 05.10.2019
530 Clear 13 1020 76 16093 5.7 140 17:18 05.10.2019
531 Clear 12 1021 81 16093 3.1 130 16:42 05.10.2019
532 Clear 12 1021 81 16093 3.1 130 16:22 05.10.2019
533 Clear 11 1022 87 16093 5.7 140 15:57 05.10.2019
534 Clear 10 1023 87 16093 4.6 130 15:39 05.10.2019
535 Clear 10 1023 87 16093 4.6 130 15:21 05.10.2019
536 Clear 10 1023 87 16093 4.6 130 15:21 05.10.2019
537 Clear 9 1023 87 16093 4.1 130 14:57 05.10.2019
538 Clear 9 1023 93 16093 3.29 126.96 14:38 05.10.2019
539 Clouds 9 1023 87 16093 4.6 130 14:20 05.10.2019
540 Clear 9 1024 93 16093 3.29 126.96 13:42 05.10.2019
541 Clear 9 1024 93 16093 3.15 128.822 13:22 05.10.2019
542 Clear 9 1024 93 16093 2.6 130 12:46 05.10.2019
543 Clear 9 1024 93 16093 2.1 130 12:21 05.10.2019
544 Clear 9 1024 100 16093 3.1 120 11:59 05.10.2019
545 Clear 9 1024 100 16093 2.6 120 11:37 05.10.2019
546 Clouds 9 1024 81 16093 5.1 120 11:18 05.10.2019
547 Clear 9 1025 87 16093 2.1 130 10:45 05.10.2019
548 Clear 9 1025 93 16093 3.24 131.171 10:26 05.10.2019
549 Clear 9 1025 81 16093 1.5 130 09:59 05.10.2019
550 Clouds 9 1025 71 16093 3.6 120 09:39 05.10.2019
551 Clear 9 1025 93 16093 3.96 109.491 09:20 05.10.2019
552 Clear 10 1025 87 16093 3.1 100 08:40 05.10.2019
553 Clear 10 1025 81 16093 3.66 112.884 08:20 05.10.2019
554 Clear 10 1026 71 16093 4.1 90 07:57 05.10.2019
555 Clear 10 1026 87 16093 2.6 100 07:35 05.10.2019
556 Clear 10 1027 71 16093 2.6 110 06:59 05.10.2019
557 Clear 10 1027 81 16093 3.1 110 06:28 05.10.2019
558 Clear 10 1027 81 16093 3.1 110 06:28 05.10.2019
559 Clear 11 1027 71 16093 2.6 100 05:51 05.10.2019
560 Clouds 12 1027 76 16093 3.07 76.145 04:21 05.10.2019
561 Clouds 12 1027 66 16093 2.1 40 03:28 05.10.2019
562 Clouds 12 1027 71 16093 4.1 50 01:42 05.10.2019
563 Clouds 13 1027 71 16093 6.7 50 01:20 05.10.2019
564 Haze 13 1027 67 16093 4.6 40 00:43 05.10.2019
565 Haze 13 1027 67 16093 4.6 40 00:25 05.10.2019
566 Clouds 13 1028 67 16093 5.1 40 23:44 04.10.2019
567 Clouds 13 1028 67 16093 5.1 40 23:26 04.10.2019
568 Clouds 13 1028 67 16093 5.1 40 23:26 04.10.2019
569 Clouds 14 1028 67 16093 5.1 60 22:59 04.10.2019
570 Clouds 14 1028 71 16093 4.6 40 22:39 04.10.2019
571 Clouds 14 1028 71 16093 4.6 40 22:20 04.10.2019
572 Clouds 14 1028 62 16093 5.7 40 21:57 04.10.2019
573 Clouds 14 1029 67 16093 6.2 20 21:38 04.10.2019
574 Clouds 14 1028 67 16093 5.1 50 21:19 04.10.2019
575 Clouds 14 1029 71 16093 4.1 50 20:55 04.10.2019
576 Clouds 14 1029 71 16093 4.1 40 20:36 04.10.2019
577 Clouds 14 1029 71 16093 4.1 40 20:18 04.10.2019
578 Rain 14 1029 72 16093 3.6 60 19:45 04.10.2019
579 Rain 14 1029 71 16093 3.6 80 19:27 04.10.2019
580 Clouds 14 1029 67 16093 4.1 60 18:58 04.10.2019
581 Clouds 14 1029 76 16093 8.7 30 18:38 04.10.2019
582 Clouds 13 1029 67 16093 1.5 70 18:19 04.10.2019
583 Clouds 13 1029 71 16093 3.6 80 17:55 04.10.2019
584 Clouds 13 1029 71 16093 4.1 70 17:36 04.10.2019
585 Clouds 12 1029 82 16093 3.6 350 17:18 04.10.2019
586 Rain 12 1029 87 16093 4.33 63.997 16:42 04.10.2019
587 Rain 11 1029 87 16093 4.33 63.997 16:19 04.10.2019
588 Clouds 11 1028 81 16093 5.7 350 15:59 04.10.2019
589 Clouds 10 1029 87 16093 4.6 360 15:40 04.10.2019
590 Clouds 10 1028 93 16093 2.81 348.458 15:21 04.10.2019
591 Clouds 10 1028 93 16093 2.81 348.458 15:21 04.10.2019
592 Clouds 9 1028 93 16093 2.81 348.458 14:59 04.10.2019
593 Clouds 8 1027 93 16093 2.81 348.458 14:41 04.10.2019
594 Clouds 8 1027 93 16093 2.81 348.458 14:22 04.10.2019
595 Clouds 8 1027 93 16093 2.81 348.458 13:54 04.10.2019
596 Clouds 8 1027 93 16093 4.1 340 13:36 04.10.2019
597 Clear 8 1027 93 16093 2.95 3.616 13:18 04.10.2019
598 Clouds 8 1028 81 16093 3.1 350 12:42 04.10.2019
599 Clear 8 1027 93 16093 3.16 359.148 12:24 04.10.2019
600 Clouds 8 1027 87 16093 3.1 350 11:43 04.10.2019
601 Clouds 8 1027 87 16093 3.1 350 11:43 04.10.2019
602 Clouds 8 1027 87 16093 3.1 350 11:43 04.10.2019
603 Clouds 8 1027 87 16093 3.1 350 11:43 04.10.2019
604 Clouds 8 1026 81 16093 1.5 320 11:22 04.10.2019
605 Clouds 8 1026 87 16093 2.6 340 10:57 04.10.2019
606 Clouds 8 1026 81 16093 3.16 359.148 10:38 04.10.2019
607 Clear 8 1026 87 16093 2.1 330 10:19 04.10.2019
608 Clear 8 1026 81 16093 3.16 359.148 09:43 04.10.2019
609 Clear 9 1026 81 16093 4.57 351.742 09:25 04.10.2019
610 Clear 9 1025 81 16093 2.6 330 08:46 04.10.2019
611 Clear 9 1025 81 16093 2.6 330 08:27 04.10.2019
612 Clear 9 1025 71 16093 3.6 330 07:56 04.10.2019
613 Clear 9 1025 76 16093 2.1 330 07:38 04.10.2019
614 Clear 9 1025 76 16093 2.1 330 07:19 04.10.2019
615 Clear 10 1024 71 16093 3.1 340 06:41 04.10.2019
616 Clear 10 1024 71 16093 3.1 340 06:22 04.10.2019
617 Clouds 11 1024 66 16093 2.6 340 05:23 04.10.2019
618 Clouds 11 1024 71 16093 1.5 320 04:54 04.10.2019
619 Clouds 13 1023 71 16093 4.1 310 03:42 04.10.2019
620 Clear 13 1023 71 16093 3.1 310 02:53 04.10.2019
621 Clear 13 1023 71 16093 3.1 310 02:53 04.10.2019
622 Clouds 14 1022 62 16093 4.1 320 01:54 04.10.2019
623 Clouds 14 1022 72 16093 5.72 319.19 01:54 04.10.2019
624 Clouds 14 1022 62 16093 4.1 320 01:54 04.10.2019
625 Clouds 14 1022 62 16093 4.1 320 01:54 04.10.2019
626 Clear 15 1021 77 16093 3.1 290 01:27 04.10.2019
627 Clear 16 1021 77 16093 3.6 280 00:36 04.10.2019
628 Clear 16 1020 68 16093 4.6 310 23:41 03.10.2019
629 Clear 16 1020 68 16093 4.6 310 23:22 03.10.2019
630 Clouds 16 1019 67 16093 5.7 300 22:58 03.10.2019
631 Clear 17 1019 68 16093 3.6 300 22:39 03.10.2019
632 Clear 17 1019 68 16093 3.6 300 22:39 03.10.2019
633 Clear 17 1019 68 16093 3.6 300 22:21 03.10.2019
634 Clear 17 1019 68 16093 3.6 300 22:21 03.10.2019
635 Clouds 17 1019 63 16093 6.7 290 21:59 03.10.2019
636 Clouds 17 1018 68 16093 4.6 310 21:40 03.10.2019
637 Clouds 17 1018 68 16093 4.6 310 21:20 03.10.2019
638 Clouds 18 1018 63 16093 6.7 290 20:58 03.10.2019
639 Clouds 18 1019 63 16093 8.7 300 20:40 03.10.2019
640 Clouds 18 1018 72 16093 3.1 310 20:21 03.10.2019
641 Clouds 18 1018 60 16093 8.7 290 19:57 03.10.2019
642 Clouds 18 1018 82 16093 5.1 290 19:39 03.10.2019
643 Clouds 18 1018 82 16093 5.1 290 19:20 03.10.2019
644 Clouds 18 1018 82 16093 5.1 290 19:20 03.10.2019
645 Mist 18 1017 72 16093 7.2 270 18:56 03.10.2019
646 Mist 18 1017 72 16093 7.2 270 18:38 03.10.2019
647 Mist 18 1017 72 16093 7.2 270 18:38 03.10.2019
648 Mist 17 1017 82 16093 5.1 290 18:18 03.10.2019
649 Rain 16 1017 77 16093 5.7 300 17:42 03.10.2019
650 Mist 16 1017 88 16093 5.1 300 17:23 03.10.2019
651 Clouds 16 1017 82 16093 6.2 290 16:58 03.10.2019
652 Clouds 16 1017 82 16093 5.7 290 16:39 03.10.2019
653 Clouds 15 1016 100 16093 3.1 280 16:21 03.10.2019
654 Clouds 17 1016 82 16093 5.1 290 15:45 03.10.2019
655 Clouds 16 1015 100 16093 4.6 290 15:24 03.10.2019
656 Clouds 16 1015 93 16093 4.6 290 14:59 03.10.2019
657 Drizzle 16 1014 88 12874 4.6 280 14:37 03.10.2019
658 Rain 16 1014 100 16093 4.6 260 14:19 03.10.2019
659 Rain 16 1014 100 16093 3.6 270 13:45 03.10.2019
660 Rain 16 1013 100 14484 2.6 220 13:26 03.10.2019
661 Rain 16 1013 100 11265 4.33 271.351 12:59 03.10.2019
662 Rain 16 1013 93 16093 2.1 300 12:40 03.10.2019
663 Rain 16 1013 100 11265 3.28 219.366 12:20 03.10.2019
664 Rain 16 1013 100 8047 3.28 219.366 11:58 03.10.2019
665 Rain 16 1013 100 14484 1.5 270 11:58 03.10.2019
666 Rain 16 1012 100 6437 2.1 280 11:40 03.10.2019
667 Rain 16 1013 100 11265 3.28 219.366 11:21 03.10.2019
668 Rain 16 1012 100 12874 1.5 270 10:58 03.10.2019
669 Rain 16 1012 100 12874 1.5 270 10:38 03.10.2019
670 Rain 16 1012 100 16093 3.28 219.366 10:18 03.10.2019
671 Rain 16 1013 100 11265 3.28 219.366 09:56 03.10.2019
672 Rain 16 1012 87 9656 1.5 0 09:37 03.10.2019
673 Rain 16 1012 100 11265 1.4 58.186 09:19 03.10.2019
674 Rain 16 1013 93 4828 2.1 340 08:43 03.10.2019
675 Rain 16 1013 100 8047 3.05 77.612 08:24 03.10.2019
676 Rain 16 1013 100 8047 3.05 77.612 08:24 03.10.2019
677 Rain 16 1013 100 8047 3.05 77.612 08:24 03.10.2019
678 Rain 16 1013 93 14484 2.6 330 07:45 03.10.2019
679 Rain 16 1014 100 4023 1.5 340 07:20 03.10.2019
680 Rain 16 1014 100 4023 1.5 340 07:20 03.10.2019
681 Rain 16 1013 100 1207 4.6 340 06:53 03.10.2019
682 Rain 16 1013 100 4828 3.05 77.612 06:27 03.10.2019
683 Rain 16 1013 100 6437 3.18 70.584 05:49 03.10.2019
684 Rain 16 1013 100 8047 3.18 70.584 05:27 03.10.2019
685 Rain 15 1013 100 11265 3.18 70.584 04:45 03.10.2019
686 Rain 15 1013 93 2414 2.1 360 03:55 03.10.2019
687 Rain 15 1014 100 16093 1.96 20.857 03:19 03.10.2019
688 Rain 15 1014 100 9656 2.1 340 03:19 03.10.2019
689 Rain 15 1015 100 8047 1.96 20.857 02:27 03.10.2019
690 Rain 15 1015 100 16093 3.03 39.595 01:40 03.10.2019
691 Rain 15 1015 100 16093 3.1 10 00:53 03.10.2019
692 Mist 15 1015 93 16093 3.03 39.595 00:32 03.10.2019
693 Mist 15 1015 93 6437 5.1 30 23:57 02.10.2019
694 Mist 15 1015 93 16093 3.6 10 23:37 02.10.2019
695 Mist 15 1015 93 16093 3.6 10 23:18 02.10.2019
696 Mist 16 1014 93 4828 6.7 10 22:42 02.10.2019
697 Mist 16 1014 93 16093 3.6 350 22:20 02.10.2019
698 Mist 16 1014 100 16093 2.1 350 21:55 02.10.2019
699 Mist 16 1014 100 8047 3.53 6.029 21:37 02.10.2019
700 Mist 16 1014 100 8047 3.48 11.274 21:18 02.10.2019
701 Rain 16 1014 93 9656 4.6 10 20:55 02.10.2019
702 Rain 16 1014 93 4828 7.2 10 20:55 02.10.2019
703 Rain 16 1014 93 4828 7.2 10 20:55 02.10.2019
704 Rain 16 1014 93 4828 7.2 10 20:37 02.10.2019
705 Rain 16 1014 100 8047 3.64 20.527 20:19 02.10.2019
706 Rain 16 1014 100 16093 3.64 20.527 19:44 02.10.2019
707 Rain 15 1014 100 16093 3.64 20.527 19:23 02.10.2019
708 Mist 15 1014 100 6437 2.6 350 18:58 02.10.2019
709 Mist 15 1014 93 4828 5.7 350 18:39 02.10.2019
710 Rain 15 1014 100 6437 3.1 350 18:21 02.10.2019
711 Rain 15 1013 100 11265 2.6 340 17:58 02.10.2019
712 Rain 15 1013 100 16093 2.6 350 17:38 02.10.2019
713 Rain 15 1013 100 16093 2.6 350 17:20 02.10.2019
714 Rain 15 1013 87 3219 5.1 360 16:57 02.10.2019
715 Rain 14 1012 100 8047 6.2 40 16:37 02.10.2019
716 Rain 15 1012 100 8047 6.2 40 16:18 02.10.2019
717 Rain 15 1012 100 6437 4.48 29.968 15:55 02.10.2019
718 Rain 15 1012 93 9656 4.6 20 15:36 02.10.2019
719 Rain 17 1012 93 9656 4.6 20 15:18 02.10.2019
720 Rain 18 1012 100 16093 2.4 96.912 14:43 02.10.2019
721 Rain 19 1012 93 16093 4.1 30 14:22 02.10.2019
722 Rain 19 1011 93 4828 6.7 40 13:48 02.10.2019
723 Rain 19 1011 83 16093 4.1 10 13:29 02.10.2019
724 Rain 20 1012 87 16093 4.1 30 12:59 02.10.2019
725 Rain 20 1011 94 16093 2.53 174.892 12:39 02.10.2019
726 Rain 20 1011 93 2414 5.1 30 12:21 02.10.2019
727 Rain 20 1011 88 16093 3.17 81.277 11:45 02.10.2019
728 Rain 20 1011 83 16093 2.1 140 11:23 02.10.2019
729 Rain 20 1012 88 14484 3.1 60 10:55 02.10.2019
730 Rain 21 1011 83 16093 4.1 100 10:36 02.10.2019
731 Rain 21 1011 83 16093 4.1 100 10:18 02.10.2019
732 Rain 21 1012 83 16093 3.17 81.277 09:39 02.10.2019
733 Rain 22 1012 93 16093 1.5 80 09:20 02.10.2019
734 Rain 22 1012 77 16093 6.2 20 08:55 02.10.2019
735 Rain 23 1012 65 16093 3.6 240 08:36 02.10.2019
736 Rain 23 1012 65 16093 3.6 240 08:18 02.10.2019
737 Clear 25 1012 57 16093 1.5 220 07:39 02.10.2019
738 Clouds 25 1011 61 16093 5.1 230 07:20 02.10.2019
739 Clouds 25 1011 61 16093 5.1 230 07:20 02.10.2019
740 Clear 26 1012 54 16093 3.6 230 06:46 02.10.2019
741 Clear 26 1012 58 16093 2.6 220 05:56 02.10.2019
742 Clouds 26 1012 65 16093 5.7 210 05:24 02.10.2019
743 Clear 27 1012 69 16093 5.7 220 04:53 02.10.2019
744 Clear 27 1012 83 16093 4.2 228.36 03:52 02.10.2019
745 Clear 27 1012 88 16093 3.72 237.7 02:43 02.10.2019
746 Clouds 27 1012 66 16093 4.6 220 02:24 02.10.2019
747 Clear 28 1013 83 16093 2.6 210 01:46 02.10.2019
748 Clouds 28 1013 70 16093 1.5 210 00:51 02.10.2019
749 Clouds 29 1012 58 16093 5.1 210 00:27 02.10.2019
750 Clouds 30 1013 66 16093 4.1 220 23:45 01.10.2019
751 Clouds 30 1013 58 16093 4.6 230 23:26 01.10.2019
752 Clouds 30 1014 62 16093 4.6 240 22:59 01.10.2019
753 Clouds 30 1013 58 16093 5.1 230 22:40 01.10.2019
754 Clouds 30 1013 58 16093 5.1 230 22:20 01.10.2019
755 Clouds 30 1014 62 16093 6.2 220 21:57 01.10.2019
756 Clouds 30 1014 62 16093 6.2 220 21:39 01.10.2019
757 Clouds 30 1014 58 16093 5.7 230 21:21 01.10.2019
758 Clouds 30 1014 58 16093 6.2 220 20:57 01.10.2019
759 Clouds 30 1014 58 16093 6.2 220 20:38 01.10.2019
760 Clouds 30 1014 62 16093 5.1 250 20:19 01.10.2019
761 Clear 29 1015 66 16093 5.1 240 19:56 01.10.2019
762 Clear 29 1015 66 16093 5.1 240 19:38 01.10.2019
763 Clouds 29 1014 62 16093 5.7 250 19:18 01.10.2019
764 Clear 28 1015 66 16093 5.1 230 18:40 01.10.2019
765 Clouds 27 1015 69 16093 5.1 220 18:22 01.10.2019
766 Clear 27 1015 74 16093 5.1 220 17:58 01.10.2019
767 Clouds 26 1015 74 16093 5.7 220 17:40 01.10.2019
768 Clouds 25 1015 74 16093 5.7 220 17:19 01.10.2019
769 Clear 25 1015 74 16093 4.6 220 16:57 01.10.2019
770 Clear 25 1015 74 16093 4.6 220 16:39 01.10.2019
771 Clouds 24 1014 73 16093 4.1 210 16:21 01.10.2019
772 Clouds 23 1015 88 16093 3.78 243.34 15:46 01.10.2019
773 Clouds 23 1015 78 16093 4.1 220 15:23 01.10.2019
774 Clouds 22 1015 88 16093 1.5 210 14:55 01.10.2019
775 Clouds 22 1015 83 16093 3.6 210 14:37 01.10.2019
776 Clouds 22 1015 83 16093 3.6 210 14:18 01.10.2019
777 Clouds 22 1014 78 16093 4.6 210 13:40 01.10.2019
778 Clouds 22 1014 78 16093 4.6 210 13:21 01.10.2019
779 Clear 21 1015 88 16093 3.29 225.985 12:59 01.10.2019
780 Clear 21 1015 88 16093 3.29 225.985 12:59 01.10.2019
781 Clouds 21 1014 78 16093 3.6 210 12:40 01.10.2019
782 Clouds 21 1014 78 16093 3.6 210 12:19 01.10.2019
783 Clear 22 1015 88 16093 4.8 230.769 11:58 01.10.2019
784 Clouds 22 1014 78 16093 3.6 210 11:38 01.10.2019
785 Clouds 22 1014 78 16093 3.6 210 11:19 01.10.2019
786 Clear 22 1015 88 16093 4.8 230.769 10:58 01.10.2019
787 Clear 22 1015 73 16093 1.5 210 10:40 01.10.2019
788 Clouds 22 1014 78 16093 3.6 200 10:21 01.10.2019
789 Clouds 22 1015 88 16093 4.8 230.769 09:40 01.10.2019
790 Clouds 22 1015 73 16093 2.6 210 09:21 01.10.2019
791 Clear 23 1015 65 16093 4.18 223.837 08:42 01.10.2019
792 Clouds 23 1014 73 16093 2.6 220 08:24 01.10.2019
793 Clear 23 1015 65 16093 1.5 190 07:48 01.10.2019
794 Clouds 24 1014 69 16093 2.6 210 07:25 01.10.2019
795 Clear 24 1015 61 16093 4.18 223.837 06:48 01.10.2019
796 Clouds 25 1014 65 16093 3.6 210 06:20 01.10.2019
797 Clear 25 1015 57 16093 2.1 200 05:46 01.10.2019
798 Clouds 25 1014 61 16093 4.1 200 05:18 01.10.2019
799 Clouds 26 1014 65 16093 3.1 190 04:30 01.10.2019
800 Rain 27 1014 65 16093 3.6 200 02:29 01.10.2019
801 Clear 27 1015 69 16093 5.45 217.198 01:59 01.10.2019
802 Clear 29 1015 69 16093 5.11 215.312 00:59 01.10.2019
803 Clouds 29 1014 62 16093 5.1 220 00:37 01.10.2019
804 Clouds 29 1014 62 16093 5.1 220 00:37 01.10.2019
805 Clouds 29 1014 62 16093 5.1 220 00:18 01.10.2019
806 Clear 29 1015 62 16093 4.1 220 23:41 30.09.2019
807 Clear 29 1015 62 16093 4.1 220 23:41 30.09.2019
808 Clouds 29 1014 58 16093 6.2 210 23:21 30.09.2019
809 Clear 29 1015 58 16093 4.6 220 22:43 30.09.2019
810 Clouds 30 1015 58 16093 8.2 210 22:25 30.09.2019
811 Clear 30 1016 62 16093 5.7 250 21:58 30.09.2019
812 Clear 30 1016 62 16093 5.7 250 21:38 30.09.2019
813 Clouds 29 1015 62 16093 8.2 210 21:19 30.09.2019
814 Clear 29 1016 70 16093 6.2 190 20:58 30.09.2019
815 Clouds 29 1016 62 16093 6.2 220 20:39 30.09.2019
816 Clouds 28 1016 62 16093 6.2 220 20:20 30.09.2019
817 Clear 29 1017 66 16093 5.1 200 19:57 30.09.2019
818 Clouds 28 1016 69 16093 4.6 220 19:39 30.09.2019
819 Clouds 28 1016 69 16093 4.6 220 19:19 30.09.2019
820 Clear 28 1017 69 16093 5.1 190 18:57 30.09.2019
821 Clouds 27 1017 69 16093 4.6 220 18:39 30.09.2019
822 Clouds 26 1017 69 16093 4.6 220 18:19 30.09.2019
823 Clear 26 1018 78 16093 3.6 220 17:43 30.09.2019
824 Clouds 24 1018 78 16093 3.6 210 17:23 30.09.2019
825 Clear 23 1019 83 16093 4.6 200 16:57 30.09.2019
826 Clear 23 1019 83 16093 4.6 200 16:39 30.09.2019
827 Clouds 22 1018 83 16093 4.1 210 16:19 30.09.2019
828 Clouds 22 1018 83 16093 4.1 210 16:19 30.09.2019
829 Mist 21 1019 100 16093 2.6 200 15:58 30.09.2019
830 Mist 20 1018 94 4828 2.1 170 15:38 30.09.2019
831 Mist 20 1018 100 8047 2.6 190 15:19 30.09.2019
832 Mist 19 1019 100 8047 1.71 154.018 14:57 30.09.2019
833 Mist 19 1018 100 402 2.1 180 14:37 30.09.2019
834 Mist 19 1018 100 402 2.1 180 14:19 30.09.2019
835 Rain 19 1018 100 2012 2.1 190 13:57 30.09.2019
836 Rain 19 1018 100 402 1.5 190 13:38 30.09.2019
837 Rain 19 1018 100 402 1.5 190 13:20 30.09.2019
838 Fog 19 1019 100 4828 2 151.273 12:43 30.09.2019
839 Fog 19 1018 100 402 1.5 170 12:22 30.09.2019
840 Fog 19 1018 93 4023 2.11 124.64 11:57 30.09.2019
841 Fog 19 1018 100 402 1.5 140 11:38 30.09.2019
842 Fog 19 1018 100 402 1.5 140 11:19 30.09.2019
843 Mist 18 1018 94 402 1.5 120 10:41 30.09.2019
844 Mist 18 1018 100 6437 2.11 124.64 10:20 30.09.2019
845 Mist 18 1018 100 3219 2.11 124.64 09:59 30.09.2019
846 Mist 18 1019 100 1609 2.11 124.64 09:39 30.09.2019
847 Rain 18 1019 93 6437 1.75 105.765 09:21 30.09.2019
848 Rain 18 1019 93 2816 1.5 50 08:51 30.09.2019
849 Mist 18 1019 100 6437 2.1 120 08:33 30.09.2019
850 Mist 18 1019 100 4023 2.04 105.258 07:46 30.09.2019
851 Mist 18 1020 93 1207 2.04 105.258 07:28 30.09.2019
852 Mist 18 1020 93 2816 2.04 105.258 06:57 30.09.2019
853 Mist 18 1020 93 2816 2.04 105.258 06:57 30.09.2019
854 Mist 18 1019 93 9656 2.1 90 06:34 30.09.2019
855 Mist 18 1019 100 4828 1.68 101.256 05:49 30.09.2019
856 Mist 18 1019 93 12874 2.1 90 05:24 30.09.2019
857 Rain 19 1020 88 16093 1.5 40 02:49 30.09.2019
858 Rain 19 1020 100 16093 2.1 100 01:39 30.09.2019
859 Rain 19 1019 93 16093 2.6 100 00:44 30.09.2019
860 -273 0 0 0 0 0 00:24 30.09.2019
861 Rain 19 1020 94 16093 1.93 64.285 23:57 29.09.2019
862 Rain 19 1020 94 16093 2.1 80 23:39 29.09.2019
863 Rain 19 1020 83 16093 3.1 90 23:19 29.09.2019
864 Drizzle 19 1020 94 16093 1.93 64.285 22:43 29.09.2019
865 Mist 19 1020 83 16093 3.1 110 22:25 29.09.2019
866 Mist 19 1020 88 16093 1.93 64.285 21:58 29.09.2019
867 Mist 18 1020 88 16093 1.93 64.285 21:38 29.09.2019
868 Mist 18 1020 93 16093 3.1 90 21:19 29.09.2019
869 Mist 18 1020 88 16093 3.6 130 20:58 29.09.2019
870 Mist 18 1020 88 16093 3.6 130 20:40 29.09.2019
871 Mist 18 1021 93 16093 3.6 100 20:19 29.09.2019
872 Rain 17 1021 94 16093 4.6 110 19:55 29.09.2019
873 Rain 17 1021 93 14484 6.2 90 19:36 29.09.2019
874 Rain 17 1021 93 14484 6.2 90 19:36 29.09.2019
875 Rain 17 1021 93 14484 6.2 90 19:18 29.09.2019
876 Rain 17 1021 100 16093 3.6 100 18:55 29.09.2019
877 Rain 17 1021 100 16093 3.6 100 18:54 29.09.2019
878 Rain 17 1021 93 14484 6.2 90 18:36 29.09.2019
879 Rain 17 1021 93 14484 6.2 90 18:18 29.09.2019
880 Rain 17 1021 100 16093 4.1 90 17:54 29.09.2019
881 Rain 17 1021 100 16093 4.1 90 17:54 29.09.2019
882 Rain 17 1022 93 4828 4.6 90 17:36 29.09.2019
883 Rain 17 1022 93 4828 4.6 90 17:18 29.09.2019
884 Rain 17 1022 100 8047 3.1 90 16:41 29.09.2019
885 Rain 17 1022 100 16093 5.1 90 16:20 29.09.2019
886 Rain 17 1022 93 6437 5.7 100 15:58 29.09.2019
887 Rain 17 1022 100 11265 3.6 80 15:38 29.09.2019
888 Rain 17 1022 100 12874 3.6 90 15:19 29.09.2019
889 Rain 16 1022 100 12874 5.7 80 14:58 29.09.2019
890 Rain 16 1022 100 16093 3.1 90 14:38 29.09.2019
891 Rain 16 1022 100 8047 3.6 90 14:19 29.09.2019
892 Rain 16 1022 100 16093 2.6 90 13:56 29.09.2019
893 Rain 16 1022 100 16093 3.1 80 13:37 29.09.2019
894 Rain 16 1021 93 9656 4.6 90 13:18 29.09.2019
895 Rain 16 1021 93 8047 4.6 80 12:56 29.09.2019
896 Rain 16 1021 93 6437 5.1 60 12:38 29.09.2019
897 Rain 16 1021 93 6437 5.1 60 12:20 29.09.2019
898 Rain 16 1022 93 4828 1.5 80 11:41 29.09.2019
899 Rain 16 1022 82 14484 3.6 100 11:20 29.09.2019
900 Rain 16 1022 93 16093 2.1 150 10:58 29.09.2019
901 Rain 16 1022 93 16093 2.1 150 10:39 29.09.2019
902 Rain 16 1021 88 16093 4.6 90 10:21 29.09.2019
903 Rain 16 1021 93 16093 3.6 90 09:59 29.09.2019
904 Rain 16 1022 88 16093 5.7 90 09:41 29.09.2019
905 Rain 16 1022 88 16093 5.7 90 09:19 29.09.2019
906 Clouds 16 1022 93 16093 2.6 100 08:43 29.09.2019
907 Rain 16 1022 82 16093 5.1 90 08:22 29.09.2019
908 Rain 16 1022 82 16093 4.6 80 07:45 29.09.2019
909 Rain 16 1022 87 16093 3.1 70 07:27 29.09.2019
910 Clouds 15 1023 93 16093 4.1 70 06:55 29.09.2019
911 Clouds 15 1022 82 16093 4.6 80 06:32 29.09.2019
912 Clouds 14 1023 93 16093 3.1 40 04:52 29.09.2019
913 Clouds 14 1023 77 16093 5.7 30 04:24 29.09.2019
914 Clouds 14 1023 88 16093 2.1 40 03:42 29.09.2019
915 Clouds 14 1021 82 16093 6.7 30 02:25 29.09.2019
916 Clouds 14 1021 82 16093 4.6 30 01:45 29.09.2019
917 Clouds 14 1022 82 16093 6.7 30 01:20 29.09.2019
918 Clouds 15 1022 87 16093 3.6 50 00:41 29.09.2019
919 Clouds 15 1021 87 16093 5.1 30 00:19 29.09.2019
920 Clouds 15 1022 87 16093 8.2 20 23:39 28.09.2019
921 Clouds 15 1022 87 16093 8.2 20 23:21 28.09.2019
922 Clouds 15 1021 82 16093 5.7 20 22:41 28.09.2019
923 Clouds 15 1021 87 16093 4.6 30 22:23 28.09.2019
924 Drizzle 15 1021 88 16093 3.6 20 21:59 28.09.2019
925 Drizzle 15 1021 88 16093 3.6 20 21:40 28.09.2019
926 Drizzle 15 1021 87 16093 6.2 20 21:21 28.09.2019
927 Drizzle 16 1021 93 16093 2.6 10 20:59 28.09.2019
928 Drizzle 16 1021 93 16093 2.6 10 20:40 28.09.2019
929 Drizzle 16 1022 82 16093 6.7 20 20:20 28.09.2019
930 Drizzle 16 1020 100 16093 3.6 30 19:58 28.09.2019
931 Rain 16 1020 100 16093 3.6 30 19:39 28.09.2019
932 Rain 15 1020 87 2816 5.1 10 19:21 28.09.2019
933 Mist 15 1020 87 16093 7.2 30 18:58 28.09.2019
934 Rain 15 1019 93 12874 5.7 10 18:39 28.09.2019
935 Rain 15 1019 93 12874 5.7 10 18:21 28.09.2019
936 Rain 15 1018 93 6437 6.2 10 17:56 28.09.2019
937 Rain 15 1019 93 6437 3.1 20 17:38 28.09.2019
938 Rain 15 1018 93 9656 8.7 10 17:20 28.09.2019
939 Rain 16 1018 93 2816 5.7 360 16:45 28.09.2019
940 Rain 16 1017 93 2414 4.1 360 16:27 28.09.2019
941 Rain 16 1017 100 4828 6.2 10 15:42 28.09.2019
942 Rain 16 1016 93 6437 3.1 10 15:24 28.09.2019
943 Rain 16 1016 93 6437 5.7 20 14:58 28.09.2019
944 Rain 16 1015 93 8047 6.2 30 14:40 28.09.2019
945 Rain 17 1015 93 8047 6.2 30 14:21 28.09.2019
946 Rain 17 1015 100 8047 3.1 10 13:58 28.09.2019
947 Rain 17 1015 100 16093 3.06 19.111 13:40 28.09.2019
948 Rain 17 1015 100 4828 3.1 50 13:20 28.09.2019
949 Rain 17 1015 100 16093 2.6 230 12:46 28.09.2019
950 Rain 17 1014 93 6437 2.1 40 12:21 28.09.2019
951 Rain 17 1010 100 11265 6.2 250 11:59 28.09.2019
952 Rain 17 1010 100 11265 6.2 250 11:40 28.09.2019
953 Rain 17 1010 93 11265 5.7 20 11:19 28.09.2019
954 Rain 17 1010 100 16093 4.6 170 10:44 28.09.2019
955 Rain 17 1010 100 11265 3.6 250 10:21 28.09.2019
956 Rain 18 1012 93 6437 2.6 40 09:58 28.09.2019
957 Rain 18 1012 93 6437 2.6 40 09:58 28.09.2019
958 Rain 18 1011 100 11265 2.1 170 09:40 28.09.2019
959 Rain 18 1011 94 9656 4.1 210 09:18 28.09.2019
960 Rain 18 1011 93 12874 3.1 40 08:47 28.09.2019
961 Rain 19 1011 93 14484 2.6 200 08:29 28.09.2019
962 Rain 19 1009 93 6437 3.1 280 07:46 28.09.2019
963 Rain 19 1010 100 11265 2.1 230 07:24 28.09.2019
964 Rain 19 1009 93 4828 3.1 290 06:59 28.09.2019
965 Rain 19 1008 93 9656 2.1 310 06:33 28.09.2019
966 Rain 19 1007 93 9656 6.7 220 05:59 28.09.2019
967 Rain 19 1009 88 16093 2.1 250 05:24 28.09.2019
968 Rain 19 1007 93 9656 2.6 0 04:44 28.09.2019
969 Rain 19 1008 88 16093 2.6 230 04:21 28.09.2019
970 Rain 19 1011 100 4828 3.6 320 03:33 28.09.2019
971 Rain 20 1007 100 11265 5.1 170 02:57 28.09.2019
972 Rain 20 1006 88 16093 2.6 230 02:36 28.09.2019
973 Rain 19 1006 100 12874 2.1 190 01:56 28.09.2019
974 Rain 19 1006 100 12874 2.1 190 01:56 28.09.2019
975 Rain 19 1006 93 9656 3.6 210 01:38 28.09.2019
976 Rain 19 1006 93 9656 3.6 210 01:18 28.09.2019
977 Rain 19 1006 88 8047 7.7 220 00:43 28.09.2019
978 Rain 19 1005 88 16093 4.1 200 00:25 28.09.2019
979 Rain 19 1005 88 16093 6.7 190 23:38 27.09.2019
980 Rain 19 1005 88 16093 6.7 190 23:20 27.09.2019
981 Rain 19 1005 93 16093 6.2 200 22:47 27.09.2019
982 Rain 19 1005 93 16093 6.2 200 22:47 27.09.2019
983 Rain 18 1006 88 12874 5.1 210 22:21 27.09.2019
984 Rain 18 1005 93 12874 6.7 190 21:59 27.09.2019
985 Rain 18 1007 88 16093 6.2 190 21:39 27.09.2019
986 Rain 17 1007 88 16093 6.2 190 21:20 27.09.2019
987 Rain 17 1006 93 16093 5.7 180 20:58 27.09.2019
988 Rain 17 1006 93 16093 5.7 180 20:58 27.09.2019
989 Rain 16 1011 100 6437 2.6 160 20:40 27.09.2019
990 Rain 16 1011 100 6437 2.6 160 20:40 27.09.2019
991 Rain 16 1005 93 14484 7.7 180 20:19 27.09.2019
992 Rain 16 1005 93 14484 7.7 180 20:19 27.09.2019
993 Rain 16 1009 87 8047 3.1 130 19:57 27.09.2019
994 Rain 15 1011 82 6437 3.1 300 19:38 27.09.2019
995 Rain 15 1011 82 6437 3.1 300 19:38 27.09.2019
996 Rain 15 1011 82 6437 3.1 300 19:19 27.09.2019
997 Rain 17 1011 87 4023 6.74 207.173 18:41 27.09.2019
998 Rain 17 1011 87 4023 6.74 207.173 18:41 27.09.2019
999 Rain 17 1009 52 16093 5.1 220 18:23 27.09.2019
1000 Rain 18 1009 52 16093 4.6 210 17:56 27.09.2019
1001 Rain 18 1009 52 16093 4.6 210 17:56 27.09.2019
1002 Thunderstorm 18 1009 48 16093 5.7 200 17:37 27.09.2019
1003 Thunderstorm 19 1009 48 16093 5.7 200 17:19 27.09.2019
1004 Clouds 19 1009 52 16093 7.2 180 16:57 27.09.2019
1005 Clouds 19 1008 52 16093 4.1 200 16:37 27.09.2019
1006 Clouds 19 1008 45 16093 9.3 190 16:18 27.09.2019
1007 Clouds 19 1008 45 16093 9.3 190 16:18 27.09.2019
1008 Clouds 19 1008 45 16093 9.3 190 16:18 27.09.2019
1009 Clouds 18 1010 52 16093 6.7 180 15:45 27.09.2019
1010 Clouds 18 1010 52 16093 6.7 180 15:45 27.09.2019
1011 Clouds 17 1009 48 16093 6.2 180 15:21 27.09.2019
1012 Clouds 17 1009 48 16093 6.2 180 15:21 27.09.2019
1013 Clouds 17 1011 59 16093 6.2 180 14:58 27.09.2019
1014 Clouds 17 1011 59 16093 6.2 180 14:39 27.09.2019
1015 Clouds 17 1010 48 16093 6.2 190 14:21 27.09.2019
1016 Clouds 17 1011 62 16093 5.7 180 13:57 27.09.2019
1017 Clouds 16 1011 62 16093 5.7 180 13:39 27.09.2019
1018 Clouds 16 1011 45 16093 5.7 180 13:20 27.09.2019
1019 Rain 16 1012 62 16093 4.1 180 12:52 27.09.2019
1020 Rain 16 1011 48 16093 3.1 200 12:23 27.09.2019
1021 Clouds 16 1011 62 16093 3.6 180 11:57 27.09.2019
1022 Clouds 16 1012 48 16093 2.6 160 11:38 27.09.2019
1023 Clouds 16 1011 48 16093 3.1 200 11:19 27.09.2019
1024 Clouds 16 1012 54 16093 2.6 170 10:43 27.09.2019
1025 Clouds 15 1011 51 16093 4.1 180 10:21 27.09.2019
1026 Clouds 15 1012 76 16093 3.6 170 09:56 27.09.2019
1027 Clouds 15 1013 55 16093 2.6 180 09:38 27.09.2019
1028 Clouds 14 1013 55 16093 2.6 180 09:18 27.09.2019
1029 Clear 14 1014 58 16093 2.1 170 08:41 27.09.2019
1030 Clear 14 1013 55 16093 3.1 190 08:21 27.09.2019
1031 Clear 14 1014 71 16093 1.5 170 07:50 27.09.2019
1032 Clouds 15 1013 51 16093 2.6 190 07:29 27.09.2019
1033 Clear 15 1014 76 16093 1.5 180 06:49 27.09.2019
1034 Clouds 15 1014 51 16093 2.6 180 06:31 27.09.2019
1035 Clear 15 1014 58 16093 2.1 160 05:54 27.09.2019
1036 Clouds 15 1014 48 16093 2.6 180 05:34 27.09.2019
1037 Clear 15 1014 71 16093 1.67 183.914 04:52 27.09.2019
1038 Clouds 15 1013 45 16093 2.1 160 03:38 27.09.2019
1039 Clear 19 1014 45 16093 2.6 240 01:55 27.09.2019
1040 Clouds 20 1013 33 16093 4.1 270 01:30 27.09.2019
1041 Clouds 20 1013 33 16093 4.1 270 01:30 27.09.2019
1042 Clear 21 1014 40 16093 2.6 250 00:41 27.09.2019
1043 Clear 22 1014 37 16093 2.1 300 23:57 26.09.2019
1044 Clear 22 1014 35 16093 3.6 250 23:39 26.09.2019
1045 Clouds 22 1014 33 16093 4.6 280 23:19 26.09.2019
1046 Clouds 22 1014 33 16093 4.6 280 23:19 26.09.2019
1047 Clear 22 1015 37 16093 3.6 260 22:58 26.09.2019
1048 Clear 22 1015 37 16093 3.6 260 22:39 26.09.2019
1049 Clouds 22 1014 33 16093 4.6 320 22:18 26.09.2019
1050 Clear 22 1015 37 16093 3.6 260 21:58 26.09.2019
1051 Clear 22 1014 38 16093 1.5 290 21:38 26.09.2019
1052 Clouds 22 1015 33 16093 6.2 300 21:19 26.09.2019
1053 Clear 22 1015 40 16093 5.1 350 20:58 26.09.2019
1054 Clear 21 1015 40 16093 5.1 350 20:39 26.09.2019
1055 Clouds 21 1015 33 16093 5.7 300 20:21 26.09.2019
1056 Clear 21 1016 40 16093 3.1 290 19:56 26.09.2019
1057 Clouds 21 1016 35 16093 4.6 300 19:38 26.09.2019
1058 Clouds 20 1016 35 16093 4.6 300 19:18 26.09.2019
1059 Clear 20 1016 45 16093 3.6 300 18:43 26.09.2019
1060 Clouds 19 1015 42 16093 5.7 290 18:22 26.09.2019
1061 Clear 19 1016 48 16093 3.1 270 17:59 26.09.2019
1062 Clear 19 1016 48 16093 3.1 270 17:59 26.09.2019
1063 Clouds 18 1015 48 16093 5.1 330 17:38 26.09.2019
1064 Clouds 18 1015 48 16093 5.1 330 17:19 26.09.2019
1065 Clear 17 1016 63 16093 2.1 280 16:56 26.09.2019
1066 Clouds 17 1015 63 16093 4.6 310 16:37 26.09.2019
1067 Clouds 16 1015 63 16093 4.6 310 16:37 26.09.2019
1068 Clouds 16 1015 63 16093 4.6 310 16:19 26.09.2019
1069 Clear 15 1015 67 16093 3.1 310 15:55 26.09.2019
1070 Clouds 14 1014 67 16093 3.6 300 15:36 26.09.2019
1071 Clouds 14 1014 67 16093 3.6 300 15:18 26.09.2019
1072 Clear 13 1015 82 16093 3.72 317.048 14:41 26.09.2019
1073 Clouds 13 1014 67 16093 3.6 290 14:22 26.09.2019
1074 Clear 13 1014 71 16093 2.1 300 13:58 26.09.2019
1075 Clouds 13 1013 62 16093 5.1 320 13:39 26.09.2019
1076 Clouds 13 1013 62 16093 5.1 320 13:19 26.09.2019
1077 Clear 14 1013 71 16093 2.6 310 12:55 26.09.2019
1078 Clear 14 1013 71 16093 2.6 310 12:55 26.09.2019
1079 Clear 14 1013 71 16093 2.6 310 12:55 26.09.2019
1080 Clear 14 1012 59 16093 4.6 310 12:36 26.09.2019
1081 Clear 14 1012 59 16093 4.6 310 12:18 26.09.2019
1082 Clouds 15 1012 55 16093 3.1 300 11:41 26.09.2019
1083 Clouds 16 1012 55 16093 3.1 300 11:19 26.09.2019
1084 Clear 16 1012 55 16093 3.1 270 10:43 26.09.2019
1085 -273 0 0 0 0 0 10:24 26.09.2019
1086 Rain 17 1011 63 16093 2.6 290 09:59 26.09.2019
1087 Rain 17 1011 59 16093 5.1 300 09:41 26.09.2019
1088 Rain 17 1011 59 16093 5.1 300 09:20 26.09.2019
1089 Rain 18 1012 68 16093 2.6 290 08:53 26.09.2019
1090 Rain 18 1011 59 16093 4.1 300 08:32 26.09.2019
1091 Clear 18 1011 59 16093 2.1 300 07:57 26.09.2019
1092 Clouds 18 1011 68 16093 2.6 280 07:38 26.09.2019
1093 Clouds 18 1011 45 16093 3.6 280 07:18 26.09.2019
1094 Clouds 19 1011 45 16093 4.1 280 06:42 26.09.2019
1095 Clouds 19 1011 52 16093 4.1 300 06:23 26.09.2019
1096 Clouds 19 1010 46 16093 6.2 300 05:36 26.09.2019
1097 Clouds 20 1011 52 16093 3.1 290 04:56 26.09.2019
1098 Clouds 22 1008 40 16093 3.6 280 02:34 26.09.2019
1099 Clear 23 1008 56 16093 2.6 270 01:48 26.09.2019
1100 Clouds 24 1008 41 16093 6.2 270 01:26 26.09.2019
1101 Clouds 25 1008 57 16093 5.1 270 00:46 26.09.2019
1102 Clouds 25 1007 44 16093 5.1 270 00:28 26.09.2019
1103 Clouds 25 1007 50 16093 6.2 260 23:44 25.09.2019
1104 Clouds 26 1006 44 16093 5.1 280 23:25 25.09.2019
1105 Clouds 26 1007 57 16093 4.6 240 22:56 25.09.2019
1106 Clouds 26 1006 50 16093 6.2 240 22:37 25.09.2019
1107 Clouds 26 1006 50 16093 6.2 240 22:19 25.09.2019
1108 Clear 26 1007 61 16093 5.1 260 21:56 25.09.2019
1109 Clouds 26 1007 54 16093 7.7 240 21:37 25.09.2019
1110 Clouds 25 1007 54 16093 7.7 240 21:18 25.09.2019
1111 Clear 25 1008 69 16093 5.1 250 20:56 25.09.2019
1112 Clouds 25 1007 73 16093 5.7 220 20:37 25.09.2019
1113 Clouds 25 1007 73 16093 5.7 220 20:19 25.09.2019
1114 Clouds 23 1008 78 16093 5.7 270 19:41 25.09.2019
1115 Clouds 23 1007 73 16093 7.7 250 19:21 25.09.2019
1116 Clear 21 1007 69 16093 5.1 230 18:57 25.09.2019
1117 Clouds 21 1008 82 16093 5.1 240 18:57 25.09.2019
1118 Clouds 21 1007 77 16093 7.7 240 18:38 25.09.2019
1119 Clouds 20 1007 77 16093 7.7 240 18:20 25.09.2019
1120 Clouds 20 1008 82 16093 6.2 250 17:55 25.09.2019
1121 Clouds 19 1007 77 16093 6.2 240 17:36 25.09.2019
1122 Clouds 19 1007 77 16093 6.2 240 17:18 25.09.2019
1123 Clouds 19 1008 88 16093 5.7 230 16:42 25.09.2019
1124 Clouds 18 1007 77 16093 6.2 240 16:24 25.09.2019
1125 Clouds 18 1007 72 16093 5.1 230 15:57 25.09.2019
1126 Clouds 18 1007 68 16093 6.7 240 15:39 25.09.2019
1127 Clouds 18 1007 68 16093 6.7 240 15:20 25.09.2019
1128 Rain 18 1007 77 16093 7.2 230 14:43 25.09.2019
1129 Clouds 18 1007 68 16093 6.2 260 14:25 25.09.2019
1130 Drizzle 18 1006 77 16093 2.6 250 13:58 25.09.2019
1131 Rain 18 1006 77 16093 2.6 250 13:40 25.09.2019
1132 Rain 18 1006 68 16093 6.2 210 13:20 25.09.2019
1133 Rain 18 1008 82 16093 5.1 220 12:57 25.09.2019
1134 Rain 18 1007 68 16093 5.7 210 12:37 25.09.2019
1135 Clouds 18 1007 68 16093 5.7 210 12:19 25.09.2019
1136 Clouds 19 1006 63 16093 8.2 210 11:41 25.09.2019
1137 Clouds 19 1006 63 16093 8.2 210 11:20 25.09.2019
1138 Clouds 19 1008 59 16093 3.1 210 10:48 25.09.2019
1139 Rain 19 1008 68 16093 5.7 220 10:27 25.09.2019
1140 Clouds 19 1009 63 16093 3.1 190 09:59 25.09.2019
1141 Clouds 19 1009 63 16093 3.1 190 09:41 25.09.2019
1142 Clouds 19 1008 68 16093 4.1 210 09:23 25.09.2019
1143 Clear 18 1010 63 16093 2.1 190 08:59 25.09.2019
1144 Clear 18 1010 63 16093 2.1 190 08:40 25.09.2019
1145 Clouds 18 1009 72 16093 5.1 210 08:20 25.09.2019
1146 Clear 19 1010 68 16093 2.6 200 07:41 25.09.2019
1147 Clouds 19 1009 60 16093 7.7 220 07:23 25.09.2019
1148 Clear 19 1009 56 16093 2.1 200 06:56 25.09.2019
1149 Clouds 19 1008 60 16093 6.2 210 06:36 25.09.2019
1150 Clear 20 1009 52 16093 4.1 200 05:47 25.09.2019
1151 Clouds 20 1008 60 16093 6.7 200 05:20 25.09.2019
1152 Clouds 21 1010 56 16093 5.7 210 03:21 25.09.2019
1153 Clear 24 1012 64 16093 1.5 230 01:39 25.09.2019
1154 Clear 25 1012 57 16093 5.1 210 00:41 25.09.2019
1155 Clouds 25 1011 47 16093 7.7 220 00:23 25.09.2019
1156 Clear 26 1012 53 16093 6.2 220 23:44 24.09.2019
1157 Clouds 26 1012 47 16093 7.7 220 23:22 24.09.2019
1158 Clear 26 1013 50 16093 6.7 230 22:58 24.09.2019
1159 Clear 26 1013 50 16093 6.7 230 22:38 24.09.2019
1160 Clouds 26 1012 47 16093 6.7 230 22:19 24.09.2019
1161 Clouds 26 1012 47 16093 6.7 230 22:19 24.09.2019
1162 Clear 26 1013 53 16093 6.2 230 21:55 24.09.2019
1163 Clouds 26 1013 47 16093 7.2 230 21:37 24.09.2019
1164 Clouds 26 1013 47 16093 7.2 230 21:18 24.09.2019
1165 Clouds 26 1013 47 16093 7.2 230 21:18 24.09.2019
1166 Clear 25 1014 57 16093 6.2 240 20:56 24.09.2019
1167 Clouds 25 1014 53 16093 7.7 240 20:38 24.09.2019
1168 Clouds 25 1014 53 16093 7.7 240 20:19 24.09.2019
1169 Clear 24 1015 57 16093 6.2 220 19:43 24.09.2019
1170 Clouds 24 1015 53 16093 7.2 230 19:20 24.09.2019
1171 Clear 23 1016 64 16093 4.1 210 18:58 24.09.2019
1172 Clouds 23 1015 60 16093 6.2 230 18:39 24.09.2019
1173 Clouds 22 1015 60 16093 6.2 230 18:20 24.09.2019
1174 Clouds 22 1015 60 16093 6.2 230 18:20 24.09.2019
1175 Clear 21 1016 64 16093 6.7 220 17:57 24.09.2019
1176 Clouds 21 1016 64 16093 5.1 220 17:38 24.09.2019
1177 Clouds 21 1016 64 16093 5.1 220 17:19 24.09.2019
1178 Clouds 19 1016 77 16093 4.5 218.912 16:42 24.09.2019
1179 Clouds 19 1016 68 16093 3.6 200 16:21 24.09.2019
1180 Clouds 17 1016 82 16093 2.1 210 15:59 24.09.2019
1181 Clouds 17 1016 77 16093 2.6 210 15:41 24.09.2019
1182 Clouds 16 1016 77 16093 2.6 210 15:22 24.09.2019
1183 Clouds 15 1017 93 16093 2.52 221.494 14:40 24.09.2019
1184 Clouds 14 1016 82 16093 2.6 200 14:19 24.09.2019
1185 Clouds 13 1016 93 16093 2.52 221.494 13:45 24.09.2019
1186 Clouds 13 1016 82 16093 2.1 220 13:24 24.09.2019
1187 Clear 13 1017 100 16093 2.24 222.029 12:59 24.09.2019
1188 Mist 13 1016 100 16093 2.24 222.029 12:39 24.09.2019
1189 Mist 13 1017 100 16093 2.34 249.963 12:18 24.09.2019
1190 Mist 13 1017 100 16093 2.34 249.963 12:18 24.09.2019
1191 Mist 13 1017 100 16093 2.34 249.963 11:42 24.09.2019
1192 Clear 13 1016 82 16093 1.5 220 11:21 24.09.2019
1193 Clear 13 1017 93 16093 2.34 249.963 10:56 24.09.2019
1194 Mist 13 1017 93 16093 2.34 249.963 10:36 24.09.2019
1195 Mist 13 1016 82 16093 3.1 240 10:18 24.09.2019
1196 Mist 13 1017 100 16093 2.34 249.963 09:45 24.09.2019
1197 Mist 13 1017 87 16093 2.34 249.963 09:27 24.09.2019
1198 Mist 13 1017 93 16093 2.09 273.017 08:57 24.09.2019
1199 Mist 14 1017 93 16093 2.56 260.361 08:38 24.09.2019
1200 Mist 14 1016 77 16093 2.6 230 08:19 24.09.2019
1201 Mist 14 1016 77 16093 2.6 230 08:19 24.09.2019
1202 Mist 14 1017 93 16093 2.56 260.361 07:47 24.09.2019
1203 Clear 14 1017 77 16093 2.6 240 07:25 24.09.2019
1204 Mist 14 1017 93 16093 2.56 260.361 06:56 24.09.2019
1205 Clear 14 1017 72 16093 2.6 240 06:32 24.09.2019
1206 Clear 15 1017 87 16093 3.23 275.103 05:51 24.09.2019
1207 Clear 16 1017 68 16093 2.1 250 05:20 24.09.2019
1208 Clouds 17 1016 56 16093 3.1 260 03:44 24.09.2019
1209 Clear 19 1017 63 16093 2.1 270 02:48 24.09.2019
1210 Clouds 19 1016 49 16093 2.6 260 02:30 24.09.2019
1211 Clouds 23 1016 49 16093 2.6 280 00:44 24.09.2019
1212 Clouds 23 1016 40 16093 5.7 310 00:26 24.09.2019
1213 Clouds 23 1016 46 16093 4.6 290 23:58 23.09.2019
1214 Clouds 23 1016 43 16093 7.2 270 23:40 23.09.2019
1215 Clouds 23 1016 43 16093 7.2 270 23:20 23.09.2019
1216 Clouds 23 1017 49 16093 3.6 300 22:39 23.09.2019
1217 Clouds 23 1016 40 16093 7.7 300 22:21 23.09.2019
1218 Clouds 23 1017 46 16093 4.6 280 21:58 23.09.2019
1219 Clouds 23 1017 43 16093 6.7 290 21:40 23.09.2019
1220 Clouds 22 1017 43 16093 6.7 290 21:19 23.09.2019
1221 Clouds 22 1017 53 16093 6.2 280 20:55 23.09.2019
1222 Clouds 22 1017 49 16093 6.7 290 20:36 23.09.2019
1223 Clouds 22 1017 49 16093 6.7 290 20:18 23.09.2019
1224 Clouds 22 1017 49 16093 6.7 290 20:18 23.09.2019
1225 Clouds 21 1017 52 16093 5.7 320 19:39 23.09.2019
1226 Clouds 21 1017 52 16093 5.7 320 19:21 23.09.2019
1227 Clear 20 1017 60 16093 2.1 270 18:57 23.09.2019
1228 Clouds 20 1017 60 16093 4.1 310 18:38 23.09.2019
1229 Clouds 20 1017 60 16093 4.1 310 18:18 23.09.2019
1230 Clear 19 1017 63 16093 1.5 310 17:56 23.09.2019
1231 Clouds 18 1017 68 16093 5.1 320 17:37 23.09.2019
1232 Clouds 18 1017 68 16093 5.1 320 17:18 23.09.2019
1233 Clouds 17 1016 72 16093 5.1 320 16:41 23.09.2019
1234 Clouds 16 1016 72 16093 5.1 320 16:22 23.09.2019
1235 Clouds 16 1016 82 16093 3.1 300 15:59 23.09.2019
1236 Rain 15 1017 82 16093 1.5 310 15:41 23.09.2019
1237 Rain 15 1016 77 16093 5.1 310 15:20 23.09.2019
1238 Rain 15 1016 77 16093 5.1 310 15:20 23.09.2019
1239 Rain 15 1016 88 16093 4.1 300 14:59 23.09.2019
1240 Clouds 15 1016 88 16093 4.1 300 14:39 23.09.2019
1241 Clouds 15 1015 82 16093 4.1 310 14:19 23.09.2019
1242 Clouds 15 1014 88 16093 5.1 310 13:58 23.09.2019
1243 Clouds 16 1015 82 16093 3.1 300 13:37 23.09.2019
1244 Clouds 16 1014 88 16093 4.6 310 13:18 23.09.2019
1245 Clouds 17 1014 93 16093 2.6 300 12:41 23.09.2019
1246 Clouds 17 1013 93 16093 5.7 300 12:22 23.09.2019
1247 -273 0 0 0 0 0 11:55 23.09.2019
1248 Clouds 17 1012 93 16093 2.6 300 11:37 23.09.2019
1249 Clouds 18 1012 93 16093 2.6 300 11:19 23.09.2019
1250 Clouds 18 1012 93 16093 3.1 280 10:48 23.09.2019
1251 Clouds 18 1012 88 16093 2.1 280 10:21 23.09.2019
1252 -273 0 0 0 0 0 09:55 23.09.2019
1253 Clouds 18 1012 93 16093 3.1 330 09:37 23.09.2019
1254 Clouds 18 1012 93 16093 3.1 330 09:19 23.09.2019
1255 Clouds 19 1012 94 16093 2.1 250 08:42 23.09.2019
1256 Clouds 19 1011 88 16093 4.1 290 08:22 23.09.2019
1257 Clouds 19 1012 100 16093 3.99 310.326 07:47 23.09.2019
1258 Clouds 19 1011 93 16093 3.1 250 07:24 23.09.2019
1259 Rain 19 1011 93 16093 2.6 240 06:21 23.09.2019
1260 Rain 19 1012 100 16093 4.6 260 05:46 23.09.2019
1261 Rain 20 1011 94 16093 3.1 270 05:19 23.09.2019
1262 Rain 20 1011 94 16093 4.1 290 04:54 23.09.2019
1263 Rain 21 1009 88 6437 3.6 260 02:36 23.09.2019
1264 Rain 21 1009 88 6437 3.6 260 02:36 23.09.2019
1265 Rain 21 1010 100 16093 5.34 217.295 00:42 23.09.2019
1266 Rain 21 1010 94 4828 4.6 200 00:22 23.09.2019
1267 Rain 21 1010 94 16093 6.2 200 23:50 22.09.2019
1268 Rain 21 1011 94 8047 4.6 210 23:32 22.09.2019
1269 Rain 22 1011 94 8047 3.6 210 22:57 22.09.2019
1270 Rain 22 1012 94 11265 5.7 230 22:38 22.09.2019
1271 Rain 22 1011 83 16093 5.1 220 22:20 22.09.2019
1272 Rain 22 1013 88 11265 4.1 220 21:43 22.09.2019
1273 Rain 22 1013 88 11265 4.1 220 21:43 22.09.2019
1274 Rain 22 1011 88 8047 3.6 210 21:22 22.09.2019
1275 Rain 23 1012 78 6437 4.6 220 20:55 22.09.2019
1276 Rain 23 1012 73 16093 5.1 220 20:36 22.09.2019
1277 Rain 23 1012 73 16093 5.1 220 20:18 22.09.2019
1278 Clouds 24 1013 65 16093 8.2 220 19:41 22.09.2019
1279 Clouds 24 1012 61 16093 8.7 210 19:23 22.09.2019
1280 Clouds 24 1012 61 16093 8.2 220 18:59 22.09.2019
1281 Clouds 24 1013 61 16093 6.7 210 18:39 22.09.2019
1282 Clouds 24 1013 61 16093 6.7 210 18:20 22.09.2019
1283 Clouds 24 1014 69 16093 5.7 190 17:58 22.09.2019
1284 Clouds 23 1013 69 16093 6.7 210 17:40 22.09.2019
1285 Clouds 23 1013 69 16093 6.7 210 17:19 22.09.2019
1286 Clouds 22 1014 78 16093 5.1 200 16:44 22.09.2019
1287 Clouds 22 1013 78 16093 5.7 200 16:26 22.09.2019
1288 Rain 22 1015 83 16093 4.6 200 15:56 22.09.2019
1289 Rain 21 1014 83 16093 3.6 190 15:37 22.09.2019
1290 Rain 21 1014 83 16093 3.6 190 15:19 22.09.2019
1291 Rain 21 1015 94 16093 5.95 214.219 14:43 22.09.2019
1292 Rain 21 1014 83 16093 4.6 200 14:25 22.09.2019
1293 Rain 21 1014 83 16093 4.6 200 14:25 22.09.2019
1294 Rain 21 1015 94 16093 4.1 160 13:55 22.09.2019
1295 Rain 21 1014 88 16093 3.1 180 13:37 22.09.2019
1296 Rain 21 1014 88 16093 3.1 180 13:19 22.09.2019
1297 Rain 21 1015 100 11265 4.1 160 12:43 22.09.2019
1298 Rain 21 1015 94 16093 4.1 190 12:24 22.09.2019
1299 Rain 21 1014 94 8047 4.6 180 11:56 22.09.2019
1300 Rain 21 1015 94 16093 6.2 200 11:38 22.09.2019
1301 Rain 21 1015 94 16093 6.2 200 11:38 22.09.2019
1302 Rain 21 1015 94 16093 6.2 200 11:38 22.09.2019
1303 Rain 21 1015 94 16093 6.2 200 11:19 22.09.2019
1304 Rain 21 1015 94 16093 6.2 200 11:19 22.09.2019
1305 Rain 21 1016 94 16093 2.1 210 10:44 22.09.2019
1306 Rain 21 1015 94 16093 4.6 200 10:20 22.09.2019
1307 Rain 21 1017 88 16093 3.6 210 09:57 22.09.2019
1308 Rain 21 1016 94 16093 3.6 180 09:38 22.09.2019
1309 Rain 21 1016 94 16093 3.6 180 09:19 22.09.2019
1310 Rain 21 1016 94 14484 3.6 190 08:45 22.09.2019
1311 Rain 21 1016 94 8047 3.6 230 08:24 22.09.2019
1312 Rain 21 1016 88 8047 6.7 200 07:54 22.09.2019
1313 Rain 21 1016 88 16093 4.6 200 07:36 22.09.2019
1314 Rain 21 1017 100 16093 2.1 190 07:18 22.09.2019
1315 Rain 21 1017 100 16093 2.1 190 07:18 22.09.2019
1316 Rain 21 1017 100 16093 2.6 200 06:46 22.09.2019
1317 Rain 22 1016 94 16093 5.1 210 05:23 22.09.2019
1318 Rain 22 1017 88 12874 5.7 200 03:31 22.09.2019
1319 Rain 23 1017 83 16093 4.1 200 02:37 22.09.2019
1320 Rain 23 1017 83 16093 4.1 200 02:18 22.09.2019
1321 Rain 23 1017 94 16093 4.1 180 00:58 22.09.2019
1322 Rain 23 1017 83 16093 5.1 190 00:33 22.09.2019
1323 Rain 23 1018 88 16093 5.1 180 23:57 21.09.2019
1324 Rain 23 1017 88 9656 3.6 160 23:39 21.09.2019
1325 Rain 23 1018 88 16093 4.6 190 22:59 21.09.2019
1326 Rain 24 1017 78 11265 7.2 190 22:38 21.09.2019
1327 Rain 24 1017 78 11265 7.2 190 22:20 21.09.2019
1328 Rain 24 1017 78 11265 7.2 190 22:20 21.09.2019
1329 Rain 24 1019 83 16093 8.2 200 21:42 21.09.2019
1330 Clouds 25 1018 69 16093 7.7 210 21:20 21.09.2019
1331 Thunderstorm 25 1020 74 16093 7.2 210 20:58 21.09.2019
1332 Clouds 25 1018 65 16093 7.7 220 20:38 21.09.2019
1333 Clouds 25 1018 65 16093 7.7 220 20:38 21.09.2019
1334 Clouds 25 1018 65 16093 7.7 220 20:19 21.09.2019
1335 Rain 25 1020 74 16093 9.3 220 19:46 21.09.2019
1336 Rain 25 1018 69 16093 7.7 210 19:23 21.09.2019
1337 Rain 25 1020 74 16093 7.2 220 18:42 21.09.2019
1338 Rain 24 1019 74 16093 8.2 200 18:22 21.09.2019
1339 Rain 24 1020 83 16093 5.1 210 17:56 21.09.2019
1340 Rain 23 1020 83 14484 5.7 220 17:38 21.09.2019
1341 Rain 23 1020 83 14484 5.7 220 17:19 21.09.2019
1342 Rain 23 1020 78 16093 7.7 210 16:42 21.09.2019
1343 Rain 23 1020 83 16093 5.7 210 16:42 21.09.2019
1344 Rain 23 1020 78 16093 7.7 210 16:24 21.09.2019
1345 Rain 23 1021 88 16093 4.1 200 15:45 21.09.2019
1346 Clouds 23 1019 83 16093 3.6 200 15:25 21.09.2019
1347 Rain 22 1021 94 16093 2.6 190 14:50 21.09.2019
1348 Rain 22 1020 78 16093 3.6 200 14:32 21.09.2019
1349 Clear 22 1021 94 16093 4.2 199.773 13:57 21.09.2019
1350 Clouds 21 1019 83 16093 2.6 180 13:39 21.09.2019
1351 Clouds 22 1019 83 16093 2.6 180 13:20 21.09.2019
1352 Mist 21 1020 94 16093 3.79 195.735 12:55 21.09.2019
1353 Mist 21 1019 83 16093 3.1 180 12:37 21.09.2019
1354 Mist 21 1019 83 16093 3.1 180 12:19 21.09.2019
1355 Mist 21 1019 83 16093 3.1 180 12:19 21.09.2019
1356 Clear 21 1020 100 11265 3.71 199.631 11:43 21.09.2019
1357 Clear 22 1019 83 16093 3.6 210 11:24 21.09.2019
1358 Clear 22 1019 83 16093 3.6 210 11:24 21.09.2019
1359 Clear 22 1019 83 16093 3.6 210 11:24 21.09.2019
1360 Clear 22 1020 83 16093 1.5 210 10:54 21.09.2019
1361 Clear 22 1020 83 16093 1.5 210 10:36 21.09.2019
1362 Clear 22 1019 78 16093 3.6 200 10:18 21.09.2019
1363 Clear 22 1020 78 16093 2.1 200 09:40 21.09.2019
1364 Clear 22 1019 73 16093 2.6 190 09:21 21.09.2019
1365 Clear 22 1020 78 16093 1.5 180 08:52 21.09.2019
1366 Clear 22 1019 73 16093 2.6 200 08:29 21.09.2019
1367 Clear 22 1020 88 16093 1.5 150 07:43 21.09.2019
1368 Clear 22 1019 78 16093 2.1 160 07:24 21.09.2019
1369 Clear 22 1020 94 11265 2.3 200.996 06:59 21.09.2019
1370 Clouds 22 1020 73 16093 2.6 160 06:34 21.09.2019
1371 Clouds 22 1020 73 16093 2.1 150 05:36 21.09.2019
1372 Clouds 23 1019 69 16093 1.5 160 04:37 21.09.2019
1373 Clouds 24 1019 65 16093 2.6 220 03:22 21.09.2019
1374 Clear 26 1019 69 16093 2.21 228.375 02:21 21.09.2019
1375 Clear 27 1019 74 11265 2.21 228.375 01:46 21.09.2019
1376 Clear 28 1019 61 16093 2.21 228.375 00:52 21.09.2019
1377 Clouds 29 1019 62 16093 3.6 260 00:20 21.09.2019
1378 Clear 29 1019 62 16093 4.1 200 23:48 20.09.2019
1379 Clouds 29 1019 58 16093 3.1 210 23:28 20.09.2019
1380 Clear 29 1019 55 16093 2.84 223.059 22:43 20.09.2019
1381 Clouds 29 1019 54 16093 3.1 210 22:24 20.09.2019
1382 Clear 29 1019 54 16093 2.84 223.059 21:57 20.09.2019
1383 Clouds 29 1019 58 16093 2.1 160 21:38 20.09.2019
1384 Clouds 29 1019 58 16093 2.1 160 21:20 20.09.2019
1385 Clouds 28 1020 58 16093 2.38 194.2 20:57 20.09.2019
1386 Clear 28 1020 66 16093 2.21 205.881 20:38 20.09.2019
1387 Clear 28 1020 66 16093 2.21 205.881 20:38 20.09.2019
1388 Clouds 28 1020 61 16093 1.5 260 20:19 20.09.2019
1389 Clouds 27 1021 61 16093 2.21 205.881 19:45 20.09.2019
1390 Clouds 27 1020 61 16093 1.5 0 19:26 20.09.2019
1391 Clear 26 1020 65 16093 2.1 210 18:58 20.09.2019
1392 Clouds 25 1020 73 16093 2.21 205.881 18:38 20.09.2019
1393 Clouds 25 1020 73 16093 2.21 205.881 18:38 20.09.2019
1394 Clouds 25 1020 73 16093 1.12 196.802 18:18 20.09.2019
1395 Clouds 24 1021 73 16093 1.12 196.802 17:45 20.09.2019
1396 Clouds 24 1021 73 16093 1.12 196.802 17:45 20.09.2019
1397 Clouds 24 1021 73 16093 1.12 196.802 17:45 20.09.2019
1398 Clouds 23 1021 78 16093 2.6 250 17:26 20.09.2019
1399 Clouds 22 1021 73 16093 1.12 196.802 16:44 20.09.2019
1400 Clouds 22 1021 78 16093 2.1 200 16:23 20.09.2019
1401 Rain 21 1021 83 16093 1.12 196.802 15:59 20.09.2019
1402 Rain 21 1021 83 16093 1.12 196.802 15:41 20.09.2019
1403 Clouds 20 1020 88 16093 1.5 210 15:22 20.09.2019
1404 Mist 20 1020 100 8047 1.81 212.25 14:44 20.09.2019
1405 Mist 20 1020 100 8047 1.81 212.25 14:44 20.09.2019
1406 Mist 19 1020 88 14484 2.1 180 14:20 20.09.2019
1407 Mist 19 1020 93 16093 1.81 212.25 13:57 20.09.2019
1408 Mist 19 1020 93 16093 1.81 212.25 13:38 20.09.2019
1409 Mist 19 1020 88 16093 0.98 221.087 13:20 20.09.2019
1410 Mist 19 1020 94 6437 0.98 221.087 12:38 20.09.2019
1411 Mist 19 1020 88 16093 0.66 201.59 12:19 20.09.2019
1412 Mist 19 1020 88 16093 0.66 201.59 11:50 20.09.2019
1413 Mist 19 1019 88 11265 0.66 201.59 11:25 20.09.2019
1414 Mist 19 1019 88 16093 0.66 201.59 10:58 20.09.2019
1415 Mist 19 1019 88 16093 0.66 201.59 10:39 20.09.2019
1416 Clouds 19 1019 88 11265 0.66 201.59 10:20 20.09.2019
1417 Rain 19 1020 93 16093 0.66 201.59 09:38 20.09.2019
1418 Rain 20 1019 83 14484 1.03 209.071 09:18 20.09.2019
1419 Rain 20 1020 93 16093 1.03 209.071 08:47 20.09.2019
1420 Rain 20 1019 88 16093 2.1 300 08:27 20.09.2019
1421 Rain 20 1019 93 16093 1.03 209.071 07:51 20.09.2019
1422 Rain 20 1019 83 16093 1.5 180 07:29 20.09.2019
1423 Rain 21 1018 93 16093 1.81 183.675 06:50 20.09.2019
1424 Rain 21 1019 68 16093 1.81 183.675 06:32 20.09.2019
1425 Clear 21 1018 77 16093 1.16 216.821 05:58 20.09.2019
1426 Clouds 22 1018 64 16093 2.1 120 04:28 20.09.2019
1427 Clouds 22 1018 53 16093 2.6 110 03:26 20.09.2019
1428 Clear 24 1018 64 16093 0.83 166.165 01:50 20.09.2019
1429 Clouds 25 1018 50 16093 4.6 90 01:31 20.09.2019
1430 Clouds 26 1017 51 16093 4.1 100 00:32 20.09.2019
1431 Clear 27 1018 51 16093 1.91 217.038 23:46 19.09.2019
1432 Clouds 28 1018 48 16093 3.6 60 23:27 19.09.2019
1433 Clear 28 1018 48 16093 1.91 217.038 22:58 19.09.2019
1434 Clouds 28 1018 48 16093 1.5 250 22:39 19.09.2019
1435 Clouds 28 1018 48 16093 1.5 250 22:21 19.09.2019
1436 Clear 28 1019 48 16093 1.91 217.038 21:57 19.09.2019
1437 Clear 27 1019 58 16093 1.91 217.038 21:38 19.09.2019
1438 Clouds 27 1018 48 16093 2.1 0 21:19 19.09.2019
1439 Clear 27 1019 48 16093 2.43 216.012 20:43 19.09.2019
1440 Clouds 27 1019 42 16093 2.6 230 20:23 19.09.2019
1441 Clear 27 1019 54 16093 2.53 228.263 19:57 19.09.2019
1442 Clear 27 1019 58 16093 1.5 300 19:39 19.09.2019
1443 Clear 27 1019 54 16093 2.53 228.263 19:21 19.09.2019
1444 Clouds 27 1019 50 16093 2.6 240 18:56 19.09.2019
1445 Clear 26 1020 57 16093 2.53 228.263 18:56 19.09.2019
1446 Clouds 26 1019 54 16093 2.1 200 18:38 19.09.2019
1447 Clouds 25 1019 54 16093 2.1 200 18:18 19.09.2019
1448 Clear 24 1020 57 16093 2.1 190 17:42 19.09.2019
1449 Clouds 23 1020 53 16093 2.6 180 17:23 19.09.2019
1450 Clear 23 1020 56 16093 2.48 185 16:58 19.09.2019
1451 Clouds 22 1020 53 16093 2.6 200 16:39 19.09.2019
1452 Clouds 21 1020 53 16093 2.6 200 16:19 19.09.2019
1453 Clear 20 1020 68 16093 2.48 185 15:39 19.09.2019
1454 Clouds 19 1019 68 16093 2.1 0 15:20 19.09.2019
1455 Clear 17 1019 82 16093 2.21 181.404 14:42 19.09.2019
1456 Clouds 16 1018 72 16093 3.1 170 14:24 19.09.2019
1457 Clear 16 1019 82 16093 2.21 181.404 13:59 19.09.2019
1458 Clear 16 1018 82 16093 1.5 150 13:40 19.09.2019
1459 Clouds 16 1018 72 16093 2.1 170 13:40 19.09.2019
1460 Clouds 16 1018 72 16093 2.1 170 13:20 19.09.2019
1461 Clear 16 1018 68 16093 3.6 160 12:40 19.09.2019
1462 Clear 17 1018 68 16093 3.6 160 12:20 19.09.2019
1463 Clear 17 1019 82 16093 2.79 163.883 11:58 19.09.2019
1464 Clear 17 1018 77 16093 2.79 163.883 11:40 19.09.2019
1465 Clear 17 1018 68 16093 2.6 160 11:21 19.09.2019
1466 Clear 17 1019 68 16093 3.1 140 10:56 19.09.2019
1467 Clear 17 1019 68 16093 3.1 140 10:56 19.09.2019
1468 Clouds 17 1019 72 16093 2.1 170 10:36 19.09.2019
1469 Clouds 18 1019 72 16093 2.1 170 10:18 19.09.2019
1470 Clear 18 1019 72 16093 3.1 140 09:42 19.09.2019
1471 Clouds 18 1019 72 16093 2.6 150 09:22 19.09.2019
1472 Clear 18 1020 72 16093 1.5 140 08:56 19.09.2019
1473 Clear 18 1020 72 16093 1.5 140 08:56 19.09.2019
1474 Clouds 18 1019 72 16093 2.6 160 08:29 19.09.2019
1475 Clear 19 1019 60 16093 2.6 140 07:58 19.09.2019
1476 Clouds 19 1019 68 16093 1.5 190 07:40 19.09.2019
1477 Clouds 19 1019 68 16093 1.5 190 07:21 19.09.2019
1478 Clear 20 1019 64 16093 2.6 130 06:45 19.09.2019
1479 Clouds 20 1018 56 16093 4.1 140 06:27 19.09.2019
1480 Clear 20 1019 64 16093 2.6 130 05:51 19.09.2019
1481 Clear 21 1019 73 16093 3.08 172.267 04:43 19.09.2019
1482 Clear 22 1019 73 16093 3.08 172.267 03:51 19.09.2019
1483 Clouds 23 1018 57 16093 4.6 130 02:30 19.09.2019
1484 Clouds 26 1018 54 16093 5.1 130 01:23 19.09.2019
1485 Clear 26 1019 51 16093 1.5 130 00:49 19.09.2019
1486 Clouds 27 1018 48 16093 5.1 170 00:25 19.09.2019
1487 Clouds 27 1018 48 16093 5.1 170 00:25 19.09.2019
1488 Clouds 27 1019 48 16093 4.6 160 23:42 18.09.2019
1489 Clouds 27 1019 48 16093 4.6 160 23:21 18.09.2019
1490 Clear 28 1019 57 16093 1.5 150 22:47 18.09.2019
1491 Clouds 28 1019 48 16093 3.6 180 22:23 18.09.2019
1492 Clear 28 1019 58 16093 3.1 180 21:59 18.09.2019
1493 Clear 28 1019 58 16093 3.1 180 21:40 18.09.2019
1494 Clouds 27 1020 54 16093 3.1 200 21:19 18.09.2019
1495 Clear 27 1021 61 16093 2.1 200 20:58 18.09.2019
1496 Clouds 27 1021 54 16093 4.6 230 20:40 18.09.2019
1497 Clouds 26 1021 54 16093 4.6 230 20:22 18.09.2019
1498 Clear 26 1021 54 16093 1.5 0 19:58 18.09.2019
1499 Clear 26 1021 54 16093 1.5 0 19:58 18.09.2019
1500 Clouds 26 1021 57 16093 3.6 230 19:40 18.09.2019
1501 Clouds 26 1021 57 16093 3.6 230 19:19 18.09.2019
1502 Clear 25 1021 65 16093 3.06 194.482 18:56 18.09.2019
1503 Clouds 25 1021 57 16093 3.6 190 18:37 18.09.2019
1504 Clouds 25 1021 57 16093 3.6 190 18:37 18.09.2019
1505 Clouds 24 1021 57 16093 3.6 190 18:19 18.09.2019
1506 Clear 24 1021 64 16093 3.6 180 17:58 18.09.2019
1507 Clouds 23 1020 64 16093 4.1 190 17:39 18.09.2019
1508 Clouds 23 1020 64 16093 4.1 190 17:19 18.09.2019
1509 Clouds 23 1020 64 16093 4.1 190 17:19 18.09.2019
1510 Clear 22 1021 73 16093 2.6 170 16:56 18.09.2019
1511 Clouds 21 1020 73 16093 3.6 170 16:38 18.09.2019
1512 Clouds 20 1020 73 16093 3.6 170 16:18 18.09.2019
1513 Clear 19 1020 88 16093 3.1 160 15:55 18.09.2019
1514 Clear 19 1020 88 16093 3.1 160 15:55 18.09.2019
1515 Clouds 19 1020 82 16093 3.6 160 15:37 18.09.2019
1516 Clouds 19 1020 82 16093 3.6 160 15:37 18.09.2019
1517 Clouds 18 1020 82 16093 3.6 160 15:18 18.09.2019
1518 Mist 17 1020 93 16093 1.75 147.2 14:57 18.09.2019
1519 Mist 16 1019 82 16093 3.6 140 14:38 18.09.2019
1520 Mist 16 1019 82 16093 3.6 140 14:20 18.09.2019
1521 Mist 16 1020 100 11265 1.75 147.2 13:43 18.09.2019
1522 Clear 16 1019 82 16093 3.6 160 13:19 18.09.2019
1523 Clear 16 1019 82 16093 3.6 160 13:19 18.09.2019
1524 Clear 16 1020 93 16093 2.36 158.474 12:55 18.09.2019
1525 Clear 16 1019 88 16093 3.1 160 12:37 18.09.2019
1526 Clear 17 1019 88 16093 3.1 160 12:18 18.09.2019
1527 Clear 17 1020 93 11265 2.1 140 11:40 18.09.2019
1528 Clear 17 1020 88 16093 4.1 150 11:19 18.09.2019
1529 Clear 17 1020 88 16093 2.1 130 10:41 18.09.2019
1530 Clear 18 1020 82 16093 4.1 140 10:22 18.09.2019
1531 Clear 18 1021 88 11265 1.5 140 09:59 18.09.2019
1532 Clear 18 1021 88 11265 1.5 140 09:41 18.09.2019
1533 Clear 18 1020 93 16093 2.6 140 09:22 18.09.2019
1534 Clear 18 1021 88 16093 2.1 120 08:55 18.09.2019
1535 Clear 18 1021 88 16093 2.1 120 08:37 18.09.2019
1536 Clear 18 1020 88 16093 2.6 134.673 08:18 18.09.2019
1537 Clouds 18 1020 88 16093 1.5 110 07:41 18.09.2019
1538 Clouds 18 1020 88 16093 1.5 110 07:23 18.09.2019
1539 Clear 18 1021 88 16093 2.1 110 06:42 18.09.2019
1540 Clear 19 1021 93 11265 1.5 100 05:58 18.09.2019
1541 Clouds 19 1020 83 16093 3.6 110 05:22 18.09.2019
1542 Clouds 21 1020 73 16093 3.6 100 03:25 18.09.2019
1543 Clear 22 1020 73 16093 1.5 80 02:40 18.09.2019
1544 Clouds 23 1020 69 16093 4.6 100 01:35 18.09.2019
1545 Clear 24 1020 69 16093 1.5 70 00:51 18.09.2019
1546 Clouds 25 1020 65 16093 5.1 90 00:28 18.09.2019
1547 Clear 26 1020 69 16093 3.35 100.934 23:47 17.09.2019
1548 Clouds 26 1020 69 16093 3.6 100 23:23 17.09.2019
1549 Clouds 26 1020 69 16093 3.6 100 23:23 17.09.2019
1550 Mist 26 1020 73 16093 3.6 40 22:45 17.09.2019
1551 Mist 26 1020 65 14484 4.1 80 22:25 17.09.2019
1552 Mist 26 1021 69 16093 3.35 100.934 21:56 17.09.2019
1553 Mist 26 1021 61 16093 3.6 130 21:37 17.09.2019
1554 Mist 26 1021 61 16093 3.6 130 21:19 17.09.2019
1555 Mist 26 1021 61 16093 3.6 130 21:19 17.09.2019
1556 Mist 26 1021 61 16093 3.6 130 21:19 17.09.2019
1557 Clouds 26 1021 69 16093 3.1 110 20:59 17.09.2019
1558 Clouds 26 1021 69 16093 3.1 110 20:41 17.09.2019
1559 Clouds 26 1021 65 16093 3.1 0 20:22 17.09.2019
1560 Clouds 25 1022 78 16093 3.21 101.373 19:59 17.09.2019
1561 Clouds 25 1022 78 14484 2.1 0 19:39 17.09.2019
1562 Clear 25 1022 65 16093 3.1 110 19:39 17.09.2019
1563 Clouds 25 1022 78 14484 2.1 0 19:20 17.09.2019
1564 Clouds 25 1022 64 16093 3.6 100 18:58 17.09.2019
1565 Clouds 25 1022 64 16093 3.6 100 18:58 17.09.2019
1566 Mist 24 1022 73 16093 2.1 120 18:40 17.09.2019
1567 Mist 23 1022 78 12874 2.6 110 18:21 17.09.2019
1568 Mist 22 1023 77 12874 3.1 80 17:46 17.09.2019
1569 Mist 22 1023 77 12874 3.1 80 17:21 17.09.2019
1570 Mist 21 1022 94 8047 2.05 106.93 16:59 17.09.2019
1571 Mist 21 1022 94 8047 2.05 106.93 16:40 17.09.2019
1572 Mist 20 1023 100 4828 2.05 106.93 16:22 17.09.2019
1573 Mist 19 1022 100 4828 2.05 106.93 15:54 17.09.2019
1574 Mist 19 1022 93 8047 3.1 60 15:36 17.09.2019
1575 Mist 19 1022 93 8047 3.1 60 15:18 17.09.2019
1576 Mist 18 1023 88 9656 1.5 90 14:54 17.09.2019
1577 Mist 18 1022 93 8047 2.6 90 14:36 17.09.2019
1578 Mist 18 1022 93 8047 2.6 90 14:36 17.09.2019
1579 Mist 18 1022 93 8047 2.6 90 14:18 17.09.2019
1580 Mist 18 1022 88 12874 1.5 100 13:41 17.09.2019
1581 Mist 18 1022 88 12874 1.5 100 13:22 17.09.2019
1582 Mist 18 1021 100 4828 1.8 94.832 12:43 17.09.2019
1583 Mist 18 1021 93 9656 2.6 80 12:20 17.09.2019
1584 Mist 18 1021 100 4023 0.94 101.681 11:58 17.09.2019
1585 Mist 18 1021 100 4023 0.94 101.681 11:58 17.09.2019
1586 Mist 18 1021 100 4023 0.94 101.681 11:40 17.09.2019
1587 Mist 18 1021 93 9656 2.1 100 11:18 17.09.2019
1588 Mist 18 1021 100 1609 2.1 40 10:42 17.09.2019
1589 Mist 18 1021 88 11265 1.5 110 10:22 17.09.2019
1590 Mist 18 1021 100 4023 2.1 50 09:58 17.09.2019
1591 Mist 18 1021 100 4023 2.1 50 09:40 17.09.2019
1592 Mist 18 1021 93 9656 3.6 70 09:20 17.09.2019
1593 Mist 18 1021 100 2816 3.6 50 08:44 17.09.2019
1594 Fog 18 1021 93 12874 3.1 90 08:25 17.09.2019
1595 Fog 18 1021 93 12874 3.1 90 08:25 17.09.2019
1596 -273 0 0 0 0 0 07:55 17.09.2019
1597 Mist 18 1020 93 12874 3.1 80 07:36 17.09.2019
1598 Mist 18 1020 93 12874 3.1 80 07:18 17.09.2019
1599 Mist 18 1020 100 11265 2.34 97.562 06:44 17.09.2019
1600 Mist 18 1020 88 6437 3.6 80 05:58 17.09.2019
1601 Mist 18 1021 93 4828 1.5 100 05:33 17.09.2019
1602 Mist 19 1020 93 11265 4.1 80 04:20 17.09.2019
1603 Mist 20 1020 93 8047 3.6 20 02:41 17.09.2019
1604 Clouds 21 1020 94 11265 2.1 360 01:53 17.09.2019
1605 Clouds 23 1020 94 11265 2.81 63.481 00:58 17.09.2019
1606 Clouds 24 1020 88 11265 3.6 10 23:57 16.09.2019
1607 Clouds 24 1019 69 16093 2.6 30 23:36 16.09.2019
1608 Clouds 24 1019 69 16093 2.6 30 23:18 16.09.2019
1609 Clouds 24 1020 88 11265 3.21 60.388 22:41 16.09.2019
1610 Clouds 24 1020 73 16093 3.6 20 22:23 16.09.2019
1611 Mist 24 1020 88 11265 3.1 20 21:58 16.09.2019
1612 Mist 24 1020 69 16093 3.6 130 21:38 16.09.2019
1613 Mist 24 1020 78 16093 4.6 50 21:20 16.09.2019
1614 Mist 24 1020 88 11265 3.6 30 20:55 16.09.2019
1615 Mist 24 1021 83 12874 4.1 10 20:37 16.09.2019
1616 Mist 24 1021 83 12874 4.1 10 20:18 16.09.2019
1617 Mist 23 1021 83 12874 3.6 20 19:42 16.09.2019
1618 Mist 23 1021 83 12874 3.6 20 19:21 16.09.2019
1619 Mist 23 1022 77 16093 4.1 50 18:59 16.09.2019
1620 Mist 23 1021 73 16093 1.5 10 18:41 16.09.2019
1621 Mist 22 1021 88 11265 2.6 20 18:21 16.09.2019
1622 Mist 21 1021 94 8047 2.41 56.527 17:43 16.09.2019
1623 Mist 21 1021 88 9656 4.1 20 17:24 16.09.2019
1624 Mist 21 1021 100 6437 2.1 20 16:58 16.09.2019
1625 Mist 21 1020 94 8047 4.6 40 16:39 16.09.2019
1626 Mist 21 1020 94 8047 4.6 40 16:21 16.09.2019
1627 Mist 21 1020 94 8047 4.6 40 16:21 16.09.2019
1628 Mist 20 1020 100 2012 2.1 30 15:56 16.09.2019
1629 Mist 20 1020 88 4828 4.6 360 15:37 16.09.2019
1630 Mist 20 1020 88 4828 4.6 360 15:19 16.09.2019
1631 Mist 20 1020 88 9656 3.1 10 14:56 16.09.2019
1632 Mist 20 1019 88 4828 5.1 20 14:38 16.09.2019
1633 Mist 20 1019 88 4828 5.1 20 14:19 16.09.2019
1634 Mist 20 1019 94 8047 2.64 15.402 13:40 16.09.2019
1635 Mist 20 1019 100 1609 3.6 360 13:21 16.09.2019
1636 Mist 20 1018 100 1609 4.6 360 12:48 16.09.2019
1637 Mist 20 1018 88 1609 4.1 350 12:29 16.09.2019
1638 Mist 20 1018 88 3219 2.1 360 11:58 16.09.2019
1639 Mist 20 1018 100 16093 1.95 309.775 11:40 16.09.2019
1640 Mist 20 1018 88 12874 1.95 309.775 11:21 16.09.2019
1641 Mist 20 1018 100 8047 1.95 309.775 10:40 16.09.2019
1642 Mist 20 1018 100 8047 1.95 309.775 10:40 16.09.2019
1643 Mist 20 1018 100 8047 1.95 309.775 10:40 16.09.2019
1644 Mist 20 1017 94 14484 1.95 309.775 10:21 16.09.2019
1645 Mist 20 1018 100 8047 1.95 309.775 09:58 16.09.2019
1646 Mist 20 1018 100 8047 1.95 309.775 09:58 16.09.2019
1647 Mist 20 1018 100 8047 1.95 309.775 09:40 16.09.2019
1648 Mist 20 1018 100 8047 1.95 309.775 09:40 16.09.2019
1649 Mist 20 1017 94 16093 0.68 309.004 09:20 16.09.2019
1650 Mist 20 1017 93 16093 0.68 309.004 08:47 16.09.2019
1651 Mist 20 1017 94 1609 1.51 76.801 08:28 16.09.2019
1652 Rain 20 1017 94 16093 1.51 76.801 07:57 16.09.2019
1653 Mist 20 1017 94 16093 1.51 76.801 07:39 16.09.2019
1654 Mist 21 1017 94 16093 2.6 220 07:20 16.09.2019
1655 Fog 21 1017 88 16093 1.51 76.801 06:48 16.09.2019
1656 Mist 21 1017 88 11265 1.51 76.801 06:30 16.09.2019
1657 Mist 21 1017 94 16093 1.69 49.674 05:54 16.09.2019
1658 Mist 22 1017 88 16093 2.6 180 05:35 16.09.2019
1659 -273 0 0 0 0 0 04:55 16.09.2019
1660 Clouds 23 1016 88 16093 1.69 49.674 03:31 16.09.2019
1661 Clouds 25 1016 73 16093 2.89 244.197 00:44 16.09.2019
1662 Clouds 25 1015 78 16093 2.6 220 00:26 16.09.2019
1663 Clouds 25 1016 73 16093 2.1 220 23:45 15.09.2019
1664 Clouds 26 1015 73 16093 5.1 200 23:22 15.09.2019
1665 Clouds 26 1015 73 16093 5.1 240 22:59 15.09.2019
1666 Clouds 26 1016 78 16093 2.6 230 22:38 15.09.2019
1667 Clouds 26 1016 73 16093 5.1 210 22:18 15.09.2019
1668 Clouds 25 1017 78 16093 4.1 210 21:56 15.09.2019
1669 Clouds 25 1016 73 16093 5.7 200 21:37 15.09.2019
1670 Clouds 25 1016 73 16093 5.7 200 21:37 15.09.2019
1671 Clouds 25 1016 73 16093 5.7 200 21:19 15.09.2019
1672 Clouds 24 1018 83 16093 4.1 190 20:44 15.09.2019
1673 Clouds 23 1017 78 16093 4.6 210 20:26 15.09.2019
1674 Clouds 23 1017 83 16093 3.6 200 19:47 15.09.2019
1675 Clouds 22 1018 88 16093 6.2 210 19:27 15.09.2019
1676 Clouds 21 1018 78 16093 4.6 220 18:56 15.09.2019
1677 Clouds 21 1018 88 16093 4.6 210 18:38 15.09.2019
1678 Clouds 19 1018 88 16093 4.6 210 18:20 15.09.2019
1679 Rain 19 1020 93 16093 7.2 200 17:43 15.09.2019
1680 Rain 19 1019 82 16093 6.7 200 17:22 15.09.2019
1681 Rain 19 1019 88 16093 6.2 210 16:57 15.09.2019
1682 Rain 18 1020 100 16093 5.7 190 16:38 15.09.2019
1683 Rain 18 1019 93 16093 7.2 200 16:20 15.09.2019
1684 Rain 18 1020 100 16093 3.6 190 15:56 15.09.2019
1685 Rain 18 1020 100 16093 3.6 190 15:56 15.09.2019
1686 Rain 18 1019 93 6437 5.7 190 15:36 15.09.2019
1687 Rain 18 1019 93 6437 5.7 190 15:18 15.09.2019
1688 Rain 18 1019 93 16093 4.6 190 14:42 15.09.2019
1689 Rain 18 1019 93 16093 4.6 190 14:23 15.09.2019
1690 Rain 18 1019 93 16093 5.7 190 13:55 15.09.2019
1691 Rain 18 1018 93 11265 5.1 170 13:37 15.09.2019
1692 Rain 18 1018 93 11265 5.1 170 13:18 15.09.2019
1693 Rain 18 1019 88 8047 6.7 200 12:40 15.09.2019
1694 Rain 18 1019 88 8047 6.7 200 12:40 15.09.2019
1695 Rain 18 1019 88 8047 6.7 200 12:22 15.09.2019
1696 Rain 18 1020 82 14484 5.7 220 11:43 15.09.2019
1697 Rain 18 1019 82 16093 3.1 200 11:24 15.09.2019
1698 Rain 19 1020 72 16093 4.1 190 10:59 15.09.2019
1699 Rain 19 1019 64 16093 5.1 210 10:40 15.09.2019
1700 Rain 20 1019 64 16093 5.1 210 10:21 15.09.2019
1701 Clear 20 1020 68 16093 3.6 180 09:44 15.09.2019
1702 Rain 20 1019 73 16093 5.7 200 09:21 15.09.2019
1703 Rain 20 1020 73 16093 6.7 210 08:59 15.09.2019
1704 Rain 20 1022 68 11265 4.1 200 08:40 15.09.2019
1705 Rain 21 1021 68 6437 5.1 220 08:19 15.09.2019
1706 Thunderstorm 22 1020 68 9656 5.7 190 07:47 15.09.2019
1707 Clear 22 1021 68 16093 5.14 202.921 06:59 15.09.2019
1708 Clouds 22 1020 64 16093 3.6 190 06:31 15.09.2019
1709 Clouds 22 1020 60 16093 2.6 170 03:24 15.09.2019
1710 Clouds 23 1020 50 16093 2.1 210 02:23 15.09.2019
1711 Clouds 25 1020 44 16093 4.6 240 01:37 15.09.2019
1712 Clouds 25 1020 44 16093 4.6 240 01:37 15.09.2019
1713 Clear 26 1021 51 16093 3.1 240 00:57 15.09.2019
1714 Clouds 27 1021 51 16093 5.7 230 00:37 15.09.2019
1715 Clouds 27 1021 51 16093 5.7 230 00:19 15.09.2019
1716 Clear 27 1021 51 16093 4.6 240 23:56 14.09.2019
1717 Clouds 27 1021 51 16093 5.7 250 23:38 14.09.2019
1718 Clouds 27 1021 51 16093 5.7 250 23:19 14.09.2019
1719 Clear 27 1022 51 16093 4.6 240 22:57 14.09.2019
1720 Clear 27 1022 51 16093 4.6 240 22:57 14.09.2019
1721 Clear 27 1021 54 16093 2.6 230 22:38 14.09.2019
1722 Clouds 27 1021 51 16093 6.2 240 22:18 14.09.2019
1723 Clouds 26 1022 54 16093 4.1 230 21:40 14.09.2019
1724 Clouds 26 1022 54 16093 4.1 230 21:21 14.09.2019
1725 Clear 25 1023 57 16093 5.7 250 20:59 14.09.2019
1726 Clouds 25 1023 53 16093 5.7 220 20:40 14.09.2019
1727 Clouds 25 1023 53 16093 5.7 220 20:21 14.09.2019
1728 Clear 24 1023 57 16093 3.6 210 19:49 14.09.2019
1729 Clouds 24 1023 53 16093 3.6 200 19:23 14.09.2019
1730 Clear 23 1023 53 16093 2.1 0 18:58 14.09.2019
1731 Clouds 22 1023 56 16093 3.1 200 18:39 14.09.2019
1732 Clouds 22 1023 56 16093 3.1 200 18:20 14.09.2019
1733 Clear 21 1024 64 16093 1.5 190 17:45 14.09.2019
1734 Clouds 20 1024 64 16093 3.1 190 17:25 14.09.2019
1735 Clear 19 1024 77 16093 2.25 233.267 16:59 14.09.2019
1736 Clouds 18 1024 72 16093 2.6 220 16:40 14.09.2019
1737 Clouds 18 1024 72 16093 2.6 220 16:19 14.09.2019
1738 Clear 16 1024 93 16093 2.25 233.267 15:42 14.09.2019
1739 Rain 15 1024 82 16093 3.1 240 15:23 14.09.2019
1740 Rain 14 1024 100 16093 1.84 278.324 14:57 14.09.2019
1741 Rain 13 1024 100 16093 1.84 278.324 14:39 14.09.2019
1742 Rain 13 1024 100 16093 1.84 278.324 14:39 14.09.2019
1743 Mist 13 1023 93 16093 3.1 230 14:18 14.09.2019
1744 Clear 12 1023 100 16093 1.84 278.324 13:46 14.09.2019
1745 Clear 13 1022 87 16093 2.1 230 13:21 14.09.2019
1746 Clear 13 1023 100 16093 2.44 266.987 12:45 14.09.2019
1747 Clear 13 1022 87 16093 1.5 250 12:23 14.09.2019
1748 Clear 14 1022 100 16093 3.15 254.624 11:41 14.09.2019
1749 Clear 14 1022 87 16093 3.15 254.624 11:20 14.09.2019
1750 Clear 14 1021 82 16093 2.6 250 10:40 14.09.2019
1751 Clear 14 1022 82 16093 3.15 254.624 10:40 14.09.2019
1752 Clear 15 1021 82 16093 2.6 250 10:22 14.09.2019
1753 Clear 15 1021 93 16093 3.15 254.624 09:59 14.09.2019
1754 Clear 15 1021 93 16093 3.15 254.624 09:40 14.09.2019
1755 Clear 15 1021 82 16093 2.6 250 09:21 14.09.2019
1756 Clear 15 1021 87 16093 3.68 255.055 08:57 14.09.2019
1757 Clear 15 1021 72 16093 3.1 250 08:38 14.09.2019
1758 Clear 15 1021 82 16093 3.68 255.055 08:19 14.09.2019
1759 Clear 16 1021 82 16093 3.68 255.055 07:43 14.09.2019
1760 Clear 16 1021 77 16093 3.1 240 07:21 14.09.2019
1761 Clear 16 1021 77 16093 3.1 250 06:33 14.09.2019
1762 Clear 17 1021 77 16093 5.19 269.349 05:53 14.09.2019
1763 Clouds 17 1020 63 16093 4.1 280 04:27 14.09.2019
1764 Clouds 18 1019 60 16093 3.6 280 03:20 14.09.2019
1765 Clear 19 1019 68 16093 1.5 290 02:42 14.09.2019
1766 Clear 19 1019 68 16093 1.5 290 02:42 14.09.2019
1767 Clouds 20 1019 64 16093 5.7 260 01:45 14.09.2019
1768 Clouds 21 1018 56 16093 8.7 280 01:19 14.09.2019
1769 Clouds 22 1018 56 16093 7.7 260 00:40 14.09.2019
1770 Clouds 21 1018 56 16093 7.7 260 00:21 14.09.2019
1771 Clouds 22 1017 56 16093 8.7 260 23:56 13.09.2019
1772 Clouds 22 1017 56 16093 9.3 270 23:37 13.09.2019
1773 Clouds 22 1017 56 16093 9.3 270 23:18 13.09.2019
1774 Clouds 23 1017 60 16093 9.3 270 22:41 13.09.2019
1775 Clouds 23 1017 60 16093 9.3 270 22:22 13.09.2019
1776 Clouds 23 1017 61 16093 7.7 250 21:59 13.09.2019
1777 Clouds 23 1017 61 16093 7.7 250 21:39 13.09.2019
1778 Clouds 24 1017 57 16093 9.3 250 21:19 13.09.2019
1779 Clouds 24 1017 61 16093 8.2 250 20:57 13.09.2019
1780 Clouds 24 1017 61 16093 8.2 250 20:57 13.09.2019
1781 Clouds 24 1017 61 16093 8.2 250 20:57 13.09.2019
1782 Clouds 24 1017 57 16093 10.3 250 20:37 13.09.2019
1783 Clouds 24 1017 57 16093 10.3 250 20:19 13.09.2019
1784 Clouds 24 1017 73 16093 8.2 230 19:44 13.09.2019
1785 Clouds 24 1017 73 16093 8.2 230 19:44 13.09.2019
1786 Clouds 24 1017 78 16093 5.7 240 19:23 13.09.2019
1787 Rain 24 1016 61 16093 6.2 230 18:59 13.09.2019
1788 Rain 24 1016 88 16093 6.2 250 18:38 13.09.2019
1789 Rain 23 1016 88 16093 6.2 250 18:19 13.09.2019
1790 Rain 23 1016 88 16093 6.2 250 18:19 13.09.2019
1791 Rain 23 1016 88 16093 6.2 250 18:19 13.09.2019
1792 Clouds 22 1017 88 16093 5.1 240 17:44 13.09.2019
1793 Clouds 22 1016 88 16093 5.7 230 17:22 13.09.2019
1794 Rain 22 1017 94 16093 4.6 230 16:59 13.09.2019
1795 Rain 22 1017 94 16093 4.6 230 16:59 13.09.2019
1796 Rain 21 1016 88 16093 5.7 230 16:40 13.09.2019
1797 Rain 21 1016 88 16093 5.7 230 16:19 13.09.2019
1798 Rain 21 1017 100 11265 4.6 220 15:42 13.09.2019
1799 Rain 21 1016 100 16093 3.1 230 15:24 13.09.2019
1800 Thunderstorm 21 1015 100 16093 3.6 230 14:56 13.09.2019
1801 Rain 21 1015 94 16093 3.1 210 14:37 13.09.2019
1802 Rain 21 1015 94 16093 3.1 210 14:18 13.09.2019
1803 Rain 21 1016 100 11265 5.37 236.147 13:41 13.09.2019
1804 Rain 21 1016 94 4828 3.1 150 13:22 13.09.2019
1805 Rain 21 1015 94 16093 5.43 235.326 12:45 13.09.2019
1806 Rain 21 1016 94 2414 4.6 300 12:25 13.09.2019
1807 Rain 21 1015 94 11265 2.6 220 11:57 13.09.2019
1808 Rain 22 1016 94 2414 5.7 310 11:20 13.09.2019
1809 Rain 22 1016 88 2414 4.6 330 10:57 13.09.2019
1810 Rain 22 1015 83 16093 3.1 150 10:37 13.09.2019
1811 Rain 22 1015 83 16093 3.6 80 10:18 13.09.2019
1812 Rain 22 1015 83 16093 3.6 130 09:43 13.09.2019
1813 Rain 22 1015 83 16093 3.6 130 09:43 13.09.2019
1814 Rain 22 1015 88 16093 4.1 330 09:20 13.09.2019
1815 -273 0 0 0 0 0 08:55 13.09.2019
1816 Rain 23 1016 78 16093 4.1 140 08:37 13.09.2019
1817 Rain 24 1016 78 16093 2.6 180 08:19 13.09.2019
1818 Clear 24 1017 78 16093 3.6 140 07:41 13.09.2019
1819 Clouds 24 1016 78 16093 5.1 150 07:21 13.09.2019
1820 Clear 24 1017 83 16093 4.6 130 06:38 13.09.2019
1821 Clouds 25 1017 74 16093 5.1 140 05:34 13.09.2019
1822 Clouds 24 1017 83 16093 4.1 110 03:52 13.09.2019
1823 Clouds 24 1017 78 16093 4.6 100 03:25 13.09.2019
1824 Clouds 25 1017 78 16093 2.92 92.824 02:20 13.09.2019
1825 Clouds 26 1017 74 16093 4.1 90 01:37 13.09.2019
1826 Rain 26 1017 74 16093 1.66 104.078 00:59 13.09.2019
1827 Rain 26 1017 74 16093 3.6 80 00:35 13.09.2019
1828 Clear 26 1018 78 16093 2.9 110.248 23:53 12.09.2019
1829 Clouds 26 1018 69 16093 3.6 70 23:25 12.09.2019
1830 Clear 27 1018 74 16093 1.5 40 22:58 12.09.2019
1831 Clear 27 1018 74 16093 1.5 40 22:39 12.09.2019
1832 Clouds 27 1018 69 16093 2.6 80 22:21 12.09.2019
1833 Clouds 26 1019 73 16093 3.6 90 21:55 12.09.2019
1834 Clouds 26 1019 78 16093 3.6 90 21:37 12.09.2019
1835 Clouds 25 1019 78 16093 3.6 90 21:18 12.09.2019
1836 Mist 25 1019 74 16093 3.2 90.876 20:44 12.09.2019
1837 Mist 24 1020 83 16093 4.6 60 20:22 12.09.2019
1838 Mist 24 1020 83 16093 5.1 90 19:57 12.09.2019
1839 Clouds 23 1020 88 14484 4.6 70 19:39 12.09.2019
1840 Clouds 23 1020 88 14484 4.6 70 19:19 12.09.2019
1841 Haze 23 1020 78 16093 3.2 90.876 18:56 12.09.2019
1842 Mist 22 1020 88 12874 4.1 80 18:36 12.09.2019
1843 Mist 21 1020 83 16093 2.83 91.44 18:18 12.09.2019
1844 Mist 20 1020 93 4023 3.6 90 17:40 12.09.2019
1845 Mist 20 1020 93 4023 3.6 90 17:20 12.09.2019
1846 Mist 20 1020 93 4023 3.6 90 17:20 12.09.2019
1847 -273 0 0 0 0 0 16:56 12.09.2019
1848 Rain 20 1020 93 1609 2.6 80 16:56 12.09.2019
1849 Rain 20 1020 94 9656 2.6 30 16:36 12.09.2019
1850 Rain 20 1020 94 9656 2.6 30 16:18 12.09.2019
1851 Mist 20 1020 94 11265 2.83 91.44 15:41 12.09.2019
1852 Mist 19 1020 88 16093 2.6 40 15:23 12.09.2019
1853 Mist 19 1020 100 8047 2.83 70.847 14:45 12.09.2019
1854 Mist 19 1020 94 16093 2.1 20 14:22 12.09.2019
1855 Mist 19 1019 94 16093 1.5 0 13:58 12.09.2019
1856 Rain 19 1020 93 2816 2.1 50 13:37 12.09.2019
1857 Rain 19 1020 93 2816 2.1 50 13:37 12.09.2019
1858 Rain 20 1019 100 16093 2.6 90 13:18 12.09.2019
1859 Rain 20 1019 88 14484 1.5 180 12:44 12.09.2019
1860 Rain 20 1019 88 4828 2.75 47.591 12:19 12.09.2019
1861 Rain 20 1019 94 16093 1.5 150 11:56 12.09.2019
1862 Rain 20 1019 88 2816 3.1 10 11:38 12.09.2019
1863 Rain 20 1019 88 2816 3.1 10 11:19 12.09.2019
1864 Rain 20 1020 100 6437 2.1 80 10:44 12.09.2019
1865 Rain 20 1021 88 2816 4.1 10 10:25 12.09.2019
1866 Rain 20 1019 100 16093 2.75 47.591 09:44 12.09.2019
1867 Rain 21 1019 100 16093 1.5 0 09:23 12.09.2019
1868 Rain 21 1018 88 16093 6.2 40 08:58 12.09.2019
1869 Rain 21 1019 94 16093 1.5 100 08:39 12.09.2019
1870 Rain 21 1018 88 16093 3.1 60 08:21 12.09.2019
1871 Rain 22 1020 94 16093 2.1 40 07:39 12.09.2019
1872 Rain 22 1018 83 11265 3.6 30 07:19 12.09.2019
1873 Rain 22 1019 83 8047 5.7 350 06:50 12.09.2019
1874 Rain 23 1019 83 4828 8.7 340 06:19 12.09.2019
1875 Rain 24 1019 83 16093 9.3 340 05:49 12.09.2019
1876 Clouds 25 1019 83 16093 7.7 10 05:29 12.09.2019
1877 Clouds 26 1016 74 16093 4.1 200 04:35 12.09.2019
1878 Thunderstorm 28 1017 66 16093 4.6 230 02:24 12.09.2019
1879 Clouds 29 1017 62 14484 4.1 230 01:30 12.09.2019
1880 Clear 29 1017 70 16093 4.6 210 00:59 12.09.2019
1881 Clouds 29 1016 62 16093 5.7 210 00:41 12.09.2019
1882 Clouds 29 1016 62 16093 5.7 210 00:23 12.09.2019
1883 Clouds 30 1016 55 16093 5.7 220 23:41 11.09.2019
1884 Clouds 30 1016 55 16093 5.7 220 23:41 11.09.2019
1885 Clouds 30 1016 55 16093 5.7 220 23:21 11.09.2019
1886 Clouds 30 1018 52 16093 8.2 230 22:56 11.09.2019
1887 Clouds 31 1017 52 16093 7.7 230 22:37 11.09.2019
1888 Clouds 31 1017 52 16093 7.7 230 22:19 11.09.2019
1889 Clouds 31 1019 55 16093 6.2 230 21:42 11.09.2019
1890 Clouds 31 1019 55 16093 6.2 230 21:42 11.09.2019
1891 Clouds 31 1018 55 16093 5.7 220 21:24 11.09.2019
1892 Clouds 31 1020 66 16093 5.1 210 20:57 11.09.2019
1893 Clouds 31 1019 58 16093 6.7 230 20:39 11.09.2019
1894 Clouds 31 1019 58 16093 6.7 230 20:19 11.09.2019
1895 Clear 31 1020 66 16093 2.6 210 19:58 11.09.2019
1896 Clear 30 1020 66 16093 2.6 210 19:39 11.09.2019
1897 Clear 30 1020 66 16093 2.6 210 19:39 11.09.2019
1898 Clear 30 1020 66 16093 2.6 210 19:39 11.09.2019
1899 Clouds 30 1019 66 16093 5.1 220 19:21 11.09.2019
1900 Clear 29 1020 74 16093 3.6 210 18:56 11.09.2019
1901 Clouds 29 1020 69 16093 5.7 210 18:38 11.09.2019
1902 Clouds 28 1020 69 16093 5.7 210 18:19 11.09.2019
1903 Clouds 28 1020 69 16093 5.7 210 18:19 11.09.2019
1904 Clouds 28 1020 69 16093 5.7 210 18:19 11.09.2019
1905 Clear 28 1021 78 16093 3.62 224.574 17:55 11.09.2019
1906 Clouds 27 1020 78 16093 4.1 210 17:37 11.09.2019
1907 Clouds 27 1020 78 16093 4.1 210 17:18 11.09.2019
1908 Haze 26 1021 88 16093 3.62 224.574 16:42 11.09.2019
1909 Haze 25 1020 78 16093 4.1 210 16:23 11.09.2019
1910 Haze 25 1020 78 16093 4.1 210 16:23 11.09.2019
1911 Mist 24 1021 94 16093 3.62 224.574 15:47 11.09.2019
1912 Mist 24 1021 94 16093 3.62 224.574 15:47 11.09.2019
1913 Mist 23 1020 88 12874 3.1 190 15:24 11.09.2019
1914 Mist 23 1021 100 6437 2.08 221.826 14:59 11.09.2019
1915 Mist 23 1021 100 6437 2.08 221.826 14:41 11.09.2019
1916 Mist 22 1020 88 14484 2.6 200 14:21 11.09.2019
1917 Mist 22 1020 100 4828 2.08 221.826 13:59 11.09.2019
1918 Mist 22 1019 88 14484 2.6 210 13:37 11.09.2019
1919 Mist 22 1019 88 14484 2.6 210 13:19 11.09.2019
1920 Mist 22 1020 94 16093 1.78 229.304 12:43 11.09.2019
1921 Mist 22 1019 88 16093 2.1 210 12:22 11.09.2019
1922 Mist 22 1020 100 11265 2.06 232.947 11:58 11.09.2019
1923 Mist 22 1020 88 16093 1.5 220 11:38 11.09.2019
1924 Mist 22 1019 88 16093 2.1 200 11:20 11.09.2019
1925 -273 0 0 0 0 0 10:55 11.09.2019
1926 Clear 23 1020 94 11265 2.06 232.947 10:55 11.09.2019
1927 Mist 23 1019 88 14484 2.6 230 10:36 11.09.2019
1928 Mist 23 1019 88 14484 2.6 230 10:18 11.09.2019
1929 Rain 23 1020 83 16093 2.06 232.947 09:37 11.09.2019
1930 Rain 23 1019 88 16093 2.1 210 09:19 11.09.2019
1931 Clouds 23 1020 83 16093 2.94 228.14 08:41 11.09.2019
1932 Clouds 23 1020 83 16093 1.5 170 08:21 11.09.2019
1933 Mist 23 1020 78 16093 1.5 180 07:57 11.09.2019
1934 Clouds 24 1020 78 16093 1.5 180 07:38 11.09.2019
1935 Clouds 24 1019 78 16093 2.1 220 07:19 11.09.2019
1936 Clouds 24 1020 78 16093 2.94 228.14 06:38 11.09.2019
1937 Clouds 24 1019 78 16093 1.5 190 06:19 11.09.2019
1938 Clouds 25 1018 74 16093 2.6 220 05:33 11.09.2019
1939 Clear 25 1019 88 16093 2.66 217.847 04:52 11.09.2019
1940 Clear 26 1019 83 16093 2.66 217.847 03:59 11.09.2019
1941 Clouds 26 1018 69 16093 2.1 220 03:26 11.09.2019
1942 Clouds 27 1018 62 16093 3.6 250 02:31 11.09.2019
1943 Clouds 29 1018 58 16093 6.2 240 01:31 11.09.2019
1944 Clouds 30 1017 55 16093 6.2 240 00:37 11.09.2019
1945 Clouds 30 1017 55 16093 6.2 240 00:19 11.09.2019
1946 Clouds 30 1017 52 16093 8.7 220 23:40 10.09.2019
1947 Clouds 31 1017 52 16093 8.7 220 23:21 10.09.2019
1948 Clouds 31 1018 62 16093 6.2 220 22:54 10.09.2019
1949 Clouds 31 1017 52 16093 8.2 220 22:36 10.09.2019
1950 Clouds 31 1017 52 16093 8.2 220 22:18 10.09.2019
1951 Clouds 31 1017 52 16093 8.2 220 22:18 10.09.2019
1952 Clouds 31 1018 55 16093 4.6 240 21:54 10.09.2019
1953 Clouds 31 1017 55 16093 7.7 220 21:36 10.09.2019
1954 Clouds 31 1017 55 16093 7.7 220 21:18 10.09.2019
1955 Clouds 31 1019 62 16093 6.2 240 20:54 10.09.2019
1956 Clouds 31 1018 58 16093 7.7 230 20:36 10.09.2019
1957 Clouds 31 1018 58 16093 7.7 230 20:18 10.09.2019
1958 Clear 31 1019 62 16093 5.7 200 19:54 10.09.2019
1959 Clouds 30 1018 62 16093 5.7 230 19:36 10.09.2019
1960 Clouds 30 1018 62 16093 5.7 230 19:18 10.09.2019
1961 Clear 29 1019 66 16093 7.2 200 18:42 10.09.2019
1962 -273 0 0 0 0 0 18:22 10.09.2019
1963 Clear 28 1019 69 16093 4.6 210 17:55 10.09.2019
1964 Clouds 27 1018 69 16093 4.1 220 17:37 10.09.2019
1965 Clouds 27 1018 69 16093 4.1 220 17:19 10.09.2019
1966 Clear 26 1019 69 16093 4.6 210 16:56 10.09.2019
1967 Clouds 25 1018 69 16093 4.1 200 16:37 10.09.2019
1968 Clouds 25 1018 69 16093 4.1 200 16:37 10.09.2019
1969 Clouds 24 1018 69 16093 4.1 200 16:19 10.09.2019
1970 Rain 23 1019 73 16093 4.83 214.44 15:43 10.09.2019
1971 Rain 22 1019 73 16093 3.32 208.554 15:22 10.09.2019
1972 Rain 22 1019 73 16093 3.32 208.554 15:22 10.09.2019
1973 Clear 22 1019 83 16093 4.6 200 14:57 10.09.2019
1974 Clouds 22 1019 78 16093 2.1 170 14:38 10.09.2019
1975 Clouds 22 1019 78 16093 1.5 70 14:19 10.09.2019
1976 Thunderstorm 22 1019 88 16093 4.6 190 13:44 10.09.2019
1977 Thunderstorm 22 1018 73 16093 5.1 200 13:23 10.09.2019
1978 Thunderstorm 22 1018 88 16093 4.1 190 12:52 10.09.2019
1979 Thunderstorm 22 1018 73 16093 4.68 214.114 12:28 10.09.2019
1980 Clouds 22 1017 73 16093 4.1 190 11:59 10.09.2019
1981 Clear 22 1019 88 16093 4.1 180 11:40 10.09.2019
1982 Clear 22 1019 88 16093 4.1 180 11:22 10.09.2019
1983 Clear 22 1019 94 16093 4.1 180 10:43 10.09.2019
1984 Clear 22 1019 94 16093 4.1 180 10:21 10.09.2019
1985 Clear 22 1019 78 16093 3.1 160 09:59 10.09.2019
1986 Clear 22 1019 88 16093 5.7 180 09:41 10.09.2019
1987 Clear 22 1019 88 16093 5.7 180 09:19 10.09.2019
1988 Clear 22 1019 88 16093 5.7 180 09:19 10.09.2019
1989 Clear 22 1019 78 16093 3.6 160 08:47 10.09.2019
1990 Clear 22 1019 88 16093 3.6 170 08:29 10.09.2019
1991 Clear 22 1018 78 16093 4.1 180 07:56 10.09.2019
1992 Clear 22 1019 88 16093 2.1 150 07:38 10.09.2019
1993 Clear 22 1019 88 16093 2.1 150 07:20 10.09.2019
1994 Clear 22 1019 88 16093 4.1 150 06:39 10.09.2019
1995 Clear 22 1019 88 16093 4.1 150 06:20 10.09.2019
1996 Clear 22 1020 88 16093 3.1 130 04:19 10.09.2019
1997 Clear 23 1019 78 16093 3.57 162.286 02:38 10.09.2019
1998 Clear 23 1019 78 16093 3.57 162.286 02:20 10.09.2019
1999 Clear 23 1019 78 16093 3.57 162.286 02:20 10.09.2019
2000 Clear 23 1019 78 16093 3.57 162.286 02:20 10.09.2019
2001 Clouds 23 1019 73 16093 3.6 100 01:50 10.09.2019
2002 Clouds 23 1019 73 16093 3.6 100 01:50 10.09.2019
2003 Clouds 23 1019 73 16093 3.6 100 01:50 10.09.2019
2004 Clear 24 1019 73 16093 4.1 130 01:22 10.09.2019
2005 Thunderstorm 24 1020 69 16093 2.6 50 00:36 10.09.2019
2006 Thunderstorm 24 1019 73 16093 5.1 130 23:58 09.09.2019
2007 Thunderstorm 24 1020 69 16093 5.1 120 23:40 09.09.2019
2008 Thunderstorm 23 1020 69 16093 5.1 120 23:18 09.09.2019
2009 Clear 23 1020 64 16093 4.6 110 22:54 09.09.2019
2010 Clouds 23 1021 73 16093 4.03 121.907 22:36 09.09.2019
2011 Rain 23 1021 73 16093 4.03 121.907 22:18 09.09.2019
2012 Rain 22 1021 69 16093 3.6 90 21:55 09.09.2019
2013 Rain 22 1022 73 16093 4.03 121.907 21:36 09.09.2019
2014 Rain 22 1022 73 16093 2.48 114.164 21:18 09.09.2019
2015 Rain 21 1022 82 16093 2.6 80 20:55 09.09.2019
2016 Rain 21 1022 78 16093 2.79 120.717 20:36 09.09.2019
2017 Rain 21 1022 78 16093 2.79 120.717 20:36 09.09.2019
2018 Rain 21 1022 73 16093 1.5 70 20:18 09.09.2019
2019 Rain 21 1022 73 16093 1.5 70 19:55 09.09.2019
2020 Thunderstorm 21 1022 88 16093 1.5 130 19:37 09.09.2019
2021 Thunderstorm 21 1022 88 16093 1.5 130 19:18 09.09.2019
2022 Thunderstorm 21 1022 88 16093 1.5 130 19:18 09.09.2019
2023 Thunderstorm 20 1023 82 16093 2.79 120.717 18:41 09.09.2019
2024 Thunderstorm 20 1023 82 16093 2.84 108.556 18:22 09.09.2019
2025 Thunderstorm 20 1022 73 16093 3.6 100 17:59 09.09.2019
2026 Clear 20 1023 88 16093 2.1 120 17:41 09.09.2019
2027 Clear 19 1023 88 16093 2.1 120 17:21 09.09.2019
2028 Clouds 19 1023 77 16093 2.1 80 16:59 09.09.2019
2029 Clouds 19 1022 88 16093 3.6 130 16:39 09.09.2019
2030 Clouds 18 1023 93 16093 2.84 108.556 16:20 09.09.2019
2031 Clouds 18 1023 93 16093 2.84 108.556 16:20 09.09.2019
2032 Rain 18 1023 82 16093 2.6 120 15:56 09.09.2019
2033 Rain 17 1022 100 16093 2.1 120 15:37 09.09.2019
2034 Rain 17 1022 100 16093 2.1 120 15:19 09.09.2019
2035 Rain 17 1022 88 16093 3.6 120 14:57 09.09.2019
2036 Rain 17 1022 93 16093 2.1 90 14:38 09.09.2019
2037 Rain 16 1022 100 16093 2.98 99.032 14:20 09.09.2019
2038 Rain 16 1022 100 16093 2.98 99.032 13:45 09.09.2019
2039 Rain 16 1022 93 16093 2.67 84.129 13:21 09.09.2019
2040 Rain 16 1022 82 16093 2.6 80 12:58 09.09.2019
2041 Rain 16 1021 82 16093 2.1 90 12:40 09.09.2019
2042 Rain 16 1022 100 16093 1.65 104.474 12:20 09.09.2019
2043 Rain 16 1021 100 16093 1.65 104.474 11:48 09.09.2019
2044 Rain 16 1022 100 16093 1.65 104.474 11:24 09.09.2019
2045 Rain 16 1021 82 16093 2.1 90 11:00 09.09.2019
2046 Rain 16 1021 88 16093 2.1 90 10:41 09.09.2019
2047 Rain 16 1021 88 16093 2.1 90 10:21 09.09.2019
2048 Rain 16 1022 82 16093 1.65 104.474 09:57 09.09.2019
2049 Rain 16 1021 100 16093 1.65 104.474 09:38 09.09.2019
2050 Rain 16 1021 100 16093 3.31 92.149 09:19 09.09.2019
2051 Clear 16 1021 93 16093 2.19 102.997 08:39 09.09.2019
2052 Clear 16 1021 93 16093 2.19 102.997 08:20 09.09.2019
2053 Clear 16 1022 93 16093 2.19 102.997 07:48 09.09.2019
2054 Clear 16 1022 93 16093 2.19 102.997 07:23 09.09.2019
2055 Clouds 16 1021 77 16093 3.1 60 06:58 09.09.2019
2056 Clouds 16 1022 77 16093 2.1 20 06:40 09.09.2019
2057 Clouds 16 1022 82 16093 2.06 111.636 05:34 09.09.2019
2058 Clouds 17 1020 82 16093 2.92 96.641 02:59 09.09.2019
2059 Clouds 17 1020 82 16093 2.92 96.641 02:39 09.09.2019
2060 Clouds 18 1020 68 16093 3.1 90 00:50 09.09.2019
2061 Clouds 18 1020 68 16093 3.6 80 00:22 09.09.2019
2062 Clouds 18 1020 63 16093 6.7 100 23:46 08.09.2019
2063 Clouds 18 1020 77 16093 2.6 60 23:24 08.09.2019
2064 Clouds 18 1020 88 16093 3.1 60 22:57 08.09.2019
2065 Rain 17 1020 82 16093 3.62 79.106 22:38 08.09.2019
2066 Rain 17 1020 82 16093 3.62 79.106 22:20 08.09.2019
2067 -273 0 0 0 0 0 21:55 08.09.2019
2068 Rain 17 1021 88 16093 3.62 79.106 21:36 08.09.2019
2069 Rain 17 1021 88 16093 3.8 84.902 21:18 08.09.2019
2070 -273 0 0 0 0 0 20:40 08.09.2019
2071 Rain 17 1021 82 16093 3.68 85.479 20:22 08.09.2019
2072 Rain 17 1021 88 16093 3.68 85.479 19:59 08.09.2019
2073 Rain 17 1021 93 16093 3.68 85.479 19:38 08.09.2019
2074 Rain 17 1021 93 16093 3.68 85.479 19:20 08.09.2019
2075 Rain 17 1021 72 16093 4.1 110 18:58 08.09.2019
2076 Rain 17 1021 88 16093 3.68 85.479 18:38 08.09.2019
2077 Rain 17 1021 88 16093 3.23 85.483 18:19 08.09.2019
2078 Rain 17 1020 77 16093 4.6 80 17:57 08.09.2019
2079 Rain 16 1020 88 16093 3.23 85.483 17:37 08.09.2019
2080 Rain 16 1020 88 16093 3.23 85.483 17:18 08.09.2019
2081 Rain 17 1019 88 16093 6.2 80 16:45 08.09.2019
2082 Rain 16 1019 88 16093 6.2 80 16:22 08.09.2019
2083 Rain 17 1020 77 16093 2.1 80 15:59 08.09.2019
2084 Rain 17 1020 77 16093 2.1 60 15:41 08.09.2019
2085 Rain 17 1020 77 16093 2.1 60 15:21 08.09.2019
2086 Rain 17 1020 72 16093 3.1 70 14:57 08.09.2019
2087 Drizzle 17 1020 72 16093 3.08 78.909 14:39 08.09.2019
2088 Drizzle 17 1020 72 16093 3.08 78.909 14:20 08.09.2019
2089 Rain 17 1020 77 16093 2.6 100 13:56 08.09.2019
2090 Clouds 17 1020 77 16093 3.08 78.909 13:37 08.09.2019
2091 Clouds 18 1020 77 16093 3.04 81.012 13:19 08.09.2019
2092 Clouds 18 1018 77 16093 3.04 81.012 12:42 08.09.2019
2093 Clouds 18 1018 77 16093 1.59 109.004 12:24 08.09.2019
2094 Rain 18 1018 68 16093 2.6 60 11:58 08.09.2019
2095 Clouds 18 1018 77 16093 1.59 109.004 11:40 08.09.2019
2096 Clouds 18 1018 77 16093 1.59 109.004 11:20 08.09.2019
2097 Rain 18 1018 68 16093 1.59 109.004 10:58 08.09.2019
2098 Clouds 18 1018 72 16093 1.59 109.004 10:40 08.09.2019
2099 Clouds 18 1018 72 16093 1.59 109.004 10:21 08.09.2019
2100 Clouds 18 1017 77 16093 1.59 109.004 09:39 08.09.2019
2101 Clouds 18 1017 77 16093 2.46 72.293 09:21 08.09.2019
2102 Clouds 18 1018 68 16093 2.46 72.293 08:57 08.09.2019
2103 Clouds 18 1018 72 16093 2.86 69.967 08:38 08.09.2019
2104 Clouds 18 1018 72 16093 2.86 69.967 08:18 08.09.2019
2105 Clouds 18 1018 77 16093 2.86 69.967 07:39 08.09.2019
2106 Clouds 19 1018 77 16093 2.86 69.967 07:20 08.09.2019
2107 Rain 19 1018 72 16093 4.1 70 06:53 08.09.2019
2108 Rain 19 1018 82 16093 2.86 69.967 06:31 08.09.2019
2109 Rain 19 1018 82 16093 2.86 69.967 06:31 08.09.2019
2110 Rain 19 1017 82 16093 2.33 34.032 05:38 08.09.2019
2111 Clear 20 1018 72 16093 1.5 60 03:56 08.09.2019
2112 Clouds 21 1017 64 16093 4.1 50 02:59 08.09.2019
2113 Clouds 22 1016 60 16093 2.1 310 02:26 08.09.2019
2114 Clouds 22 1016 57 16093 3.1 290 01:49 08.09.2019
2115 Clouds 23 1016 57 16093 2.6 280 01:22 08.09.2019
2116 Clouds 24 1016 53 16093 4.6 270 00:45 08.09.2019
2117 Clouds 24 1016 50 16093 4.1 300 00:26 08.09.2019
2118 Clouds 25 1016 47 16093 2.1 310 23:38 07.09.2019
2119 Clouds 25 1016 47 16093 2.1 310 23:20 07.09.2019
2120 Clouds 25 1016 36 16093 4.1 260 22:58 07.09.2019
2121 Clouds 25 1016 47 16093 2.6 270 22:39 07.09.2019
2122 Clouds 25 1016 47 16093 2.6 270 22:20 07.09.2019
2123 Clouds 25 1017 36 16093 2.1 250 21:42 07.09.2019
2124 Clear 25 1017 50 16093 3.1 230 21:24 07.09.2019
2125 Clouds 25 1017 47 16093 6.2 290 20:57 07.09.2019
2126 Clear 24 1017 53 16093 2.1 220 20:38 07.09.2019
2127 Clear 24 1017 53 16093 2.1 220 20:19 07.09.2019
2128 Clouds 24 1017 53 16093 5.1 250 19:55 07.09.2019
2129 Clear 24 1017 56 16093 4.3 275.374 19:37 07.09.2019
2130 Clear 23 1017 56 16093 4.3 275.374 19:18 07.09.2019
2131 Clouds 23 1017 53 16093 3.6 270 18:55 07.09.2019
2132 Clear 22 1018 60 16093 4.3 275.374 18:36 07.09.2019
2133 Clouds 21 1018 60 16093 3.6 230 18:18 07.09.2019
2134 Clouds 21 1018 60 16093 3.6 230 17:56 07.09.2019
2135 Clear 20 1018 64 16093 1.82 281.859 17:37 07.09.2019
2136 Clear 20 1018 64 16093 1.82 281.859 17:18 07.09.2019
2137 Clear 19 1019 68 16093 1.82 281.859 16:43 07.09.2019
2138 Clear 18 1019 68 16093 1.82 281.859 16:21 07.09.2019
2139 Clear 17 1019 77 16093 1.82 281.859 15:55 07.09.2019
2140 Clear 17 1019 77 16093 1.82 281.859 15:55 07.09.2019
2141 Clear 16 1019 82 16093 1.82 281.859 15:36 07.09.2019
2142 Clear 15 1019 82 16093 2.36 290.692 15:18 07.09.2019
2143 Fog 15 1019 87 16093 2.36 290.692 14:54 07.09.2019
2144 Fog 14 1019 87 16093 2.36 290.692 14:54 07.09.2019
2145 Fog 14 1019 93 16093 2.36 290.692 14:36 07.09.2019
2146 Fog 13 1019 93 16093 2.36 290.692 14:18 07.09.2019
2147 Fog 13 1018 100 16093 2.36 290.692 13:43 07.09.2019
2148 Fog 13 1018 100 16093 2.16 292.289 13:25 07.09.2019
2149 Mist 13 1018 100 16093 2.16 292.289 12:46 07.09.2019
2150 Mist 13 1017 93 16093 2.16 292.289 12:26 07.09.2019
2151 Mist 13 1017 87 16093 2.1 290 11:59 07.09.2019
2152 Mist 13 1017 93 16093 1.91 306.978 11:40 07.09.2019
2153 Rain 13 1017 93 16093 1.91 306.978 11:21 07.09.2019
2154 Rain 14 1017 82 16093 1.91 306.978 10:41 07.09.2019
2155 Fog 14 1017 82 16093 1.91 306.978 10:22 07.09.2019
2156 Mist 14 1018 82 16093 1.5 290 09:57 07.09.2019
2157 Clouds 14 1018 77 16093 3.6 360 09:39 07.09.2019
2158 Clouds 14 1018 77 16093 3.6 360 09:39 07.09.2019
2159 Clouds 15 1018 77 16093 3.6 360 09:20 07.09.2019
2160 Clouds 15 1018 77 16093 3.6 360 09:20 07.09.2019
2161 Clouds 15 1018 82 16093 2.6 350 08:45 07.09.2019
2162 Clouds 16 1018 82 16093 2.6 350 08:26 07.09.2019
2163 Clouds 16 1018 82 16093 2.6 350 08:26 07.09.2019
2164 Mist 17 1018 77 16093 3.1 360 07:48 07.09.2019
2165 Mist 17 1017 82 16093 2.47 341.712 07:28 07.09.2019
2166 Haze 18 1017 72 16093 4.6 20 06:55 07.09.2019
2167 Clouds 18 1018 82 16093 2.47 341.712 06:35 07.09.2019
2168 Clouds 18 1017 82 16093 3.6 360 05:32 07.09.2019
2169 Haze 19 1017 82 16093 2.1 360 04:25 07.09.2019
2170 Clouds 19 1016 82 16093 3.1 360 02:57 07.09.2019
2171 Clouds 19 1016 82 16093 3.1 10 02:21 07.09.2019
2172 Clouds 20 1016 72 16093 2.6 360 01:27 07.09.2019
2173 Clouds 20 1015 77 16093 2.6 10 00:48 07.09.2019
2174 Clouds 20 1015 77 16093 5.1 20 00:21 07.09.2019
2175 Clouds 20 1015 68 16093 5.7 330 23:55 06.09.2019
2176 Clouds 20 1015 82 16093 2.1 360 23:37 06.09.2019
2177 Clouds 20 1015 82 16093 2.1 360 23:18 06.09.2019
2178 Clouds 21 1014 73 16093 5.1 340 22:42 06.09.2019
2179 Clouds 21 1014 88 16093 4.1 10 22:20 06.09.2019
2180 Clouds 21 1014 68 16093 7.7 350 21:59 06.09.2019
2181 Clouds 21 1014 68 16093 7.7 350 21:59 06.09.2019
2182 Clouds 21 1015 64 16093 6.2 330 21:40 06.09.2019
2183 Clouds 21 1014 83 16093 2.1 20 21:22 06.09.2019
2184 Clouds 21 1014 68 16093 6.7 340 20:59 06.09.2019
2185 Clouds 21 1013 78 16093 4.84 321.407 20:40 06.09.2019
2186 Clouds 21 1013 78 16093 4.84 321.407 20:21 06.09.2019
2187 Clouds 21 1013 78 16093 4.84 321.407 20:21 06.09.2019
2188 Clouds 22 1013 68 16093 6.7 330 19:58 06.09.2019
2189 Clouds 21 1014 68 16093 5.7 330 19:39 06.09.2019
2190 Clouds 22 1013 88 16093 3.1 330 19:20 06.09.2019
2191 Clouds 22 1013 83 16093 3.1 300 18:47 06.09.2019
2192 Clouds 22 1013 69 16093 6.7 320 18:29 06.09.2019
2193 Clouds 22 1012 73 16093 5.1 330 17:59 06.09.2019
2194 Clouds 21 1012 83 16093 3.1 300 17:38 06.09.2019
2195 Clouds 21 1012 77 16093 6.7 310 17:19 06.09.2019
2196 Clouds 20 1012 77 16093 3.6 250 16:42 06.09.2019
2197 Clouds 20 1012 77 16093 3.6 250 16:19 06.09.2019
2198 Clouds 20 1012 82 16093 4.6 280 15:59 06.09.2019
2199 Clouds 20 1012 82 16093 3.6 240 15:39 06.09.2019
2200 Clouds 19 1012 82 16093 3.1 240 15:21 06.09.2019
2201 Clouds 19 1013 88 16093 3.88 232.672 14:40 06.09.2019
2202 Clouds 19 1013 88 16093 3.88 232.672 14:18 06.09.2019
2203 Clouds 18 1013 82 16093 3.6 210 13:43 06.09.2019
2204 Clouds 19 1013 82 16093 3.6 210 13:22 06.09.2019
2205 Clouds 18 1013 88 16093 2.1 200 12:41 06.09.2019
2206 Clouds 18 1013 88 16093 2.1 200 12:23 06.09.2019
2207 Clouds 18 1012 68 16093 2.6 200 11:59 06.09.2019
2208 Clouds 18 1014 88 16093 3.1 190 11:40 06.09.2019
2209 Clouds 18 1014 88 16093 3.1 190 11:22 06.09.2019
2210 Clouds 18 1013 68 16093 2.6 180 10:54 06.09.2019
2211 Clouds 18 1013 68 16093 2.6 180 10:54 06.09.2019
2212 Clouds 18 1015 88 16093 1.5 190 10:36 06.09.2019
2213 Clouds 18 1015 88 16093 1.5 190 10:18 06.09.2019
2214 Clouds 18 1015 82 16093 4.1 180 09:38 06.09.2019
2215 Clouds 18 1015 82 16093 4.1 180 09:19 06.09.2019
2216 Clouds 18 1015 68 16093 3.6 180 08:54 06.09.2019
2217 Clouds 18 1016 87 16093 3.33 192.13 08:36 06.09.2019
2218 Clouds 18 1016 87 16093 3.33 192.13 08:18 06.09.2019
2219 Clouds 17 1016 82 16093 2.1 210 07:41 06.09.2019
2220 Clouds 17 1016 82 16093 2.1 210 07:22 06.09.2019
2221 Clear 17 1017 87 16093 3.33 192.13 06:41 06.09.2019
2222 Clear 17 1017 77 16093 2.1 150 05:57 06.09.2019
2223 Clouds 17 1016 72 16093 3.1 160 04:56 06.09.2019
2224 -273 0 0 0 0 0 04:25 06.09.2019
2225 Clear 18 1018 72 16093 2.91 227.423 03:23 06.09.2019
2226 Clear 20 1018 64 16093 2.1 70 01:31 06.09.2019
2227 Clear 22 1019 60 16093 3.6 40 00:23 06.09.2019
2228 Clear 23 1019 52 16093 3.6 50 23:42 05.09.2019
2229 Clear 23 1019 56 16093 3.37 256.195 23:22 05.09.2019
2230 Clear 23 1020 56 16093 3.1 40 22:46 05.09.2019
2231 Clear 23 1020 56 16093 3.1 40 22:27 05.09.2019
2232 Clear 23 1020 53 16093 2.6 90 21:58 05.09.2019
2233 Clear 23 1021 53 16093 3.37 256.195 21:40 05.09.2019
2234 Clear 22 1021 53 16093 1.72 255.251 21:20 05.09.2019
2235 Clear 22 1021 49 16093 3.1 0 20:58 05.09.2019
2236 Clear 22 1022 60 16093 0.99 262.601 20:40 05.09.2019
2237 Clear 22 1022 60 16093 0.99 262.601 20:21 05.09.2019
2238 Clouds 21 1021 52 16093 3.1 50 19:58 05.09.2019
2239 Clear 21 1022 60 16093 1.5 350 19:39 05.09.2019
2240 Clouds 21 1022 63 16093 0.99 262.601 19:20 05.09.2019
2241 Clouds 20 1022 49 16093 2.1 270 18:45 05.09.2019
2242 Clouds 19 1022 68 16093 0.34 44.88 18:27 05.09.2019
2243 Clouds 19 1022 59 16093 0.34 44.88 17:59 05.09.2019
2244 Clouds 19 1022 72 16093 0.34 44.88 17:40 05.09.2019
2245 Clouds 18 1022 72 16093 0.34 44.88 17:22 05.09.2019
2246 Clouds 18 1023 77 16093 0.34 44.88 16:57 05.09.2019
2247 Clouds 18 1023 77 16093 0.34 44.88 16:39 05.09.2019
2248 Clouds 17 1023 77 16093 0.34 44.88 16:19 05.09.2019
2249 Clouds 16 1022 87 16093 0.34 44.88 15:40 05.09.2019
2250 Clouds 15 1022 87 16093 1.25 7.573 15:19 05.09.2019
2251 Clouds 14 1022 87 16093 1.25 7.573 14:58 05.09.2019
2252 Clouds 13 1022 93 16093 1.25 7.573 14:40 05.09.2019
2253 Clouds 13 1022 93 16093 1.25 7.573 14:19 05.09.2019
2254 Clear 13 1022 93 16093 1.25 7.573 13:43 05.09.2019
2255 Clouds 13 1022 93 16093 1.1 4.988 13:21 05.09.2019
2256 Clear 13 1021 82 16093 1.1 4.988 12:46 05.09.2019
2257 Clouds 13 1021 77 16093 1.1 4.988 12:27 05.09.2019
2258 Clouds 13 1021 87 16093 2.6 350 11:58 05.09.2019
2259 Clouds 13 1021 77 16093 0.97 40.947 11:40 05.09.2019
2260 Clouds 13 1021 77 16093 0.97 40.947 11:19 05.09.2019
2261 Clouds 13 1021 72 16093 0.97 40.947 10:42 05.09.2019
2262 Clouds 14 1021 72 16093 0.97 40.947 10:22 05.09.2019
2263 Clouds 14 1021 72 16093 0.97 40.947 10:22 05.09.2019
2264 Clouds 14 1021 72 16093 0.97 40.947 09:58 05.09.2019
2265 Clouds 14 1021 72 16093 0.97 40.947 09:58 05.09.2019
2266 Clouds 15 1021 67 16093 2.1 360 09:39 05.09.2019
2267 Clouds 15 1021 67 16093 2.1 360 09:18 05.09.2019
2268 Clouds 15 1021 67 16093 2.1 360 09:18 05.09.2019
2269 Clouds 16 1022 59 16093 3.1 20 08:45 05.09.2019
2270 Clouds 16 1022 72 16093 2.6 360 08:26 05.09.2019
2271 Clouds 17 1022 59 16093 3.1 10 07:46 05.09.2019
2272 Clouds 16 1022 72 16093 1.5 10 07:27 05.09.2019
2273 Clouds 17 1021 67 16093 4.1 60 06:58 05.09.2019
2274 Clouds 16 1022 77 16093 1.53 82.272 06:31 05.09.2019
2275 Clouds 16 1022 77 16093 1.53 82.272 06:31 05.09.2019
2276 Clouds 16 1021 63 16093 2.6 30 05:50 05.09.2019
2277 Clouds 16 1022 82 16093 1.11 32.147 05:30 05.09.2019
2278 Clouds 16 1021 72 16093 2.6 10 04:53 05.09.2019
2279 Clouds 16 1022 77 16093 1.5 40 04:28 05.09.2019
2280 Clouds 17 1021 77 16093 2.1 50 03:40 05.09.2019
2281 Clouds 17 1021 72 16093 3.6 30 02:51 05.09.2019
2282 Clouds 17 1021 72 16093 3.1 40 02:27 05.09.2019
2283 Clouds 18 1021 72 16093 3.6 60 01:37 05.09.2019
2284 Clouds 18 1021 72 16093 3.6 60 01:37 05.09.2019
2285 Clouds 19 1021 63 16093 4.6 40 00:44 05.09.2019
2286 Clouds 19 1021 68 16093 4.1 40 00:21 05.09.2019
2287 Clouds 20 1021 63 16093 5.1 30 23:55 04.09.2019
2288 Clouds 20 1021 72 16093 5.1 40 23:36 04.09.2019
2289 Clouds 20 1021 72 16093 5.1 40 23:18 04.09.2019
2290 Clouds 20 1020 68 16093 4.6 30 22:40 04.09.2019
2291 Clouds 20 1020 68 16093 4.6 30 22:19 04.09.2019
2292 Clouds 20 1021 68 16093 3.1 20 21:40 04.09.2019
2293 Clouds 21 1021 68 16093 3.1 20 21:20 04.09.2019
2294 Clouds 21 1021 68 16093 3.1 20 21:20 04.09.2019
2295 Clouds 21 1021 60 16093 3.6 30 20:57 04.09.2019
2296 Clouds 21 1021 60 16093 3.6 30 20:57 04.09.2019
2297 Clouds 21 1020 68 16093 4.1 30 20:39 04.09.2019
2298 Clouds 21 1021 68 16093 2.1 30 20:19 04.09.2019
2299 Clouds 21 1020 68 16093 4.1 30 19:56 04.09.2019
2300 Clouds 21 1020 72 16093 3.6 10 19:38 04.09.2019
2301 Clouds 20 1020 72 16093 3.6 10 19:19 04.09.2019
2302 Clouds 20 1020 77 16093 1.5 10 18:38 04.09.2019
2303 Clouds 20 1020 77 16093 1.5 10 18:20 04.09.2019
2304 Clouds 20 1020 56 16093 4.6 30 17:54 04.09.2019
2305 Clouds 20 1020 77 16093 3.6 10 17:36 04.09.2019
2306 Clouds 20 1020 77 16093 3.6 10 17:36 04.09.2019
2307 Clouds 19 1020 72 16093 2.72 338.355 17:18 04.09.2019
2308 Clouds 19 1019 72 16093 4.6 30 16:42 04.09.2019
2309 Clouds 19 1019 72 16093 4.6 30 16:24 04.09.2019
2310 Clear 18 1019 77 16093 2.1 340 15:56 04.09.2019
2311 Clear 17 1018 72 16093 3.1 320 15:38 04.09.2019
2312 Clear 17 1018 72 16093 3.1 320 15:20 04.09.2019
2313 Clear 16 1018 72 16093 4.1 330 14:55 04.09.2019
2314 Clear 16 1018 72 16093 4.1 330 14:55 04.09.2019
2315 Clear 16 1018 82 16093 3.63 331.803 14:37 04.09.2019
2316 Clear 15 1018 82 16093 3.63 331.803 14:18 04.09.2019
2317 Clear 15 1017 82 16093 2.1 320 13:40 04.09.2019
2318 Clear 15 1017 82 16093 2.1 320 13:21 04.09.2019
2319 Clouds 15 1017 77 16093 3.6 310 12:57 04.09.2019
2320 Clear 16 1016 82 16093 2.6 320 12:38 04.09.2019
2321 Clear 16 1016 82 16093 2.6 320 12:19 04.09.2019
2322 Clear 16 1015 82 16093 2.1 300 11:41 04.09.2019
2323 Clear 16 1015 82 16093 2.1 300 11:21 04.09.2019
2324 Clear 17 1016 68 16093 3.1 330 10:59 04.09.2019
2325 Clear 17 1015 77 16093 1.5 290 10:41 04.09.2019
2326 Clear 17 1015 77 16093 1.5 290 10:23 04.09.2019
2327 Clear 18 1015 68 16093 3.1 290 09:46 04.09.2019
2328 Rain 18 1015 72 16093 2.1 300 09:27 04.09.2019
2329 Clear 18 1014 72 16093 2.6 280 08:59 04.09.2019
2330 Clear 19 1014 72 16093 2.6 290 08:40 04.09.2019
2331 Rain 19 1014 72 16093 2.6 290 08:21 04.09.2019
2332 Rain 20 1014 60 16093 2.6 260 07:46 04.09.2019
2333 Clear 20 1014 64 16093 2.6 300 07:28 04.09.2019
2334 Clear 22 1013 69 16093 6.2 320 06:39 04.09.2019
2335 Clouds 23 1012 78 16093 7.2 280 05:19 04.09.2019
2336 Clear 25 1012 60 16093 7.7 320 04:51 04.09.2019
2337 Clouds 26 1010 94 16093 5.1 220 03:45 04.09.2019
2338 Clear 27 1009 83 16093 4.6 210 01:27 04.09.2019
2339 Clear 27 1010 83 16093 5.1 220 00:50 04.09.2019
2340 Clear 27 1009 88 16093 6.2 210 00:32 04.09.2019
2341 Clouds 26 1008 78 16093 7.2 220 23:54 03.09.2019
2342 Clouds 26 1008 78 16093 7.2 220 23:54 03.09.2019
2343 Rain 25 1011 94 16093 5.1 200 23:28 03.09.2019
2344 Rain 25 1010 78 14484 8.2 210 22:58 03.09.2019
2345 Rain 24 1012 83 16093 7.2 220 22:39 03.09.2019
2346 Rain 24 1012 94 9656 5.1 220 22:21 03.09.2019
2347 Rain 24 1012 88 6437 6.7 230 21:56 03.09.2019
2348 Clouds 23 1012 83 16093 6.7 200 21:36 03.09.2019
2349 Clouds 23 1010 78 16093 8.2 200 21:18 03.09.2019
2350 Clouds 23 1012 88 16093 8.7 200 20:42 03.09.2019
2351 Clouds 23 1012 88 16093 8.7 200 20:24 03.09.2019
2352 Thunderstorm 23 1012 83 16093 4.6 220 19:56 03.09.2019
2353 Clouds 23 1011 78 16093 8.2 200 19:38 03.09.2019
2354 Clouds 23 1012 88 16093 5.1 210 19:18 03.09.2019
2355 Clouds 22 1012 83 16093 9.3 200 18:44 03.09.2019
2356 Thunderstorm 22 1012 88 16093 6.2 210 18:26 03.09.2019
2357 Rain 21 1012 73 16093 7.2 210 17:58 03.09.2019
2358 Rain 21 1011 88 16093 7.7 170 17:40 03.09.2019
2359 Rain 21 1011 88 16093 7.7 170 17:19 03.09.2019
2360 Rain 21 1011 73 16093 6.7 200 16:56 03.09.2019
2361 Rain 20 1011 77 16093 10.3 190 16:38 03.09.2019
2362 Rain 20 1011 83 16093 9.3 190 16:19 03.09.2019
2363 Rain 19 1009 93 16093 12.3 170 15:40 03.09.2019
2364 Rain 19 1017 100 16093 5.91 198.999 15:21 03.09.2019
2365 Rain 19 1018 93 16093 2.6 230 14:58 03.09.2019
2366 Rain 19 1017 93 9656 5.91 198.999 14:40 03.09.2019
2367 Rain 19 1017 93 9656 5.91 198.999 14:20 03.09.2019
2368 Rain 19 1017 93 9656 5.91 198.999 14:20 03.09.2019
2369 Rain 19 1016 93 11265 5.91 198.999 13:56 03.09.2019
2370 Rain 19 1016 100 16093 2.1 190 13:37 03.09.2019
2371 Rain 19 1017 77 16093 2.1 250 13:19 03.09.2019
2372 Thunderstorm 19 1016 100 16093 2.1 190 13:19 03.09.2019
2373 Thunderstorm 19 1016 82 16093 2.6 200 12:49 03.09.2019
2374 Clear 19 1016 100 16093 2.6 160 12:30 03.09.2019
2375 Clear 19 1016 82 16093 2.6 200 11:59 03.09.2019
2376 Clear 19 1016 93 16093 2.6 190 11:38 03.09.2019
2377 Clear 19 1016 93 16093 2.6 190 11:19 03.09.2019
2378 Clear 19 1016 77 16093 1.5 200 10:55 03.09.2019
2379 Clear 19 1016 93 16093 2.6 200 10:36 03.09.2019
2380 Clear 20 1016 93 16093 2.6 200 10:18 03.09.2019
2381 Clear 19 1017 93 16093 2.6 190 09:42 03.09.2019
2382 Clear 19 1017 93 16093 2.6 190 09:24 03.09.2019
2383 Clear 20 1017 93 16093 2.6 210 08:41 03.09.2019
2384 Clear 20 1017 93 16093 2.6 210 08:22 03.09.2019
2385 Clouds 20 1016 83 16093 2.6 190 07:57 03.09.2019
2386 Clouds 20 1017 100 16093 2.1 180 07:37 03.09.2019
2387 Clouds 20 1017 100 16093 2.1 180 07:37 03.09.2019
2388 Clouds 20 1017 100 16093 2.1 180 07:18 03.09.2019
2389 Clear 20 1018 93 16093 2.03 130.152 06:41 03.09.2019
2390 Clear 22 1018 78 16093 1.5 50 03:57 03.09.2019
2391 Clear 23 1018 78 16093 1.5 190 03:33 03.09.2019
2392 Clear 25 1018 61 16093 2.1 240 02:40 03.09.2019
2393 Clear 25 1018 61 16093 2.1 240 02:21 03.09.2019
2394 Clouds 26 1018 47 16093 3.1 230 01:45 03.09.2019
2395 Clouds 26 1018 47 16093 3.1 230 01:45 03.09.2019
2396 Clear 27 1018 61 16093 4.1 220 01:25 03.09.2019
2397 Clouds 28 1018 57 16093 2.6 170 00:33 03.09.2019
2398 Clouds 28 1017 51 16093 5.1 220 23:58 02.09.2019
2399 Clouds 28 1019 54 16093 3.46 286.758 23:37 02.09.2019
2400 Clouds 28 1019 54 16093 3.46 286.758 23:37 02.09.2019
2401 Clouds 28 1019 54 16093 3.46 286.758 23:19 02.09.2019
2402 Clouds 28 1018 54 16093 4.1 220 22:55 02.09.2019
2403 Clouds 28 1019 54 16093 3.46 286.758 22:37 02.09.2019
2404 Clouds 28 1019 54 16093 3.46 286.758 22:18 02.09.2019
2405 Clouds 28 1018 54 16093 3.1 250 21:55 02.09.2019
2406 Clouds 27 1019 51 16093 2.1 270 21:37 02.09.2019
2407 Clouds 27 1019 54 16093 2.6 260 21:18 02.09.2019
2408 Clouds 27 1020 61 16093 2.6 250 20:42 02.09.2019
2409 Clouds 27 1020 61 16093 2.6 250 20:23 02.09.2019
2410 Clouds 26 1019 57 16093 2.1 290 19:59 02.09.2019
2411 Clouds 26 1020 61 16093 3.38 279.409 19:41 02.09.2019
2412 Clouds 26 1020 61 16093 3.38 279.409 19:22 02.09.2019
2413 Clouds 25 1020 61 16093 3.38 279.409 18:57 02.09.2019
2414 Clouds 26 1019 61 16093 3.1 280 18:57 02.09.2019
2415 Clear 25 1020 65 16093 3.38 279.409 18:37 02.09.2019
2416 Clouds 25 1020 69 16093 3.6 290 18:18 02.09.2019
2417 Clear 24 1020 73 16093 2.52 291.886 17:40 02.09.2019
2418 Clear 24 1020 73 16093 2.52 291.886 17:21 02.09.2019
2419 Clouds 22 1020 69 16093 3.1 250 16:59 02.09.2019
2420 Clear 22 1020 100 16093 2.52 291.886 16:39 02.09.2019
2421 Clear 21 1020 100 16093 2.52 291.886 16:20 02.09.2019
2422 Clear 21 1020 100 16093 2.52 291.886 16:20 02.09.2019
2423 Mist 19 1020 100 11265 2.52 291.886 15:49 02.09.2019
2424 Mist 19 1020 100 8047 2.52 291.886 15:29 02.09.2019
2425 Mist 17 1020 88 16093 2.6 260 14:58 02.09.2019
2426 Mist 17 1020 93 4828 2.26 282.397 14:40 02.09.2019
2427 Mist 16 1020 100 0 2.26 282.397 14:22 02.09.2019
2428 Mist 16 1020 93 16093 2.6 260 13:56 02.09.2019
2429 Mist 16 1020 93 16093 2.6 260 13:56 02.09.2019
2430 Mist 16 1020 100 402 2.26 282.397 13:38 02.09.2019
2431 Mist 16 1020 100 402 1.99 285.442 13:20 02.09.2019
2432 Mist 16 1020 100 6437 1.99 285.442 12:45 02.09.2019
2433 Mist 16 1020 100 1609 2.34 287.411 12:26 02.09.2019
2434 Mist 16 1019 93 11265 3.1 260 11:59 02.09.2019
2435 Mist 16 1020 100 402 2.34 287.411 11:39 02.09.2019
2436 Mist 16 1020 100 402 2.34 287.411 11:21 02.09.2019
2437 Mist 16 1019 93 9656 2.1 220 10:57 02.09.2019
2438 Mist 16 1019 100 3219 2.34 287.411 10:38 02.09.2019
2439 Mist 16 1019 82 11265 2.34 287.411 10:20 02.09.2019
2440 Mist 16 1019 82 11265 2.34 287.411 09:55 02.09.2019
2441 Mist 16 1019 100 8047 1.98 283.021 09:37 02.09.2019
2442 Mist 16 1019 100 8047 1.76 286.562 09:18 02.09.2019
2443 Mist 16 1019 100 16093 1.76 286.562 08:39 02.09.2019
2444 Mist 16 1019 100 16093 1.76 286.562 08:18 02.09.2019
2445 Mist 17 1019 88 16093 1.76 286.562 07:41 02.09.2019
2446 Mist 17 1019 100 6437 1.5 280 07:21 02.09.2019
2447 Clouds 18 1019 94 11265 1.76 286.562 06:45 02.09.2019
2448 Clouds 18 1019 88 16093 1.06 22.844 06:25 02.09.2019
2449 Clouds 18 1019 88 11265 1.06 22.844 05:48 02.09.2019
2450 Clouds 19 1019 88 16093 1.06 22.844 05:18 02.09.2019
2451 Clouds 19 1018 82 16093 2.1 40 04:20 02.09.2019
2452 Clouds 21 1019 83 16093 1.84 13.362 01:46 02.09.2019
2453 Clouds 22 1019 73 16093 1.59 18.126 00:49 02.09.2019
2454 Clouds 22 1019 83 16093 1.59 18.126 00:30 02.09.2019
2455 Clouds 22 1019 73 16093 1.51 24.005 23:45 01.09.2019
2456 Clouds 22 1019 78 16093 1.51 24.005 23:23 01.09.2019
2457 Haze 22 1018 68 16093 1.5 330 22:59 01.09.2019
2458 Clouds 22 1019 78 16093 1.51 24.005 22:40 01.09.2019
2459 Clouds 22 1019 68 16093 1.51 24.005 22:19 01.09.2019
2460 Clouds 22 1019 68 16093 1.51 24.005 21:57 01.09.2019
2461 Haze 22 1019 73 16093 1.5 280 21:38 01.09.2019
2462 Haze 21 1019 73 16093 1.5 280 21:20 01.09.2019
2463 Clouds 21 1019 73 16093 2.6 350 20:56 01.09.2019
2464 Clouds 21 1020 77 16093 0.8 100.778 20:38 01.09.2019
2465 Clouds 21 1020 77 16093 0.8 100.778 20:18 01.09.2019
2466 Clouds 21 1020 77 16093 0.8 100.778 20:18 01.09.2019
2467 Clouds 21 1020 68 16093 0.8 100.778 19:56 01.09.2019
2468 Clouds 21 1020 68 16093 0.8 100.778 19:37 01.09.2019
2469 Clouds 21 1020 73 16093 0.8 100.778 19:18 01.09.2019
2470 Clouds 21 1021 68 16093 1.5 40 18:42 01.09.2019
2471 Clouds 21 1021 77 16093 3.1 140 18:24 01.09.2019
2472 -273 0 0 0 0 0 17:55 01.09.2019
2473 Clouds 19 1021 77 16093 2.2 103.948 17:37 01.09.2019
2474 Clouds 19 1021 77 16093 2.2 103.948 17:18 01.09.2019
2475 Clouds 19 1021 77 16093 2.2 103.948 17:18 01.09.2019
2476 Clouds 18 1021 82 16093 2.2 103.948 16:39 01.09.2019
2477 Clouds 18 1021 82 16093 2.2 103.948 16:19 01.09.2019
2478 Clouds 17 1021 82 16093 3.1 130 15:47 01.09.2019
2479 Clouds 17 1021 82 16093 2.2 103.948 15:29 01.09.2019
2480 Clouds 16 1021 82 16093 3.16 100.925 14:57 01.09.2019
2481 Clouds 16 1021 87 16093 3.16 100.925 14:38 01.09.2019
2482 Clouds 16 1021 87 16093 3.16 100.925 14:20 01.09.2019
2483 Rain 16 1021 93 16093 3.16 100.925 13:43 01.09.2019
2484 Rain 16 1021 93 16093 2.87 102.706 13:24 01.09.2019
2485 Rain 16 1021 93 16093 2.6 80 12:59 01.09.2019
2486 Rain 16 1022 93 16093 2.87 102.706 12:40 01.09.2019
2487 Rain 16 1022 93 16093 2.87 102.706 12:40 01.09.2019
2488 Rain 16 1022 93 16093 3.81 105 12:21 01.09.2019
2489 Rain 17 1022 93 3219 3.6 90 11:40 01.09.2019
2490 Rain 17 1022 93 3219 3.6 90 11:20 01.09.2019
2491 Rain 17 1022 93 9656 3.6 80 10:57 01.09.2019
2492 Rain 17 1022 93 16093 3.6 70 10:39 01.09.2019
2493 Rain 17 1022 93 16093 4.1 80 10:20 01.09.2019
2494 Rain 17 1022 88 16093 3.44 113.431 09:42 01.09.2019
2495 Rain 17 1022 88 16093 2.64 82.152 09:24 01.09.2019
2496 Rain 18 1023 77 16093 2.64 82.152 08:44 01.09.2019
2497 Rain 18 1023 77 16093 2.64 82.152 08:23 01.09.2019
2498 Rain 18 1023 93 14484 2.6 120 07:49 01.09.2019
2499 Rain 18 1023 77 16093 2.64 82.152 07:31 01.09.2019
2500 Rain 19 1023 77 16093 1.5 70 06:42 01.09.2019
2501 Rain 19 1023 77 16093 1.5 70 06:19 01.09.2019
2502 Rain 19 1023 77 16093 3.47 108.007 05:38 01.09.2019
2503 Rain 19 1023 77 16093 3.47 108.007 04:29 01.09.2019
2504 Rain 19 1022 77 16093 2.1 90 03:41 01.09.2019
2505 Rain 19 1022 73 16093 3.6 80 02:57 01.09.2019
2506 Rain 19 1023 73 16093 3.7 89.488 02:26 01.09.2019
2507 Rain 20 1023 64 16093 3.6 90 01:50 01.09.2019
2508 Rain 20 1023 68 16093 3.59 95.631 01:22 01.09.2019
2509 Rain 21 1023 64 16093 3.1 50 00:45 01.09.2019
2510 Rain 21 1023 64 16093 3.1 50 00:21 01.09.2019
2511 Rain 21 1023 64 16093 3.1 50 00:21 01.09.2019
2512 Clouds 22 1024 56 16093 3.6 50 23:48 31.08.2019
2513 Clouds 23 1023 60 16093 1.5 30 23:22 31.08.2019
2514 Clouds 23 1025 53 16093 3.6 60 22:56 31.08.2019
2515 Clouds 23 1025 53 16093 3.6 60 22:56 31.08.2019
2516 Clouds 23 1024 50 16093 4.05 97.868 22:38 31.08.2019
2517 Clouds 23 1024 50 16093 4.05 97.868 22:20 31.08.2019
2518 Clouds 24 1024 49 16093 5.7 70 21:55 31.08.2019
2519 Clouds 24 1024 50 16093 4.1 120 21:37 31.08.2019
2520 Clouds 24 1024 50 16093 4.1 120 21:18 31.08.2019
2521 Clouds 23 1025 38 16093 3.6 100 20:43 31.08.2019
2522 Clouds 23 1025 56 16093 2.1 130 20:24 31.08.2019
2523 Clouds 23 1025 38 16093 3.1 130 19:47 31.08.2019
2524 Clouds 23 1025 53 16093 4.39 87.038 19:23 31.08.2019
2525 Clouds 22 1025 52 16093 5.1 100 18:58 31.08.2019
2526 Clouds 22 1025 53 16093 3.6 100 18:39 31.08.2019
2527 Clouds 21 1025 53 16093 3.6 100 18:19 31.08.2019
2528 Clouds 21 1025 52 16093 6.7 100 17:55 31.08.2019
2529 Clear 21 1025 52 16093 4.6 110 17:37 31.08.2019
2530 Clear 20 1025 52 16093 4.6 110 17:18 31.08.2019
2531 Clouds 20 1026 52 16093 5.7 80 16:55 31.08.2019
2532 Clouds 19 1025 63 16093 5.1 100 16:37 31.08.2019
2533 Clouds 19 1025 63 16093 5.1 100 16:18 31.08.2019
2534 Clouds 18 1025 67 16093 4.23 96.646 15:41 31.08.2019
2535 Clouds 17 1025 67 16093 3.34 91.477 15:19 31.08.2019
2536 Clear 16 1026 63 16093 2.1 90 14:55 31.08.2019
2537 Clouds 16 1025 67 16093 3.34 91.477 14:36 31.08.2019
2538 Clouds 15 1025 59 16093 1.5 80 14:18 31.08.2019
2539 Clouds 15 1025 67 16093 3.34 91.477 13:40 31.08.2019
2540 Clouds 15 1025 67 16093 2.91 94.512 13:21 31.08.2019
2541 Clouds 15 1025 63 16093 3.1 100 12:57 31.08.2019
2542 Clouds 15 1025 63 16093 3.1 100 12:57 31.08.2019
2543 Clear 15 1025 67 16093 2.1 70 12:38 31.08.2019
2544 Clear 15 1025 67 16093 2.1 70 12:19 31.08.2019
2545 Clear 15 1025 77 16093 1.81 51.969 11:44 31.08.2019
2546 Clear 15 1025 76 16093 1.81 51.969 11:26 31.08.2019
2547 Clouds 15 1024 63 16093 3.1 70 10:57 31.08.2019
2548 Clouds 15 1024 63 16093 3.1 70 10:57 31.08.2019
2549 Clear 14 1024 76 16093 1.81 51.969 10:39 31.08.2019
2550 Clear 14 1025 77 16093 1.81 51.969 10:18 31.08.2019
2551 Clear 14 1024 82 16093 1.92 56.302 09:40 31.08.2019
2552 Clear 14 1024 82 16093 1.64 48.663 09:22 31.08.2019
2553 Clear 14 1024 67 16093 2.6 130 08:59 31.08.2019
2554 Clear 14 1024 93 16093 1.64 48.663 08:41 31.08.2019
2555 Clear 13 1024 93 16093 1.64 48.663 08:22 31.08.2019
2556 Clear 14 1024 82 16093 1.64 48.663 07:40 31.08.2019
2557 Clear 14 1024 82 16093 1.64 48.663 07:19 31.08.2019
2558 Clear 14 1024 82 16093 1.64 48.663 06:28 31.08.2019
2559 Clouds 15 1023 63 16093 1.5 10 05:55 31.08.2019
2560 Clear 16 1023 63 16093 2.45 9.631 05:29 31.08.2019
2561 Clear 17 1023 55 16093 2.45 9.631 04:30 31.08.2019
2562 Clear 18 1021 63 16093 2.45 9.631 03:44 31.08.2019
2563 Clear 20 1021 60 16093 2.6 50 02:24 31.08.2019
2564 Clear 21 1021 56 16093 3.1 60 01:51 31.08.2019
2565 Clear 21 1021 60 16093 2.1 40 01:31 31.08.2019
2566 Clear 22 1021 56 16093 3.62 344.834 00:48 31.08.2019
2567 Clear 22 1021 56 16093 3.62 344.834 00:48 31.08.2019
2568 Clear 22 1021 56 16093 2.6 30 00:28 31.08.2019
2569 Clouds 23 1021 49 16093 3.6 50 23:51 30.08.2019
2570 Clear 23 1021 56 16093 3.1 60 23:20 30.08.2019
2571 Clouds 23 1021 35 16093 2.6 300 22:59 30.08.2019
2572 Clear 23 1021 53 16093 3.61 338.676 22:39 30.08.2019
2573 Clear 23 1021 53 16093 3.61 338.676 22:21 30.08.2019
2574 Clouds 23 1021 37 16093 2.6 270 21:57 30.08.2019
2575 Clear 23 1021 53 16093 3.26 331.42 21:37 30.08.2019
2576 Clear 23 1021 53 16093 2.98 343.479 21:18 30.08.2019
2577 Clouds 23 1020 40 16093 3.6 320 20:58 30.08.2019
2578 Clear 22 1021 56 16093 2.98 343.479 20:38 30.08.2019
2579 Clear 22 1021 56 16093 2.98 343.479 20:20 30.08.2019
2580 Clouds 22 1020 43 16093 2.6 320 19:56 30.08.2019
2581 Clear 22 1021 60 16093 3.6 340 19:38 30.08.2019
2582 Clear 22 1021 60 16093 3.6 340 19:19 30.08.2019
2583 Clear 22 1020 64 16093 2.98 343.479 18:45 30.08.2019
2584 Clear 21 1020 64 16093 2.59 337.014 18:24 30.08.2019
2585 Clouds 21 1020 49 16093 2.6 360 17:57 30.08.2019
2586 Clear 20 1020 64 16093 2.59 337.014 17:39 30.08.2019
2587 Clear 20 1020 52 16093 3.1 340 17:19 30.08.2019
2588 Clear 20 1020 68 16093 2.59 337.014 16:56 30.08.2019
2589 Clear 19 1020 68 16093 2.59 337.014 16:38 30.08.2019
2590 Clear 19 1020 68 16093 2.59 337.014 16:38 30.08.2019
2591 Clear 19 1020 68 16093 2.59 337.014 16:19 30.08.2019
2592 Clear 17 1020 72 16093 2.59 337.014 15:39 30.08.2019
2593 Clear 17 1020 72 16093 2.64 343.309 15:20 30.08.2019
2594 Clear 16 1019 77 16093 2.64 343.309 14:45 30.08.2019
2595 Clear 16 1019 82 16093 2.64 343.309 14:26 30.08.2019
2596 Clear 16 1019 82 16093 2.64 343.309 14:26 30.08.2019
2597 Clouds 15 1019 72 16093 3.1 310 13:57 30.08.2019
2598 Clear 15 1018 77 16093 2.64 343.309 13:39 30.08.2019
2599 Clear 15 1018 77 16093 2.44 338.991 13:20 30.08.2019
2600 Clouds 15 1017 77 16093 2.44 338.991 12:45 30.08.2019
2601 Clear 15 1017 72 16093 3.24 355.683 12:25 30.08.2019
2602 Clouds 15 1017 67 16093 2.1 310 11:57 30.08.2019
2603 Clear 16 1016 63 16093 1.5 350 11:39 30.08.2019
2604 Clear 16 1016 63 16093 1.5 350 11:39 30.08.2019
2605 Clear 16 1016 63 16093 1.5 350 11:20 30.08.2019
2606 Clear 16 1016 77 16093 2.1 10 10:37 30.08.2019
2607 Clear 17 1016 56 16093 2.1 360 10:19 30.08.2019
2608 Clear 17 1016 67 16093 2.1 340 09:55 30.08.2019
2609 Clear 18 1015 60 16093 3.24 355.683 09:36 30.08.2019
2610 Clear 18 1015 60 16093 3.67 322.449 09:18 30.08.2019
2611 Clear 19 1015 64 16093 3.67 322.449 08:42 30.08.2019
2612 Clear 19 1015 64 16093 3.67 322.449 08:23 30.08.2019
2613 Clear 21 1015 49 16093 5.1 320 07:46 30.08.2019
2614 Clear 22 1015 94 16093 2.6 290 07:25 30.08.2019
2615 Clear 23 1014 78 16093 2.6 250 06:49 30.08.2019
2616 Clear 23 1014 88 16093 3.6 260 06:31 30.08.2019
2617 Clouds 23 1013 50 16093 4.1 290 05:59 30.08.2019
2618 Clear 23 1013 83 16093 3.6 240 05:24 30.08.2019
2619 Clouds 25 1011 65 16093 6.2 240 03:56 30.08.2019
2620 Clouds 25 1011 65 16093 6.2 240 03:56 30.08.2019
2621 Clouds 25 1012 73 16093 4.6 230 03:37 30.08.2019
2622 Clouds 26 1011 69 16093 5.1 230 02:37 30.08.2019
2623 Clouds 26 1011 65 16093 8.2 240 01:40 30.08.2019
2624 Clouds 26 1011 65 16093 8.2 240 01:40 30.08.2019
2625 Clouds 27 1011 61 16093 9.3 230 00:47 30.08.2019
2626 Clouds 28 1011 61 16093 10.3 240 00:18 30.08.2019
2627 Clouds 28 1009 51 16093 9.8 220 23:46 29.08.2019
2628 Clouds 28 1009 51 16093 9.8 220 23:21 29.08.2019
2629 Clouds 28 1009 51 16093 9.8 220 23:21 29.08.2019
2630 Clouds 29 1010 58 16093 4.6 230 22:45 29.08.2019
2631 Clear 29 1012 48 16093 10.8 220 22:27 29.08.2019
2632 Clouds 29 1010 48 16093 7.7 220 21:59 29.08.2019
2633 Clear 29 1012 48 16093 9.3 220 21:40 29.08.2019
2634 Clear 29 1012 48 16093 9.3 220 21:21 29.08.2019
2635 Clear 29 1012 48 16093 9.3 220 21:21 29.08.2019
2636 Clouds 29 1011 48 16093 9.3 220 20:58 29.08.2019
2637 Clouds 28 1013 51 16093 7.2 220 20:39 29.08.2019
2638 Rain 28 1013 48 16093 10.8 210 20:18 29.08.2019
2639 Rain 27 1014 54 16093 7.7 210 19:47 29.08.2019
2640 Rain 27 1014 54 16093 7.7 210 19:26 29.08.2019
2641 Clouds 26 1014 54 16093 9.3 230 18:57 29.08.2019
2642 Clouds 26 1015 53 16093 6.2 200 18:39 29.08.2019
2643 Clouds 25 1014 44 16093 7.7 220 18:18 29.08.2019
2644 Clear 24 1015 50 16093 8.2 210 17:54 29.08.2019
2645 Clear 24 1015 57 16093 5.1 210 17:36 29.08.2019
2646 Clouds 23 1014 53 16093 6.2 220 17:18 29.08.2019
2647 Clear 21 1016 68 16093 4.79 214.128 16:41 29.08.2019
2648 Clear 21 1016 68 16093 4.79 214.128 16:23 29.08.2019
2649 Clear 18 1016 88 16093 4.79 214.128 15:41 29.08.2019
2650 Clear 17 1016 88 16093 2.92 226.306 15:22 29.08.2019
2651 Clear 15 1017 93 16093 2.92 226.306 14:59 29.08.2019
2652 Clear 15 1016 100 16093 2.92 226.306 14:41 29.08.2019
2653 Clear 14 1016 100 16093 2.92 226.306 14:20 29.08.2019
2654 Mist 13 1016 82 16093 1.5 190 13:57 29.08.2019
2655 Mist 13 1016 100 16093 2.92 226.306 13:39 29.08.2019
2656 Mist 13 1016 100 16093 2.92 226.306 13:39 29.08.2019
2657 Mist 13 1016 100 16093 3.1 224.726 13:19 29.08.2019
2658 Mist 13 1016 82 16093 3.1 220 12:56 29.08.2019
2659 Mist 13 1016 100 16093 3.1 224.726 12:38 29.08.2019
2660 Mist 13 1016 100 16093 2.02 247.129 12:20 29.08.2019
2661 Clear 13 1016 82 16093 2.02 247.129 11:43 29.08.2019
2662 Clear 13 1016 100 16093 2.02 247.129 11:21 29.08.2019
2663 Mist 13 1016 82 16093 1.5 180 10:59 29.08.2019
2664 Clear 14 1016 93 16093 2.02 247.129 10:40 29.08.2019
2665 Clear 14 1016 93 16093 2.02 247.129 10:22 29.08.2019
2666 Clear 14 1015 77 16093 2.6 220 09:41 29.08.2019
2667 Clear 14 1015 77 16093 2.6 240 09:19 29.08.2019
2668 Clear 15 1016 77 16093 1.5 160 08:56 29.08.2019
2669 Clear 15 1015 72 16093 2.1 220 08:31 29.08.2019
2670 Clear 15 1015 72 16093 2.1 220 07:59 29.08.2019
2671 Clear 15 1016 87 16093 2.23 261.863 07:41 29.08.2019
2672 Clear 16 1016 87 16093 2.23 261.863 07:23 29.08.2019
2673 Clear 16 1016 82 16093 2.23 261.863 06:40 29.08.2019
2674 Clear 17 1015 87 16093 1.5 230 05:52 29.08.2019
2675 Clear 17 1015 82 16093 3.96 287.457 05:32 29.08.2019
2676 Clear 18 1015 63 16093 3.1 230 04:49 29.08.2019
2677 Clear 19 1015 72 16093 3.96 287.457 04:28 29.08.2019
2678 Clear 22 1014 53 16093 7.7 270 02:18 29.08.2019
2679 Clouds 23 1014 49 16093 5.7 260 01:40 29.08.2019
2680 Clouds 23 1014 47 16093 6.2 270 00:48 29.08.2019
2681 Clouds 24 1014 47 16093 6.7 270 00:24 29.08.2019
2682 Clouds 24 1013 40 16093 9.8 260 23:59 28.08.2019
2683 Clouds 24 1014 47 16093 7.2 280 23:39 28.08.2019
2684 Clouds 24 1014 47 16093 7.2 280 23:39 28.08.2019
2685 Clouds 24 1014 47 16093 7.2 280 23:21 28.08.2019
2686 Clouds 24 1014 33 24140 10.8 260 22:56 28.08.2019
2687 Clouds 24 1014 47 16093 7.2 260 22:38 28.08.2019
2688 Clouds 24 1014 47 16093 7.2 260 22:18 28.08.2019
2689 Clouds 24 1014 47 16093 8.2 280 21:43 28.08.2019
2690 Clouds 24 1014 47 16093 8.2 280 21:25 28.08.2019
2691 Clouds 23 1013 46 16093 8.2 260 20:59 28.08.2019
2692 Clouds 23 1015 49 16093 5.7 280 20:40 28.08.2019
2693 Clouds 23 1015 49 16093 5.7 280 20:22 28.08.2019
2694 Clouds 23 1015 49 16093 5.7 280 20:22 28.08.2019
2695 Clouds 23 1015 50 16093 7.2 250 19:43 28.08.2019
2696 Clouds 23 1015 50 16093 7.2 250 19:22 28.08.2019
2697 Clouds 22 1014 49 16093 7.7 270 18:59 28.08.2019
2698 Clear 22 1015 53 16093 7.7 260 18:39 28.08.2019
2699 Clear 21 1015 53 16093 7.7 260 18:21 28.08.2019
2700 Clear 21 1015 60 16093 6.2 250 17:39 28.08.2019
2701 Clear 20 1015 60 16093 6.2 250 17:19 28.08.2019
2702 Clear 20 1014 52 16093 6.2 260 16:55 28.08.2019
2703 Clear 19 1015 63 16093 4.6 270 16:37 28.08.2019
2704 Clear 19 1015 63 16093 4.6 270 16:18 28.08.2019
2705 Clear 17 1014 72 16093 3.1 270 15:38 28.08.2019
2706 Clear 17 1014 72 16093 3.1 270 15:20 28.08.2019
2707 Clear 16 1014 77 16093 3.6 260 14:58 28.08.2019
2708 Clear 15 1014 82 16093 4.94 269.002 14:39 28.08.2019
2709 Clear 15 1014 67 16093 2.6 250 14:20 28.08.2019
2710 Clear 15 1014 67 16093 2.6 250 13:58 28.08.2019
2711 Clear 15 1014 82 16093 4.94 269.002 13:38 28.08.2019
2712 Clear 15 1014 82 16093 5.19 270.894 13:19 28.08.2019
2713 Clear 15 1014 82 16093 5.19 270.894 12:42 28.08.2019
2714 Clear 15 1014 82 16093 4.65 262.506 12:24 28.08.2019
2715 Clear 15 1013 72 16093 3.6 240 11:57 28.08.2019
2716 Clear 16 1013 82 16093 4.65 262.506 11:38 28.08.2019
2717 Clear 16 1013 82 16093 4.65 262.506 11:20 28.08.2019
2718 Clear 16 1013 72 16093 2.1 220 10:55 28.08.2019
2719 Clear 16 1013 87 16093 4.65 262.506 10:37 28.08.2019
2720 Clear 16 1013 87 16093 4.65 262.506 10:18 28.08.2019
2721 Clear 16 1013 77 16093 5.24 270.514 09:41 28.08.2019
2722 Clear 17 1013 77 16093 4.38 253.179 09:20 28.08.2019
2723 Clear 17 1013 72 16093 4.38 253.179 08:40 28.08.2019
2724 Clear 17 1013 72 16093 4.38 253.179 08:21 28.08.2019
2725 Clear 18 1012 68 16093 4.1 250 07:57 28.08.2019
2726 Clouds 18 1013 72 16093 4.38 253.179 07:36 28.08.2019
2727 Clouds 18 1013 72 16093 4.38 253.179 07:18 28.08.2019
2728 Clear 19 1013 77 16093 4.38 253.179 06:40 28.08.2019
2729 Clear 19 1013 56 16093 2.6 260 05:47 28.08.2019
2730 Clear 22 1012 64 16093 4.73 277.519 03:55 28.08.2019
2731 Clouds 25 1011 50 16093 5.1 250 01:53 28.08.2019
2732 Clear 25 1011 50 16093 5.7 270 01:30 28.08.2019
2733 Clouds 26 1011 50 16093 7.7 270 00:42 28.08.2019
2734 Clouds 26 1011 50 16093 7.7 270 00:18 28.08.2019
2735 Clouds 26 1011 51 16093 5.1 250 23:40 27.08.2019
2736 Clouds 26 1011 51 16093 5.1 250 23:21 27.08.2019
2737 Clouds 26 1010 50 16093 5.1 260 22:57 27.08.2019
2738 Clouds 26 1011 51 16093 4.6 260 22:38 27.08.2019
2739 Clouds 26 1009 47 16093 5.7 260 22:20 27.08.2019
2740 Clouds 26 1009 47 16093 5.7 260 21:55 27.08.2019
2741 Clouds 26 1011 51 16093 6.2 250 21:55 27.08.2019
2742 Clouds 26 1011 54 16093 4.1 240 21:37 27.08.2019
2743 Clouds 26 1011 54 16093 4.1 240 21:18 27.08.2019
2744 Clouds 26 1011 61 16093 5.1 270 20:42 27.08.2019
2745 Clouds 25 1011 61 16093 5.1 270 20:21 27.08.2019
2746 Clouds 25 1010 54 16093 5.7 240 19:58 27.08.2019
2747 Clouds 25 1011 69 16093 4.6 240 19:40 27.08.2019
2748 Clouds 25 1011 69 16093 4.6 240 19:22 27.08.2019
2749 Clear 24 1011 65 16093 4.6 260 18:43 27.08.2019
2750 Clear 24 1011 65 16093 4.6 260 18:19 27.08.2019
2751 Clouds 23 1010 69 16093 4.6 240 17:59 27.08.2019
2752 Clear 23 1011 73 16093 3.6 270 17:41 27.08.2019
2753 Clear 22 1011 73 16093 3.6 270 17:22 27.08.2019
2754 Clear 22 1011 83 16093 3.21 270.624 16:47 27.08.2019
2755 Clear 21 1011 88 16093 3.6 260 16:28 27.08.2019
2756 Clear 21 1011 88 16093 3.6 260 16:28 27.08.2019
2757 Clear 20 1010 68 16093 4.1 250 15:58 27.08.2019
2758 Clear 20 1010 100 16093 3.6 270 15:40 27.08.2019
2759 Clear 19 1010 100 16093 3.6 270 15:21 27.08.2019
2760 Clear 19 1010 77 16093 3.1 240 14:57 27.08.2019
2761 Clear 18 1010 100 16093 4.1 270 14:39 27.08.2019
2762 Clear 18 1010 100 16093 4.1 270 14:19 27.08.2019
2763 Clouds 18 1009 100 16093 3.6 260 13:42 27.08.2019
2764 Clouds 18 1009 100 16093 3.6 260 13:21 27.08.2019
2765 Clouds 19 1008 88 16093 3.1 250 12:55 27.08.2019
2766 Clouds 19 1009 100 16093 3.1 240 12:36 27.08.2019
2767 Clouds 19 1009 100 16093 3.1 240 12:18 27.08.2019
2768 Clouds 19 1009 100 16093 3.1 240 12:18 27.08.2019
2769 Clouds 19 1009 100 16093 2.6 230 11:42 27.08.2019
2770 Clouds 19 1009 100 16093 2.6 230 11:22 27.08.2019
2771 Rain 20 1008 100 16093 2.6 220 10:41 27.08.2019
2772 Rain 20 1008 100 16093 2.6 220 10:20 27.08.2019
2773 Rain 20 1008 94 11265 3.33 274.36 09:57 27.08.2019
2774 Rain 20 1008 100 16093 3.1 210 09:38 27.08.2019
2775 Rain 20 1008 100 16093 3.1 210 09:19 27.08.2019
2776 Rain 20 1008 94 16093 2.88 243.07 08:46 27.08.2019
2777 Rain 20 1007 100 16093 1.5 190 08:26 27.08.2019
2778 Rain 20 1007 83 16093 3.1 260 07:56 27.08.2019
2779 Clouds 20 1007 100 16093 1.5 200 07:37 27.08.2019
2780 Clouds 20 1007 100 16093 4.1 280 07:18 27.08.2019
2781 Clouds 20 1007 94 16093 1.5 220 06:48 27.08.2019
2782 Clouds 20 1007 94 16093 2.1 250 06:20 27.08.2019
2783 Clear 21 1007 88 16093 3.1 240 05:29 27.08.2019
2784 Clear 22 1007 94 16093 3.6 240 04:20 27.08.2019
2785 Rain 22 1006 88 16093 4.6 230 03:31 27.08.2019
2786 Rain 23 1005 94 16093 4.6 210 01:55 27.08.2019
2787 Rain 23 1005 88 16093 3.6 180 01:30 27.08.2019
2788 Rain 23 1005 88 4023 3.1 180 00:50 27.08.2019
2789 Rain 23 1005 88 4023 3.1 180 00:29 27.08.2019
2790 Rain 23 1005 88 4023 8.2 150 23:46 26.08.2019
2791 Rain 23 1005 94 11265 4.6 170 23:26 26.08.2019
2792 Rain 23 1005 94 2816 3.1 220 22:59 26.08.2019
2793 Rain 23 1005 88 4828 7.2 200 22:37 26.08.2019
2794 Rain 23 1005 88 12874 4.1 150 22:19 26.08.2019
2795 Rain 23 1006 88 12874 6.2 160 21:40 26.08.2019
2796 Rain 23 1007 94 16093 5.7 160 21:22 26.08.2019
2797 Rain 23 1007 88 12874 5.1 170 20:59 26.08.2019
2798 Rain 23 1007 94 12874 5.7 150 20:41 26.08.2019
2799 Rain 23 1007 83 16093 5.1 140 20:21 26.08.2019
2800 Rain 22 1008 88 16093 4.6 160 19:59 26.08.2019
2801 Rain 22 1009 94 16093 5.1 160 19:41 26.08.2019
2802 Rain 22 1008 88 16093 5.1 170 19:19 26.08.2019
2803 Rain 21 1009 88 16093 5.1 160 18:55 26.08.2019
2804 Rain 21 1009 100 16093 4.6 160 18:37 26.08.2019
2805 Rain 21 1009 88 4023 2.6 120 18:18 26.08.2019
2806 Rain 20 1009 83 2816 3.1 130 17:43 26.08.2019
2807 Rain 20 1009 88 16093 4.6 140 17:19 26.08.2019
2808 Rain 19 1009 100 11265 4.6 140 16:57 26.08.2019
2809 Rain 19 1011 94 16093 4.1 150 16:38 26.08.2019
2810 Rain 19 1010 93 16093 4.6 140 16:18 26.08.2019
2811 Rain 19 1010 100 6437 3.6 130 15:42 26.08.2019
2812 Rain 18 1011 93 12874 4.6 120 15:22 26.08.2019
2813 Rain 18 1010 100 11265 4.6 140 14:58 26.08.2019
2814 Rain 18 1011 93 12874 2.6 130 14:38 26.08.2019
2815 Rain 18 1011 88 1609 5.7 140 14:19 26.08.2019
2816 Rain 18 1011 88 12874 1.5 90 13:43 26.08.2019
2817 Rain 19 1011 94 11265 3.6 100 13:22 26.08.2019
2818 Rain 19 1012 72 16093 3.6 130 12:54 26.08.2019
2819 Rain 19 1011 82 16093 3.1 110 12:36 26.08.2019
2820 Rain 19 1011 82 16093 3.1 100 12:18 26.08.2019
2821 Rain 19 1012 72 16093 2.6 130 11:38 26.08.2019
2822 Rain 19 1012 94 16093 1.5 60 11:19 26.08.2019
2823 Rain 19 1012 88 16093 2.6 120 10:55 26.08.2019
2824 Rain 19 1013 72 16093 4.1 120 10:36 26.08.2019
2825 Rain 19 1013 64 16093 3.6 120 10:18 26.08.2019
2826 Rain 20 1013 64 16093 3.6 120 09:41 26.08.2019
2827 Rain 20 1013 64 16093 3.6 120 09:23 26.08.2019
2828 Rain 20 1014 64 16093 3.1 120 08:56 26.08.2019
2829 Rain 20 1014 64 16093 3.6 130 08:37 26.08.2019
2830 Drizzle 21 1014 64 16093 3.6 130 08:19 26.08.2019
2831 Rain 21 1015 56 16093 4.6 120 07:42 26.08.2019
2832 Rain 21 1015 56 16093 4.6 120 07:24 26.08.2019
2833 Clouds 21 1015 56 16093 4.1 120 06:50 26.08.2019
2834 Clouds 22 1015 60 16093 3.6 110 06:26 26.08.2019
2835 Clouds 22 1015 68 16093 5.1 110 05:58 26.08.2019
2836 Rain 22 1016 64 16093 3.1 90 04:35 26.08.2019
2837 Clouds 22 1016 56 16093 3.1 110 03:48 26.08.2019
2838 Clouds 23 1016 50 16093 5.1 120 02:19 26.08.2019
2839 Clear 23 1016 57 16093 3.6 90 01:22 26.08.2019
2840 Clear 23 1016 50 16093 3.6 120 00:43 26.08.2019
2841 Clear 24 1016 50 16093 3.6 120 00:24 26.08.2019
2842 Clear 24 1017 47 16093 6.2 100 23:44 25.08.2019
2843 Clear 24 1017 47 16093 6.2 100 23:44 25.08.2019
2844 Clouds 24 1017 47 16093 3.6 100 23:20 25.08.2019
2845 Clear 24 1017 47 16093 5.1 120 22:58 25.08.2019
2846 Clear 25 1017 44 16093 5.1 120 22:39 25.08.2019
2847 Clouds 25 1017 44 16093 5.7 90 22:20 25.08.2019
2848 Clear 25 1017 47 16093 4.1 120 21:58 25.08.2019
2849 Clear 25 1018 47 16093 5.1 100 21:39 25.08.2019
2850 Clouds 25 1018 47 16093 6.2 90 21:18 25.08.2019
2851 Clear 24 1019 50 16093 5.1 110 20:41 25.08.2019
2852 Clear 24 1019 47 16093 2.1 80 20:20 25.08.2019
2853 Clear 24 1019 44 16093 5.1 120 19:59 25.08.2019
2854 Clear 24 1020 47 16093 6.2 120 19:39 25.08.2019
2855 Clouds 24 1019 47 16093 5.7 150 19:20 25.08.2019
2856 Clouds 24 1020 44 16093 3.6 100 18:58 25.08.2019
2857 Clear 24 1020 50 16093 3.6 120 18:40 25.08.2019
2858 Clouds 23 1020 49 16093 3.6 160 18:21 25.08.2019
2859 Clouds 22 1020 43 16093 6.2 130 17:55 25.08.2019
2860 Clear 22 1020 60 16093 4.1 110 17:36 25.08.2019
2861 Clouds 21 1020 53 16093 5.7 120 17:18 25.08.2019
2862 Clear 20 1021 68 16093 3.6 140 16:39 25.08.2019
2863 Clear 20 1020 60 16093 5.7 120 16:21 25.08.2019
2864 Clear 18 1021 77 16093 4.14 113.304 15:44 25.08.2019
2865 Clouds 17 1021 72 16093 2.6 110 15:26 25.08.2019
2866 Clouds 16 1022 67 16093 3.6 130 14:55 25.08.2019
2867 Clouds 16 1022 67 16093 3.6 130 14:55 25.08.2019
2868 Clear 16 1021 87 16093 2.6 120 14:37 25.08.2019
2869 Clouds 15 1021 72 16093 2.1 110 14:19 25.08.2019
2870 Clear 15 1021 87 16093 3.13 109.026 13:43 25.08.2019
2871 Clouds 15 1021 72 16093 3.6 120 13:20 25.08.2019
2872 Clear 15 1021 87 16093 2.97 108.343 12:54 25.08.2019
2873 Clear 15 1021 87 16093 2.97 108.343 12:36 25.08.2019
2874 Clouds 15 1021 67 16093 3.1 130 12:18 25.08.2019
2875 Clear 15 1021 72 16093 2.1 120 11:41 25.08.2019
2876 Clear 16 1021 72 16093 2.1 120 11:22 25.08.2019
2877 Clear 16 1021 72 16093 2.6 120 10:59 25.08.2019
2878 Clear 16 1022 72 16093 2.6 130 10:40 25.08.2019
2879 Clear 16 1022 72 16093 2.6 130 10:20 25.08.2019
2880 Clouds 16 1021 55 16093 2.6 130 10:20 25.08.2019
2881 -273 0 0 0 0 0 09:55 25.08.2019
2882 Clear 16 1022 63 16093 2.6 130 09:37 25.08.2019
2883 Rain 16 1022 55 16093 2.6 120 09:18 25.08.2019
2884 Clear 16 1022 63 16093 3.1 110 08:41 25.08.2019
2885 Clear 16 1022 63 16093 3.1 110 08:20 25.08.2019
2886 Clear 16 1023 67 16093 2.6 110 07:35 25.08.2019
2887 Clear 17 1023 72 16093 1.5 110 06:46 25.08.2019
2888 Clear 17 1023 72 16093 1.5 110 06:46 25.08.2019
2889 Clear 17 1023 59 16093 2.6 100 05:43 25.08.2019
2890 Clear 18 1023 68 16093 3.88 107.949 04:35 25.08.2019
2891 Clear 19 1023 64 16093 2.1 80 03:31 25.08.2019
2892 Clear 20 1022 60 16093 4.58 79.945 02:39 25.08.2019
2893 Clear 22 1022 53 16093 4.6 40 01:24 25.08.2019
2894 Clear 22 1023 53 16093 4.1 30 00:39 25.08.2019
2895 Clouds 22 1023 46 16093 4.1 60 00:20 25.08.2019
2896 Clear 22 1023 49 16093 4.6 50 23:50 24.08.2019
2897 Clear 23 1023 44 16093 4.6 60 23:22 24.08.2019
2898 Clouds 23 1024 43 24140 5.1 90 22:55 24.08.2019
2899 Clear 23 1023 43 16093 3.6 30 22:37 24.08.2019
2900 Clouds 23 1024 40 16093 6.7 70 22:19 24.08.2019
2901 Clouds 23 1024 40 24140 4.6 70 21:55 24.08.2019
2902 Clear 23 1024 43 16093 5.1 50 21:36 24.08.2019
2903 Clouds 23 1024 40 16093 6.7 70 21:18 24.08.2019
2904 Clouds 23 1024 44 16093 5.1 50 20:42 24.08.2019
2905 Clouds 23 1025 40 16093 5.7 70 20:20 24.08.2019
2906 Clouds 23 1025 40 16093 5.7 70 19:59 24.08.2019
2907 Clouds 23 1025 46 16093 3.6 100 19:41 24.08.2019
2908 Clouds 23 1025 46 16093 4.1 110 19:22 24.08.2019
2909 Clear 23 1025 46 16093 4.1 130 18:59 24.08.2019
2910 Clear 22 1026 49 16093 5.7 120 18:38 24.08.2019
2911 Clouds 22 1025 49 16093 5.7 100 18:19 24.08.2019
2912 Clear 22 1026 49 16093 4.6 100 17:43 24.08.2019
2913 Clouds 21 1025 43 16093 5.7 80 17:24 24.08.2019
2914 Clear 21 1026 49 16093 3.6 120 16:48 24.08.2019
2915 Clouds 20 1025 49 16093 4.6 120 16:20 24.08.2019
2916 Clouds 20 1025 72 16093 2.6 110 15:58 24.08.2019
2917 Clear 19 1026 67 16093 4.1 110 15:40 24.08.2019
2918 Clear 18 1026 72 16093 3.6 130 15:22 24.08.2019
2919 Clear 16 1025 87 16093 1.5 110 14:43 24.08.2019
2920 Clear 15 1025 87 16093 1.5 110 14:22 24.08.2019
2921 Clouds 14 1025 93 16093 2.64 102.025 13:56 24.08.2019
2922 Clear 14 1025 87 16093 2.27 100.745 13:37 24.08.2019
2923 Clouds 14 1025 68 16093 4.1 130 13:19 24.08.2019
2924 Clouds 15 1025 87 16093 2.6 110 12:42 24.08.2019
2925 Clouds 15 1025 93 16093 1.25 46.26 12:24 24.08.2019
2926 Clouds 14 1025 87 16093 1.25 46.26 11:58 24.08.2019
2927 Clouds 14 1025 67 16093 3.1 120 11:39 24.08.2019
2928 Clouds 15 1025 67 16093 3.1 120 11:20 24.08.2019
2929 Clouds 15 1024 72 16093 2.1 110 10:49 24.08.2019
2930 Clouds 15 1024 72 16093 2.1 110 10:23 24.08.2019
2931 Clouds 15 1024 77 16093 2.6 110 09:45 24.08.2019
2932 Clouds 15 1024 77 16093 2.6 110 09:21 24.08.2019
2933 Clear 15 1024 93 16093 2.1 60 08:58 24.08.2019
2934 Clear 15 1024 77 16093 2.1 110 08:39 24.08.2019
2935 Clear 15 1024 77 16093 2.1 110 08:21 24.08.2019
2936 Clear 15 1024 93 16093 2.08 56.363 07:49 24.08.2019
2937 Clouds 16 1023 68 16093 3.6 50 07:26 24.08.2019
2938 Clear 15 1024 82 16093 2.08 56.363 06:29 24.08.2019
2939 Clear 16 1024 77 16093 3.31 51.294 05:42 24.08.2019
2940 Clear 17 1023 68 16093 3.31 51.294 04:46 24.08.2019
2941 Clear 18 1023 63 16093 3.6 30 03:37 24.08.2019
2942 Clear 20 1023 60 16093 4.6 20 02:26 24.08.2019
2943 Clear 21 1023 56 16093 5.7 20 01:31 24.08.2019
2944 Clouds 21 1023 49 24140 5.1 30 00:53 24.08.2019
2945 Clear 22 1023 46 16093 5.1 50 00:26 24.08.2019
2946 Clouds 22 1023 49 16093 4.1 30 23:58 23.08.2019
2947 Clouds 22 1023 49 16093 5.1 40 23:37 23.08.2019
2948 Clouds 23 1023 49 16093 6.7 70 23:18 23.08.2019
2949 Clear 23 1023 49 16093 4.6 30 22:42 23.08.2019
2950 Clouds 23 1023 53 16093 3.6 70 22:23 23.08.2019
2951 Clear 23 1023 53 16093 4.1 30 21:40 23.08.2019
2952 Clouds 23 1023 53 16093 3.1 90 21:21 23.08.2019
2953 Clear 23 1022 47 16093 5.7 70 20:57 23.08.2019
2954 Clear 23 1023 49 16093 5.1 30 20:38 23.08.2019
2955 Clouds 23 1023 53 16093 4.6 70 20:19 23.08.2019
2956 Clear 23 1023 43 16093 4.1 50 19:43 23.08.2019
2957 Clouds 23 1023 46 16093 4.6 50 19:18 23.08.2019
2958 Clear 23 1023 46 16093 3.6 70 18:46 23.08.2019
2959 Clear 22 1023 46 16093 3.6 70 18:28 23.08.2019
2960 Clouds 22 1023 43 16093 6.2 40 17:56 23.08.2019
2961 Clear 22 1023 49 16093 4.6 30 17:38 23.08.2019
2962 Clouds 22 1023 53 16093 4.1 60 17:20 23.08.2019
2963 Clear 21 1023 52 16093 2.6 80 16:47 23.08.2019
2964 Clear 21 1023 52 16093 2.6 80 16:29 23.08.2019
2965 Clouds 20 1023 43 16093 3.1 90 15:56 23.08.2019
2966 Clear 20 1022 59 16093 3.6 80 15:37 23.08.2019
2967 Clouds 19 1022 60 16093 6.2 70 15:19 23.08.2019
2968 Clear 17 1022 72 16093 2.1 80 14:41 23.08.2019
2969 Clear 17 1022 72 16093 1.5 70 14:21 23.08.2019
2970 Clear 16 1021 87 16093 2.1 80 13:57 23.08.2019
2971 Clear 15 1021 77 16093 2.1 90 13:39 23.08.2019
2972 Clear 15 1021 82 16093 3.27 52.72 13:20 23.08.2019
2973 Clear 15 1020 67 16093 2.1 80 12:57 23.08.2019
2974 Clear 15 1020 72 16093 3.27 52.72 12:38 23.08.2019
2975 Clear 15 1021 87 16093 1.5 10 12:20 23.08.2019
2976 Clear 15 1021 87 16093 1.5 360 11:55 23.08.2019
2977 Clear 15 1021 87 16093 1.5 360 11:55 23.08.2019
2978 Clear 15 1020 63 16093 2.6 90 11:36 23.08.2019
2979 Clear 15 1020 63 16093 2.6 90 11:18 23.08.2019
2980 Clear 15 1020 55 11265 3.6 80 10:42 23.08.2019
2981 Clear 16 1020 55 11265 3.6 80 10:21 23.08.2019
2982 Clouds 16 1020 52 16093 4.1 70 09:56 23.08.2019
2983 Clouds 16 1020 52 16093 4.1 70 09:38 23.08.2019
2984 Clouds 16 1020 52 16093 4.1 70 09:18 23.08.2019
2985 Clouds 17 1020 52 16093 4.6 80 08:40 23.08.2019
2986 Clouds 17 1020 52 16093 4.6 80 08:19 23.08.2019
2987 Clouds 17 1019 56 16093 4.6 80 07:43 23.08.2019
2988 Clouds 17 1019 56 16093 4.6 80 07:24 23.08.2019
2989 Clouds 18 1019 68 16093 2.6 50 06:57 23.08.2019
2990 Clouds 18 1019 64 16093 3.6 50 06:38 23.08.2019
2991 Clouds 18 1019 56 16093 5.7 50 06:20 23.08.2019
2992 Clouds 19 1018 49 16093 5.7 40 05:34 23.08.2019
2993 Clouds 19 1018 60 16093 4.6 40 04:45 23.08.2019
2994 Clouds 20 1017 52 16093 6.2 50 02:58 23.08.2019
2995 Clouds 21 1017 53 16093 3.6 30 02:23 23.08.2019
2996 Rain 22 1017 53 16093 5.1 40 01:40 23.08.2019
2997 Clear 23 1016 57 16093 5.1 50 00:45 23.08.2019
2998 Clouds 24 1017 47 16093 8.2 40 00:20 23.08.2019
2999 Clear 24 1016 57 16093 5.7 50 23:47 22.08.2019
3000 Clear 24 1016 57 16093 5.7 50 23:25 22.08.2019
3001 Haze 24 1017 50 16093 7.2 40 22:58 22.08.2019
3002 Clear 24 1016 57 16093 5.1 50 22:39 22.08.2019
3003 Clear 24 1018 47 16093 4.6 60 22:21 22.08.2019
3004 -273 0 0 0 0 0 21:55 22.08.2019
3005 Clear 24 1016 53 16093 4.6 50 21:37 22.08.2019
3006 Clouds 24 1017 60 16093 7.2 40 21:19 22.08.2019
3007 Clear 24 1016 50 16093 3.6 40 20:56 22.08.2019
3008 Clear 24 1016 50 16093 2.1 40 20:38 22.08.2019
3009 Clouds 24 1017 57 16093 4.6 50 20:18 22.08.2019
3010 Clear 25 1016 50 16093 3.6 20 19:40 22.08.2019
3011 Clouds 25 1016 54 16093 6.2 70 19:22 22.08.2019
3012 Clouds 25 1017 34 16093 3.1 80 18:59 22.08.2019
3013 Clear 25 1016 53 16093 2.1 80 18:41 22.08.2019
3014 Clouds 24 1016 60 16093 5.1 80 18:20 22.08.2019
3015 Clouds 24 1016 38 16093 4.1 90 17:59 22.08.2019
3016 Clouds 24 1016 53 16093 3.1 80 17:41 22.08.2019
3017 Clouds 24 1016 64 16093 3.1 40 17:20 22.08.2019
3018 Clouds 24 1016 47 16093 2.6 110 16:57 22.08.2019
3019 Clouds 23 1016 57 16093 2.6 100 16:38 22.08.2019
3020 Clear 23 1016 73 16093 2.1 30 16:20 22.08.2019
3021 Clouds 23 1016 73 16093 2.6 340 16:20 22.08.2019
3022 Clouds 23 1016 73 16093 2.6 340 16:20 22.08.2019
3023 Clouds 22 1016 50 16093 2.6 100 15:56 22.08.2019
3024 Clouds 22 1016 50 16093 2.6 100 15:56 22.08.2019
3025 Clear 21 1016 78 16093 2.64 20.042 15:37 22.08.2019
3026 Clouds 20 1016 73 16093 3.6 350 15:18 22.08.2019
3027 Clouds 20 1016 73 16093 3.6 350 15:18 22.08.2019
3028 Clouds 20 1016 73 16093 3.6 350 15:18 22.08.2019
3029 Clouds 20 1016 73 16093 3.6 350 15:18 22.08.2019
3030 Clouds 19 1015 88 16093 2.55 356.069 14:41 22.08.2019
3031 Clouds 19 1015 88 16093 2.55 356.069 14:22 22.08.2019
3032 Clouds 18 1015 77 16093 2.6 330 13:59 22.08.2019
3033 Clouds 18 1015 88 16093 2.55 356.069 13:41 22.08.2019
3034 Clouds 19 1015 73 16093 2.6 340 13:21 22.08.2019
3035 Clouds 19 1015 88 16093 1.9 343.869 12:57 22.08.2019
3036 Clouds 19 1015 83 16093 1.9 343.869 12:38 22.08.2019
3037 Clouds 19 1015 77 16093 2.22 354.773 12:19 22.08.2019
3038 Clear 19 1015 73 16093 2.22 354.773 11:42 22.08.2019
3039 Clear 19 1015 73 16093 2.22 354.773 11:42 22.08.2019
3040 Clear 20 1015 73 16093 2.22 354.773 11:21 22.08.2019
3041 Clouds 20 1015 82 16093 2.1 350 10:58 22.08.2019
3042 Clouds 20 1015 88 16093 2.22 354.773 10:40 22.08.2019
3043 Clouds 20 1015 88 16093 2.22 354.773 10:22 22.08.2019
3044 Clouds 20 1015 83 16093 1.5 20 09:57 22.08.2019
3045 Rain 21 1015 83 16093 1.29 353.168 09:39 22.08.2019
3046 Rain 21 1015 83 16093 3.12 3.638 09:20 22.08.2019
3047 Rain 21 1015 83 16093 2.6 360 08:56 22.08.2019
3048 Clouds 21 1015 83 16093 2.6 360 08:37 22.08.2019
3049 Clouds 21 1015 69 16093 3.1 350 08:19 22.08.2019
3050 Clouds 21 1016 94 16093 3.1 10 07:39 22.08.2019
3051 Clear 21 1015 83 16093 2.6 10 07:19 22.08.2019
3052 Clouds 22 1015 78 16093 2.1 360 06:52 22.08.2019
3053 Clouds 22 1015 73 16093 2.1 360 06:24 22.08.2019
3054 Clouds 22 1016 83 16093 2.1 340 05:40 22.08.2019
3055 Clouds 23 1015 88 16093 3.1 260 04:28 22.08.2019
3056 Clouds 23 1014 78 16093 3.1 330 02:47 22.08.2019
3057 Clouds 24 1012 83 16093 4.14 2.065 02:29 22.08.2019
3058 Clear 24 1013 83 16093 2.6 320 01:22 22.08.2019
3059 Rain 24 1013 74 16093 3.64 335.833 00:44 22.08.2019
3060 Rain 25 1013 74 16093 3.92 301.323 00:25 22.08.2019
3061 Rain 25 1015 78 16093 4.1 280 23:50 21.08.2019
3062 Rain 25 1015 65 16093 7.7 250 23:30 21.08.2019
3063 Thunderstorm 26 1015 65 16093 6.7 260 22:59 21.08.2019
3064 Thunderstorm 27 1015 65 16093 3.6 260 22:41 21.08.2019
3065 Thunderstorm 27 1015 65 16093 3.6 260 22:41 21.08.2019
3066 Clouds 27 1014 65 16093 5.7 250 22:21 21.08.2019
3067 Clear 27 1015 65 16093 5.1 270 21:58 21.08.2019
3068 Clouds 28 1015 66 16093 4.6 260 21:38 21.08.2019
3069 Clear 28 1015 66 16093 2.6 260 21:20 21.08.2019
3070 Clear 28 1015 69 16093 2.6 270 20:58 21.08.2019
3071 Clouds 28 1016 66 16093 4.1 260 20:39 21.08.2019
3072 Clouds 28 1016 66 16093 4.1 260 20:39 21.08.2019
3073 Clouds 28 1015 70 16093 3.1 250 20:21 21.08.2019
3074 Clouds 28 1016 54 16093 4.1 260 19:55 21.08.2019
3075 Clouds 28 1016 69 16093 2.6 280 19:36 21.08.2019
3076 Clouds 28 1015 69 16093 4.1 240 19:18 21.08.2019
3077 Clear 27 1015 74 16093 1.5 290 18:41 21.08.2019
3078 Clouds 27 1015 69 16093 3.6 280 18:22 21.08.2019
3079 Clear 26 1015 83 16093 3.61 272.846 17:45 21.08.2019
3080 Clear 26 1015 83 16093 3.61 272.846 17:25 21.08.2019
3081 Clouds 25 1014 74 16093 3.1 280 16:59 21.08.2019
3082 Clear 24 1015 83 16093 1.5 250 16:40 21.08.2019
3083 Clouds 23 1015 83 16093 2.6 240 16:21 21.08.2019
3084 Clear 22 1015 88 16093 3.61 272.846 15:58 21.08.2019
3085 Clear 22 1016 100 16093 3.61 272.846 15:39 21.08.2019
3086 Clouds 21 1015 88 16093 3.6 230 15:20 21.08.2019
3087 Clouds 20 1016 100 16093 1.91 275.929 14:57 21.08.2019
3088 Mist 19 1015 100 8047 1.91 275.929 14:38 21.08.2019
3089 Mist 18 1014 93 16093 2.6 230 14:20 21.08.2019
3090 Mist 19 1015 100 16093 1.91 275.929 14:20 21.08.2019
3091 Mist 18 1014 100 2414 1.91 275.929 13:45 21.08.2019
3092 Rain 17 1014 100 2816 1.67 270.412 13:22 21.08.2019
3093 Rain 17 1014 100 4023 1.67 270.412 12:59 21.08.2019
3094 Fog 17 1013 93 1207 1.67 270.412 12:40 21.08.2019
3095 Mist 18 1014 93 4023 1.42 276.91 12:21 21.08.2019
3096 Mist 18 1014 100 6437 1.42 276.91 11:58 21.08.2019
3097 Mist 18 1014 100 1609 1.42 276.91 11:39 21.08.2019
3098 Mist 18 1014 100 1609 1.42 276.91 11:21 21.08.2019
3099 Mist 18 1015 100 2414 1.42 276.91 10:56 21.08.2019
3100 Fog 18 1015 100 402 1.42 276.91 10:37 21.08.2019
3101 Fog 18 1015 100 402 1.42 276.91 10:19 21.08.2019
3102 Mist 18 1015 100 3219 1.42 276.91 09:43 21.08.2019
3103 Mist 18 1015 100 3219 1.41 303.012 09:23 21.08.2019
3104 Mist 18 1016 100 16093 1.41 303.012 08:59 21.08.2019
3105 Fog 18 1015 100 402 1.41 303.012 08:41 21.08.2019
3106 Mist 18 1015 100 1207 1.41 303.012 08:21 21.08.2019
3107 Mist 19 1016 100 8047 1.5 220 07:40 21.08.2019
3108 Mist 19 1016 100 8047 1.5 220 07:21 21.08.2019
3109 Clear 19 1015 100 16093 1.41 303.012 06:49 21.08.2019
3110 Clear 20 1015 100 16093 2.1 260 06:22 21.08.2019
3111 Mist 20 1016 88 16093 2.61 304.171 05:42 21.08.2019
3112 Mist 20 1015 100 2012 2.61 304.171 05:23 21.08.2019
3113 Clouds 21 1014 100 16093 2.61 304.171 03:38 21.08.2019
3114 Clouds 24 1013 94 16093 1.3 281.993 01:47 21.08.2019
3115 Clouds 23 1013 73 16093 3.1 30 00:46 21.08.2019
3116 Rain 23 1013 88 16093 1.5 240 00:24 21.08.2019
3117 Rain 23 1013 83 16093 2.6 220.499 23:57 20.08.2019
3118 Rain 23 1014 94 16093 2.6 220.499 23:38 20.08.2019
3119 Rain 22 1014 88 16093 4.1 100 23:18 20.08.2019
3120 Rain 23 1015 83 12874 2.6 220.499 22:56 20.08.2019
3121 Rain 22 1016 94 16093 2.6 220.499 22:37 20.08.2019
3122 Rain 22 1016 88 16093 2.6 220.499 22:18 20.08.2019
3123 Rain 22 1016 94 9656 2.1 0 21:57 20.08.2019
3124 Rain 22 1016 94 16093 4.31 233.577 21:37 20.08.2019
3125 Rain 22 1015 94 16093 5.1 120 21:19 20.08.2019
3126 Rain 21 1016 94 3219 2.86 245.332 20:43 20.08.2019
3127 Rain 21 1016 100 6437 3.6 110 20:24 20.08.2019
3128 Rain 21 1017 94 16093 3.6 240 19:56 20.08.2019
3129 Rain 21 1016 83 16093 6.7 260 19:38 20.08.2019
3130 Rain 21 1015 100 4023 2.86 245.332 19:20 20.08.2019
3131 Rain 22 1016 94 16093 2.86 245.332 18:55 20.08.2019
3132 Mist 23 1016 94 16093 2.86 245.332 18:37 20.08.2019
3133 Thunderstorm 24 1015 94 16093 2.75 248.609 18:18 20.08.2019
3134 Rain 24 1016 94 16093 2.1 160 17:39 20.08.2019
3135 Rain 24 1016 94 16093 2.1 160 17:21 20.08.2019
3136 Rain 24 1016 88 6437 1.5 180 16:58 20.08.2019
3137 Mist 24 1017 94 16093 2.6 220 16:40 20.08.2019
3138 Mist 24 1017 94 16093 2.6 220 16:22 20.08.2019
3139 Mist 23 1016 100 16093 1.5 210 15:41 20.08.2019
3140 Mist 23 1016 100 16093 1.5 210 15:18 20.08.2019
3141 Mist 22 1016 94 6437 0.45 309.887 14:56 20.08.2019
3142 Mist 22 1016 94 11265 1.5 30 14:37 20.08.2019
3143 Mist 22 1016 100 11265 0.45 309.887 14:18 20.08.2019
3144 Mist 22 1016 94 11265 1.5 350 13:54 20.08.2019
3145 Mist 22 1016 94 2012 0.45 309.887 13:36 20.08.2019
3146 Fog 21 1015 94 12874 0.91 32.178 13:18 20.08.2019
3147 Mist 21 1016 88 1207 0.91 32.178 12:44 20.08.2019
3148 Mist 21 1016 100 16093 0.9 5.449 12:23 20.08.2019
3149 Mist 21 1016 94 12874 0.9 5.449 11:55 20.08.2019
3150 Mist 21 1017 100 16093 0.9 5.449 11:37 20.08.2019
3151 Clouds 22 1017 100 16093 0.9 5.449 11:18 20.08.2019
3152 Clouds 22 1017 100 16093 0.9 5.449 10:55 20.08.2019
3153 Clear 22 1017 100 16093 0.9 5.449 10:37 20.08.2019
3154 Clear 22 1017 100 16093 0.9 5.449 10:18 20.08.2019
3155 Mist 22 1017 100 4828 0.9 5.449 09:40 20.08.2019
3156 Mist 22 1017 100 4828 1.52 45.826 09:21 20.08.2019
3157 Mist 22 1017 100 8047 1.52 45.826 08:42 20.08.2019
3158 Clear 22 1017 100 16093 1.52 45.826 08:24 20.08.2019
3159 Clear 23 1017 88 16093 1.52 45.826 07:58 20.08.2019
3160 Clear 23 1016 94 16093 1.52 45.826 07:39 20.08.2019
3161 Rain 23 1016 94 16093 1.52 45.826 07:20 20.08.2019
3162 Rain 23 1017 100 16093 2.1 160 06:46 20.08.2019
3163 Rain 23 1017 100 16093 2.1 160 06:46 20.08.2019
3164 Rain 24 1016 100 16093 1.4 68.532 06:21 20.08.2019
3165 Rain 24 1017 83 16093 1.4 68.532 05:47 20.08.2019
3166 Clouds 24 1016 78 16093 1.4 68.532 04:30 20.08.2019
3167 Clear 26 1015 83 16093 1.66 83.892 02:51 20.08.2019
3168 Rain 27 1016 61 16093 2.6 60 01:58 20.08.2019
3169 Rain 27 1015 66 16093 2.6 190 01:21 20.08.2019
3170 Rain 28 1016 62 16093 3.6 200 00:45 20.08.2019
3171 Rain 28 1016 62 16093 3.6 200 00:25 20.08.2019
3172 Rain 28 1016 66 16093 3.6 160 23:50 19.08.2019
3173 Rain 29 1016 62 16093 2.6 210 23:19 19.08.2019
3174 Clear 29 1016 61 16093 4.6 60 22:59 19.08.2019
3175 Clouds 29 1016 62 16093 2.1 180 22:41 19.08.2019
3176 Clouds 29 1016 62 16093 2.1 180 22:21 19.08.2019
3177 Clouds 29 1017 58 16093 3.1 60 21:57 19.08.2019
3178 Clouds 29 1017 58 16093 3.1 60 21:57 19.08.2019
3179 Clouds 29 1017 65 16093 0.97 347.823 21:38 19.08.2019
3180 Clouds 29 1017 65 16093 0.76 85.642 21:19 19.08.2019
3181 Rain 28 1017 69 16093 3.1 80 20:55 19.08.2019
3182 Rain 28 1017 61 16093 3.6 50 20:37 19.08.2019
3183 Rain 28 1017 69 16093 3.1 60 20:19 19.08.2019
3184 Rain 28 1017 65 16093 3.1 100 19:54 19.08.2019
3185 Rain 28 1017 62 16093 0.76 85.642 19:36 19.08.2019
3186 Rain 28 1017 69 16093 4.1 90 19:18 19.08.2019
3187 Clouds 28 1017 65 16093 0.76 85.642 18:41 19.08.2019
3188 Clouds 27 1017 65 16093 1.69 61.601 18:22 19.08.2019
3189 Clouds 27 1017 61 16093 2.1 50 17:56 19.08.2019
3190 Rain 27 1017 69 16093 1.69 61.601 17:38 19.08.2019
3191 Rain 26 1017 69 16093 1.69 61.601 17:19 19.08.2019
3192 Rain 26 1017 65 16093 3.1 30 16:54 19.08.2019
3193 Clear 26 1017 78 16093 1.69 61.601 16:36 19.08.2019
3194 Clouds 25 1016 69 16093 1.69 61.601 16:18 19.08.2019
3195 Clouds 23 1016 94 16093 1.69 61.601 15:44 19.08.2019
3196 Clouds 22 1016 83 16093 1.47 10.182 15:19 19.08.2019
3197 Clear 21 1016 100 16093 1.47 10.182 14:44 19.08.2019
3198 Clear 20 1016 100 16093 1.47 10.182 14:24 19.08.2019
3199 Fog 20 1016 100 16093 1.5 160 13:59 19.08.2019
3200 Fog 19 1016 100 16093 1.47 10.182 13:40 19.08.2019
3201 Clouds 19 1015 88 16093 1.52 36.027 13:21 19.08.2019
3202 Clouds 19 1015 100 16093 1.52 36.027 12:58 19.08.2019
3203 Rain 20 1015 100 16093 1.52 36.027 12:40 19.08.2019
3204 Rain 20 1015 83 16093 1.76 301.981 12:20 19.08.2019
3205 Clouds 20 1015 100 16093 1.76 301.981 11:42 19.08.2019
3206 Clouds 20 1015 100 16093 1.76 301.981 11:24 19.08.2019
3207 Clouds 20 1015 100 16093 1.76 301.981 10:59 19.08.2019
3208 Clouds 20 1014 100 11265 1.76 301.981 10:39 19.08.2019
3209 Clouds 20 1014 100 11265 1.76 301.981 10:19 19.08.2019
3210 Clouds 20 1014 100 16093 1.76 301.981 09:54 19.08.2019
3211 Clouds 20 1014 100 16093 1.76 301.981 09:36 19.08.2019
3212 Mist 20 1014 100 16093 2.65 260.385 09:18 19.08.2019
3213 Clear 20 1014 100 11265 2.65 260.385 08:41 19.08.2019
3214 Clear 20 1014 100 11265 2.65 260.385 08:21 19.08.2019
3215 Mist 20 1014 100 16093 2.65 260.385 07:52 19.08.2019
3216 Clear 20 1014 100 16093 2.65 260.385 07:34 19.08.2019
3217 Clear 20 1014 100 16093 2.65 260.385 06:59 19.08.2019
3218 Clear 21 1014 100 16093 2.65 260.385 06:36 19.08.2019
3219 Clear 22 1013 94 16093 3.83 253.364 05:26 19.08.2019
3220 Clear 22 1013 83 16093 2.1 260 04:33 19.08.2019
3221 Clear 24 1012 78 16093 1.5 280 03:25 19.08.2019
3222 Rain 25 1011 69 16093 3.6 280 02:30 19.08.2019
3223 Clear 27 1011 65 16093 2.6 280 01:37 19.08.2019
3224 Clear 27 1011 69 16093 3.6 270 00:47 19.08.2019
3225 Clear 27 1011 69 16093 3.6 270 00:23 19.08.2019
3226 Clear 27 1011 69 16093 4.1 270 23:43 18.08.2019
3227 Clear 27 1011 69 16093 4.1 270 23:22 18.08.2019
3228 Clear 27 1011 74 16093 3.6 250 22:59 18.08.2019
3229 Rain 27 1011 69 16093 3.6 280 22:40 18.08.2019
3230 Rain 27 1011 65 16093 2.1 270 22:21 18.08.2019
3231 Rain 27 1010 66 16093 6.2 180 21:57 18.08.2019
3232 Clear 28 1009 65 16093 7.2 190 21:38 18.08.2019
3233 Clouds 28 1010 65 16093 6.2 280 21:20 18.08.2019
3234 Clear 26 1009 78 16093 7.7 170 20:45 18.08.2019
3235 Clear 26 1009 78 16093 7.7 170 20:45 18.08.2019
3236 Clear 26 1009 78 16093 7.7 170 20:26 18.08.2019
3237 Clouds 24 1011 94 16093 3.1 160 19:59 18.08.2019
3238 Clouds 23 1012 100 16093 4.1 180 19:40 18.08.2019
3239 Clouds 23 1012 100 16093 4.1 180 19:22 18.08.2019
3240 Clouds 22 1012 100 24140 3.6 150 18:56 18.08.2019
3241 Rain 22 1011 100 16093 6.48 216.898 18:38 18.08.2019
3242 Rain 22 1010 88 16093 4.1 150 18:20 18.08.2019
3243 Rain 21 1012 88 16093 2.6 80 17:44 18.08.2019
3244 Rain 21 1012 88 16093 4.6 110 17:19 18.08.2019
3245 Rain 21 1012 88 16093 4.6 110 17:19 18.08.2019
3246 Rain 21 1012 100 16093 3.6 70 16:59 18.08.2019
3247 Rain 21 1012 100 6437 1.5 140 16:41 18.08.2019
3248 Rain 21 1011 94 16093 3.43 158.186 16:21 18.08.2019
3249 Rain 21 1011 88 16093 6.7 320 15:59 18.08.2019
3250 Rain 21 1011 94 11265 3.6 160 15:39 18.08.2019
3251 Rain 21 1011 94 11265 3.6 160 15:20 18.08.2019
3252 Rain 21 1011 94 11265 3.6 160 15:20 18.08.2019
3253 Rain 21 1009 100 11265 3.1 130 14:56 18.08.2019
3254 Rain 21 1010 88 4828 3.6 220 14:38 18.08.2019
3255 Thunderstorm 21 1009 94 16093 3.1 190 14:19 18.08.2019
3256 Rain 21 1011 100 16093 3.6 180 13:55 18.08.2019
3257 Rain 22 1011 100 16093 3.1 150 13:36 18.08.2019
3258 Thunderstorm 22 1010 94 16093 3.1 180 13:18 18.08.2019
3259 Rain 21 1010 100 16093 2.67 182.19 12:41 18.08.2019
3260 Rain 21 1010 100 16093 2.08 178.266 12:22 18.08.2019
3261 Rain 21 1009 100 11265 3.1 130 11:55 18.08.2019
3262 Rain 21 1012 100 16093 2.08 178.266 11:36 18.08.2019
3263 Rain 21 1011 94 16093 2.08 178.266 11:18 18.08.2019
3264 Rain 21 1012 83 16093 2.08 178.266 10:41 18.08.2019
3265 Rain 21 1012 100 16093 2.08 178.266 10:21 18.08.2019
3266 Rain 21 1012 100 16093 1.5 140 09:50 18.08.2019
3267 Rain 21 1012 100 16093 1.94 209.264 09:22 18.08.2019
3268 Rain 21 1012 100 16093 1.94 209.264 08:54 18.08.2019
3269 Rain 21 1012 100 11265 1.94 209.264 08:36 18.08.2019
3270 Rain 21 1012 100 11265 1.94 209.264 08:18 18.08.2019
3271 Rain 21 1013 100 16093 1.94 209.264 07:44 18.08.2019
3272 Rain 21 1013 100 16093 1.94 209.264 07:25 18.08.2019
3273 Rain 22 1013 94 11265 1.9 241.168 05:48 18.08.2019
3274 Mist 22 1013 94 16093 1.9 241.168 04:53 18.08.2019
3275 Clear 24 1012 88 16093 2.6 210 03:41 18.08.2019
3276 Clouds 25 1012 78 16093 3.1 220 02:46 18.08.2019
3277 Rain 25 1012 78 16093 2.1 180 02:23 18.08.2019
3278 Rain 26 1012 78 16093 3.6 210 01:31 18.08.2019
3279 Clear 26 1012 83 16093 2.6 200 00:59 18.08.2019
3280 Clouds 25 1012 83 16093 3.6 240 00:38 18.08.2019
3281 Clouds 25 1012 69 16093 4.1 180 00:18 18.08.2019
3282 Clouds 25 1012 88 16093 2.6 220 23:56 17.08.2019
3283 Clouds 24 1012 88 16093 3.1 180 23:37 17.08.2019
3284 Rain 24 1012 83 16093 3.1 200 23:18 17.08.2019
3285 Rain 24 1013 94 16093 3.1 190 22:42 17.08.2019
3286 Rain 24 1013 83 16093 4.1 170 22:23 17.08.2019
3287 Rain 24 1013 94 16093 3.1 170 21:59 17.08.2019
3288 Rain 24 1012 78 16093 3.1 130 21:40 17.08.2019
3289 Rain 24 1012 78 16093 3.1 130 21:40 17.08.2019
3290 Clouds 24 1013 88 16093 2.6 180 21:22 17.08.2019
3291 Rain 23 1012 78 16093 2.46 205.626 20:40 17.08.2019
3292 Rain 23 1012 88 16093 3.1 130 20:21 17.08.2019
3293 Rain 23 1012 88 16093 3.1 130 20:21 17.08.2019
3294 Rain 23 1012 94 16093 4.6 160 19:59 17.08.2019
3295 Rain 23 1013 94 12874 2.6 200 19:39 17.08.2019
3296 Rain 23 1013 88 16093 2.46 205.626 19:20 17.08.2019
3297 Rain 23 1015 94 16093 4.6 210 18:41 17.08.2019
3298 Rain 24 1014 78 16093 4.1 200 18:19 17.08.2019
3299 Rain 24 1015 88 16093 6.2 210 17:59 17.08.2019
3300 Rain 24 1014 94 16093 2.6 200 17:41 17.08.2019
3301 Rain 24 1014 73 16093 1.5 140 17:21 17.08.2019
3302 Rain 24 1014 73 16093 1.5 140 17:21 17.08.2019
3303 Rain 23 1014 88 16093 2.1 180 16:55 17.08.2019
3304 Rain 23 1014 94 16093 2.1 190 16:36 17.08.2019
3305 Rain 23 1014 73 16093 0.4 117.586 16:18 17.08.2019
3306 Clouds 21 1014 94 16093 0.4 117.586 15:41 17.08.2019
3307 Clouds 21 1014 88 16093 1.21 291.687 15:21 17.08.2019
3308 Clouds 20 1014 100 16093 2.6 190 14:56 17.08.2019
3309 Clouds 20 1014 100 16093 1.21 291.687 14:36 17.08.2019
3310 Clouds 20 1013 83 16093 1.21 291.687 14:18 17.08.2019
3311 Rain 19 1013 100 11265 1.21 291.687 13:42 17.08.2019
3312 Clouds 19 1013 88 16093 1.5 210 13:19 17.08.2019
3313 Mist 19 1013 100 16093 1.09 292.466 12:42 17.08.2019
3314 Rain 19 1012 88 16093 1.53 279.757 12:19 17.08.2019
3315 Rain 19 1013 100 16093 1.53 279.757 11:57 17.08.2019
3316 Thunderstorm 19 1012 100 16093 1.5 210 11:37 17.08.2019
3317 Thunderstorm 19 1012 100 16093 1.53 279.757 11:19 17.08.2019
3318 Rain 20 1012 88 4828 1.53 279.757 10:39 17.08.2019
3319 Rain 20 1013 94 16093 1.53 279.757 10:20 17.08.2019
3320 Rain 20 1013 88 16093 1.53 279.757 09:52 17.08.2019
3321 Rain 20 1013 94 16093 1.53 279.757 09:32 17.08.2019
3322 Rain 20 1013 94 16093 1.99 286.298 08:57 17.08.2019
3323 Clouds 20 1013 94 16093 1.5 270 08:28 17.08.2019
3324 Clear 20 1013 94 16093 2.6 230 07:55 17.08.2019
3325 Clear 20 1013 94 16093 1.5 240 07:36 17.08.2019
3326 Clouds 21 1012 78 16093 3.1 260 07:18 17.08.2019
3327 Clear 22 1012 88 16093 2.1 230 05:57 17.08.2019
3328 Clouds 23 1012 78 16093 3.1 230 04:31 17.08.2019
3329 Rain 24 1011 69 16093 4.1 220 03:36 17.08.2019
3330 Rain 27 1010 58 16093 5.7 230 01:59 17.08.2019
3331 Clouds 27 1011 65 16093 4.1 210 01:36 17.08.2019
3332 Clouds 28 1011 58 16093 5.7 220 01:18 17.08.2019
3333 Clouds 28 1011 61 16093 5.1 190 00:31 17.08.2019
3334 Clouds 29 1011 61 16093 4.6 190 23:57 16.08.2019
3335 Clouds 28 1011 61 16093 4.6 190 23:37 16.08.2019
3336 Clouds 29 1011 58 16093 6.2 210 23:18 16.08.2019
3337 Clouds 28 1012 58 16093 6.7 190 22:40 16.08.2019
3338 Clouds 28 1011 58 16093 8.2 210 22:19 16.08.2019
3339 Clouds 28 1013 58 16093 5.1 210 21:42 16.08.2019
3340 Clouds 28 1012 61 16093 6.7 200 21:21 16.08.2019
3341 Clouds 28 1013 54 16093 4.1 180 20:58 16.08.2019
3342 Clouds 27 1014 61 16093 6.2 180 20:39 16.08.2019
3343 Clouds 27 1013 57 16093 7.2 170 20:19 16.08.2019
3344 Clouds 26 1014 61 16093 4.6 180 19:45 16.08.2019
3345 Clouds 26 1013 61 16093 4.1 190 19:23 16.08.2019
3346 Clouds 25 1014 65 16093 4.1 190 18:59 16.08.2019
3347 Clouds 25 1015 65 16093 4.1 190 18:41 16.08.2019
3348 Rain 24 1014 64 16093 4.1 180 18:22 16.08.2019
3349 Clouds 23 1015 73 16093 3.6 190 17:44 16.08.2019
3350 Clouds 23 1014 73 16093 2.1 160 17:25 16.08.2019
3351 Clouds 22 1015 73 16093 4.6 190 16:56 16.08.2019
3352 Clouds 21 1015 73 16093 4.1 190 16:38 16.08.2019
3353 Clouds 21 1015 64 16093 4.1 180 16:18 16.08.2019
3354 Clouds 20 1015 93 16093 2.6 170 15:41 16.08.2019
3355 Clouds 19 1015 77 16093 2.1 180 15:22 16.08.2019
3356 Clouds 19 1015 82 16093 3.1 160 14:58 16.08.2019
3357 Clear 18 1015 100 16093 2.71 164.319 14:40 16.08.2019
3358 Clouds 17 1015 82 16093 2.1 160 14:19 16.08.2019
3359 Clouds 17 1015 93 16093 2.1 150 13:58 16.08.2019
3360 Clear 17 1015 100 16093 2.71 164.319 13:38 16.08.2019
3361 Clouds 17 1015 88 16093 1.5 130 13:19 16.08.2019
3362 Clear 17 1015 100 16093 3.56 171.922 12:39 16.08.2019
3363 Clouds 17 1015 88 16093 1.5 150 12:20 16.08.2019
3364 Clear 17 1015 100 11265 2.65 185.657 11:43 16.08.2019
3365 Clear 17 1015 100 11265 2.65 185.657 11:24 16.08.2019
3366 Clear 16 1015 100 11265 2.65 185.657 10:55 16.08.2019
3367 Clear 16 1015 100 11265 2.65 185.657 10:55 16.08.2019
3368 Clear 17 1015 100 11265 2.65 185.657 10:55 16.08.2019
3369 Clear 16 1015 100 11265 2.65 185.657 10:36 16.08.2019
3370 Clear 16 1015 100 11265 2.65 185.657 10:18 16.08.2019
3371 Clear 16 1016 100 11265 2.65 185.657 09:38 16.08.2019
3372 Clouds 16 1015 82 16093 1.72 117.491 09:19 16.08.2019
3373 Clear 17 1016 100 11265 1.72 117.491 08:56 16.08.2019
3374 Clear 17 1016 100 11265 1.72 117.491 08:38 16.08.2019
3375 Clear 17 1016 100 11265 1.72 117.491 08:18 16.08.2019
3376 Clear 17 1017 100 11265 1.72 117.491 07:44 16.08.2019
3377 Clear 17 1017 100 11265 1.72 117.491 07:24 16.08.2019
3378 Clear 18 1016 93 16093 1.72 117.491 06:34 16.08.2019
3379 Clouds 19 1016 93 11265 1.43 117.172 05:58 16.08.2019
3380 Clear 19 1016 93 11265 1.43 117.172 05:32 16.08.2019
3381 Clouds 21 1015 64 16093 3.1 100 03:19 16.08.2019
3382 Clear 23 1016 69 16093 4.1 50 01:44 16.08.2019
3383 Clear 23 1016 57 16093 3.6 70 01:24 16.08.2019
3384 Clouds 24 1016 64 16093 4.1 80 00:43 16.08.2019
3385 Clouds 25 1016 57 16093 2.66 6.978 00:22 16.08.2019
3386 Clouds 25 1016 60 16093 4.6 30 23:46 15.08.2019
3387 Clouds 25 1016 61 16093 3.1 70 23:24 15.08.2019
3388 Clouds 25 1016 44 16093 2.6 50 22:59 15.08.2019
3389 Clear 25 1016 57 16093 3.1 30 22:40 15.08.2019
3390 Clouds 25 1016 57 16093 2.1 30 22:21 15.08.2019
3391 Clouds 26 1016 42 16093 2.1 10 21:56 15.08.2019
3392 Clouds 25 1016 61 16093 2.6 30 21:38 15.08.2019
3393 Clouds 25 1016 60 16093 5.1 50 21:18 15.08.2019
3394 Clouds 25 1016 60 16093 4.1 30 20:44 15.08.2019
3395 Clear 25 1017 47 16093 3.07 358.637 20:22 15.08.2019
3396 Clouds 25 1017 57 16093 2.6 330 19:58 15.08.2019
3397 Clouds 25 1016 64 16093 2.6 30 19:39 15.08.2019
3398 Clouds 24 1016 57 16093 4.1 360 19:21 15.08.2019
3399 Clouds 24 1017 69 16093 5.7 360 18:47 15.08.2019
3400 Clouds 24 1016 61 16093 3.1 340 18:23 15.08.2019
3401 Clouds 23 1016 60 16093 3.6 360 17:58 15.08.2019
3402 Clouds 23 1016 64 16093 4.6 10 17:38 15.08.2019
3403 Clouds 22 1016 64 16093 5.7 350 17:20 15.08.2019
3404 Clouds 22 1016 69 16093 3.6 10 16:58 15.08.2019
3405 Clouds 22 1016 68 16093 3.1 10 16:40 15.08.2019
3406 Clear 22 1017 78 16093 2.1 350 16:21 15.08.2019
3407 Clouds 20 1016 83 16093 5.1 330 15:39 15.08.2019
3408 Clouds 19 1016 82 16093 3.6 330 15:20 15.08.2019
3409 Clouds 18 1015 93 16093 2.98 354.691 14:57 15.08.2019
3410 Clouds 18 1015 93 16093 3.6 310 14:38 15.08.2019
3411 Clouds 17 1015 88 16093 3.6 330 14:19 15.08.2019
3412 Clouds 17 1015 93 16093 3.6 320 13:55 15.08.2019
3413 Clouds 17 1015 93 16093 3.6 320 13:37 15.08.2019
3414 Clouds 17 1015 93 16093 3.1 300 13:19 15.08.2019
3415 Clouds 17 1014 93 16093 3.01 12.104 12:40 15.08.2019
3416 Clear 17 1015 93 16093 1.5 330 12:20 15.08.2019
3417 Clear 17 1014 93 16093 3.07 349.847 11:58 15.08.2019
3418 Clouds 17 1014 100 16093 3.07 349.847 11:38 15.08.2019
3419 Clouds 17 1014 100 16093 3.07 349.847 11:38 15.08.2019
3420 Clouds 18 1014 88 16093 2.6 310 11:19 15.08.2019
3421 Clear 18 1015 100 16093 3.07 349.847 10:58 15.08.2019
3422 Clear 18 1015 93 16093 3.07 349.847 10:37 15.08.2019
3423 Clear 18 1015 93 16093 3.07 349.847 10:37 15.08.2019
3424 Clouds 18 1014 93 16093 2.1 310 10:18 15.08.2019
3425 Clear 18 1014 93 16093 3.07 349.847 09:43 15.08.2019
3426 Clear 18 1015 88 16093 1.5 340 09:22 15.08.2019
3427 Clear 19 1015 93 16093 2.1 300 08:39 15.08.2019
3428 Clear 19 1015 88 16093 3.18 343.432 08:21 15.08.2019
3429 Clear 19 1015 88 16093 1.5 300 07:58 15.08.2019
3430 Clouds 19 1015 88 16093 3.1 310 07:39 15.08.2019
3431 Clouds 19 1015 88 16093 3.1 310 07:20 15.08.2019
3432 Clouds 20 1016 73 16093 3.1 330 06:48 15.08.2019
3433 Clouds 20 1015 88 16093 4.1 310 06:25 15.08.2019
3434 Clear 20 1015 83 16093 2.1 360 05:30 15.08.2019
3435 Clouds 21 1015 78 16093 3.1 350 04:57 15.08.2019
3436 Rain 21 1014 73 16093 4.1 360 04:19 15.08.2019
3437 Rain 21 1015 83 16093 3.1 30 03:21 15.08.2019
3438 Clouds 22 1014 78 16093 2.1 20 02:34 15.08.2019
3439 Rain 23 1013 73 16093 3.1 10 01:44 15.08.2019
3440 Rain 23 1013 73 16093 3.6 40 00:58 15.08.2019
3441 Rain 23 1013 94 12874 6.7 20 00:37 15.08.2019
3442 Rain 25 1013 73 16093 7.2 30 00:19 15.08.2019
3443 Rain 25 1013 65 16093 3.6 10 23:55 14.08.2019
3444 Rain 26 1013 69 16093 3.6 350 23:37 14.08.2019
3445 Rain 26 1013 61 16093 3.6 70 23:18 14.08.2019
3446 Rain 26 1013 65 16093 4.1 20 22:41 14.08.2019
3447 Rain 27 1013 58 16093 3.1 330 22:22 14.08.2019
3448 Clouds 27 1013 54 16093 4.6 260 21:57 14.08.2019
3449 Clouds 27 1013 54 16093 6.2 270 21:39 14.08.2019
3450 Clouds 27 1014 61 16093 2.6 330 21:21 14.08.2019
3451 Clouds 26 1013 78 16093 4.1 40 20:56 14.08.2019
3452 Clouds 26 1013 78 16093 4.1 40 20:56 14.08.2019
3453 Clouds 26 1013 58 16093 4.1 230 20:37 14.08.2019
3454 Clouds 26 1014 61 16093 4.1 330 20:18 14.08.2019
3455 Clouds 26 1013 61 16093 2.1 250 19:41 14.08.2019
3456 Clouds 26 1013 61 16093 2.96 275.065 19:22 14.08.2019
3457 Clouds 26 1014 65 16093 2.6 230 18:59 14.08.2019
3458 Clouds 26 1013 61 16093 3.1 0 18:39 14.08.2019
3459 Clouds 25 1013 69 16093 2.1 300 18:21 14.08.2019
3460 Clouds 25 1014 65 16093 3.6 250 17:59 14.08.2019
3461 Clouds 25 1014 69 16093 1.5 270 17:39 14.08.2019
3462 Clouds 24 1014 78 16093 1.64 262.428 17:21 14.08.2019
3463 Clear 24 1014 78 16093 1.64 262.428 16:56 14.08.2019
3464 Clear 24 1014 78 16093 1.64 262.428 16:38 14.08.2019
3465 Clouds 23 1013 73 16093 1.64 262.428 16:19 14.08.2019
3466 Smoke 22 1014 100 16093 1.64 262.428 15:43 14.08.2019
3467 Clouds 21 1014 83 16093 1.5 260 15:19 14.08.2019
3468 Clouds 21 1014 83 16093 1.5 260 15:19 14.08.2019
3469 Clouds 20 1014 100 16093 0.27 144.067 14:56 14.08.2019
3470 Mist 20 1014 100 4828 0.27 144.067 14:38 14.08.2019
3471 Rain 19 1014 94 16093 1.5 270 14:18 14.08.2019
3472 Rain 18 1014 100 0 0.27 144.067 13:43 14.08.2019
3473 Fog 18 1014 100 0 1.47 309.741 13:24 14.08.2019
3474 Mist 19 1014 100 11265 1.47 309.741 12:57 14.08.2019
3475 Clear 19 1014 100 11265 1.47 309.741 12:39 14.08.2019
3476 Mist 19 1014 93 8047 1.75 331.651 12:20 14.08.2019
3477 Clear 19 1013 100 16093 2.1 270 11:56 14.08.2019
3478 Mist 19 1013 100 16093 1.75 331.651 11:37 14.08.2019
3479 Fog 18 1013 100 16093 1.75 331.651 11:19 14.08.2019
3480 Mist 19 1013 100 11265 1.75 331.651 10:43 14.08.2019
3481 Mist 19 1013 100 11265 1.75 331.651 10:24 14.08.2019
3482 Mist 19 1013 100 8047 1.75 331.651 09:57 14.08.2019
3483 Mist 19 1013 100 16093 1.75 331.651 09:38 14.08.2019
3484 Mist 19 1013 100 16093 2.04 13.879 09:19 14.08.2019
3485 Mist 20 1013 94 16093 2.04 13.879 08:39 14.08.2019
3486 Mist 20 1013 94 16093 2.04 13.879 08:21 14.08.2019
3487 Mist 20 1013 88 16093 2.1 20 07:51 14.08.2019
3488 Mist 20 1013 88 16093 2.1 10 07:32 14.08.2019
3489 Clear 21 1013 88 16093 2.6 350 06:46 14.08.2019
3490 Clear 22 1013 88 16093 2.6 360 05:54 14.08.2019
3491 Clear 21 1013 88 16093 2.1 10 05:22 14.08.2019
3492 Rain 23 1012 88 14484 3.1 20 03:38 14.08.2019
3493 Rain 25 1011 83 16093 3.1 60 02:33 14.08.2019
3494 Rain 26 1012 88 4828 4.1 30 01:48 14.08.2019
3495 Rain 28 1011 65 16093 4.1 70 01:18 14.08.2019
3496 Clouds 29 1011 52 16093 2.6 300 23:50 13.08.2019
3497 Clouds 29 1011 65 16093 2.44 28.822 23:25 13.08.2019
3498 Clouds 29 1011 69 16093 4.6 50 22:59 13.08.2019
3499 Clouds 29 1011 61 16093 1.5 20 22:39 13.08.2019
3500 Clouds 29 1011 52 16093 1.5 290 22:21 13.08.2019
3501 Clouds 29 1011 65 16093 2.1 10 21:58 13.08.2019
3502 Clouds 28 1011 69 16093 2.1 10 21:38 13.08.2019
3503 Clouds 28 1011 69 16093 2.1 10 21:38 13.08.2019
3504 Clouds 28 1010 61 16093 4.6 360 21:19 13.08.2019
3505 Clouds 28 1011 78 16093 4.1 360 20:56 13.08.2019
3506 Clouds 28 1011 69 16093 3.23 45.628 20:37 13.08.2019
3507 Clouds 28 1011 65 16093 3.6 340 20:18 13.08.2019
3508 Clouds 27 1011 74 16093 2.6 30 19:43 13.08.2019
3509 Clouds 27 1012 65 16093 2.1 300 19:22 13.08.2019
3510 Clouds 27 1012 83 16093 3.1 350 18:57 13.08.2019
3511 Clouds 26 1011 78 16093 1.5 360 18:38 13.08.2019
3512 Clouds 26 1012 74 16093 2.1 320 18:19 13.08.2019
3513 Clouds 25 1011 83 16093 2.1 10 17:42 13.08.2019
3514 Clouds 25 1011 74 16093 3.1 340 17:22 13.08.2019
3515 Clouds 24 1011 88 16093 2.1 360 16:57 13.08.2019
3516 Clouds 23 1011 88 16093 2.81 356.035 16:39 13.08.2019
3517 Mist 23 1010 88 11265 3.6 330 16:20 13.08.2019
3518 Mist 23 1011 88 11265 2.81 356.035 15:58 13.08.2019
3519 Mist 22 1011 100 4828 2.81 356.035 15:36 13.08.2019
3520 Rain 22 1010 94 11265 3.1 330 15:18 13.08.2019
3521 Rain 22 1009 100 2816 2.44 340.25 14:40 13.08.2019
3522 Rain 22 1009 94 9656 4.1 350 14:19 13.08.2019
3523 Mist 21 1009 94 9656 4.1 350 13:55 13.08.2019
3524 Mist 21 1009 100 4828 1.48 19.084 13:37 13.08.2019
3525 Mist 21 1009 100 4023 2.1 330 13:18 13.08.2019
3526 Mist 21 1009 94 4023 2.6 340 12:41 13.08.2019
3527 Mist 21 1008 100 4023 3.1 330 12:22 13.08.2019
3528 Mist 21 1008 100 4023 3.1 330 12:22 13.08.2019
3529 Mist 21 1008 100 4828 1.71 43.481 11:59 13.08.2019
3530 Mist 21 1008 100 3219 2.1 320 11:39 13.08.2019
3531 Mist 21 1009 100 8047 1.71 43.481 11:20 13.08.2019
3532 Rain 21 1008 100 8047 1.71 43.481 10:56 13.08.2019
3533 Rain 21 1008 100 8047 1.71 43.481 10:37 13.08.2019
3534 Rain 21 1008 100 8047 1.71 43.481 10:37 13.08.2019
3535 Rain 21 1008 94 11265 1.71 43.481 10:19 13.08.2019
3536 Rain 21 1008 94 6437 1.71 43.481 09:43 13.08.2019
3537 Rain 21 1009 94 8047 3.1 40 09:23 13.08.2019
3538 Rain 21 1009 94 8047 3.1 40 09:23 13.08.2019
3539 Rain 21 1009 94 8047 3.1 40 09:23 13.08.2019
3540 Rain 21 1010 88 12874 3.81 52.769 08:44 13.08.2019
3541 Rain 22 1009 100 11265 2.1 80 08:23 13.08.2019
3542 Rain 22 1009 100 11265 2.1 80 08:23 13.08.2019
3543 Rain 22 1009 100 8047 3.81 52.769 07:58 13.08.2019
3544 Rain 22 1009 100 8047 2.6 100 07:37 13.08.2019
3545 Rain 22 1009 100 6437 3.81 52.769 07:00 13.08.2019
3546 Rain 22 1009 94 8047 3.6 70 06:40 13.08.2019
3547 Rain 22 1009 94 8047 4.1 40 05:35 13.08.2019
3548 Rain 23 1011 100 4023 1.5 30 03:36 13.08.2019
3549 Rain 24 1011 83 3219 1.5 210 02:20 13.08.2019
3550 Rain 24 1011 94 8047 2.6 100 01:19 13.08.2019
3551 Rain 24 1011 100 4023 2.6 80 00:47 13.08.2019
3552 Rain 25 1011 88 8047 1.8 20.343 23:57 12.08.2019
3553 Rain 25 1011 83 16093 2.1 190 23:38 12.08.2019
3554 Rain 26 1010 78 9656 2.6 70 23:19 12.08.2019
3555 Rain 26 1010 78 9656 2.6 70 23:19 12.08.2019
3556 Rain 26 1011 78 16093 1.8 20.343 22:40 12.08.2019
3557 Rain 27 1011 74 16093 1.5 80 22:20 12.08.2019
3558 Rain 27 1011 69 11265 1.5 30 22:20 12.08.2019
3559 Rain 27 1011 69 16093 1.8 20.343 21:56 12.08.2019
3560 Clear 27 1010 74 16093 2.1 130 21:37 12.08.2019
3561 Rain 27 1010 78 16093 4.6 70 21:19 12.08.2019
3562 Rain 27 1011 78 16093 2.1 238.443 20:57 12.08.2019
3563 Clouds 27 1011 78 16093 3.6 130 20:38 12.08.2019
3564 Clouds 27 1010 65 16093 3.1 90 20:20 12.08.2019
3565 Clouds 27 1011 74 16093 4.6 170 19:56 12.08.2019
3566 Clouds 27 1012 65 14484 2.1 238.443 19:37 12.08.2019
3567 Clouds 27 1012 65 14484 2.1 238.443 19:19 12.08.2019
3568 Clouds 27 1013 69 16093 2.1 238.443 18:55 12.08.2019
3569 Clouds 27 1013 69 16093 2.1 238.443 18:55 12.08.2019
3570 Clouds 27 1014 74 16093 2.1 238.443 18:37 12.08.2019
3571 Rain 26 1013 74 14484 0.44 290.647 18:18 12.08.2019
3572 Rain 26 1013 74 14484 0.44 290.647 18:18 12.08.2019
3573 Mist 26 1014 69 16093 0.44 290.647 17:46 12.08.2019
3574 Mist 26 1014 78 11265 0.44 290.647 17:28 12.08.2019
3575 Mist 25 1013 83 11265 0.44 290.647 16:56 12.08.2019
3576 Mist 25 1013 83 11265 0.44 290.647 16:56 12.08.2019
3577 Mist 25 1013 83 11265 0.44 290.647 16:56 12.08.2019
3578 -273 0 0 0 0 0 16:56 12.08.2019
3579 -273 0 0 0 0 0 16:56 12.08.2019
3580 Mist 25 1013 88 16093 0.44 290.647 16:37 12.08.2019
3581 Mist 24 1013 83 12874 1.5 350 16:18 12.08.2019
3582 Mist 24 1013 83 11265 0.44 290.647 15:54 12.08.2019
3583 -273 0 0 0 0 0 15:36 12.08.2019
3584 Mist 23 1013 88 11265 2.6 330 15:36 12.08.2019
3585 Rain 23 1014 88 11265 2.6 310 15:18 12.08.2019
3586 Rain 22 1014 100 16093 0.84 324.566 14:41 12.08.2019
3587 -273 0 0 0 0 0 14:41 12.08.2019
3588 Rain 22 1014 100 16093 0.84 324.566 14:41 12.08.2019
3589 Rain 22 1014 100 16093 0.84 324.566 14:41 12.08.2019
3590 Mist 22 1014 100 16093 0.84 324.566 14:22 12.08.2019
3591 Mist 21 1014 100 1207 1.5 200 13:57 12.08.2019
3592 Mist 21 1013 94 16093 0.84 324.566 13:39 12.08.2019
3593 Mist 21 1012 94 9656 2.6 350 13:20 12.08.2019
3594 Mist 21 1012 94 11265 1.04 2.7 12:43 12.08.2019
3595 Mist 21 1013 88 14484 1.62 355.075 12:21 12.08.2019
3596 -273 0 0 0 0 0 11:45 12.08.2019
3597 Mist 21 1013 94 16093 1.62 355.075 11:45 12.08.2019
3598 Mist 21 1013 94 16093 1.62 355.075 11:44 12.08.2019
3599 Mist 21 1013 94 16093 1.62 355.075 11:44 12.08.2019
3600 Mist 22 1013 94 16093 1.62 355.075 11:26 12.08.2019
3601 Fog 22 1013 100 805 1.62 355.075 10:56 12.08.2019
3602 -273 0 0 0 0 0 10:56 12.08.2019
3603 Mist 22 1014 94 16093 1.62 355.075 10:37 12.08.2019
3604 Mist 22 1014 94 16093 1.62 355.075 10:19 12.08.2019
3605 Mist 22 1014 88 402 1.5 280 09:42 12.08.2019
3606 Mist 22 1014 94 16093 1.5 270 09:21 12.08.2019
3607 Mist 22 1014 100 1207 1.08 300.306 08:59 12.08.2019
3608 Mist 22 1014 88 16093 1.08 300.306 08:58 12.08.2019
3609 Mist 22 1014 83 16093 1.08 300.306 08:39 12.08.2019
3610 Mist 22 1014 83 16093 1.08 300.306 08:21 12.08.2019
3611 Mist 23 1014 88 16093 1.08 300.306 07:55 12.08.2019
3612 Mist 23 1014 88 16093 1.08 300.306 07:33 12.08.2019
3613 Rain 23 1014 88 16093 2.6 210 06:53 12.08.2019
3614 Clouds 23 1014 83 16093 2.1 180 05:41 12.08.2019
3615 Rain 24 1014 73 16093 1.81 226.12 03:30 12.08.2019
3616 Mist 25 1014 69 16093 3.52 202.824 02:42 12.08.2019
3617 Clouds 25 1015 65 16093 3.52 202.824 01:23 12.08.2019
3618 Clouds 25 1015 65 16093 4.1 200 00:58 12.08.2019
3619 Clouds 26 1015 61 16093 4.1 190 00:40 12.08.2019
3620 Rain 26 1014 74 16093 4.38 206.799 00:20 12.08.2019
3621 Rain 26 1014 61 16093 3.6 200 23:57 11.08.2019
3622 Rain 26 1014 57 16093 5.1 200 23:38 11.08.2019
3623 Clouds 26 1014 57 16093 4.6 180 23:19 11.08.2019
3624 Clouds 26 1015 54 16093 5.1 200 22:55 11.08.2019
3625 Clouds 26 1015 54 16093 5.1 200 22:36 11.08.2019
3626 Clouds 26 1015 54 16093 4.1 200 22:18 11.08.2019
3627 Clouds 27 1015 51 16093 3.6 170 21:54 11.08.2019
3628 Clouds 27 1016 54 16093 6.2 180 21:36 11.08.2019
3629 Clouds 27 1016 54 16093 5.1 190 21:18 11.08.2019
3630 Clear 27 1017 51 16093 5.1 180 20:41 11.08.2019
3631 Clouds 27 1016 54 16093 5.1 190 20:22 11.08.2019
3632 Clouds 27 1016 54 16093 5.1 190 20:22 11.08.2019
3633 Clear 26 1017 54 16093 4.1 200 19:45 11.08.2019
3634 Clouds 26 1017 69 16093 3.6 170 19:22 11.08.2019
3635 Clouds 25 1017 69 16093 6.2 200 18:58 11.08.2019
3636 Clear 24 1018 57 16093 3.76 200.065 18:38 11.08.2019
3637 Clouds 24 1017 57 16093 4.1 220 18:19 11.08.2019
3638 Rain 23 1017 60 16093 3.76 200.065 17:42 11.08.2019
3639 Rain 22 1017 60 16093 5.1 240 17:20 11.08.2019
3640 Rain 22 1017 88 16093 2.1 160 16:59 11.08.2019
3641 Rain 22 1017 88 16093 2.1 160 16:59 11.08.2019
3642 Rain 22 1017 68 16093 4.6 220 16:40 11.08.2019
3643 Rain 21 1017 83 16093 3.76 200.065 16:20 11.08.2019
3644 Rain 20 1017 93 11265 4.1 220 15:56 11.08.2019
3645 Rain 19 1018 77 16093 3.76 200.065 15:38 11.08.2019
3646 Rain 19 1017 77 16093 2.6 210 15:19 11.08.2019
3647 Rain 19 1017 77 16093 2.31 199.009 14:40 11.08.2019
3648 Rain 19 1018 88 4828 2.31 199.009 14:22 11.08.2019
3649 Rain 19 1017 77 16093 2.31 199.009 13:46 11.08.2019
3650 Rain 19 1017 77 16093 1.9 195.718 13:26 11.08.2019
3651 Clouds 19 1017 82 16093 1.9 195.718 12:59 11.08.2019
3652 Clear 19 1017 82 16093 1.9 195.718 12:41 11.08.2019
3653 Clouds 19 1017 68 16093 2.38 194.48 12:20 11.08.2019
3654 Clear 19 1017 82 16093 2.1 160 11:40 11.08.2019
3655 Clear 19 1017 82 16093 2.1 160 11:40 11.08.2019
3656 Clear 19 1017 82 16093 2.1 160 11:22 11.08.2019
3657 Clouds 19 1016 82 16093 3.1 160 10:56 11.08.2019
3658 Clear 20 1017 82 16093 2.1 150 10:38 11.08.2019
3659 Clear 20 1017 82 16093 2.1 150 10:19 11.08.2019
3660 Clear 20 1017 82 16093 2.1 150 10:19 11.08.2019
3661 Clouds 20 1017 100 16093 1.5 160 09:54 11.08.2019
3662 Clear 20 1017 93 16093 2.38 194.48 09:36 11.08.2019
3663 Clear 20 1017 93 16093 2.38 194.48 09:36 11.08.2019
3664 Clouds 20 1016 56 16093 2.6 150 09:18 11.08.2019
3665 Clear 20 1017 77 16093 1.5 140 08:40 11.08.2019
3666 Clear 21 1017 77 16093 1.5 140 08:22 11.08.2019
3667 Clear 21 1017 93 16093 1.35 203.571 07:46 11.08.2019
3668 Clear 21 1017 68 16093 2.1 120 07:19 11.08.2019
3669 Clear 22 1017 88 16093 1.35 203.571 06:38 11.08.2019
3670 Clear 23 1017 77 16093 1.08 130.848 05:28 11.08.2019
3671 Clouds 25 1016 53 16093 3.1 70 02:54 11.08.2019
3672 Clear 25 1016 47 16093 3.1 100 02:25 11.08.2019
3673 Clear 27 1016 47 16093 3.6 30 01:33 11.08.2019
3674 Rain 27 1016 37 16093 2.1 140 00:56 11.08.2019
3675 Rain 28 1015 45 16093 3.6 50 00:36 11.08.2019
3676 Rain 28 1015 37 16093 3.1 130 23:57 10.08.2019
3677 Rain 29 1016 37 16093 1.84 268.537 23:37 10.08.2019
3678 Clouds 28 1016 42 16093 5.7 90 23:18 10.08.2019
3679 Clear 29 1016 39 16093 1.5 270 22:40 10.08.2019
3680 Clouds 29 1016 37 16093 2.6 330 22:22 10.08.2019
3681 Clouds 28 1016 42 16093 4.6 40 21:56 10.08.2019
3682 Clouds 28 1016 42 16093 4.6 40 21:56 10.08.2019
3683 Clear 28 1016 39 16093 1.84 268.537 21:36 10.08.2019
3684 Clouds 28 1016 39 16093 3.6 250 21:18 10.08.2019
3685 Clear 28 1017 44 16093 2.6 250 20:42 10.08.2019
3686 Clear 28 1017 39 16093 1.5 50 20:21 10.08.2019
3687 Clear 27 1017 39 16093 3.1 249.141 19:56 10.08.2019
3688 Clear 27 1017 44 16093 3.1 249.141 19:37 10.08.2019
3689 Clouds 27 1017 42 16093 3.6 210 19:19 10.08.2019
3690 Clear 26 1017 47 16093 3.1 249.141 18:39 10.08.2019
3691 Rain 26 1017 44 16093 2.6 220 18:20 10.08.2019
3692 Clear 25 1017 50 16093 2.74 236.907 17:44 10.08.2019
3693 Rain 25 1017 50 16093 2.74 236.907 17:24 10.08.2019
3694 Rain 24 1017 56 16093 1.5 210 16:46 10.08.2019
3695 Clear 23 1017 56 16093 1.5 210 16:28 10.08.2019
3696 Clouds 22 1018 56 16093 2.6 230 15:54 10.08.2019
3697 Rain 20 1017 77 16093 1.7 240.108 15:24 10.08.2019
3698 Clear 19 1017 88 16093 1.7 240.108 14:45 10.08.2019
3699 Rain 18 1017 68 16093 1.7 240.108 14:21 10.08.2019
3700 Clear 17 1016 93 16093 1.7 240.108 13:42 10.08.2019
3701 Clear 17 1017 82 16093 0.94 300.191 13:21 10.08.2019
3702 Clear 17 1016 82 16093 0.94 300.191 12:59 10.08.2019
3703 Clear 17 1016 82 16093 0.94 300.191 12:39 10.08.2019
3704 Clouds 17 1016 68 16093 0.98 310.443 12:21 10.08.2019
3705 Clear 17 1016 93 16093 0.98 310.443 11:42 10.08.2019
3706 Clear 17 1016 93 16093 0.98 310.443 11:23 10.08.2019
3707 Clear 17 1016 77 16093 0.98 310.443 10:59 10.08.2019
3708 Clear 17 1016 100 16093 0.98 310.443 10:38 10.08.2019
3709 Clouds 17 1016 68 16093 1.5 240 10:19 10.08.2019
3710 Clear 17 1016 100 16093 0.98 310.443 09:43 10.08.2019
3711 Clear 17 1016 100 16093 0.88 326.49 09:24 10.08.2019
3712 Clear 17 1016 77 16093 1.68 294.858 08:56 10.08.2019
3713 Clear 17 1016 100 16093 1.68 294.858 08:38 10.08.2019
3714 Clear 17 1016 100 16093 1.68 294.858 08:18 10.08.2019
3715 Clear 17 1016 93 16093 1.68 294.858 07:46 10.08.2019
3716 Clear 17 1016 93 16093 1.68 294.858 07:24 10.08.2019
3717 Clear 18 1016 93 16093 1.68 294.858 06:47 10.08.2019
3718 Clear 19 1016 93 16093 2 340.86 05:52 10.08.2019
3719 Clear 20 1015 93 16093 2 340.86 05:21 10.08.2019
3720 Clouds 22 1015 64 16093 2.6 80 03:55 10.08.2019
3721 Clear 24 1015 47 16093 2.6 340 02:50 10.08.2019
3722 Clear 25 1014 41 16093 5.7 340 01:57 10.08.2019
3723 Clear 26 1014 47 16093 3.1 60 01:37 10.08.2019
3724 Clouds 26 1014 44 16093 4.6 100 01:19 10.08.2019
3725 Clear 26 1014 44 16093 4.1 60 00:42 10.08.2019
3726 Clouds 27 1014 44 16093 4.6 80 00:19 10.08.2019
3727 Clear 27 1014 44 16093 4.1 70 23:41 09.08.2019
3728 Clouds 27 1014 42 16093 3.6 50 23:21 09.08.2019
3729 Clouds 27 1015 41 16093 4.6 50 22:56 09.08.2019
3730 Clear 27 1014 39 16093 2.1 70 22:37 09.08.2019
3731 Clouds 27 1014 34 16093 2.6 210 22:19 09.08.2019
3732 Clear 27 1015 39 16093 4.21 307.09 21:41 09.08.2019
3733 Clouds 27 1015 39 16093 1.5 300 21:22 09.08.2019
3734 Clear 27 1015 36 16093 3.1 290 20:58 09.08.2019
3735 Clear 27 1015 39 16093 4.1 300 20:39 09.08.2019
3736 Clouds 27 1015 36 16093 2.1 0 20:20 09.08.2019
3737 Clear 26 1016 39 16093 3.79 300.433 19:43 09.08.2019
3738 Clear 26 1015 39 16093 2.1 310 19:23 09.08.2019
3739 Clear 26 1016 39 16093 3.6 300 18:59 09.08.2019
3740 Clear 25 1016 41 16093 3.79 300.433 18:39 09.08.2019
3741 Clouds 25 1015 41 16093 2.1 300 18:20 09.08.2019
3742 Clear 24 1016 44 16093 2.94 309.997 17:45 09.08.2019
3743 Clear 24 1016 44 16093 1.5 340 17:25 09.08.2019
3744 -273 0 0 0 0 0 16:56 09.08.2019
3745 Clear 23 1016 53 16093 2.94 309.997 16:38 09.08.2019
3746 Clear 23 1016 47 16093 2.1 340 16:20 09.08.2019
3747 Clear 20 1016 72 16093 2.94 309.997 15:42 09.08.2019
3748 Clear 20 1016 72 16093 2.94 309.997 15:42 09.08.2019
3749 Rain 20 1016 60 16093 2.59 310.601 15:22 09.08.2019
3750 Rain 18 1016 72 16093 2.1 330 14:58 09.08.2019
3751 Rain 17 1015 88 16093 2.59 310.601 14:40 09.08.2019
3752 Rain 16 1015 72 16093 2.1 320 14:21 09.08.2019
3753 Clear 15 1015 100 16093 2.59 310.601 13:46 09.08.2019
3754 Clear 15 1015 100 16093 2.54 315.335 13:23 09.08.2019
3755 Clouds 15 1014 100 16093 2.54 315.335 12:58 09.08.2019
3756 Clear 15 1014 93 16093 2.54 315.335 12:40 09.08.2019
3757 Clear 15 1014 72 16093 2.1 310 12:21 09.08.2019
3758 Clear 15 1014 100 16093 1.5 230 11:41 09.08.2019
3759 Clear 15 1014 100 16093 1.5 230 11:21 09.08.2019
3760 Clear 16 1014 82 16093 2.1 320 10:57 09.08.2019
3761 Clouds 16 1013 93 16093 2.07 306.572 10:38 09.08.2019
3762 Clouds 16 1013 93 16093 2.07 306.572 10:20 09.08.2019
3763 Clouds 17 1014 100 16093 1.5 230 09:41 09.08.2019
3764 Clouds 17 1014 100 16093 1.5 230 09:19 09.08.2019
3765 Clouds 17 1013 94 16093 1.5 190 08:45 09.08.2019
3766 Clouds 18 1013 94 16093 1.5 190 08:25 09.08.2019
3767 Clouds 18 1013 100 16093 2.24 321.831 07:58 09.08.2019
3768 Clouds 19 1013 93 16093 1.5 50 07:40 09.08.2019
3769 Clouds 19 1013 93 16093 1.5 50 07:40 09.08.2019
3770 Clouds 19 1013 93 16093 1.5 50 07:20 09.08.2019
3771 Clear 20 1013 93 16093 1.5 50 06:44 09.08.2019
3772 Clear 20 1013 93 16093 1.5 50 06:21 09.08.2019
3773 Clear 20 1013 93 16093 3.23 318.44 05:37 09.08.2019
3774 Clear 26 1011 65 16093 2.6 40 02:29 09.08.2019
3775 Clear 27 1011 37 16093 3.1 320 01:26 09.08.2019
3776 Clear 28 1010 42 16093 6.7 320 00:42 09.08.2019
3777 Rain 29 1010 42 16093 6.7 320 00:23 09.08.2019
3778 Rain 29 1011 40 16093 7.7 330 23:57 08.08.2019
3779 Clouds 29 1010 45 16093 6.7 320 23:37 08.08.2019
3780 Rain 29 1010 35 16093 8.7 300 23:19 08.08.2019
3781 Rain 29 1011 57 16093 4.1 50 22:56 08.08.2019
3782 Rain 29 1011 48 16093 8.2 310 22:36 08.08.2019
3783 Rain 30 1011 31 16093 8.2 300 22:18 08.08.2019
3784 Clouds 29 1011 45 16093 7.7 280 21:43 08.08.2019
3785 Clouds 29 1011 33 16093 8.2 280 21:24 08.08.2019
3786 Clear 29 1011 37 16093 3.6 290 20:58 08.08.2019
3787 Rain 29 1011 48 16093 4.6 290 20:40 08.08.2019
3788 Rain 29 1011 40 16093 6.7 310 20:20 08.08.2019
3789 Rain 29 1011 48 16093 4.1 290 19:49 08.08.2019
3790 Clouds 29 1011 48 16093 4.1 290 19:29 08.08.2019
3791 Clear 28 1011 48 16093 5.1 290 18:59 08.08.2019
3792 Clear 28 1011 51 16093 5.7 270 18:40 08.08.2019
3793 Clouds 28 1011 45 16093 6.2 290 18:19 08.08.2019
3794 Rain 27 1011 58 16093 4.6 280 17:42 08.08.2019
3795 Rain 27 1011 54 16093 3.1 280 17:24 08.08.2019
3796 Rain 27 1010 51 16093 5.1 310 16:59 08.08.2019
3797 Clear 26 1011 69 16093 1.5 290 16:41 08.08.2019
3798 Rain 25 1011 61 16093 2.6 310 16:23 08.08.2019
3799 Rain 25 1011 73 16093 3.1 300 15:57 08.08.2019
3800 Rain 24 1011 78 16093 4.4 306.547 15:38 08.08.2019
3801 Rain 23 1010 73 16093 2.6 280 15:20 08.08.2019
3802 Rain 22 1011 83 16093 3.48 302.908 14:40 08.08.2019
3803 Rain 21 1010 78 16093 5.1 280 14:21 08.08.2019
3804 Clear 21 1010 88 16093 3.48 302.908 13:43 08.08.2019
3805 Clear 20 1010 88 16093 3.68 302.286 13:25 08.08.2019
3806 Rain 20 1010 94 16093 2.6 250 12:58 08.08.2019
3807 Rain 21 1009 83 16093 3.68 302.286 12:38 08.08.2019
3808 Rain 21 1008 73 16093 3.1 270 12:18 08.08.2019
3809 Rain 21 1009 88 16093 1.5 170 11:43 08.08.2019
3810 Rain 21 1009 88 16093 1.5 170 11:25 08.08.2019
3811 Rain 21 1009 83 16093 2.6 280 10:56 08.08.2019
3812 Rain 21 1009 88 16093 1.5 190 10:37 08.08.2019
3813 Rain 22 1009 60 16093 1.5 200 10:19 08.08.2019
3814 Rain 22 1009 64 16093 4.35 285.616 09:40 08.08.2019
3815 Thunderstorm 22 1011 73 16093 5.7 350 09:20 08.08.2019
3816 Rain 22 1010 60 16093 6.2 340 08:42 08.08.2019
3817 Thunderstorm 23 1010 65 16093 3.84 251.773 08:22 08.08.2019
3818 Clear 23 1010 65 16093 1.5 230 07:58 08.08.2019
3819 Clear 23 1010 61 16093 1.5 230 07:39 08.08.2019
3820 Clear 24 1010 61 16093 1.5 230 07:18 08.08.2019
3821 Clear 24 1009 61 16093 2.1 230 06:44 08.08.2019
3822 Clear 24 1010 69 16093 3.1 250 05:58 08.08.2019
3823 Clear 24 1009 78 16093 1.5 220 05:39 08.08.2019
3824 Clear 25 1009 54 16093 3.6 240 04:21 08.08.2019
3825 Clouds 26 1009 57 16093 2.6 250 03:47 08.08.2019
3826 Clouds 29 1009 42 16093 5.1 250 01:54 08.08.2019
3827 Rain 29 1009 48 16093 6.2 250 01:20 08.08.2019
3828 Clouds 30 1009 48 16093 3.6 230 00:25 08.08.2019
3829 Clouds 30 1010 45 16093 4.6 250 23:39 07.08.2019
3830 Clouds 30 1009 40 16093 6.7 250 23:18 07.08.2019
3831 Clouds 30 1010 40 16093 4.6 270 22:41 07.08.2019
3832 Clouds 30 1010 45 16093 2.6 240 22:21 07.08.2019
3833 Clouds 30 1010 42 16093 4.98 268.481 21:58 07.08.2019
3834 Clouds 30 1011 45 16093 2.6 250 21:40 07.08.2019
3835 Clouds 30 1011 45 16093 2.6 250 21:40 07.08.2019
3836 Rain 30 1011 51 16093 4.73 265.086 21:21 07.08.2019
3837 Clouds 29 1011 45 16093 3.1 300 20:59 07.08.2019
3838 Clouds 29 1011 42 16093 4.1 250 20:41 07.08.2019
3839 Clouds 29 1011 40 16093 4.6 270 20:22 07.08.2019
3840 Clouds 29 1011 35 16093 4.41 269.286 19:56 07.08.2019
3841 Clouds 29 1012 45 16093 4.41 269.286 19:37 07.08.2019
3842 Clouds 29 1011 42 16093 3.1 200 19:19 07.08.2019
3843 Clear 28 1012 45 16093 4.41 269.286 18:41 07.08.2019
3844 Clouds 28 1012 51 16093 2.1 230 18:20 07.08.2019
3845 Clear 28 1012 48 16093 2.13 269.919 17:56 07.08.2019
3846 Clear 28 1012 48 16093 2.13 269.919 17:56 07.08.2019
3847 Clear 28 1012 48 16093 2.13 269.919 17:56 07.08.2019
3848 Clear 27 1012 57 16093 1.5 260 17:38 07.08.2019
3849 Clouds 27 1011 54 16093 2.1 310 17:19 07.08.2019
3850 Clear 26 1012 61 16093 2.13 269.919 16:56 07.08.2019
3851 Clear 26 1011 51 16093 2.13 269.919 16:56 07.08.2019
3852 Clear 26 1012 69 16093 2.13 269.919 16:38 07.08.2019
3853 Rain 25 1011 57 16093 2.13 269.919 16:19 07.08.2019
3854 Clear 23 1012 83 16093 2.1 270 15:43 07.08.2019
3855 Clear 22 1012 73 16093 2.14 284.836 15:21 07.08.2019
3856 Clear 20 1012 88 16093 3.1 250 14:57 07.08.2019
3857 Clear 20 1011 100 16093 2.14 284.836 14:38 07.08.2019
3858 Mist 19 1012 88 16093 2.14 284.836 14:20 07.08.2019
3859 Mist 18 1011 100 8047 2.14 284.836 13:40 07.08.2019
3860 Mist 18 1011 88 16093 2.04 300.646 13:19 07.08.2019
3861 Mist 18 1011 100 16093 2.04 300.646 12:57 07.08.2019
3862 Mist 18 1011 100 16093 2.04 300.646 12:38 07.08.2019
3863 Mist 18 1011 88 16093 2.15 301.443 12:19 07.08.2019
3864 Mist 18 1011 100 8047 2.15 301.443 11:58 07.08.2019
3865 Mist 18 1011 100 6437 2.15 301.443 11:40 07.08.2019
3866 Mist 18 1011 100 6437 2.15 301.443 11:18 07.08.2019
3867 Clear 19 1011 100 11265 2.15 301.443 10:41 07.08.2019
3868 Clear 19 1011 100 11265 2.15 301.443 10:20 07.08.2019
3869 Mist 19 1011 100 11265 2.15 301.443 09:59 07.08.2019
3870 Clear 19 1011 100 11265 2.15 301.443 09:40 07.08.2019
3871 Clear 19 1011 100 11265 1.64 312.78 09:20 07.08.2019
3872 Clear 20 1011 100 11265 1.94 324.603 08:45 07.08.2019
3873 Clear 20 1011 100 11265 1.94 324.603 08:25 07.08.2019
3874 Mist 20 1011 93 2012 1.94 324.603 07:51 07.08.2019
3875 Clear 20 1011 93 11265 1.94 324.603 07:31 07.08.2019
3876 Clear 20 1011 100 11265 1.94 324.603 06:48 07.08.2019
3877 Clear 21 1011 100 11265 2.31 336.968 06:26 07.08.2019
3878 Clear 21 1011 83 16093 2.31 336.968 05:43 07.08.2019
3879 Clear 22 1010 83 16093 1.5 50 04:41 07.08.2019
3880 Clouds 24 1009 65 16093 3.6 90 03:18 07.08.2019
3881 Clouds 26 1010 65 16093 2.1 50 02:39 07.08.2019
3882 Clouds 27 1010 65 16093 2.6 60 01:53 07.08.2019
3883 Clear 27 1010 69 16093 2.6 60 01:23 07.08.2019
3884 Clouds 28 1010 69 16093 4.6 60 00:37 07.08.2019
3885 Rain 28 1009 48 16093 1.5 0 00:18 07.08.2019
3886 Clouds 28 1009 57 16093 3.1 320 23:38 06.08.2019
3887 Rain 28 1009 51 16093 2.6 10 23:20 06.08.2019
3888 Clouds 28 1010 61 16093 3.1 330 22:41 06.08.2019
3889 Clouds 28 1010 54 16093 4.41 325.442 22:22 06.08.2019
3890 Clouds 27 1010 65 16093 1.5 260 21:57 06.08.2019
3891 Clouds 27 1011 61 16093 2.1 320 21:39 06.08.2019
3892 Clouds 27 1011 61 16093 2.1 320 21:19 06.08.2019
3893 Clouds 27 1011 61 16093 2.1 320 21:19 06.08.2019
3894 Clouds 27 1011 61 16093 2.1 320 21:19 06.08.2019
3895 Clouds 26 1011 78 16093 2.1 30 20:46 06.08.2019
3896 Rain 25 1011 69 16093 4.1 320 20:28 06.08.2019
3897 Clouds 25 1011 69 16093 3.1 320 19:57 06.08.2019
3898 Clouds 24 1011 69 16093 3.1 320 19:38 06.08.2019
3899 Clouds 24 1011 69 16093 2.1 0 19:19 06.08.2019
3900 Clouds 24 1011 78 16093 3.6 330 18:43 06.08.2019
3901 Rain 23 1011 78 16093 3.15 322.141 18:25 06.08.2019
3902 Rain 23 1011 69 16093 2.6 290 17:58 06.08.2019
3903 Clouds 23 1011 73 16093 4.6 320 17:38 06.08.2019
3904 Clouds 22 1011 73 16093 6.7 290 17:19 06.08.2019
3905 Clouds 22 1011 73 16093 2.6 280 16:54 06.08.2019
3906 Clouds 22 1011 83 16093 3.6 320 16:36 06.08.2019
3907 Clouds 22 1011 78 16093 4.1 300 16:18 06.08.2019
3908 Clouds 21 1011 77 16093 6.2 300 15:55 06.08.2019
3909 Clouds 21 1010 94 16093 3.1 310 15:36 06.08.2019
3910 Mist 20 1010 83 16093 5.1 310 15:18 06.08.2019
3911 Clouds 20 1009 100 11265 1.5 300 14:40 06.08.2019
3912 Clouds 20 1009 100 11265 1.5 300 14:40 06.08.2019
3913 Clouds 20 1009 100 11265 1.5 300 14:40 06.08.2019
3914 Rain 20 1011 94 16093 2.6 300 14:21 06.08.2019
3915 Rain 20 1010 100 16093 2.1 320 13:55 06.08.2019
3916 Rain 20 1008 100 16093 3.1 270 13:37 06.08.2019
3917 Clouds 20 1009 88 16093 4.1 310 13:18 06.08.2019
3918 Rain 20 1009 83 16093 2.6 360 12:41 06.08.2019
3919 Rain 20 1009 94 16093 3.82 239.741 12:22 06.08.2019
3920 Rain 20 1008 94 16093 3.1 130 11:46 06.08.2019
3921 Rain 20 1008 94 16093 3.1 130 11:22 06.08.2019
3922 Rain 20 1008 100 16093 1.5 140 10:59 06.08.2019
3923 Rain 20 1009 94 16093 2.1 120 10:40 06.08.2019
3924 Rain 20 1009 94 16093 1.5 150 10:22 06.08.2019
3925 Rain 21 1011 88 16093 2.6 50 09:43 06.08.2019
3926 Rain 21 1011 88 16093 2.6 50 09:23 06.08.2019
3927 Thunderstorm 22 1011 83 16093 3.6 340 08:55 06.08.2019
3928 Clouds 23 1010 73 16093 5.7 40 08:36 06.08.2019
3929 Clouds 23 1011 73 16093 1.5 220 08:18 06.08.2019
3930 Clear 24 1011 73 16093 1.5 230 07:31 06.08.2019
3931 Clear 25 1011 73 16093 2.66 252.361 06:45 06.08.2019
3932 Clear 25 1011 73 16093 4.01 251.014 06:24 06.08.2019
3933 Clear 26 1012 69 16093 4.01 251.014 05:46 06.08.2019
3934 Clear 28 1011 58 16093 3.1 240 02:58 06.08.2019
3935 Rain 30 1012 45 16093 6.2 230 01:26 06.08.2019
3936 Rain 31 1012 38 16093 5.1 260 00:59 06.08.2019
3937 Rain 31 1012 52 16093 3.1 220 00:23 06.08.2019
3938 Rain 31 1012 40 16093 4.6 260 23:21 05.08.2019
3939 Clouds 32 1013 38 16093 6.2 260 22:59 05.08.2019
3940 Clouds 32 1014 48 16093 3.6 260 22:39 05.08.2019
3941 Rain 32 1013 46 16093 2.1 230 22:21 05.08.2019
3942 Clouds 31 1014 48 16093 4.6 230 21:42 05.08.2019
3943 Clouds 31 1014 46 16093 2.6 240 21:21 05.08.2019
3944 Clouds 31 1015 48 16093 4.1 260 20:58 05.08.2019
3945 Clouds 31 1015 45 16093 4.6 260 20:39 05.08.2019
3946 Clouds 31 1014 45 16093 4.6 250 20:21 05.08.2019
3947 Clouds 31 1015 48 16093 4.1 270 19:57 05.08.2019
3948 Clear 30 1015 51 16093 4.6 240 19:38 05.08.2019
3949 Clouds 30 1015 45 16093 4.6 230 19:19 05.08.2019
3950 Clouds 30 1016 54 16093 2.6 220 18:42 05.08.2019
3951 Clouds 29 1015 51 16093 2.1 230 18:21 05.08.2019
3952 Clouds 29 1016 48 16093 3.04 285.914 17:51 05.08.2019
3953 Clear 29 1016 58 16093 2.6 240 17:31 05.08.2019
3954 Clouds 28 1016 58 16093 3.6 220 16:59 05.08.2019
3955 Clear 27 1016 61 16093 2.1 230 16:41 05.08.2019
3956 Clouds 26 1016 57 16093 5.1 250 16:23 05.08.2019
3957 Clear 25 1016 78 16093 3.04 285.914 15:43 05.08.2019
3958 Clouds 23 1016 64 16093 2.1 240 15:20 05.08.2019
3959 Clear 22 1016 94 16093 2.43 257.867 14:42 05.08.2019
3960 Clear 22 1016 94 16093 2.43 257.867 14:42 05.08.2019
3961 Clear 20 1016 94 16093 2.43 257.867 14:22 05.08.2019
3962 Clear 20 1016 88 16093 2.43 257.867 13:50 05.08.2019
3963 Clear 20 1016 88 16093 2.43 257.867 13:50 05.08.2019
3964 Clear 19 1016 100 16093 2.08 255.864 13:24 05.08.2019
3965 Clouds 19 1016 100 16093 2.08 255.864 12:59 05.08.2019
3966 Clouds 19 1016 100 16093 2.08 255.864 12:41 05.08.2019
3967 Clouds 19 1015 83 16093 2.02 240.474 12:18 05.08.2019
3968 Mist 19 1016 100 6437 2.02 240.474 11:43 05.08.2019
3969 Mist 19 1016 100 6437 2.02 240.474 11:25 05.08.2019
3970 Clear 20 1016 100 11265 2.02 240.474 10:47 05.08.2019
3971 Mist 20 1016 100 4023 2.02 240.474 10:28 05.08.2019
3972 Clear 20 1016 88 16093 2.02 240.474 09:56 05.08.2019
3973 Mist 20 1017 100 2414 2.02 240.474 09:37 05.08.2019
3974 Mist 20 1017 100 2414 1.27 152.407 09:19 05.08.2019
3975 Clear 20 1017 100 11265 1.35 116.167 08:43 05.08.2019
3976 Clear 21 1017 100 11265 1.35 116.167 08:23 05.08.2019
3977 Mist 21 1017 100 8047 1.35 116.167 07:47 05.08.2019
3978 Mist 21 1017 94 8047 1.35 116.167 07:27 05.08.2019
3979 Clear 21 1017 100 11265 1.35 116.167 06:53 05.08.2019
3980 Clear 22 1017 100 16093 2 95.233 06:19 05.08.2019
3981 Clouds 23 1016 73 16093 2.6 80 05:23 05.08.2019
3982 Clear 23 1016 69 16093 2 95.233 04:41 05.08.2019
3983 Clouds 24 1016 83 16093 2 95.233 03:50 05.08.2019
3984 Clear 26 1016 65 16093 3.1 40 02:38 05.08.2019
3985 Clear 28 1016 61 16093 3.6 60 01:40 05.08.2019
3986 Rain 28 1016 57 16093 4.1 30 00:56 05.08.2019
3987 Rain 29 1016 54 16093 4.1 30 00:37 05.08.2019
3988 Clouds 30 1016 61 16093 4.6 70 00:18 05.08.2019
3989 Clear 30 1016 54 16093 3.6 50 23:41 04.08.2019
3990 Clouds 30 1016 54 16093 3.6 80 23:21 04.08.2019
3991 Clear 30 1016 58 16093 4.1 50 22:57 04.08.2019
3992 Clear 30 1017 58 16093 3.6 30 22:37 04.08.2019
3993 Clouds 30 1016 54 16093 4.6 100 22:19 04.08.2019
3994 Clear 30 1017 58 16093 3.6 30 21:45 04.08.2019
3995 Clouds 30 1017 45 16093 2.1 350 21:23 04.08.2019
3996 Clouds 30 1018 48 16093 1.5 320 20:57 04.08.2019
3997 Clouds 30 1017 58 16093 3.6 30 20:38 04.08.2019
3998 Clouds 30 1017 51 16093 3.1 70 20:18 04.08.2019
3999 Clouds 29 1018 58 16093 2.24 349.076 19:43 04.08.2019
4000 Clouds 29 1018 48 16093 2.6 360 19:24 04.08.2019
4001 Clear 28 1018 61 16093 2.6 290 18:44 04.08.2019
4002 Clouds 28 1018 58 16093 2.6 350 18:21 04.08.2019
4003 Clouds 27 1018 83 16093 2.1 10 17:58 04.08.2019
4004 Clear 27 1018 69 16093 2.05 312.43 17:40 04.08.2019
4005 Clear 27 1019 58 16093 2.05 312.43 17:20 04.08.2019
4006 Clear 25 1019 73 16093 2.05 312.43 16:42 04.08.2019
4007 Clear 25 1019 65 16093 2.05 312.43 16:24 04.08.2019
4008 Clouds 23 1018 88 16093 2.05 312.43 15:45 04.08.2019
4009 Clouds 23 1018 88 16093 2.05 312.43 15:45 04.08.2019
4010 Clouds 22 1018 78 16093 2.6 10 15:23 04.08.2019
4011 Rain 22 1018 94 16093 2.6 340 14:55 04.08.2019
4012 Rain 21 1018 88 16093 1.2 313.712 14:37 04.08.2019
4013 Clouds 21 1018 83 16093 3.1 10 14:19 04.08.2019
4014 Clear 21 1018 88 16093 1.2 313.712 13:42 04.08.2019
4015 Clouds 21 1018 83 16093 3.1 20 13:22 04.08.2019
4016 Clouds 21 1018 100 16093 1.04 307.277 12:45 04.08.2019
4017 Clear 21 1018 93 16093 1.59 334.592 12:27 04.08.2019
4018 Clear 21 1018 73 16093 1.59 334.592 11:57 04.08.2019
4019 Clear 21 1018 94 16093 1.59 334.592 11:37 04.08.2019
4020 Clear 21 1018 94 16093 1.59 334.592 11:19 04.08.2019
4021 Clear 21 1018 100 16093 1.59 334.592 10:41 04.08.2019
4022 Clear 21 1018 100 16093 1.59 334.592 10:20 04.08.2019
4023 Clear 21 1018 94 16093 1.59 334.592 09:45 04.08.2019
4024 Clear 21 1018 94 16093 1.53 310.476 09:22 04.08.2019
4025 Clear 22 1018 100 16093 1.86 304.418 08:47 04.08.2019
4026 Clear 22 1018 100 16093 1.86 304.418 08:26 04.08.2019
4027 Clear 22 1018 94 16093 1.86 304.418 07:52 04.08.2019
4028 Clear 22 1018 94 16093 1.5 310 07:20 04.08.2019
4029 Clear 23 1017 73 16093 1.86 304.418 06:28 04.08.2019
4030 Clear 24 1017 60 16093 1.74 307.936 04:29 04.08.2019
4031 Clear 27 1017 47 16093 2.82 287.071 02:43 04.08.2019
4032 Clear 29 1017 45 16093 2.6 50 01:39 04.08.2019
4033 Clouds 30 1016 31 16093 3.6 70 01:18 04.08.2019
4034 Clear 30 1017 45 16093 2.32 299.319 00:41 04.08.2019
4035 Clouds 31 1017 35 16093 2.1 0 00:19 04.08.2019
4036 Clear 31 1017 42 16093 2.88 277.421 23:41 03.08.2019
4037 Clouds 30 1017 37 16093 2.6 350 23:18 03.08.2019
4038 Clouds 30 1017 37 16093 2.6 350 23:18 03.08.2019
4039 Clear 31 1018 40 16093 2.88 277.421 22:45 03.08.2019
4040 Clouds 31 1018 37 16093 2.1 50 22:22 03.08.2019
4041 Clear 31 1018 42 16093 2.88 277.421 21:59 03.08.2019
4042 Clear 30 1019 42 16093 1.5 280 21:37 03.08.2019
4043 Rain 30 1018 39 16093 4.6 50 21:19 03.08.2019
4044 Clear 30 1019 48 16093 0.26 16.783 20:42 03.08.2019
4045 Clear 29 1019 40 16093 2.6 100 20:22 03.08.2019
4046 Clear 29 1019 47 16093 0.26 16.783 19:43 03.08.2019
4047 Clear 29 1019 47 16093 0.26 16.783 19:24 03.08.2019
4048 Clear 28 1019 54 16093 1.5 70 18:56 03.08.2019
4049 Clear 27 1020 51 16093 1.39 340.98 18:27 03.08.2019
4050 Clouds 27 1020 57 16093 1.5 0 17:50 03.08.2019
4051 Rain 26 1020 44 16093 1.39 340.98 17:22 03.08.2019
4052 Rain 26 1020 61 16093 1.39 340.98 16:57 03.08.2019
4053 Rain 25 1020 64 16093 1.39 340.98 16:37 03.08.2019
4054 Rain 24 1020 64 16093 1.39 340.98 16:19 03.08.2019
4055 Rain 22 1020 77 16093 1.39 340.98 15:43 03.08.2019
4056 Clouds 21 1020 73 16093 2.1 10 15:23 03.08.2019
4057 Clear 19 1020 100 16093 1.5 299.82 14:42 03.08.2019
4058 Clouds 17 1020 88 16093 2.6 330 14:21 03.08.2019
4059 Mist 16 1020 100 16093 1.5 299.82 13:52 03.08.2019
4060 Mist 16 1020 100 16093 1.5 299.82 13:52 03.08.2019
4061 Mist 16 1019 100 16093 1.71 297.42 13:25 03.08.2019
4062 Clear 16 1020 93 16093 1.5 310 12:58 03.08.2019
4063 Clear 16 1020 93 16093 1.71 297.42 12:40 03.08.2019
4064 Clouds 16 1019 77 16093 1.48 284.769 12:21 03.08.2019
4065 Clouds 16 1020 100 16093 1.48 284.769 11:49 03.08.2019
4066 Clear 16 1020 100 16093 1.5 300 11:28 03.08.2019
4067 Mist 16 1019 100 16093 1.48 284.769 10:42 03.08.2019
4068 Clear 16 1019 100 16093 1.48 284.769 10:24 03.08.2019
4069 Clear 16 1019 100 16093 1.48 284.769 10:24 03.08.2019
4070 Clear 17 1020 100 16093 1.48 284.769 09:44 03.08.2019
4071 Clear 17 1020 100 16093 0.5 257.857 09:23 03.08.2019
4072 Clear 17 1020 100 11265 0.49 136.409 08:55 03.08.2019
4073 Mist 17 1020 68 16093 0.49 136.409 08:18 03.08.2019
4074 Clear 18 1020 100 16093 0.49 136.409 07:36 03.08.2019
4075 Clear 19 1020 100 16093 0.49 136.409 06:39 03.08.2019
4076 Clouds 21 1020 88 16093 2.1 50 04:56 03.08.2019
4077 Clear 25 1019 50 16093 3.6 60 02:40 03.08.2019
4078 Clouds 26 1019 64 16093 3.6 40 01:50 03.08.2019
4079 Clear 27 1020 44 16093 3.6 40 00:51 03.08.2019
4080 Clear 27 1020 44 16093 3.6 40 00:28 03.08.2019
4081 Clear 28 1020 42 16093 3.1 50 23:41 02.08.2019
4082 Clouds 28 1020 37 16093 5.1 90 23:19 02.08.2019
4083 Clear 28 1020 39 16093 3.6 50 22:57 02.08.2019
4084 Clear 28 1020 42 16093 4.1 20 22:38 02.08.2019
4085 Rain 28 1020 48 16093 2.77 50.274 22:20 02.08.2019
4086 Clear 28 1021 44 16093 4.1 60 21:44 02.08.2019
4087 Clear 28 1021 42 16093 1.23 354.793 21:25 02.08.2019
4088 Clear 28 1021 44 16093 2.1 30 20:59 02.08.2019
4089 Clear 28 1021 44 16093 2.1 60 20:41 02.08.2019
4090 Rain 28 1021 45 16093 1.28 34.805 20:20 02.08.2019
4091 Clear 27 1022 44 16093 3.1 70 19:48 02.08.2019
4092 Clouds 27 1021 44 16093 3.1 340 19:28 02.08.2019
4093 Clouds 26 1022 57 16093 1.28 34.805 18:45 02.08.2019
4094 Clear 26 1022 47 16093 1.28 34.805 18:26 02.08.2019
4095 Clear 25 1022 50 16093 1.06 16.288 17:48 02.08.2019
4096 Rain 25 1022 50 16093 1.06 16.288 17:25 02.08.2019
4097 Rain 25 1022 44 16093 1.06 16.288 16:59 02.08.2019
4098 Rain 24 1022 60 16093 1.06 16.288 16:38 02.08.2019
4099 Clouds 23 1022 57 16093 2.1 130 16:19 02.08.2019
4100 Clear 21 1022 68 16093 1.5 110 15:40 02.08.2019
4101 Rain 20 1021 77 16093 2.6 10 15:20 02.08.2019
4102 Clear 18 1021 100 16093 1.33 5.21 14:46 02.08.2019
4103 Clouds 17 1021 93 14484 2.6 350 14:19 02.08.2019
4104 Clouds 16 1022 100 16093 1.33 5.21 13:50 02.08.2019
4105 Clear 15 1021 100 16093 1.34 44.939 13:28 02.08.2019
4106 Clear 15 1021 100 16093 1.34 44.939 12:47 02.08.2019
4107 Clear 15 1021 100 16093 0.88 13.326 12:23 02.08.2019
4108 Clear 15 1021 100 16093 0.88 13.326 11:56 02.08.2019
4109 Clear 15 1021 100 16093 0.88 13.326 11:37 02.08.2019
4110 Clear 15 1021 87 16093 3.1 350 11:18 02.08.2019
4111 Clear 15 1022 100 16093 0.88 13.326 10:42 02.08.2019
4112 Clear 15 1022 100 16093 0.88 13.326 10:23 02.08.2019
4113 Clear 15 1022 93 16093 0.88 13.326 09:52 02.08.2019
4114 Clear 15 1022 93 16093 1.28 52.2 09:28 02.08.2019
4115 Clear 15 1022 93 16093 1.63 76.245 08:52 02.08.2019
4116 Clear 15 1022 93 16093 1.63 76.245 08:23 02.08.2019
4117 Clear 16 1022 77 16093 1.63 76.245 07:52 02.08.2019
4118 Clear 16 1022 77 16093 1.63 76.245 07:32 02.08.2019
4119 Clear 17 1022 77 16093 1.63 76.245 06:55 02.08.2019
4120 Clear 18 1022 77 16093 3.1 40 06:26 02.08.2019
4121 Clear 18 1022 72 16093 2.41 67.44 05:37 02.08.2019
4122 Clear 22 1021 56 16093 2.1 50 03:31 02.08.2019
4123 Clear 24 1021 53 16093 3.6 10 02:37 02.08.2019
4124 Clear 25 1021 47 16093 3.1 70 00:54 02.08.2019
4125 Clear 26 1021 45 16093 3.1 70 00:20 02.08.2019
4126 Clear 27 1021 47 16093 2.6 30 23:43 01.08.2019
4127 Rain 27 1021 47 16093 3.6 40 23:19 01.08.2019
4128 Clear 27 1022 50 16093 4.6 50 22:41 01.08.2019
4129 Clear 27 1022 45 16093 3.82 64.233 22:21 01.08.2019
4130 Clouds 27 1022 61 24140 4.1 20 21:54 01.08.2019
4131 Clear 27 1022 50 16093 3.1 70 21:36 01.08.2019
4132 Clouds 27 1022 54 16093 3.6 90 21:18 01.08.2019
4133 Clear 26 1023 47 16093 3.6 60 20:41 01.08.2019
4134 Rain 26 1023 45 16093 1.5 40 20:22 01.08.2019
4135 Clear 26 1023 47 16093 4.1 60 19:44 01.08.2019
4136 Clear 26 1023 44 16093 2.1 100 19:22 01.08.2019
4137 Clear 25 1023 53 16093 3.6 50 18:46 01.08.2019
4138 Clear 25 1023 53 16093 3.6 50 18:25 01.08.2019
4139 Clouds 24 1023 53 16093 3.1 70 17:57 01.08.2019
4140 Clouds 24 1023 60 16093 3.6 60 17:39 01.08.2019
4141 Clear 24 1023 57 16093 1.5 70 17:20 01.08.2019
4142 Clouds 23 1023 64 16093 1.5 20 16:44 01.08.2019
4143 Rain 23 1023 69 16093 2.04 26.089 16:21 01.08.2019
4144 Rain 21 1022 77 16093 2.04 26.089 15:45 01.08.2019
4145 Clear 19 1023 73 16093 1.98 353.195 15:20 01.08.2019
4146 Clouds 17 1022 93 16093 1.98 353.195 14:44 01.08.2019
4147 Rain 16 1023 82 16093 1.98 353.195 14:21 01.08.2019
4148 Rain 15 1022 87 16093 1.98 353.195 13:59 01.08.2019
4149 Rain 14 1022 100 16093 1.98 353.195 13:40 01.08.2019
4150 Clouds 13 1022 82 16093 2.1 330 13:21 01.08.2019
4151 Clear 13 1022 93 16093 1.9 4.831 12:49 01.08.2019
4152 Clear 13 1022 93 16093 1.58 6.248 12:28 01.08.2019
4153 Clear 13 1022 87 16093 2.6 10 11:58 01.08.2019
4154 Clear 13 1021 93 16093 1.58 6.248 11:40 01.08.2019
4155 Clear 13 1022 87 16093 1.58 6.248 11:22 01.08.2019
4156 Clear 13 1022 93 16093 1.58 6.248 10:41 01.08.2019
4157 Clear 13 1022 93 16093 1.58 6.248 10:23 01.08.2019
4158 Clear 14 1022 93 16093 1.58 6.248 09:50 01.08.2019
4159 Clear 14 1022 93 16093 1.91 40.872 09:24 01.08.2019
4160 Clear 14 1021 77 16093 2.6 40 08:57 01.08.2019
4161 Clear 14 1022 93 16093 2.08 54.764 08:39 01.08.2019
4162 Clear 14 1022 77 16093 3.1 350 08:18 01.08.2019
4163 Clear 15 1021 77 16093 2.08 54.764 07:42 01.08.2019
4164 Clear 15 1022 67 16093 2.6 350 07:18 01.08.2019
4165 Clear 16 1022 63 16093 2.6 20 06:39 01.08.2019
4166 Clear 17 1022 55 16093 3.1 20 05:32 01.08.2019
4167 Clear 21 1021 56 16093 3.1 360 02:36 01.08.2019
4168 Clear 22 1021 56 16093 3.36 53.161 01:41 01.08.2019
4169 Clear 24 1021 60 16093 5.1 20 00:27 01.08.2019
4170 Clouds 24 1022 64 32186 7.7 30 23:59 31.07.2019
4171 Clear 24 1022 49 16093 4.1 360 23:41 31.07.2019
4172 Clouds 24 1022 50 16093 5.1 40 23:20 31.07.2019
4173 Clear 25 1022 49 16093 4.6 360 22:45 31.07.2019
4174 Clear 24 1022 49 16093 4.6 360 22:27 31.07.2019
4175 Clear 24 1022 49 16093 4.6 360 22:27 31.07.2019
4176 Clear 24 1022 49 16093 4.6 360 21:45 31.07.2019
4177 Clear 24 1022 49 16093 4.6 360 21:23 31.07.2019
4178 Clear 24 1022 53 16093 5.1 20 20:51 31.07.2019
4179 Clear 24 1022 53 16093 5.1 20 20:25 31.07.2019
4180 Clear 24 1022 50 16093 4.1 80 19:58 31.07.2019
4181 Clouds 23 1022 68 16093 6.2 40 19:39 31.07.2019
4182 Rain 23 1022 49 16093 4.6 40 19:19 31.07.2019
4183 Rain 23 1022 68 16093 4.1 30 18:40 31.07.2019
4184 Rain 23 1022 68 16093 4.1 30 18:40 31.07.2019
4185 Clouds 23 1022 49 16093 6.2 60 18:22 31.07.2019
4186 Clouds 22 1022 72 16093 3.6 20 17:45 31.07.2019
4187 Clouds 22 1022 53 16093 6.2 30 17:20 31.07.2019
4188 Clear 22 1022 56 16093 5.7 40 16:56 31.07.2019
4189 Clouds 21 1022 72 16093 3.1 360 16:37 31.07.2019
4190 Clouds 21 1022 53 16093 6.7 30 16:18 31.07.2019
4191 Clouds 20 1022 72 16093 3.1 20 15:42 31.07.2019
4192 Clouds 19 1021 64 16093 6.2 10 15:23 31.07.2019
4193 Clouds 18 1021 93 16093 2.73 19.06 14:42 31.07.2019
4194 Rain 17 1021 88 16093 3.6 340 14:20 31.07.2019
4195 Clear 16 1022 93 16093 1.5 360 13:56 31.07.2019
4196 Clear 16 1021 93 16093 2.73 19.06 13:37 31.07.2019
4197 Clouds 15 1021 87 16093 3.1 340 13:19 31.07.2019
4198 Clear 15 1020 93 16093 2.85 21.223 12:43 31.07.2019
4199 Clear 15 1021 93 16093 2.33 9.995 12:25 31.07.2019
4200 Clear 15 1020 93 16093 2.33 9.995 11:41 31.07.2019
4201 Clear 15 1021 93 16093 2.33 9.995 11:23 31.07.2019
4202 Clear 15 1020 93 16093 2.33 9.995 10:57 31.07.2019
4203 Clear 16 1020 82 16093 2.33 9.995 10:39 31.07.2019
4204 Clear 16 1020 93 16093 2.33 9.995 10:20 31.07.2019
4205 Clear 16 1020 77 16093 2.1 360 09:43 31.07.2019
4206 Clear 17 1020 77 16093 2.1 360 09:24 31.07.2019
4207 Clear 17 1020 77 16093 2.14 18.96 08:44 31.07.2019
4208 Clear 17 1020 72 16093 3.1 10 08:24 31.07.2019
4209 Clear 18 1020 77 16093 2.1 30 07:53 31.07.2019
4210 Clear 18 1020 72 16093 3.6 30 07:33 31.07.2019
4211 Clear 19 1020 68 16093 3.1 30 05:24 31.07.2019
4212 Clouds 20 1019 73 16093 3.18 55.096 04:21 31.07.2019
4213 Clouds 24 1017 69 16093 5.1 50 00:57 31.07.2019
4214 Clear 25 1017 60 16093 4.1 10 23:51 30.07.2019
4215 Clear 25 1017 60 16093 4.1 10 23:30 30.07.2019
4216 Clouds 25 1017 69 16093 4.6 40 22:59 30.07.2019
4217 Clear 25 1017 64 16093 4.1 40 22:41 30.07.2019
4218 Clouds 25 1017 64 16093 4.6 40 22:21 30.07.2019
4219 Clouds 26 1017 73 16093 4.6 50 21:38 30.07.2019
4220 Clouds 25 1017 51 16093 1.5 310 21:19 30.07.2019
4221 Clouds 25 1017 69 16093 4.6 30 20:57 30.07.2019
4222 Clouds 26 1017 73 16093 4.6 20 20:38 30.07.2019
4223 Clouds 26 1017 57 16093 4.6 50 20:19 30.07.2019
4224 Clear 25 1017 69 16093 3.6 20 19:47 30.07.2019
4225 Clear 25 1017 69 16093 3.6 20 19:29 30.07.2019
4226 Clouds 25 1017 73 16093 4.1 30 18:48 30.07.2019
4227 Rain 25 1017 65 16093 3.6 10 18:26 30.07.2019
4228 Rain 24 1017 78 16093 3.6 30 17:58 30.07.2019
4229 Rain 24 1017 73 16093 4.1 20 17:40 30.07.2019
4230 Clouds 24 1017 64 16093 2.1 350 17:18 30.07.2019
4231 Clouds 23 1017 78 16093 2.1 340 16:46 30.07.2019
4232 Clouds 23 1017 78 16093 2.1 340 16:46 30.07.2019
4233 Clouds 23 1016 69 16093 4.1 10 16:19 30.07.2019
4234 Clouds 22 1016 83 16093 3.6 20 15:41 30.07.2019
4235 Rain 21 1016 73 16093 3.6 360 15:22 30.07.2019
4236 Clouds 20 1016 100 16093 2.7 359.279 14:46 30.07.2019
4237 Clouds 20 1016 100 16093 2.7 359.279 14:26 30.07.2019
4238 Clouds 19 1015 100 16093 3.6 300 13:56 30.07.2019
4239 Clear 19 1015 100 16093 2.7 359.279 13:37 30.07.2019
4240 Clear 19 1016 88 16093 1.5 330 13:19 30.07.2019
4241 Clear 19 1014 100 16093 2.99 6.122 12:44 30.07.2019
4242 Rain 19 1014 93 16093 2.1 310 12:25 30.07.2019
4243 Rain 19 1014 100 16093 2.6 260 11:47 30.07.2019
4244 Clear 19 1014 100 11265 3.33 337.127 11:29 30.07.2019
4245 Mist 19 1014 100 8047 3.18 332.065 10:57 30.07.2019
4246 Clear 19 1014 100 11265 3.18 332.065 10:38 30.07.2019
4247 Clear 19 1014 100 11265 3.18 332.065 10:38 30.07.2019
4248 Mist 19 1014 100 11265 3.18 332.065 10:20 30.07.2019
4249 Mist 19 1014 100 11265 3.18 332.065 10:20 30.07.2019
4250 Mist 19 1014 100 4828 3.18 332.065 09:48 30.07.2019
4251 Mist 19 1014 100 4828 2.7 313.559 09:28 30.07.2019
4252 Mist 20 1014 100 11265 2.7 313.559 08:42 30.07.2019
4253 Clear 20 1013 83 16093 1.5 280 08:19 30.07.2019
4254 Mist 20 1013 100 6437 2.7 313.559 07:44 30.07.2019
4255 Mist 20 1013 100 6437 2.7 313.559 07:23 30.07.2019
4256 Clear 20 1013 100 11265 2.7 313.559 06:45 30.07.2019
4257 Rain 21 1013 100 11265 2.61 301.964 05:36 30.07.2019
4258 Clouds 22 1013 88 16093 2.61 301.964 04:59 30.07.2019
4259 Rain 27 1011 78 16093 3.1 240 01:38 30.07.2019
4260 Rain 27 1011 83 16093 5.1 220 00:36 30.07.2019
4261 Rain 27 1011 83 16093 4.6 260 00:18 30.07.2019
4262 Rain 26 1010 78 16093 3.1 230 23:43 29.07.2019
4263 Rain 27 1011 74 16093 4.6 230 23:24 29.07.2019
4264 Rain 27 1011 73 16093 2.6 230 22:57 29.07.2019
4265 Rain 27 1012 88 16093 4.1 240 22:38 29.07.2019
4266 Rain 27 1011 83 16093 5.7 240 22:18 29.07.2019
4267 Rain 26 1012 78 16093 4.6 250 21:43 29.07.2019
4268 Rain 25 1011 74 16093 2.6 240 21:24 29.07.2019
4269 Rain 25 1012 83 16093 8.7 260 20:58 29.07.2019
4270 Rain 24 1012 94 6437 5.1 240 20:39 29.07.2019
4271 Rain 24 1011 88 3219 5.7 250 20:20 29.07.2019
4272 Rain 23 1012 94 16093 2.1 200 19:50 29.07.2019
4273 Rain 24 1012 88 16093 6.2 220 19:24 29.07.2019
4274 Rain 24 1013 100 16093 4.1 200 18:58 29.07.2019
4275 Rain 24 1012 83 16093 1.5 240 18:40 29.07.2019
4276 Rain 24 1012 83 16093 1.5 240 18:20 29.07.2019
4277 Rain 23 1012 88 16093 4.1 200 17:48 29.07.2019
4278 Rain 23 1012 88 16093 2.1 230 17:29 29.07.2019
4279 Rain 23 1013 83 16093 6.2 250 16:56 29.07.2019
4280 Rain 23 1012 94 6437 4.6 230 16:37 29.07.2019
4281 Rain 23 1012 83 16093 5.7 230 16:18 29.07.2019
4282 Rain 23 1013 88 16093 4.1 200 15:45 29.07.2019
4283 Rain 23 1013 88 16093 4.1 200 15:27 29.07.2019
4284 Rain 23 1013 83 16093 3.6 220 14:42 29.07.2019
4285 Rain 23 1012 78 16093 3.6 240 14:21 29.07.2019
4286 Rain 23 1012 78 16093 5.1 200 13:48 29.07.2019
4287 Rain 23 1013 88 16093 3.6 200 13:24 29.07.2019
4288 Clouds 24 1013 78 16093 4.1 190 12:59 29.07.2019
4289 Clear 24 1013 88 16093 3.6 200 12:40 29.07.2019
4290 Clouds 24 1012 78 16093 2.1 230 12:21 29.07.2019
4291 Clear 24 1013 73 16093 3.6 190 11:42 29.07.2019
4292 Clear 24 1013 73 16093 3.6 190 11:19 29.07.2019
4293 Clear 24 1013 69 16093 2.6 190 10:44 29.07.2019
4294 Clear 24 1013 69 16093 2.6 190 10:22 29.07.2019
4295 Clear 24 1014 69 16093 2.1 200 09:44 29.07.2019
4296 Clear 24 1014 69 16093 2.1 200 09:23 29.07.2019
4297 Clear 25 1014 73 16093 1.5 200 08:49 29.07.2019
4298 Clear 25 1014 69 16093 2.6 200 08:27 29.07.2019
4299 Clear 25 1015 69 16093 2.1 190 07:50 29.07.2019
4300 Clear 25 1015 69 16093 2.6 200 07:30 29.07.2019
4301 Clear 25 1015 69 16093 2.6 200 07:30 29.07.2019
4302 Clear 26 1015 65 16093 2.1 190 06:40 29.07.2019
4303 Clear 26 1015 61 16093 1.5 180 05:37 29.07.2019
4304 Clear 27 1015 65 16093 2.6 210 04:23 29.07.2019
4305 Clear 30 1015 52 16093 2.6 220 01:52 29.07.2019
4306 Clouds 30 1016 51 16093 6.7 220 01:34 29.07.2019
4307 Rain 31 1016 52 16093 5.7 210 00:58 29.07.2019
4308 Rain 31 1016 52 16093 5.7 220 00:30 29.07.2019
4309 Rain 31 1016 48 16093 6.7 230 23:45 28.07.2019
4310 Clear 31 1016 48 16093 6.7 230 23:26 28.07.2019
4311 Clouds 32 1017 52 16093 6.2 230 22:46 28.07.2019
4312 Clouds 32 1017 52 16093 6.2 230 22:28 28.07.2019
4313 Clouds 31 1017 52 16093 6.7 230 21:56 28.07.2019
4314 -273 0 0 0 0 0 21:56 28.07.2019
4315 Clouds 31 1017 48 16093 5.7 220 21:37 28.07.2019
4316 Clouds 31 1017 46 16093 7.7 220 21:18 28.07.2019
4317 Clouds 31 1018 55 16093 7.2 240 20:42 28.07.2019
4318 Clouds 31 1018 55 16093 7.2 240 20:42 28.07.2019
4319 Clouds 31 1018 55 16093 7.2 240 20:24 28.07.2019
4320 Clouds 30 1018 58 16093 4.6 240 19:41 28.07.2019
4321 Clouds 30 1017 55 16093 6.7 220 19:21 28.07.2019
4322 Clear 30 1019 62 16093 4.1 250 18:46 28.07.2019
4323 Clear 29 1019 62 16093 4.1 250 18:28 28.07.2019
4324 Clear 29 1019 55 16093 5.7 250 17:57 28.07.2019
4325 Clear 28 1019 65 16093 4.6 220 17:38 28.07.2019
4326 Clear 28 1018 66 16093 2.6 240 17:19 28.07.2019
4327 Clouds 27 1019 74 16093 3.1 230 16:45 28.07.2019
4328 Clear 26 1018 69 16093 1.5 230 16:25 28.07.2019
4329 Clouds 25 1018 74 16093 2.6 240 15:48 28.07.2019
4330 Clouds 24 1019 83 16093 2.1 220 15:27 28.07.2019
4331 Clouds 24 1019 78 16093 3.6 240 14:56 28.07.2019
4332 Clear 23 1018 83 16093 1.5 230 14:36 28.07.2019
4333 Clouds 23 1018 78 16093 3.6 210 14:18 28.07.2019
4334 Clouds 23 1018 78 16093 3.6 210 14:18 28.07.2019
4335 Clouds 22 1019 88 16093 3.94 240.01 13:39 28.07.2019
4336 Clouds 22 1018 78 16093 2.6 210 13:20 28.07.2019
4337 Clear 22 1019 94 16093 3.65 237.808 12:45 28.07.2019
4338 Clouds 22 1018 83 16093 4.66 236.698 12:27 28.07.2019
4339 Clouds 22 1019 83 16093 2.6 230 11:50 28.07.2019
4340 Clouds 23 1019 83 16093 2.6 210 11:29 28.07.2019
4341 Clouds 23 1018 78 16093 2.6 220 10:59 28.07.2019
4342 Clouds 23 1019 78 16093 2.1 210 10:38 28.07.2019
4343 Clouds 23 1019 78 16093 2.1 210 10:18 28.07.2019
4344 Clear 24 1019 73 16093 4.66 236.698 09:40 28.07.2019
4345 Clear 24 1019 73 16093 4.89 235.914 09:22 28.07.2019
4346 Clear 24 1019 69 16093 1.5 210 08:42 28.07.2019
4347 Clear 24 1019 69 16093 1.5 210 08:22 28.07.2019
4348 Clear 24 1019 69 16093 1.5 210 07:44 28.07.2019
4349 Clear 25 1019 69 16093 1.5 210 07:25 28.07.2019
4350 Clouds 25 1019 61 16093 2.1 200 06:36 28.07.2019
4351 Clouds 26 1019 54 16093 2.6 220 05:22 28.07.2019
4352 Clear 29 1019 54 16093 7.7 230 02:43 28.07.2019
4353 Clear 29 1018 42 16093 7.2 240 02:00 28.07.2019
4354 Clouds 30 1017 45 16093 8.2 220 01:18 28.07.2019
4355 Clouds 31 1018 51 16093 6.2 220 00:43 28.07.2019
4356 Clouds 31 1018 43 16093 7.2 250 23:54 27.07.2019
4357 Clouds 31 1019 51 16093 7.7 220 23:29 27.07.2019
4358 Clouds 31 1019 40 16093 9.8 250 22:47 27.07.2019
4359 Clear 31 1019 48 16093 8.7 230 22:29 27.07.2019
4360 Clouds 31 1018 45 16093 7.7 220 21:59 27.07.2019
4361 Clear 31 1019 51 16093 8.2 230 21:38 27.07.2019
4362 Clouds 31 1018 45 16093 8.2 220 21:19 27.07.2019
4363 Clear 30 1020 51 16093 6.7 240 20:45 27.07.2019
4364 Clouds 30 1019 52 16093 3.6 230 20:22 27.07.2019
4365 Clear 29 1020 54 16093 6.7 230 19:42 27.07.2019
4366 Clear 29 1019 58 16093 2.6 230 19:22 27.07.2019
4367 Clouds 29 1020 45 16093 5.1 220 18:49 27.07.2019
4368 Clear 28 1021 58 16093 6.2 230 18:30 27.07.2019
4369 Clear 27 1021 61 16093 7.2 230 17:52 27.07.2019
4370 Clear 27 1021 61 16093 7.2 230 17:32 27.07.2019
4371 Clear 27 1021 61 16093 7.2 230 17:32 27.07.2019
4372 Clouds 26 1021 57 16093 4.1 230 16:57 27.07.2019
4373 Clear 26 1021 69 16093 5.7 220 16:38 27.07.2019
4374 Clouds 25 1020 61 16093 7.7 220 16:18 27.07.2019
4375 Clear 24 1022 73 16093 4.6 230 15:43 27.07.2019
4376 Clear 24 1020 69 16093 2.6 220 15:19 27.07.2019
4377 Clear 23 1021 73 16093 2.6 220 14:46 27.07.2019
4378 Clear 22 1021 83 16093 3.6 210 14:27 27.07.2019
4379 Clear 21 1021 82 16093 5.65 218.252 13:51 27.07.2019
4380 Clouds 21 1020 78 16093 3.1 210 13:25 27.07.2019
4381 Rain 21 1020 73 16093 3.6 200 12:54 27.07.2019
4382 Rain 21 1021 88 16093 3.1 200 12:36 27.07.2019
4383 Rain 21 1020 73 16093 4.1 210 12:18 27.07.2019
4384 Clouds 22 1021 69 16093 1.5 190 11:39 27.07.2019
4385 Clouds 22 1021 69 16093 1.5 190 11:20 27.07.2019
4386 Clouds 22 1021 83 16093 4.1 200 10:41 27.07.2019
4387 Clear 22 1020 78 16093 3.1 210 10:22 27.07.2019
4388 Clouds 22 1021 64 16093 2.1 200 09:41 27.07.2019
4389 Clouds 22 1021 64 16093 2.1 200 09:23 27.07.2019
4390 Clouds 23 1021 60 16093 2.1 210 08:49 27.07.2019
4391 Clouds 23 1021 60 16093 2.1 210 08:49 27.07.2019
4392 Clouds 23 1021 60 16093 1.5 200 08:30 27.07.2019
4393 Clouds 23 1021 57 16093 2.1 170 07:55 27.07.2019
4394 Clouds 23 1021 57 16093 2.6 180 07:33 27.07.2019
4395 Clouds 24 1021 57 16093 2.6 170 06:57 27.07.2019
4396 Clouds 24 1021 57 16093 3.6 160 06:32 27.07.2019
4397 Clouds 24 1021 57 16093 2.6 180 05:53 27.07.2019
4398 Clouds 25 1021 57 16093 3.1 170 05:28 27.07.2019
4399 Clouds 25 1021 69 16093 4.6 180 04:35 27.07.2019
4400 Clouds 26 1021 69 16093 3.1 180 03:29 27.07.2019
4401 Clouds 27 1021 61 16093 5.7 170 02:40 27.07.2019
4402 Clouds 28 1021 51 16093 4.1 170 01:49 27.07.2019
4403 Clouds 28 1020 48 16093 7.7 180 01:21 27.07.2019
4404 Clouds 28 1020 48 16093 6.2 180 00:33 27.07.2019
4405 Clouds 29 1021 48 16093 4.1 160 23:55 26.07.2019
4406 Clouds 29 1022 58 16093 5.7 200 23:37 26.07.2019
4407 Rain 29 1021 48 16093 7.2 190 23:18 26.07.2019
4408 Clouds 29 1022 54 16093 4.1 200 22:41 26.07.2019
4409 Rain 29 1022 54 16093 4.1 200 22:23 26.07.2019
4410 Rain 29 1022 51 16093 3.6 150 21:49 26.07.2019
4411 Clouds 29 1022 54 16093 2.1 210 21:20 26.07.2019
4412 Clear 28 1023 61 16093 4.1 180 20:43 26.07.2019
4413 Clear 28 1022 54 16093 2.1 210 20:25 26.07.2019
4414 Clear 27 1024 65 16093 3.6 210 19:44 26.07.2019
4415 Clear 27 1024 65 16093 3.6 210 19:25 26.07.2019
4416 Clouds 26 1024 51 16093 4.1 160 18:58 26.07.2019
4417 Clear 26 1024 65 16093 4.1 190 18:38 26.07.2019
4418 Clouds 25 1023 61 16093 5.1 190 18:19 26.07.2019
4419 Clear 24 1024 69 16093 4.1 190 17:46 26.07.2019
4420 Clear 24 1023 69 16093 2.6 210 17:19 26.07.2019
4421 Clouds 23 1024 53 16093 3.6 170 16:57 26.07.2019
4422 Clear 23 1024 73 16093 4.1 190 16:39 26.07.2019
4423 Clouds 23 1023 64 16093 4.6 200 16:20 26.07.2019
4424 Clouds 22 1024 60 16093 2.6 180 15:56 26.07.2019
4425 Clear 22 1024 78 16093 3.62 211.846 15:38 26.07.2019
4426 Clear 21 1023 69 16093 2.6 200 15:19 26.07.2019
4427 Clear 20 1023 82 16093 2.8 209.176 14:43 26.07.2019
4428 Clear 20 1023 73 16093 2.6 200 14:22 26.07.2019
4429 Clear 19 1023 93 16093 2.8 209.176 13:44 26.07.2019
4430 Clouds 18 1022 72 16093 2.6 170 13:26 26.07.2019
4431 Clear 18 1023 93 16093 2.97 213.46 12:49 26.07.2019
4432 Clear 18 1022 82 16093 3.19 211.832 12:22 26.07.2019
4433 Clear 18 1023 100 16093 3.19 211.832 11:48 26.07.2019
4434 Clear 18 1023 100 16093 3.19 211.832 11:22 26.07.2019
4435 Clear 18 1022 93 16093 3.19 211.832 10:58 26.07.2019
4436 Clear 19 1022 93 16093 3.19 211.832 10:39 26.07.2019
4437 Clear 19 1022 93 16093 3.19 211.832 10:39 26.07.2019
4438 Clear 19 1022 93 16093 3.19 211.832 10:18 26.07.2019
4439 Clear 19 1023 93 16093 3.19 211.832 09:43 26.07.2019
4440 Clear 19 1023 93 16093 2.72 202.489 09:24 26.07.2019
4441 Clear 19 1023 100 16093 2.42 198.787 08:40 26.07.2019
4442 Clear 20 1023 100 16093 2.42 198.787 08:20 26.07.2019
4443 Clouds 20 1022 64 16093 2.1 180 08:20 26.07.2019
4444 Clear 20 1023 93 16093 1.5 150 07:39 26.07.2019
4445 Clear 20 1023 93 16093 1.5 150 07:21 26.07.2019
4446 Clear 21 1023 100 16093 1.5 150 06:21 26.07.2019
4447 Clear 23 1022 77 16093 1.5 170 04:30 26.07.2019
4448 Clouds 24 1022 83 16093 1.5 140 03:50 26.07.2019
4449 Clear 27 1022 51 16093 3.74 229.517 01:45 26.07.2019
4450 Rain 28 1021 39 16093 2.6 200 01:18 26.07.2019
4451 Rain 28 1022 47 16093 3.3 245.672 00:28 26.07.2019
4452 Clear 29 1022 47 16093 3.5 241.257 23:44 25.07.2019
4453 Rain 29 1021 37 16093 3.1 110 23:20 25.07.2019
4454 Clear 29 1022 47 16093 3.5 241.257 22:41 25.07.2019
4455 Clouds 29 1022 40 16093 3.5 241.257 22:21 25.07.2019
4456 Clouds 29 1022 34 24140 3.6 140 21:48 25.07.2019
4457 Clear 29 1022 45 16093 2.6 140 21:23 25.07.2019
4458 Clear 28 1023 47 16093 2.6 200 20:57 25.07.2019
4459 Clear 28 1023 47 16093 1.5 80 20:38 25.07.2019
4460 Clear 28 1022 39 16093 2.6 180 20:18 25.07.2019
4461 Clear 28 1023 50 16093 1.5 200 19:40 25.07.2019
4462 Clear 27 1023 48 16093 1.5 230 19:21 25.07.2019
4463 Clear 27 1023 53 16093 2.1 180 18:42 25.07.2019
4464 Clear 26 1023 47 16093 2.03 250.34 18:23 25.07.2019
4465 Clear 25 1024 41 24140 1.5 180 17:50 25.07.2019
4466 Clear 25 1024 57 16093 2.1 220 17:31 25.07.2019
4467 Clear 24 1024 47 24140 2.03 250.34 16:57 25.07.2019
4468 Clear 23 1024 68 16093 2.03 250.34 16:38 25.07.2019
4469 Clear 23 1024 53 16093 1.5 210 16:19 25.07.2019
4470 Clear 21 1024 60 16093 2.03 250.34 15:43 25.07.2019
4471 Clear 20 1024 60 16093 2.6 250 15:19 25.07.2019
4472 Clear 18 1023 93 16093 2.55 252.353 14:42 25.07.2019
4473 Clear 17 1023 72 16093 1.5 250 14:23 25.07.2019
4474 Clear 16 1023 93 16093 2.55 252.353 13:55 25.07.2019
4475 Clear 15 1023 100 16093 2.55 252.353 13:36 25.07.2019
4476 Clear 15 1022 68 16093 2.48 252.755 13:18 25.07.2019
4477 Clear 15 1022 93 16093 2.29 238.719 12:30 25.07.2019
4478 Clear 15 1022 100 16093 2.29 238.719 11:47 25.07.2019
4479 Clear 15 1022 100 16093 2.29 238.719 11:26 25.07.2019
4480 Clear 15 1022 100 16093 2.29 238.719 10:59 25.07.2019
4481 Clear 16 1021 100 16093 2.29 238.719 10:40 25.07.2019
4482 Clear 16 1021 100 16093 2.29 238.719 10:22 25.07.2019
4483 Clear 16 1022 100 16093 2.29 238.719 09:44 25.07.2019
4484 Clear 16 1022 100 16093 2.05 216.171 09:25 25.07.2019
4485 Clear 16 1022 100 16093 1.97 206.474 08:44 25.07.2019
4486 Clear 16 1022 100 16093 1.97 206.474 08:19 25.07.2019
4487 Clear 17 1021 93 16093 1.97 206.474 07:36 25.07.2019
4488 Clear 18 1021 100 16093 1.97 206.474 06:43 25.07.2019
4489 Clear 19 1021 100 16093 2.01 158.644 05:48 25.07.2019
4490 Clear 19 1021 82 16093 2.01 158.644 05:28 25.07.2019
4491 Clear 20 1021 63 16093 2.01 158.644 04:38 25.07.2019
4492 Clear 25 1021 44 16093 2.6 70 01:48 25.07.2019
4493 Clear 26 1021 39 16093 1.5 120 01:20 25.07.2019
4494 Clear 26 1021 34 16093 3.8 65.544 00:20 25.07.2019
4495 Clear 27 1021 44 16093 4.6 70 23:50 24.07.2019
4496 Clear 27 1021 44 16093 4.6 70 23:31 24.07.2019
4497 Clear 27 1021 47 24140 3.6 40 22:56 24.07.2019
4498 Clear 27 1021 44 16093 4.1 60 22:38 24.07.2019
4499 Clear 27 1021 36 16093 3.1 60 22:19 24.07.2019
4500 Clear 27 1022 47 16093 3.6 50 21:43 24.07.2019
4501 Clear 27 1021 39 16093 3.1 110 21:22 24.07.2019
4502 Clear 26 1022 47 32186 3.1 40 20:57 24.07.2019
4503 Clear 26 1022 53 16093 4.1 40 20:38 24.07.2019
4504 Clouds 26 1022 44 16093 4.1 80 20:19 24.07.2019
4505 Clear 26 1022 50 24140 3.6 40 19:54 24.07.2019
4506 Clear 26 1022 50 16093 2.6 10 19:36 24.07.2019
4507 Clear 26 1022 50 16093 2.6 10 19:36 24.07.2019
4508 Clouds 26 1022 39 16093 3.1 60 19:18 24.07.2019
4509 Clear 25 1023 53 16093 4.6 40 18:37 24.07.2019
4510 Clear 25 1022 36 16093 5.1 40 18:19 24.07.2019
4511 Clear 24 1023 60 16093 3.6 360 17:42 24.07.2019
4512 Clear 24 1023 47 16093 2.1 80 17:20 24.07.2019
4513 Clear 23 1022 68 16093 1.75 37.224 16:41 24.07.2019
4514 Clear 23 1022 43 16093 3.1 10 16:21 24.07.2019
4515 Clear 23 1022 43 16093 3.1 10 16:21 24.07.2019
4516 Clear 21 1022 77 16093 1.75 37.224 15:40 24.07.2019
4517 Clouds 20 1022 64 16093 2.6 330 15:21 24.07.2019
4518 Clear 18 1022 93 16093 1.33 329.11 14:56 24.07.2019
4519 Clear 18 1022 93 16093 1.33 329.11 14:56 24.07.2019
4520 Clear 18 1022 100 16093 1.33 329.11 14:38 24.07.2019
4521 Clouds 16 1022 88 16093 2.1 300 14:18 24.07.2019
4522 Mist 15 1021 100 16093 1.33 329.11 13:37 24.07.2019
4523 Mist 15 1021 82 16093 1.5 300 13:18 24.07.2019
4524 Clear 15 1021 100 16093 2.1 280 12:49 24.07.2019
4525 Clear 15 1021 100 16093 1.73 339.095 12:26 24.07.2019
4526 Clear 15 1021 100 16093 1.5 260 11:38 24.07.2019
4527 Clouds 15 1020 82 16093 1.5 280 11:20 24.07.2019
4528 Clear 15 1020 100 16093 1.5 260 10:44 24.07.2019
4529 Mist 16 1020 100 16093 1.5 260 10:25 24.07.2019
4530 Clear 16 1020 100 11265 1.5 270 09:45 24.07.2019
4531 Clear 16 1020 100 16093 1.21 354.989 09:25 24.07.2019
4532 Clear 16 1020 100 11265 1.21 354.989 08:57 24.07.2019
4533 Clear 16 1020 100 16093 2.72 316.817 08:30 24.07.2019
4534 Clear 17 1020 100 16093 1.5 270 07:51 24.07.2019
4535 Clear 17 1020 93 16093 1.5 250 07:24 24.07.2019
4536 Clear 18 1020 88 16093 1.5 350 06:29 24.07.2019
4537 Clouds 19 1020 77 16093 2.1 10 05:54 24.07.2019
4538 Clear 23 1019 68 16093 2.6 50 02:45 24.07.2019
4539 Clear 24 1019 64 16093 4.1 40 01:30 24.07.2019
4540 Clouds 25 1019 60 16093 5.1 30 00:57 24.07.2019
4541 Clear 26 1019 57 16093 5.1 30 00:23 24.07.2019
4542 Clear 26 1019 53 16093 4.1 20 23:42 23.07.2019
4543 Clouds 26 1018 50 16093 7.2 60 23:24 23.07.2019
4544 Clouds 26 1019 60 16093 4.6 40 22:40 23.07.2019
4545 Clouds 26 1018 54 16093 5.1 70 22:20 23.07.2019
4546 Clouds 26 1019 47 16093 4.1 30 21:59 23.07.2019
4547 Clouds 26 1019 47 16093 3.1 20 21:41 23.07.2019
4548 Clouds 26 1018 44 16093 3.6 100 21:22 23.07.2019
4549 Clouds 26 1019 36 24140 2.1 20 20:47 23.07.2019
4550 Clouds 26 1019 47 16093 5.34 321.856 20:25 23.07.2019
4551 Clouds 26 1020 38 24140 5.34 321.856 19:43 23.07.2019
4552 Clouds 26 1019 44 16093 6.7 310 19:22 23.07.2019
4553 Clouds 25 1020 57 16093 2.6 350 18:52 23.07.2019
4554 Clear 25 1020 50 16093 1.5 50 18:24 23.07.2019
4555 Clear 24 1020 53 16093 3.57 326.751 17:45 23.07.2019
4556 Clear 24 1020 53 16093 3.57 326.751 17:27 23.07.2019
4557 Clear 23 1020 60 16093 3.57 326.751 16:58 23.07.2019
4558 Clear 23 1020 64 16093 3.57 326.751 16:40 23.07.2019
4559 Clouds 22 1020 53 16093 3.6 330 16:19 23.07.2019
4560 Clear 21 1020 64 16093 3.57 326.751 15:46 23.07.2019
4561 Clear 20 1020 77 16093 2.1 320 15:24 23.07.2019
4562 Clear 18 1020 82 16093 2.1 300 14:40 23.07.2019
4563 Clear 17 1020 77 16093 1.5 320 14:21 23.07.2019
4564 Clear 17 1020 88 16093 2.6 280 13:58 23.07.2019
4565 Clear 16 1020 87 16093 3.34 330.597 13:39 23.07.2019
4566 Clouds 16 1019 72 16093 2.6 310 13:20 23.07.2019
4567 Clouds 15 1019 93 16093 3.63 331.321 12:48 23.07.2019
4568 Clouds 15 1019 93 16093 3.64 325.253 12:26 23.07.2019
4569 Clouds 16 1019 87 16093 1.5 220 11:50 23.07.2019
4570 Clouds 16 1019 87 16093 1.5 220 11:32 23.07.2019
4571 Clouds 16 1019 87 16093 1.5 230 10:59 23.07.2019
4572 Clouds 16 1019 87 16093 1.5 220 10:40 23.07.2019
4573 Clouds 16 1019 87 16093 1.5 220 10:20 23.07.2019
4574 Clouds 15 1019 82 16093 2.1 250 09:41 23.07.2019
4575 Clouds 15 1019 82 16093 2.1 250 09:19 23.07.2019
4576 Clear 15 1019 88 16093 2.1 290 08:43 23.07.2019
4577 Clear 15 1019 88 16093 2.1 290 08:19 23.07.2019
4578 Clear 15 1019 88 16093 2.1 290 08:19 23.07.2019
4579 Clear 16 1019 82 16093 3.1 320 07:55 23.07.2019
4580 Clear 16 1020 77 16093 2.86 308.826 07:36 23.07.2019
4581 Clear 16 1019 68 16093 1.5 330 06:46 23.07.2019
4582 Clear 16 1019 68 16093 1.5 330 06:28 23.07.2019
4583 Clear 21 1019 56 16093 3.1 360 02:57 23.07.2019
4584 Clear 23 1018 53 16093 5.7 20 01:32 23.07.2019
4585 Clear 23 1019 53 16093 7.2 10 00:31 23.07.2019
4586 Clear 24 1019 49 16093 6.2 10 23:43 22.07.2019
4587 Clouds 24 1019 41 16093 3.1 350 23:22 22.07.2019
4588 Clouds 24 1019 46 32186 8.7 360 22:59 22.07.2019
4589 Clear 24 1019 53 16093 6.2 360 22:41 22.07.2019
4590 Clouds 24 1018 36 16093 9.3 20 22:20 22.07.2019
4591 Clear 24 1019 53 16093 7.2 20 21:43 22.07.2019
4592 Clouds 24 1018 35 16093 9.8 10 21:22 22.07.2019
4593 Clear 23 1019 41 16093 4.6 10 20:49 22.07.2019
4594 Clear 23 1018 60 16093 8.2 30 20:31 22.07.2019
4595 Clear 23 1018 68 16093 5.7 20 19:57 22.07.2019
4596 Clear 23 1018 64 16093 6.7 10 19:37 22.07.2019
4597 Clouds 23 1018 49 16093 8.7 10 19:18 22.07.2019
4598 Rain 22 1018 68 16093 7.2 20 18:44 22.07.2019
4599 Rain 22 1018 53 16093 8.2 30 18:26 22.07.2019
4600 Rain 22 1018 72 16093 4.1 10 17:44 22.07.2019
4601 Clouds 21 1018 64 16093 7.2 40 17:26 22.07.2019
4602 Clouds 21 1018 64 16093 8.2 340 16:59 22.07.2019
4603 Clear 21 1018 82 16093 5.7 10 16:38 22.07.2019
4604 Clear 21 1018 82 16093 5.7 10 16:38 22.07.2019
4605 Clouds 21 1018 56 16093 6.2 20 16:20 22.07.2019
4606 Clouds 20 1017 77 16093 5.1 10 15:44 22.07.2019
4607 Clouds 20 1017 68 16093 7.2 30 15:19 22.07.2019
4608 Clouds 19 1017 83 16093 5.1 10 14:44 22.07.2019
4609 Clouds 19 1017 77 16093 5.7 20 14:22 22.07.2019
4610 Clouds 19 1016 94 16093 4.1 10 13:50 22.07.2019
4611 Clouds 19 1016 82 16093 5.7 10 13:30 22.07.2019
4612 Clear 19 1017 82 16093 1.5 10 12:51 22.07.2019
4613 Clear 19 1016 82 16093 2.1 10 12:31 22.07.2019
4614 Clear 19 1015 94 16093 4.37 26.448 11:55 22.07.2019
4615 Clear 19 1015 94 16093 3.6 10 11:36 22.07.2019
4616 Clouds 19 1015 88 16093 5.7 10 11:18 22.07.2019
4617 Clear 19 1015 94 16093 3.1 10 10:34 22.07.2019
4618 Clear 20 1015 83 16093 4.37 26.448 09:46 22.07.2019
4619 Clear 20 1015 83 16093 4.37 26.448 09:26 22.07.2019
4620 Clear 20 1015 83 16093 4.11 22.467 08:59 22.07.2019
4621 Clear 20 1015 88 16093 4.11 22.467 08:38 22.07.2019
4622 Clouds 20 1015 64 16093 3.6 340 08:20 22.07.2019
4623 Clear 20 1015 94 16093 1.5 320 07:47 22.07.2019
4624 Clear 20 1015 94 16093 1.5 320 07:27 22.07.2019
4625 Clear 21 1015 83 16093 3.6 20 05:20 22.07.2019
4626 Clouds 22 1015 88 16093 3.77 29.127 03:44 22.07.2019
4627 Rain 24 1014 83 16093 4.6 360 01:25 22.07.2019
4628 Rain 24 1014 60 16093 8.2 20 00:42 22.07.2019
4629 Clouds 24 1014 60 16093 8.2 20 00:20 22.07.2019
4630 Rain 24 1014 83 16093 5.7 20 23:46 21.07.2019
4631 Rain 24 1015 100 4023 4.85 40.477 22:58 21.07.2019
4632 Rain 24 1015 100 4023 4.85 40.477 22:39 21.07.2019
4633 Rain 24 1015 69 16093 3.6 10 22:20 21.07.2019
4634 Rain 24 1014 94 11265 2.6 340 21:49 21.07.2019
4635 Rain 23 1014 94 11265 2.6 340 21:26 21.07.2019
4636 Rain 23 1014 88 16093 6.7 20 20:59 21.07.2019
4637 Rain 23 1014 94 16093 4.6 20 20:41 21.07.2019
4638 Rain 23 1014 73 16093 5.7 20 20:22 21.07.2019
4639 Rain 23 1015 94 16093 3.6 310 19:49 21.07.2019
4640 Rain 23 1014 88 16093 3.6 20 19:29 21.07.2019
4641 Rain 23 1015 88 11265 4.6 330 18:51 21.07.2019
4642 Rain 23 1014 88 16093 4.6 360 18:28 21.07.2019
4643 Rain 23 1014 88 16093 3.1 360 17:56 21.07.2019
4644 Rain 23 1015 83 16093 4.6 40 17:38 21.07.2019
4645 Rain 23 1014 78 16093 4.6 50 17:18 21.07.2019
4646 Thunderstorm 23 1014 78 16093 3.6 50 16:41 21.07.2019
4647 Rain 23 1015 94 16093 1.5 70 16:22 21.07.2019
4648 Rain 22 1014 88 16093 4.1 80 15:41 21.07.2019
4649 Rain 22 1014 94 16093 2.6 60 15:21 21.07.2019
4650 Rain 22 1014 94 16093 2.6 60 15:21 21.07.2019
4651 Rain 22 1014 88 16093 3.1 80 14:44 21.07.2019
4652 Rain 22 1014 94 16093 2.6 60 14:25 21.07.2019
4653 Rain 21 1014 88 14484 2.6 50 13:53 21.07.2019
4654 Rain 21 1014 100 16093 4.1 40 13:34 21.07.2019
4655 Rain 21 1013 94 3219 5.7 70 12:57 21.07.2019
4656 Rain 21 1013 94 3219 5.7 70 12:39 21.07.2019
4657 Rain 21 1013 94 1207 5.1 60 12:20 21.07.2019
4658 Rain 22 1014 88 4828 3.1 40 11:45 21.07.2019
4659 Rain 22 1013 100 11265 2.1 30 11:25 21.07.2019
4660 Thunderstorm 22 1013 83 16093 5.1 30 10:43 21.07.2019
4661 Thunderstorm 22 1013 94 16093 3.1 350 10:24 21.07.2019
4662 Thunderstorm 22 1013 83 16093 2.6 30 09:52 21.07.2019
4663 Clouds 23 1013 94 16093 3.1 330 09:32 21.07.2019
4664 Clouds 24 1013 88 16093 2.1 360 08:47 21.07.2019
4665 Clear 24 1013 100 16093 3.1 330 08:27 21.07.2019
4666 Rain 24 1012 94 16093 2.95 341.485 07:40 21.07.2019
4667 Rain 24 1013 88 16093 2.95 341.485 06:59 21.07.2019
4668 Rain 25 1011 83 16093 2.6 170 05:54 21.07.2019
4669 Clear 26 1012 78 16093 2.1 120 02:59 21.07.2019
4670 Rain 26 1013 88 16093 5.7 40 01:33 21.07.2019
4671 Rain 28 1014 74 16093 10.3 40 00:42 21.07.2019
4672 Clouds 34 1012 62 16093 8.2 30 00:19 21.07.2019
4673 Clouds 35 1012 59 16093 5.7 230 23:43 20.07.2019
4674 Clouds 35 1011 50 16093 6.7 220 23:21 20.07.2019
4675 Thunderstorm 35 1012 44 16093 4.6 280 22:48 20.07.2019
4676 Clouds 35 1011 53 16093 7.2 230 22:23 20.07.2019
4677 Clouds 35 1012 53 16093 7.7 240 21:57 20.07.2019
4678 Clouds 35 1011 63 16093 6.2 230 21:39 20.07.2019
4679 Clouds 34 1011 56 16093 6.7 220 21:20 20.07.2019
4680 Clouds 34 1011 70 16093 6.7 230 20:41 20.07.2019
4681 Clouds 34 1011 63 16093 3.1 230 20:21 20.07.2019
4682 Clouds 33 1012 70 16093 7.2 210 19:46 20.07.2019
4683 Clouds 33 1011 66 16093 7.2 230 19:21 20.07.2019
4684 Clouds 32 1012 79 16093 6.2 220 18:44 20.07.2019
4685 Clouds 32 1011 70 16093 3.1 240 18:22 20.07.2019
4686 Clouds 31 1012 74 16093 4.1 180 17:55 20.07.2019
4687 Clouds 30 1012 83 16093 5.7 210 17:25 20.07.2019
4688 Clouds 29 1011 79 16093 2.6 200 16:45 20.07.2019
4689 Clear 29 1012 88 16093 5.7 190 16:27 20.07.2019
4690 Clear 28 1011 83 16093 4.6 180 15:58 20.07.2019
4691 Clear 28 1012 88 16093 5.1 170 15:58 20.07.2019
4692 Clear 28 1012 88 16093 5.7 160 15:40 20.07.2019
4693 Rain 27 1011 83 16093 4.1 180 15:20 20.07.2019
4694 Rain 26 1012 83 16093 5.7 170 14:48 20.07.2019
4695 Rain 26 1013 78 16093 5.1 150 14:29 20.07.2019
4696 Clouds 25 1013 69 16093 6.2 150 13:54 20.07.2019
4697 Clouds 25 1014 94 16093 3.1 140 13:36 20.07.2019
4698 Clouds 25 1014 94 16093 3.1 140 13:36 20.07.2019
4699 Clouds 25 1014 94 16093 3.1 140 13:36 20.07.2019
4700 Clouds 25 1014 94 16093 3.1 140 13:36 20.07.2019
4701 Rain 25 1013 74 16093 7.2 120 13:18 20.07.2019
4702 Rain 25 1014 88 16093 2.6 50 12:38 20.07.2019
4703 Rain 25 1013 78 16093 4.6 120 12:18 20.07.2019
4704 Clouds 26 1014 78 16093 6.2 70 11:40 20.07.2019
4705 Clouds 26 1013 78 16093 5.7 70 11:19 20.07.2019
4706 Clear 27 1013 83 16093 4.86 231.706 10:37 20.07.2019
4707 Clear 27 1013 83 16093 4.86 231.706 10:19 20.07.2019
4708 Clear 28 1013 79 16093 2.6 210 09:46 20.07.2019
4709 Clear 28 1013 79 16093 2.6 210 09:24 20.07.2019
4710 Clear 28 1012 79 16093 3.1 220 08:48 20.07.2019
4711 Clear 28 1012 79 16093 2.6 210 08:21 20.07.2019
4712 Clear 29 1012 74 16093 3.6 210 07:34 20.07.2019
4713 Clear 29 1012 74 16093 3.1 190 06:43 20.07.2019
4714 Clear 30 1012 70 16093 3.6 190 05:21 20.07.2019
4715 Clear 30 1011 79 16093 4.1 200 04:30 20.07.2019
4716 Rain 33 1009 70 16093 6.7 220 01:23 20.07.2019
4717 Clouds 34 1010 67 16093 6.2 230 00:50 20.07.2019
4718 Clouds 34 1010 67 16093 6.2 230 00:28 20.07.2019
4719 Clouds 34 1010 67 16093 1.5 220 23:56 19.07.2019
4720 Clouds 34 1010 67 16093 6.7 210 23:37 19.07.2019
4721 Clouds 34 1009 63 16093 7.2 240 23:18 19.07.2019
4722 Clouds 34 1011 67 16093 6.7 200 22:40 19.07.2019
4723 Clouds 34 1010 66 16093 7.2 220 22:20 19.07.2019
4724 Clouds 33 1011 67 16093 4.6 220 21:43 19.07.2019
4725 Clouds 33 1011 67 16093 4.6 220 21:24 19.07.2019
4726 Clouds 33 1012 75 16093 4.6 220 20:44 19.07.2019
4727 Clouds 33 1012 75 16093 4.6 220 20:25 19.07.2019
4728 Clouds 32 1011 63 16093 6.2 220 19:40 19.07.2019
4729 Clouds 32 1011 66 16093 5.7 250 19:19 19.07.2019
4730 Clear 31 1012 74 16093 5.1 250 18:41 19.07.2019
4731 Rain 31 1011 70 16093 4.1 240 18:19 19.07.2019
4732 Rain 30 1011 79 16093 7.7 230 17:46 19.07.2019
4733 Rain 30 1010 74 16093 1.5 240 17:25 19.07.2019
4734 Clear 29 1010 83 16093 5.7 220 16:48 19.07.2019
4735 Rain 28 1010 83 16093 5.7 220 16:25 19.07.2019
4736 Clouds 28 1011 88 16093 4.1 230 15:48 19.07.2019
4737 Rain 28 1011 88 16093 4.1 230 15:29 19.07.2019
4738 Clouds 27 1012 94 16093 4.1 230 14:56 19.07.2019
4739 Clouds 27 1012 94 16093 4.6 230 14:56 19.07.2019
4740 Clouds 27 1012 94 16093 4.6 230 14:38 19.07.2019
4741 Clouds 27 1011 83 16093 3.6 230 14:19 19.07.2019
4742 Clear 27 1011 100 16093 5.1 220 13:43 19.07.2019
4743 Clouds 27 1010 88 16093 4.6 220 13:22 19.07.2019
4744 Clear 27 1011 100 16093 4.1 220 12:49 19.07.2019
4745 Clouds 27 1009 88 16093 4.6 210 12:30 19.07.2019
4746 Clear 27 1010 88 16093 2.1 200 11:47 19.07.2019
4747 Clouds 27 1009 94 16093 4.6 210 11:20 19.07.2019
4748 Clear 27 1010 88 16093 3.6 200 10:58 19.07.2019
4749 Clear 27 1010 88 16093 2.6 220 10:39 19.07.2019
4750 Clear 27 1010 88 16093 2.6 220 10:20 19.07.2019
4751 Clear 27 1010 88 16093 2.6 170 09:44 19.07.2019
4752 Clear 27 1010 88 16093 2.6 170 09:22 19.07.2019
4753 Clear 27 1010 88 16093 2.6 170 09:22 19.07.2019
4754 Clear 27 1010 88 16093 2.6 200 08:50 19.07.2019
4755 Clear 27 1011 88 16093 2.6 200 08:32 19.07.2019
4756 Clear 28 1010 83 16093 3.6 190 07:42 19.07.2019
4757 Clear 28 1010 83 16093 3.6 190 07:23 19.07.2019
4758 Clear 29 1010 79 16093 1.5 210 05:39 19.07.2019
4759 Clouds 31 1008 70 16093 3.1 180 01:56 19.07.2019
4760 Clouds 30 1008 70 16093 5.1 180 00:58 19.07.2019
4761 Clouds 30 1007 66 16093 7.7 210 00:21 19.07.2019
4762 Rain 30 1009 79 16093 7.2 190 23:42 18.07.2019
4763 Rain 30 1008 70 16093 6.7 210 23:23 18.07.2019
4764 Rain 29 1009 70 16093 5.1 160 22:57 18.07.2019
4765 Rain 29 1010 83 16093 6.7 180 22:39 18.07.2019
4766 Rain 28 1009 69 16093 9.3 170 22:18 18.07.2019
4767 Rain 27 1010 83 16093 9.3 170 21:39 18.07.2019
4768 Clouds 27 1010 83 16093 9.3 170 21:20 18.07.2019
4769 Rain 26 1012 94 16093 4.6 130 20:48 18.07.2019
4770 Rain 24 1013 100 12874 5.1 130 20:27 18.07.2019
4771 Rain 23 1013 100 16093 7.2 130 19:51 18.07.2019
4772 Rain 22 1014 100 4023 4.1 100 19:28 18.07.2019
4773 Rain 22 1016 100 8047 3.76 151.989 18:52 18.07.2019
4774 Rain 22 1015 100 11265 6.2 50 18:23 18.07.2019
4775 Rain 22 1015 88 4023 6.2 160 17:57 18.07.2019
4776 Rain 22 1015 100 6437 2.6 360 17:38 18.07.2019
4777 Rain 22 1014 100 2816 4.94 233.789 17:19 18.07.2019
4778 Rain 22 1014 100 4828 1.5 180 16:49 18.07.2019
4779 Rain 22 1013 94 6437 3.6 90 16:25 18.07.2019
4780 Rain 22 1013 100 11265 4.1 240 15:57 18.07.2019
4781 Rain 23 1013 88 6437 2.1 190 15:36 18.07.2019
4782 Rain 23 1012 94 9656 2.1 180 14:56 18.07.2019
4783 Rain 23 1012 100 16093 4.1 190 14:38 18.07.2019
4784 Rain 23 1012 83 16093 4.1 190 14:19 18.07.2019
4785 Rain 23 1013 100 16093 4.14 216.003 13:38 18.07.2019
4786 Clouds 23 1012 88 16093 3.1 190 13:19 18.07.2019
4787 Thunderstorm 23 1012 100 16093 2.67 207.859 12:45 18.07.2019
4788 Clouds 23 1012 88 16093 2.1 210 12:21 18.07.2019
4789 Clouds 23 1012 94 16093 2.6 180 11:51 18.07.2019
4790 Clouds 23 1012 94 16093 2.92 217.101 11:33 18.07.2019
4791 Clouds 23 1012 100 16093 2.92 217.101 10:52 18.07.2019
4792 Clear 24 1012 100 16093 2.92 217.101 10:23 18.07.2019
4793 Clouds 24 1012 94 16093 2.92 217.101 09:45 18.07.2019
4794 Clouds 24 1012 94 16093 2.34 233.859 09:23 18.07.2019
4795 Clouds 24 1013 94 16093 2.37 213.428 08:47 18.07.2019
4796 Clouds 24 1012 78 16093 2.1 130 08:20 18.07.2019
4797 Clouds 24 1013 83 16093 2.37 213.428 07:40 18.07.2019
4798 Rain 24 1013 83 16093 2.37 213.428 07:20 18.07.2019
4799 Clear 25 1013 78 16093 1.5 140 06:37 18.07.2019
4800 Clear 25 1013 88 16093 2.1 140 05:33 18.07.2019
4801 Rain 27 1012 65 16093 3.6 110 02:55 18.07.2019
4802 Rain 28 1013 83 16093 4.1 360 01:50 18.07.2019
4803 Thunderstorm 31 1013 62 16093 1.94 167.222 00:36 18.07.2019
4804 Rain 32 1013 58 16093 1.15 3.626 23:49 17.07.2019
4805 Rain 32 1013 55 16093 4.1 100 23:20 17.07.2019
4806 Rain 31 1013 58 16093 1.5 40 22:56 17.07.2019
4807 Clouds 31 1013 58 16093 2.1 70 22:38 17.07.2019
4808 Clouds 32 1013 58 16093 3.1 130 22:18 17.07.2019
4809 Clouds 32 1014 59 16093 1.15 3.626 21:43 17.07.2019
4810 Clear 32 1013 52 16093 0.85 239.947 21:25 17.07.2019
4811 Clouds 32 1014 59 16093 2.1 250 20:58 17.07.2019
4812 Clouds 32 1014 62 16093 2.1 90 20:39 17.07.2019
4813 Clouds 32 1013 62 16093 3.1 80 20:20 17.07.2019
4814 Clouds 32 1014 62 16093 0.28 122.093 19:44 17.07.2019
4815 Clouds 31 1014 58 16093 1.5 0 19:22 17.07.2019
4816 Clear 31 1014 58 16093 3.1 70 18:59 17.07.2019
4817 Clear 31 1014 74 16093 0.28 122.093 18:40 17.07.2019
4818 Clouds 30 1014 58 16093 2.1 340 18:20 17.07.2019
4819 Clouds 30 1014 70 16093 1.43 84.846 17:50 17.07.2019
4820 Clouds 29 1013 66 16093 2.6 20 17:26 17.07.2019
4821 Clouds 29 1014 83 16093 1.43 84.846 16:55 17.07.2019
4822 Clouds 28 1013 66 16093 2.1 360 16:37 17.07.2019
4823 Clouds 28 1013 66 16093 2.1 360 16:18 17.07.2019
4824 Clear 27 1014 74 16093 2.6 320 15:44 17.07.2019
4825 Clouds 25 1013 74 16093 2.1 310 15:25 17.07.2019
4826 Mist 25 1013 100 8047 2.17 337.777 14:54 17.07.2019
4827 Rain 24 1012 83 16093 1.5 340 14:36 17.07.2019
4828 Mist 24 1013 100 6437 2.17 337.777 14:18 17.07.2019
4829 Mist 23 1013 100 8047 2.17 337.777 13:40 17.07.2019
4830 Mist 23 1013 100 8047 1.9 352.868 13:20 17.07.2019
4831 Mist 22 1012 100 8047 1.9 352.868 12:40 17.07.2019
4832 Mist 22 1012 100 8047 1.53 340.939 12:20 17.07.2019
4833 Fog 22 1012 94 16093 2.1 300 11:44 17.07.2019
4834 Fog 22 1012 100 805 1.53 340.939 11:21 17.07.2019
4835 Mist 22 1012 100 11265 1.53 340.939 10:50 17.07.2019
4836 Mist 23 1012 94 8047 1.53 340.939 10:29 17.07.2019
4837 Mist 23 1012 100 11265 1.53 340.939 09:58 17.07.2019
4838 Fog 23 1012 88 16093 1.5 270 09:39 17.07.2019
4839 Fog 23 1012 88 16093 1.5 270 09:20 17.07.2019
4840 Rain 23 1012 100 3219 1.89 336.821 08:41 17.07.2019
4841 Rain 23 1012 100 3219 1.89 336.821 08:21 17.07.2019
4842 Rain 23 1012 100 4828 1.89 336.821 07:47 17.07.2019
4843 Clear 23 1012 100 11265 1.89 336.821 07:23 17.07.2019
4844 Clear 23 1012 100 11265 1.89 336.821 07:23 17.07.2019
4845 Clear 24 1012 100 16093 1.89 336.821 06:46 17.07.2019
4846 Clear 24 1012 100 16093 1.89 336.821 06:46 17.07.2019
4847 Clear 24 1012 100 16093 1.89 336.821 06:28 17.07.2019
4848 Clouds 24 1012 100 16093 1.77 51.002 05:43 17.07.2019
4849 Clouds 24 1012 100 16093 1.77 51.002 05:25 17.07.2019
4850 Clouds 25 1011 78 16093 2.6 130 04:32 17.07.2019
4851 Clouds 27 1012 88 16093 2.1 110 02:52 17.07.2019
4852 Rain 27 1012 88 16093 2.1 160 01:59 17.07.2019
4853 Rain 27 1012 88 16093 0.68 116.978 01:24 17.07.2019
4854 Rain 27 1012 100 11265 0.68 116.978 00:47 17.07.2019
4855 Rain 27 1012 94 16093 1.57 221.217 00:24 17.07.2019
4856 Rain 27 1012 69 16093 3.6 110 23:57 16.07.2019
4857 Rain 27 1012 94 16093 1.57 221.217 23:29 16.07.2019
4858 Rain 27 1013 94 1609 3.6 350 22:58 16.07.2019
4859 Rain 27 1012 78 16093 3.1 200 22:40 16.07.2019
4860 Rain 27 1013 88 16093 2.1 180 22:20 16.07.2019
4861 Rain 27 1013 74 16093 1.5 60 21:45 16.07.2019
4862 Rain 26 1013 74 16093 2.33 214.462 21:21 16.07.2019
4863 Rain 26 1013 78 16093 2.1 260 20:58 16.07.2019
4864 Rain 26 1014 78 16093 2.6 210 20:38 16.07.2019
4865 Rain 26 1014 78 16093 2.6 210 20:20 16.07.2019
4866 Rain 26 1014 78 16093 2.72 223.453 19:47 16.07.2019
4867 Rain 25 1014 78 16093 3.6 220 19:27 16.07.2019
4868 Clouds 25 1014 88 16093 5.1 190 18:47 16.07.2019
4869 Clouds 25 1014 88 16093 4.6 190 18:21 16.07.2019
4870 Clouds 25 1014 78 16093 3.6 230 17:58 16.07.2019
4871 Clouds 25 1014 78 16093 3.6 230 17:58 16.07.2019
4872 Drizzle 25 1014 94 16093 2.42 224.665 17:39 16.07.2019
4873 Drizzle 24 1014 94 16093 2.42 224.665 17:20 16.07.2019
4874 Rain 24 1014 83 16093 4.1 200 16:42 16.07.2019
4875 Rain 24 1014 83 16093 4.1 200 16:20 16.07.2019
4876 Rain 23 1013 88 16093 5.1 180 15:41 16.07.2019
4877 Rain 23 1013 88 16093 5.1 180 15:21 16.07.2019
4878 Rain 22 1014 100 16093 3.26 214.515 14:58 16.07.2019
4879 Rain 22 1014 94 16093 2.1 0 14:40 16.07.2019
4880 Rain 22 1014 94 16093 2.1 0 14:22 16.07.2019
4881 Clear 22 1014 100 16093 3.26 214.515 13:45 16.07.2019
4882 Clear 22 1014 100 16093 3.25 223.117 13:24 16.07.2019
4883 Rain 22 1014 100 16093 3.25 223.117 12:55 16.07.2019
4884 Rain 22 1014 94 16093 3.1 190 12:37 16.07.2019
4885 Rain 22 1014 94 16093 3.1 170 12:19 16.07.2019
4886 Rain 22 1015 100 16093 4.63 194.138 11:43 16.07.2019
4887 Rain 22 1015 100 16093 4.63 194.138 11:23 16.07.2019
4888 Rain 22 1015 78 16093 3.1 200 10:55 16.07.2019
4889 Rain 22 1015 94 12874 2.6 170 10:37 16.07.2019
4890 Rain 22 1015 100 8047 1.5 190 10:18 16.07.2019
4891 Rain 22 1016 100 8047 1.5 190 09:42 16.07.2019
4892 Rain 23 1015 73 16093 4.1 210 09:19 16.07.2019
4893 Drizzle 23 1016 73 16093 2.6 200 08:43 16.07.2019
4894 Drizzle 23 1016 64 16093 2.1 180 08:22 16.07.2019
4895 Clouds 23 1017 88 16093 3.51 205.055 07:48 16.07.2019
4896 Clouds 24 1016 57 16093 3.1 210 07:30 16.07.2019
4897 Clouds 24 1017 78 16093 3.51 205.055 06:49 16.07.2019
4898 Clouds 24 1016 57 16093 3.1 200 06:31 16.07.2019
4899 Clouds 25 1016 57 16093 4.1 210 05:39 16.07.2019
4900 Clouds 25 1016 54 16093 6.2 200 05:21 16.07.2019
4901 Clouds 26 1016 54 16093 6.2 210 04:23 16.07.2019
4902 Clouds 27 1016 48 16093 7.7 220 03:21 16.07.2019
4903 Clouds 29 1015 48 16093 8.7 220 02:31 16.07.2019
4904 Clouds 30 1016 51 16093 6.2 220 01:49 16.07.2019
4905 Clouds 31 1016 48 16093 6.7 240 00:49 16.07.2019
4906 Clouds 32 1016 55 16093 9.3 220 00:22 16.07.2019
4907 Clouds 32 1016 46 16093 8.2 210 23:53 15.07.2019
4908 Clouds 32 1016 41 16093 8.2 220 23:34 15.07.2019
4909 Clouds 32 1017 49 16093 6.2 210 22:55 15.07.2019
4910 Clouds 33 1016 43 16093 9.8 240 22:36 15.07.2019
4911 Clouds 33 1016 43 16093 9.8 240 22:18 15.07.2019
4912 Clouds 33 1016 43 16093 9.8 240 22:18 15.07.2019
4913 Clouds 32 1017 41 16093 8.2 250 21:42 15.07.2019
4914 Haze 32 1018 52 16093 6.7 250 21:20 15.07.2019
4915 Haze 32 1018 52 16093 6.7 250 20:57 15.07.2019
4916 Haze 32 1018 52 16093 6.7 250 20:57 15.07.2019
4917 Clouds 32 1017 46 16093 7.7 270 20:38 15.07.2019
4918 Clouds 32 1017 46 16093 7.7 270 20:20 15.07.2019
4919 Clear 31 1019 55 16093 6.2 230 19:43 15.07.2019
4920 Clear 31 1019 55 16093 6.2 230 19:21 15.07.2019
4921 Clear 30 1019 55 16093 2.1 240 18:55 15.07.2019
4922 Clouds 30 1018 54 16093 5.7 250 18:37 15.07.2019
4923 Clear 29 1019 55 16093 4.6 270 18:18 15.07.2019
4924 Clear 29 1019 58 16093 4.6 260 18:18 15.07.2019
4925 Clear 29 1019 55 16093 4.6 270 18:18 15.07.2019
4926 Clouds 29 1019 54 16093 6.2 260 17:44 15.07.2019
4927 Clouds 28 1019 54 16093 6.2 260 17:26 15.07.2019
4928 Clear 28 1019 61 16093 4.1 270 16:59 15.07.2019
4929 Clouds 27 1019 61 16093 6.2 250 16:38 15.07.2019
4930 Clouds 27 1019 61 16093 6.2 250 16:20 15.07.2019
4931 Clear 26 1019 65 16093 4.1 270 15:55 15.07.2019
4932 Clouds 25 1019 65 16093 5.7 260 15:37 15.07.2019
4933 Clouds 25 1019 65 16093 5.7 260 15:19 15.07.2019
4934 Rain 24 1019 83 16093 4.11 248.395 14:43 15.07.2019
4935 Rain 24 1019 83 16093 4.11 248.395 14:23 15.07.2019
4936 Clear 23 1019 94 16093 4.11 248.395 13:51 15.07.2019
4937 Clear 23 1019 94 16093 3.8 249.082 13:22 15.07.2019
4938 Clear 22 1019 94 16093 2.1 240 12:58 15.07.2019
4939 Clear 22 1018 100 16093 3.8 249.082 12:40 15.07.2019
4940 Clear 22 1018 100 16093 3.75 227.998 12:20 15.07.2019
4941 Clouds 22 1018 83 16093 3.6 230 11:41 15.07.2019
4942 Clouds 22 1018 83 16093 3.6 230 11:22 15.07.2019
4943 Clear 22 1018 88 16093 3.75 227.998 10:45 15.07.2019
4944 Clear 22 1018 94 16093 3.75 227.998 10:26 15.07.2019
4945 Clear 22 1018 88 16093 3.75 227.998 09:48 15.07.2019
4946 Clear 22 1018 94 16093 2.65 215.59 09:26 15.07.2019
4947 Clear 22 1019 88 16093 3.17 223.438 08:58 15.07.2019
4948 Clear 22 1019 88 16093 3.17 223.438 08:40 15.07.2019
4949 Clear 22 1019 88 16093 3.17 223.438 08:22 15.07.2019
4950 Clear 22 1019 88 16093 3.17 223.438 07:37 15.07.2019
4951 Clear 23 1019 94 16093 2.1 180 06:55 15.07.2019
4952 Clear 23 1019 94 16093 3.17 223.438 06:33 15.07.2019
4953 Clouds 23 1019 88 16093 1.81 153.222 05:44 15.07.2019
4954 Clouds 24 1019 88 16093 1.81 153.222 05:19 15.07.2019
4955 Clear 24 1019 83 16093 1.81 153.222 04:41 15.07.2019
4956 Rain 24 1019 83 16093 1.81 153.222 03:35 15.07.2019
4957 Rain 26 1019 78 16093 3.61 109.73 02:32 15.07.2019
4958 Thunderstorm 26 1019 48 16093 3.6 150 01:41 15.07.2019
4959 Rain 27 1019 69 16093 3.91 101.454 01:20 15.07.2019
4960 Clouds 28 1019 74 16093 3.91 101.454 00:46 15.07.2019
4961 Thunderstorm 29 1019 78 16093 1.5 190 00:19 15.07.2019
4962 Thunderstorm 30 1019 54 16093 4.1 30 23:42 14.07.2019
4963 Thunderstorm 31 1019 54 16093 5.1 90 23:21 14.07.2019
4964 Thunderstorm 31 1019 55 16093 5.7 60 22:59 14.07.2019
4965 Thunderstorm 31 1019 55 16093 5.7 30 22:40 14.07.2019
4966 Thunderstorm 31 1019 55 16093 5.7 30 22:21 14.07.2019
4967 Thunderstorm 32 1019 58 16093 3.1 40 21:57 14.07.2019
4968 Thunderstorm 32 1019 58 16093 3.1 40 21:57 14.07.2019
4969 Clouds 32 1019 58 16093 3.22 86.456 21:39 14.07.2019
4970 Clouds 32 1019 58 16093 3.37 85.324 21:18 14.07.2019
4971 Clouds 32 1020 62 16093 3.37 85.324 20:39 14.07.2019
4972 Clouds 31 1020 62 16093 3.37 85.324 20:21 14.07.2019
4973 Clear 31 1020 62 16093 3.37 85.324 19:59 14.07.2019
4974 Clear 31 1020 62 16093 3.37 85.324 19:39 14.07.2019
4975 Clear 31 1020 62 16093 3.37 85.324 19:21 14.07.2019
4976 Clear 30 1020 66 16093 3.37 85.324 18:43 14.07.2019
4977 Clear 29 1020 66 16093 2.97 87.144 18:25 14.07.2019
4978 Clear 29 1021 69 16093 3.1 70 17:58 14.07.2019
4979 Clouds 29 1020 58 16093 3.6 110 17:39 14.07.2019
4980 Clouds 28 1020 58 16093 3.6 110 17:18 14.07.2019
4981 Clear 27 1020 74 16093 2.6 60 16:44 14.07.2019
4982 Clear 26 1020 78 16093 2.97 87.144 16:21 14.07.2019
4983 Clear 25 1020 78 16093 2.97 87.144 15:43 14.07.2019
4984 Clear 24 1020 78 16093 2.07 85.103 15:24 14.07.2019
4985 Clear 23 1021 78 16093 3.1 70 14:47 14.07.2019
4986 Clear 22 1020 88 16093 2.07 85.103 14:20 14.07.2019
4987 Clear 21 1020 88 16093 1.5 80 13:47 14.07.2019
4988 Clear 21 1020 100 16093 1.5 70 13:25 14.07.2019
4989 Clouds 21 1020 94 16093 1.95 52.654 12:58 14.07.2019
4990 Clouds 20 1019 77 16093 3.1 50 12:40 14.07.2019
4991 Clouds 21 1019 77 16093 3.1 50 12:19 14.07.2019
4992 Clouds 21 1019 77 16093 3.1 50 11:50 14.07.2019
4993 Clouds 21 1019 69 16093 3.1 60 11:20 14.07.2019
4994 Clouds 21 1019 88 16093 1.94 68.814 10:46 14.07.2019
4995 Clouds 21 1019 88 16093 1.94 68.814 10:21 14.07.2019
4996 Clear 22 1019 88 16093 1.5 20 09:48 14.07.2019
4997 Clouds 22 1018 64 16093 2.6 60 09:30 14.07.2019
4998 Clear 22 1019 94 16093 3.4 81.465 08:48 14.07.2019
4999 Rain 22 1019 64 16093 4.1 90 08:30 14.07.2019
5000 Rain 23 1019 78 16093 2.1 60 07:43 14.07.2019
5001 Clouds 23 1019 94 16093 3.4 81.465 07:21 14.07.2019
5002 Clear 23 1018 88 16093 2.6 40 05:46 14.07.2019
5003 Rain 24 1016 88 805 3.1 130 03:58 14.07.2019
5004 Rain 25 1016 78 14484 2.6 20 03:39 14.07.2019
5005 Rain 26 1016 78 14484 2.6 20 03:21 14.07.2019
5006 Thunderstorm 30 1015 58 16093 2.87 56.797 02:23 14.07.2019
5007 Thunderstorm 31 1015 58 16093 2.87 56.797 01:54 14.07.2019
5008 Clear 32 1015 58 16093 3.1 50 01:30 14.07.2019
5009 Clouds 33 1015 55 16093 3.6 60 00:41 14.07.2019
5010 Clouds 33 1015 55 16093 3.6 60 00:20 14.07.2019
5011 Clouds 34 1015 49 16093 3.77 275.084 23:58 13.07.2019
5012 Clear 33 1015 49 16093 3.1 300 23:40 13.07.2019
5013 Clear 34 1015 49 16093 3.1 300 23:20 13.07.2019
5014 Clear 34 1016 49 16093 2.1 260 22:42 13.07.2019
5015 Clear 34 1016 49 16093 2.1 260 22:22 13.07.2019
5016 Clouds 33 1016 49 16093 6.2 250 21:48 13.07.2019
5017 Clouds 33 1016 49 16093 5.1 260 21:21 13.07.2019
5018 Clouds 33 1017 49 16093 5.1 290 20:52 13.07.2019
5019 Clouds 32 1017 49 16093 5.7 280 20:33 13.07.2019
5020 Clear 32 1017 52 16093 5.7 270 19:51 13.07.2019
5021 Clouds 32 1017 55 16093 5.7 260 19:30 13.07.2019
5022 Clear 31 1016 52 16093 6.2 280 18:48 13.07.2019
5023 Clear 31 1016 55 16093 5.7 240 18:28 13.07.2019
5024 Clouds 30 1017 58 16093 5.1 270 17:58 13.07.2019
5025 Clouds 29 1016 54 16093 5.1 260 17:37 13.07.2019
5026 Clouds 29 1016 54 16093 5.1 260 17:19 13.07.2019
5027 Clear 28 1016 58 16093 4.1 240 16:43 13.07.2019
5028 Clear 27 1016 58 16093 4.1 240 16:24 13.07.2019
5029 Clear 26 1016 61 16093 4.6 250 15:46 13.07.2019
5030 Clear 25 1016 61 16093 4.6 250 15:24 13.07.2019
5031 Clear 24 1016 73 16093 2.6 250 14:47 13.07.2019
5032 Clear 23 1016 73 16093 2.1 240 14:28 13.07.2019
5033 Clear 22 1016 83 16093 2.86 244.179 13:58 13.07.2019
5034 Clear 22 1016 88 16093 2.1 230 13:40 13.07.2019
5035 Clear 21 1016 88 16093 2.1 230 13:19 13.07.2019
5036 Clouds 21 1015 73 16093 4.1 230 12:40 13.07.2019
5037 Clouds 21 1015 73 16093 4.1 230 12:22 13.07.2019
5038 Clear 21 1014 69 16093 1.5 200 11:57 13.07.2019
5039 Clouds 21 1014 73 16093 3.6 230 11:20 13.07.2019
5040 Clear 21 1014 93 16093 3.61 245.373 10:55 13.07.2019
5041 Clouds 21 1014 73 16093 3.1 230 10:37 13.07.2019
5042 Clouds 21 1014 73 16093 3.1 230 10:18 13.07.2019
5043 Clear 21 1015 82 16093 3.61 245.373 09:41 13.07.2019
5044 Clear 21 1015 82 16093 2.54 256.133 09:21 13.07.2019
5045 Clouds 21 1014 64 16093 2.6 240 08:45 13.07.2019
5046 Clouds 22 1014 64 16093 2.6 240 08:26 13.07.2019
5047 Clear 23 1015 82 16093 2.76 238.68 07:30 13.07.2019
5048 Clear 23 1014 54 16093 1.5 240 06:54 13.07.2019
5049 Clear 24 1015 77 16093 2.76 238.68 06:27 13.07.2019
5050 Clouds 25 1014 51 16093 3.6 230 05:37 13.07.2019
5051 Clear 25 1014 69 16093 3.91 258.498 04:25 13.07.2019
5052 Clear 27 1014 60 16093 3.91 258.498 03:59 13.07.2019
5053 Rain 27 1014 54 16093 3.91 258.498 03:39 13.07.2019
5054 Rain 29 1014 48 16093 3.6 240 02:20 13.07.2019
5055 Clear 30 1014 45 16093 2.6 240 01:43 13.07.2019
5056 Clear 30 1014 45 16093 2.6 240 01:20 13.07.2019
5057 Clear 30 1013 31 16093 2.6 240 00:57 13.07.2019
5058 Clear 30 1015 48 16093 3.1 200 00:20 13.07.2019
5059 Clear 30 1015 45 16093 2.6 240 23:49 12.07.2019
5060 Clear 30 1015 45 16093 2.6 240 23:49 12.07.2019
5061 Clear 30 1015 42 16093 3.1 230 23:29 12.07.2019
5062 Clear 30 1015 45 16093 3.31 265.691 22:46 12.07.2019
5063 Clear 29 1015 45 16093 3.31 265.691 22:25 12.07.2019
5064 Clear 29 1015 45 16093 3.31 265.691 22:25 12.07.2019
5065 Clear 29 1015 45 16093 2.6 230 21:57 12.07.2019
5066 Clear 29 1016 42 16093 3.31 265.691 21:39 12.07.2019
5067 Clear 29 1016 42 16093 3.37 267.48 21:19 12.07.2019
5068 Clear 29 1016 42 16093 3.37 267.48 21:19 12.07.2019
5069 Clear 28 1016 44 16093 2.1 250 20:42 12.07.2019
5070 Clear 28 1016 44 16093 2.1 250 20:21 12.07.2019
5071 Clear 27 1016 47 16093 1.5 250 19:42 12.07.2019
5072 Clear 27 1016 47 16093 1.5 250 19:24 12.07.2019
5073 Clear 26 1016 47 16093 3.37 267.48 18:46 12.07.2019
5074 Clear 25 1016 47 16093 2.1 290 18:22 12.07.2019
5075 Clear 25 1017 60 24140 2.1 0 17:55 12.07.2019
5076 Clear 24 1016 50 16093 2.1 300 17:30 12.07.2019
5077 Clear 23 1016 49 16093 0.94 241.642 16:59 12.07.2019
5078 Clear 22 1016 60 16093 0.94 241.642 16:27 12.07.2019
5079 Clear 22 1016 73 16093 0.94 241.642 15:57 12.07.2019
5080 Rain 21 1017 68 16093 0.94 241.642 15:37 12.07.2019
5081 Rain 20 1017 68 16093 0.26 308.729 15:18 12.07.2019
5082 Rain 18 1016 88 16093 1.5 250 14:44 12.07.2019
5083 Rain 17 1016 88 16093 1.5 250 14:21 12.07.2019
5084 Mist 16 1016 100 16093 0.26 308.729 13:46 12.07.2019
5085 Mist 15 1016 100 16093 0.16 27.676 13:23 12.07.2019
5086 Clear 15 1015 100 16093 0.16 27.676 12:42 12.07.2019
5087 Clear 15 1015 100 16093 0.79 50.316 12:23 12.07.2019
5088 Mist 15 1015 100 16093 0.79 50.316 11:47 12.07.2019
5089 Clear 15 1015 82 16093 2.6 360 11:24 12.07.2019
5090 Clear 15 1015 100 16093 0.79 50.316 10:58 12.07.2019
5091 Clear 15 1015 100 16093 0.79 50.316 10:58 12.07.2019
5092 Clear 16 1015 93 16093 0.79 50.316 10:40 12.07.2019
5093 Clear 16 1015 93 16093 0.79 50.316 10:22 12.07.2019
5094 Clear 16 1015 93 16093 0.79 50.316 09:51 12.07.2019
5095 Clear 16 1015 93 16093 2.03 74.641 09:25 12.07.2019
5096 Clear 17 1015 88 16093 3.1 350 08:47 12.07.2019
5097 Clear 17 1015 77 16093 3.1 10 08:23 12.07.2019
5098 Clear 17 1015 88 16093 2.6 350 07:47 12.07.2019
5099 Clear 18 1015 88 16093 1.96 55.678 07:29 12.07.2019
5100 Clouds 18 1015 64 16093 2.1 60 06:30 12.07.2019
5101 Clear 19 1015 88 16093 2.1 350 05:51 12.07.2019
5102 Clouds 20 1015 73 16093 3.1 0 04:25 12.07.2019
5103 Rain 24 1014 69 16093 4.6 10 01:52 12.07.2019
5104 Rain 25 1014 64 16093 6.2 30 01:34 12.07.2019
5105 Rain 26 1014 57 16093 2.6 40 00:36 12.07.2019
5106 Rain 26 1014 57 16093 2.6 40 00:18 12.07.2019
5107 Clouds 27 1014 54 16093 5.1 50 23:41 11.07.2019
5108 Clouds 27 1014 54 16093 5.1 50 23:21 11.07.2019
5109 Clouds 27 1014 57 16093 5.7 60 22:45 11.07.2019
5110 Clouds 27 1014 57 16093 5.7 60 22:24 11.07.2019
5111 Clear 27 1014 61 16093 5.7 40 21:44 11.07.2019
5112 Clouds 27 1014 58 16093 2.1 80 21:20 11.07.2019
5113 Clear 27 1014 65 16093 3.6 20 20:59 11.07.2019
5114 Clear 27 1014 69 16093 4.6 20 20:41 11.07.2019
5115 Clear 27 1014 69 16093 4.6 20 20:22 11.07.2019
5116 Clouds 27 1014 69 16093 4.6 30 19:55 11.07.2019
5117 Clouds 27 1014 69 16093 5.7 50 19:37 11.07.2019
5118 Clouds 27 1014 69 16093 5.7 50 19:19 11.07.2019
5119 Clouds 26 1014 61 16093 2.6 10 18:40 11.07.2019
5120 Clouds 26 1014 61 16093 2.6 10 18:21 11.07.2019
5121 Clouds 26 1014 65 16093 2.6 320 17:47 11.07.2019
5122 Clouds 26 1014 61 16093 3.04 22.159 17:28 11.07.2019
5123 Clear 25 1014 61 16093 3.04 22.159 16:52 11.07.2019
5124 Clouds 25 1013 57 16093 2.6 360 16:24 11.07.2019
5125 Clouds 24 1014 65 16093 3.04 22.159 15:57 11.07.2019
5126 Clouds 24 1013 61 16093 3.1 10 15:38 11.07.2019
5127 Clouds 23 1013 61 16093 3.1 10 15:19 11.07.2019
5128 Rain 23 1013 73 16093 3.1 330 14:43 11.07.2019
5129 Rain 22 1013 73 16093 3.1 330 14:23 11.07.2019
5130 Clouds 21 1013 83 16093 2.24 359.489 13:47 11.07.2019
5131 Clouds 20 1013 88 16093 2.8 353.106 13:29 11.07.2019
5132 Clear 20 1013 82 16093 2.8 353.106 12:47 11.07.2019
5133 Clear 20 1013 82 16093 2.8 353.106 12:28 11.07.2019
5134 Clear 20 1013 68 16093 2.1 300 11:59 11.07.2019
5135 Clear 21 1012 68 16093 1.5 290 11:41 11.07.2019
5136 Clear 21 1012 69 16093 1.5 280 11:22 11.07.2019
5137 Clear 21 1012 94 16093 3.52 326.558 10:46 11.07.2019
5138 Clear 21 1012 73 16093 3.52 326.558 10:19 11.07.2019
5139 Clouds 22 1013 83 16093 3.52 326.558 09:48 11.07.2019
5140 Clouds 22 1013 64 16093 3.52 326.558 09:29 11.07.2019
5141 Clouds 23 1013 64 16093 3.1 280 08:53 11.07.2019
5142 Clear 23 1012 60 16093 2.6 290 08:27 11.07.2019
5143 Clouds 24 1012 57 16093 2.1 290 07:55 11.07.2019
5144 Clear 24 1012 54 16093 3.6 290 07:36 11.07.2019
5145 Clouds 25 1012 51 16093 3.6 300 06:41 11.07.2019
5146 Clouds 26 1012 51 16093 2.1 290 05:53 11.07.2019
5147 Clouds 26 1012 42 16093 6.2 300 05:30 11.07.2019
5148 Clear 28 1012 58 16093 3.1 280 04:55 11.07.2019
5149 Rain 31 1011 41 16093 4.6 270 02:41 11.07.2019
5150 Rain 33 1012 49 16093 4.1 260 01:38 11.07.2019
5151 Rain 34 1011 49 16093 4.6 220 00:30 11.07.2019
5152 Clouds 34 1012 46 16093 3.6 250 23:38 10.07.2019
5153 Clouds 34 1012 46 16093 3.6 250 23:20 10.07.2019
5154 Clear 35 1012 49 16093 4.1 280 22:48 10.07.2019
5155 Clouds 35 1012 44 16093 4.6 260 22:22 10.07.2019
5156 Clouds 34 1013 49 16093 3.6 280 21:48 10.07.2019
5157 Clouds 34 1012 46 16093 6.7 250 21:28 10.07.2019
5158 Clouds 34 1013 55 16093 3.6 250 20:58 10.07.2019
5159 Clouds 34 1013 55 16093 3.6 250 20:39 10.07.2019
5160 Clouds 34 1013 55 16093 3.6 250 20:19 10.07.2019
5161 Clear 33 1013 55 16093 3.6 290 19:53 10.07.2019
5162 Clouds 33 1014 59 16093 4.6 270 19:22 10.07.2019
5163 Clouds 32 1013 46 16093 5.1 240 18:58 10.07.2019
5164 Clouds 32 1014 62 16093 4.6 260 18:39 10.07.2019
5165 Clouds 32 1014 62 16093 4.6 260 18:21 10.07.2019
5166 Clouds 31 1014 70 16093 3.6 260 17:41 10.07.2019
5167 Clouds 30 1014 70 16093 3.6 260 17:21 10.07.2019
5168 Rain 29 1014 78 16093 4.6 240 16:38 10.07.2019
5169 Rain 28 1014 78 16093 4.6 240 16:18 10.07.2019
5170 Clear 27 1014 88 16093 3.6 210 15:45 10.07.2019
5171 Clear 26 1014 88 16093 3.6 210 15:21 10.07.2019
5172 Clouds 25 1013 78 16093 3.6 220 14:41 10.07.2019
5173 Clouds 25 1013 78 16093 3.6 220 14:23 10.07.2019
5174 Thunderstorm 24 1014 94 11265 3.48 242.248 13:52 10.07.2019
5175 Mist 23 1014 94 16093 3.24 236.835 13:19 10.07.2019
5176 Mist 23 1014 94 16093 3.24 236.835 13:19 10.07.2019
5177 Mist 23 1014 94 16093 3.24 236.835 12:58 10.07.2019
5178 Mist 23 1014 94 16093 3.24 236.835 12:58 10.07.2019
5179 Rain 23 1013 78 16093 3.1 200 12:58 10.07.2019
5180 Rain 23 1013 88 16093 3.1 230 12:38 10.07.2019
5181 Rain 23 1013 88 16093 3.1 230 12:38 10.07.2019
5182 Rain 24 1013 83 16093 2.6 210 12:19 10.07.2019
5183 Clouds 24 1014 83 16093 4.1 220 11:46 10.07.2019
5184 Clouds 24 1013 78 16093 5.1 210 11:21 10.07.2019
5185 Rain 24 1014 69 16093 4.01 211.89 10:45 10.07.2019
5186 Rain 25 1014 65 16093 2.1 160 10:21 10.07.2019
5187 Rain 25 1014 69 16093 1.5 150 09:44 10.07.2019
5188 Rain 25 1014 61 16093 4.1 180 09:21 10.07.2019
5189 Rain 25 1014 65 16093 2.1 150 08:52 10.07.2019
5190 Rain 25 1014 65 16093 2.1 150 08:52 10.07.2019
5191 Rain 25 1014 65 16093 2.1 150 08:52 10.07.2019
5192 Clouds 25 1014 57 16093 4.1 190 08:29 10.07.2019
5193 Clouds 25 1015 65 16093 1.5 160 07:55 10.07.2019
5194 Clouds 25 1015 73 16093 4.24 198.059 07:32 10.07.2019
5195 Clouds 25 1015 73 16093 4.24 198.059 07:32 10.07.2019
5196 Clouds 25 1014 57 16093 3.1 170 06:57 10.07.2019
5197 Clear 26 1015 61 16093 2.1 140 05:59 10.07.2019
5198 Clear 26 1015 61 16093 4.12 190.483 04:51 10.07.2019
5199 Clouds 26 1014 54 14484 3.6 120 04:26 10.07.2019
5200 Rain 30 1015 45 11265 3.54 202.09 00:47 10.07.2019
5201 Rain 30 1015 42 11265 1.5 150 00:28 10.07.2019
5202 Haze 31 1015 33 14484 3.1 190 23:41 09.07.2019
5203 Haze 31 1015 33 14484 3.1 190 23:21 09.07.2019
5204 Rain 31 1015 35 14484 5.1 130 22:42 09.07.2019
5205 Rain 31 1015 35 14484 5.1 130 22:22 09.07.2019
5206 Haze 31 1016 40 11265 3.6 170 21:56 09.07.2019
5207 Rain 31 1016 42 8047 2.6 100 21:38 09.07.2019
5208 Rain 31 1016 42 8047 2.6 100 21:19 09.07.2019
5209 Haze 30 1016 42 8047 3.1 120 20:43 09.07.2019
5210 Haze 30 1016 42 8047 3.1 120 20:24 09.07.2019
5211 Clear 30 1017 42 11265 3.1 140 19:41 09.07.2019
5212 Clouds 29 1016 48 16093 3.1 150 19:21 09.07.2019
5213 Clouds 29 1017 39 16093 2.1 120 18:46 09.07.2019
5214 Clear 28 1017 45 16093 2.1 170 18:23 09.07.2019
5215 Clouds 28 1017 48 16093 3.1 120 17:56 09.07.2019
5216 Clouds 28 1017 51 16093 2.6 140 17:37 09.07.2019
5217 Clouds 28 1017 51 16093 2.6 140 17:37 09.07.2019
5218 Clouds 27 1017 51 16093 2.6 140 17:18 09.07.2019
5219 Clear 25 1018 64 16093 1.76 165.98 16:47 09.07.2019
5220 Clear 25 1018 64 16093 1.76 165.98 16:24 09.07.2019
5221 Clear 24 1019 64 16093 2.6 140 15:49 09.07.2019
5222 Clear 23 1019 64 16093 1.76 165.98 15:31 09.07.2019
5223 Clear 21 1018 72 16093 1.1 175.513 14:55 09.07.2019
5224 Rain 20 1018 77 16093 1.1 175.513 14:37 09.07.2019
5225 Rain 19 1018 77 16093 1.1 175.513 14:18 09.07.2019
5226 Rain 19 1018 77 16093 1.1 175.513 14:18 09.07.2019
5227 Clear 18 1018 93 16093 1.1 175.513 13:43 09.07.2019
5228 Clear 17 1018 93 16093 1.17 156.55 13:22 09.07.2019
5229 Clear 17 1018 88 16093 1.17 156.55 12:40 09.07.2019
5230 Clear 17 1018 88 16093 1.17 156.55 12:40 09.07.2019
5231 Clear 16 1018 88 16093 1.61 125.123 12:22 09.07.2019
5232 Clear 17 1018 77 16093 1.61 125.123 11:57 09.07.2019
5233 Mist 17 1017 82 16093 1.5 360 11:38 09.07.2019
5234 Mist 17 1017 82 16093 1.5 360 11:20 09.07.2019
5235 Clear 17 1018 100 11265 1.61 125.123 10:49 09.07.2019
5236 Mist 17 1017 93 16093 1.61 125.123 10:30 09.07.2019
5237 Mist 17 1017 77 16093 2.1 30 09:41 09.07.2019
5238 Mist 17 1017 77 16093 2.1 30 09:21 09.07.2019
5239 Clear 17 1017 100 11265 2.38 114.789 08:45 09.07.2019
5240 Clear 17 1017 72 16093 2.38 114.789 08:23 09.07.2019
5241 Clear 27 1015 83 16093 3.1 220 03:57 05.07.2019
5242 Rain 27 1015 74 16093 4.1 220 03:37 05.07.2019
5243 Rain 27 1014 70 16093 3.06 247.109 03:18 05.07.2019
5244 Rain 28 1013 66 16093 3.6 220 02:37 05.07.2019
5245 Rain 29 1014 74 16093 2.1 190 01:38 05.07.2019
5246 Rain 29 1014 74 16093 2.1 190 01:18 05.07.2019
5247 Rain 30 1014 62 16093 2.6 180 00:40 05.07.2019
5248 Clouds 32 1014 62 16093 3.1 190 23:51 04.07.2019
5249 Rain 32 1014 59 16093 4.1 210 23:21 04.07.2019
5250 Clouds 32 1014 52 24140 2.6 160 22:44 04.07.2019
5251 Clouds 32 1014 59 16093 3.6 210 22:24 04.07.2019
5252 Clear 32 1014 58 16093 3.6 210 21:57 04.07.2019
5253 Clouds 32 1015 62 16093 4.6 190 21:39 04.07.2019
5254 Clouds 31 1015 62 16093 4.6 190 21:20 04.07.2019
5255 Clear 31 1015 55 16093 4.6 180 20:40 04.07.2019
5256 Clear 31 1015 55 16093 4.6 180 20:22 04.07.2019
5257 Clear 30 1016 62 16093 3.6 200 19:56 04.07.2019
5258 Clouds 30 1016 62 16093 2.6 180 19:38 04.07.2019
5259 Clouds 30 1016 62 16093 2.6 180 19:19 04.07.2019
5260 Rain 29 1016 70 16093 3.6 210 18:42 04.07.2019
5261 Rain 29 1016 70 16093 3.6 210 18:24 04.07.2019
5262 Rain 28 1016 74 16093 2.6 250 17:46 04.07.2019
5263 Rain 27 1016 69 16093 3.6 200 17:19 04.07.2019
5264 Rain 25 1016 88 16093 2.1 180 15:59 04.07.2019
5265 Rain 25 1016 83 16093 3.6 230 15:40 04.07.2019
5266 Rain 24 1016 83 16093 3.6 230 15:22 04.07.2019
5267 Rain 23 1015 94 16093 3.1 210 14:55 04.07.2019
5268 Rain 23 1015 88 14484 2.1 230 14:37 04.07.2019
5269 Rain 23 1015 88 14484 2.1 230 14:18 04.07.2019
5270 Mist 22 1015 100 11265 2.6 220 13:42 04.07.2019
5271 Mist 21 1015 100 11265 2.6 220 13:23 04.07.2019
5272 Mist 21 1015 100 3219 1.5 180 12:57 04.07.2019
5273 Mist 21 1014 100 6437 1.64 152.297 12:37 04.07.2019
5274 Mist 21 1014 100 6437 1.64 152.297 12:37 04.07.2019
5275 Mist 21 1014 100 6437 1.65 124.269 12:19 04.07.2019
5276 Mist 21 1014 100 8047 1.65 124.269 11:39 04.07.2019
5277 Mist 21 1014 100 8047 1.65 124.269 11:19 04.07.2019
5278 Mist 21 1013 94 12874 3.1 70 10:40 04.07.2019
5279 Mist 21 1013 94 12874 3.1 70 10:21 04.07.2019
5280 Mist 21 1014 100 2012 1.65 124.269 09:45 04.07.2019
5281 Mist 21 1013 100 8047 2.57 109.634 09:26 04.07.2019
5282 Mist 22 1014 100 4023 2.49 98.566 08:56 04.07.2019
5283 Mist 22 1014 100 4023 2.49 98.566 08:56 04.07.2019
5284 Fog 22 1014 100 11265 2.49 98.566 08:25 04.07.2019
5285 Mist 22 1014 100 1609 2.1 50 07:46 04.07.2019
5286 Clouds 22 1014 88 16093 1.5 100 07:23 04.07.2019
5287 Clear 22 1014 100 11265 2.49 98.566 06:55 04.07.2019
5288 Clear 23 1014 100 16093 2.91 80.21 05:52 04.07.2019
5289 Clouds 23 1014 88 16093 2.6 100 05:33 04.07.2019
5290 Rain 26 1013 74 16093 3.1 30 02:43 04.07.2019
5291 Rain 28 1012 69 16093 3.6 40 01:42 04.07.2019
5292 Rain 28 1012 69 16093 3.6 40 01:22 04.07.2019
5293 Rain 30 1012 55 16093 1.5 110 23:59 03.07.2019
5294 Clouds 30 1012 66 16093 5.1 70 23:41 03.07.2019
5295 Clear 30 1012 58 16093 3.61 73.691 23:20 03.07.2019
5296 Clear 30 1012 58 16093 1.5 150 22:55 03.07.2019
5297 Rain 30 1012 70 16093 3.6 70 22:36 03.07.2019
5298 Rain 30 1013 62 16093 3.85 84.861 22:18 03.07.2019
5299 Rain 30 1013 62 16093 3.85 84.861 21:45 03.07.2019
5300 Rain 30 1013 66 16093 3.1 70 21:26 03.07.2019
5301 Clouds 29 1014 66 16093 1.5 40 20:46 03.07.2019
5302 Clouds 29 1013 66 16093 2.6 90 20:24 03.07.2019
5303 Clouds 29 1015 69 16093 3.1 180 19:51 03.07.2019
5304 Rain 29 1015 74 16093 2.1 130 19:32 03.07.2019
5305 Rain 28 1015 78 16093 2.63 80.588 18:50 03.07.2019
5306 Rain 28 1015 78 16093 2.63 80.588 18:30 03.07.2019
5307 Rain 27 1014 62 16093 3.1 70 17:58 03.07.2019
5308 Rain 26 1015 78 16093 1.58 68.549 17:39 03.07.2019
5309 Rain 26 1015 78 16093 1.58 68.549 17:18 03.07.2019
5310 Rain 25 1014 74 16093 1.5 300 16:44 03.07.2019
5311 Rain 25 1013 78 16093 3.1 320 16:22 03.07.2019
5312 Rain 24 1014 94 16093 1.58 68.549 15:50 03.07.2019
5313 Rain 23 1013 83 16093 2.6 320 15:31 03.07.2019
5314 Rain 22 1013 100 16093 2.1 250 14:58 03.07.2019
5315 Rain 22 1013 100 16093 2.1 290 14:39 03.07.2019
5316 Rain 22 1013 100 16093 2.1 290 14:19 03.07.2019
5317 Rain 22 1013 94 12874 2.6 30 13:42 03.07.2019
5318 Rain 21 1013 94 12874 2.6 30 13:23 03.07.2019
5319 Rain 21 1013 100 8047 2.1 270 12:45 03.07.2019
5320 Rain 21 1012 100 16093 2.6 190 12:18 03.07.2019
5321 Rain 21 1012 100 11265 1.5 140 11:43 03.07.2019
5322 Rain 22 1011 94 16093 1.43 333.686 11:22 03.07.2019
5323 Rain 22 1012 94 16093 3.1 200 10:43 03.07.2019
5324 Rain 22 1012 94 16093 3.1 200 10:24 03.07.2019
5325 Rain 22 1013 100 16093 2.1 230 09:56 03.07.2019
5326 Rain 22 1012 88 16093 6.2 260 09:38 03.07.2019
5327 Rain 22 1013 100 16093 2.1 230 09:19 03.07.2019
5328 Rain 22 1013 100 16093 2.6 230 08:46 03.07.2019
5329 Rain 22 1013 88 16093 3.1 280 08:25 03.07.2019
5330 Rain 22 1012 100 16093 1.82 292.557 07:39 03.07.2019
5331 Rain 22 1012 100 16093 1.82 292.557 07:18 03.07.2019
5332 Rain 22 1012 94 16093 3.6 200 06:19 03.07.2019
5333 Rain 22 1013 100 16093 1.5 270 05:29 03.07.2019
5334 Rain 23 1012 83 16093 3.6 190 04:27 03.07.2019
5335 Rain 24 1012 94 1207 7.7 320 03:22 03.07.2019
5336 Rain 29 1009 55 16093 2.6 220 01:42 03.07.2019
5337 Rain 32 1009 56 16093 2.1 260 01:21 03.07.2019
5338 Clear 33 1011 55 16093 3.6 220 00:42 03.07.2019
5339 Rain 33 1010 49 16093 7.7 240 23:58 02.07.2019
5340 Rain 32 1010 55 16093 2.6 230 23:37 02.07.2019
5341 Rain 32 1010 49 16093 6.2 230 23:19 02.07.2019
5342 Clouds 32 1010 49 16093 6.2 230 22:55 02.07.2019
5343 Clouds 32 1012 49 16093 5.7 240 22:36 02.07.2019
5344 Clouds 32 1011 52 16093 6.2 220 22:18 02.07.2019
5345 Rain 32 1011 59 16093 3.6 250 21:41 02.07.2019
5346 Thunderstorm 32 1012 52 16093 4.1 240 21:20 02.07.2019
5347 Thunderstorm 32 1011 49 16093 5.1 260 20:57 02.07.2019
5348 Rain 32 1012 52 16093 5.1 230 20:39 02.07.2019
5349 Rain 32 1012 52 16093 5.7 260 20:19 02.07.2019
5350 Thunderstorm 32 1012 55 16093 4.1 250 19:42 02.07.2019
5351 Rain 32 1012 62 16093 3.1 0 19:23 02.07.2019
5352 Clear 32 1014 62 16093 3.1 270 18:47 02.07.2019
5353 Clouds 31 1013 62 16093 3.6 220 18:18 02.07.2019
5354 Clouds 31 1013 62 16093 3.6 220 18:18 02.07.2019
5355 Clear 31 1014 66 16093 1.5 260 17:41 02.07.2019
5356 Clear 30 1014 66 16093 1.5 260 17:22 02.07.2019
5357 Clouds 30 1013 66 16093 4.1 260 16:52 02.07.2019
5358 Rain 29 1014 70 16093 4.1 240 16:34 02.07.2019
5359 Rain 28 1014 69 16093 3.42 240.176 15:46 02.07.2019
5360 Clear 27 1014 74 16093 4.1 250 15:27 02.07.2019
5361 Clouds 26 1013 74 16093 3.6 240 14:57 02.07.2019
5362 Clouds 26 1013 74 16093 3.6 240 14:57 02.07.2019
5363 Rain 26 1014 83 16093 1.5 250 14:38 02.07.2019
5364 Clouds 25 1013 78 16093 4.6 240 14:19 02.07.2019
5365 Clear 24 1014 94 16093 1.18 248.515 13:38 02.07.2019
5366 Clear 24 1013 88 16093 1.18 248.515 13:18 02.07.2019
5367 Clear 24 1014 88 16093 1.18 248.515 12:44 02.07.2019
5368 Clear 24 1014 88 16093 2.95 266.271 12:22 02.07.2019
5369 Clear 24 1013 83 16093 2.1 230 11:44 02.07.2019
5370 Clear 25 1014 83 16093 2.6 240 11:23 02.07.2019
5371 Clouds 25 1013 74 16093 4.1 240 10:54 02.07.2019
5372 Clear 25 1014 88 16093 2.95 266.271 10:26 02.07.2019
5373 Clear 25 1013 78 16093 2.95 266.271 09:49 02.07.2019
5374 Clear 25 1014 88 16093 2.99 253.862 09:22 02.07.2019
5375 Clouds 25 1013 78 16093 3.1 230 08:55 02.07.2019
5376 Clear 25 1014 83 16093 2.9 256.471 08:35 02.07.2019
5377 Clouds 25 1013 78 16093 3.1 230 07:57 02.07.2019
5378 Clear 25 1014 83 16093 2.9 256.471 07:21 02.07.2019
5379 Clear 25 1014 94 16093 2.9 256.471 06:54 02.07.2019
5380 Clear 25 1015 83 16093 2.9 256.471 06:35 02.07.2019
5381 Clear 26 1015 78 16093 3.59 248.667 05:19 02.07.2019
5382 Rain 30 1014 48 16093 2.1 280 02:30 02.07.2019
5383 Rain 31 1014 62 16093 1.5 230 00:24 02.07.2019
5384 Clear 31 1015 66 16093 3.6 240 23:26 01.07.2019
5385 Clouds 30 1015 59 16093 4.6 250 22:52 01.07.2019
5386 Rain 30 1015 62 16093 4.1 260 22:28 01.07.2019
5387 Clouds 30 1015 46 16093 4.1 280 21:55 01.07.2019
5388 Clouds 30 1015 46 16093 3.6 320 21:36 01.07.2019
5389 Clouds 30 1015 46 16093 3.6 320 21:18 01.07.2019
5390 Clear 29 1015 58 16093 0.54 16.843 20:42 01.07.2019
5391 Clear 29 1015 58 16093 0.54 16.843 20:20 01.07.2019
5392 Clear 29 1016 62 16093 0.54 16.843 19:43 01.07.2019
5393 Clear 29 1016 62 16093 0.54 16.843 19:24 01.07.2019
5394 Clouds 29 1017 66 16093 5.7 320 18:56 01.07.2019
5395 Clear 28 1017 66 16093 3.6 280 18:37 01.07.2019
5396 Clouds 28 1017 66 16093 3.1 320 18:19 01.07.2019
5397 Thunderstorm 27 1017 69 16093 2.1 300 17:42 01.07.2019
5398 Thunderstorm 27 1017 69 16093 2.1 300 17:23 01.07.2019
5399 Clouds 26 1017 74 16093 3.6 300 16:48 01.07.2019
5400 Clouds 26 1017 74 16093 3.6 300 16:27 01.07.2019
5401 Clouds 25 1017 74 16093 2.74 331.825 15:57 01.07.2019
5402 Clouds 24 1018 83 16093 1.5 260 15:38 01.07.2019
5403 Clouds 23 1017 73 16093 3.6 280 15:20 01.07.2019
5404 Clear 22 1017 100 16093 2.25 334.965 14:43 01.07.2019
5405 Rain 21 1017 88 16093 2.1 250 14:20 01.07.2019
5406 Clear 20 1017 100 16093 2.25 334.965 13:44 01.07.2019
5407 Clouds 20 1016 88 16093 1.5 230 13:23 01.07.2019
5408 Clouds 20 1017 100 16093 2.6 240 12:55 01.07.2019
5409 Clear 20 1016 100 16093 1.7 289.393 12:36 01.07.2019
5410 Clouds 20 1016 100 16093 3.6 270 12:18 01.07.2019
5411 Clear 20 1016 100 16093 3.1 260 11:43 01.07.2019
5412 Clouds 20 1015 88 16093 2.6 230 11:20 01.07.2019
5413 Clear 20 1016 100 16093 2.6 190 10:47 01.07.2019
5414 Clouds 20 1016 94 16093 3.6 260 10:23 01.07.2019
5415 Rain 21 1015 100 8047 3.02 286.766 09:45 01.07.2019
5416 Rain 21 1015 100 8047 3.02 286.766 09:27 01.07.2019
5417 Rain 21 1015 100 11265 1.65 271.985 08:59 01.07.2019
5418 Rain 21 1015 100 11265 2.75 287.955 08:37 01.07.2019
5419 Rain 21 1016 94 11265 2.75 287.955 07:39 01.07.2019
5420 Rain 22 1017 94 11265 2.75 287.955 06:52 01.07.2019
5421 Rain 22 1017 94 11265 1.5 160 05:39 01.07.2019
5422 Rain 24 1013 83 16093 2.6 180 01:29 01.07.2019
5423 Rain 23 1013 78 16093 3.58 266.382 00:46 01.07.2019
5424 Rain 23 1012 83 16093 7.2 150 00:24 01.07.2019
5425 Rain 22 1014 83 16093 8.7 150 23:40 30.06.2019
5426 Rain 23 1015 83 16093 8.7 150 23:20 30.06.2019
5427 Rain 23 1014 83 16093 10.3 100 22:43 30.06.2019
5428 Rain 23 1020 88 16093 7.2 20 22:20 30.06.2019
5429 Rain 28 1019 83 3219 12.3 360 21:42 30.06.2019
5430 Rain 29 1020 83 4828 8.7 10 21:20 30.06.2019
5431 Thunderstorm 32 1019 57 16093 7.2 350 20:55 30.06.2019
5432 Thunderstorm 32 1017 58 16093 1.48 56.46 20:36 30.06.2019
5433 Thunderstorm 32 1017 52 16093 3.1 70 20:18 30.06.2019
5434 Clouds 32 1018 58 16093 2.1 150 19:44 30.06.2019
5435 Clouds 32 1017 55 16093 4.1 70 19:24 30.06.2019
5436 Clouds 30 1018 59 16093 2.1 170 18:26 30.06.2019
5437 Clouds 30 1018 62 16093 2.34 97.35 17:59 30.06.2019
5438 Clear 30 1018 62 16093 2.34 97.35 17:39 30.06.2019
5439 Clouds 29 1018 62 16093 3.6 80 17:18 30.06.2019
5440 Clouds 29 1018 62 16093 2.34 97.35 16:48 30.06.2019
5441 Clear 29 1018 62 16093 2.34 97.35 16:26 30.06.2019
5442 Clear 27 1018 69 16093 2.34 97.35 15:38 30.06.2019
5443 Clouds 26 1017 57 16093 2.1 190 15:19 30.06.2019
5444 Clouds 25 1018 83 16093 0.91 195.033 14:53 30.06.2019
5445 Clouds 24 1018 88 16093 0.91 195.033 14:35 30.06.2019
5446 Clouds 22 1019 100 16093 0.91 195.033 13:49 30.06.2019
5447 Clouds 21 1019 100 16093 0.99 258.36 13:29 30.06.2019
5448 Clouds 21 1018 100 16093 0.99 258.36 12:55 30.06.2019
5449 Clouds 21 1018 94 16093 0.99 258.36 12:31 30.06.2019
5450 Clouds 21 1018 100 16093 1.26 242.235 11:59 30.06.2019
5451 Clouds 21 1018 100 16093 1.26 242.235 11:59 30.06.2019
5452 Clouds 21 1018 100 11265 1.26 242.235 11:41 30.06.2019
5453 Clouds 21 1018 100 11265 1.26 242.235 11:21 30.06.2019
5454 Mist 21 1018 100 8047 1.26 242.235 10:54 30.06.2019
5455 Clouds 21 1018 100 11265 1.26 242.235 10:36 30.06.2019
5456 Clouds 21 1018 73 16093 1.26 242.235 10:18 30.06.2019
5457 Clouds 21 1018 100 11265 1.26 242.235 09:42 30.06.2019
5458 Clouds 22 1018 73 16093 1.5 40 09:20 30.06.2019
5459 Mist 22 1018 100 8047 1.32 139.018 08:40 30.06.2019
5460 Mist 22 1018 100 8047 1.32 139.018 08:21 30.06.2019
5461 Clear 22 1018 100 11265 1.32 139.018 07:50 30.06.2019
5462 Clouds 23 1018 100 11265 1.32 139.018 07:24 30.06.2019
5463 Mist 23 1018 94 8047 1.32 139.018 06:37 30.06.2019
5464 Clear 25 1018 73 16093 2.18 120.143 03:33 30.06.2019
5465 Clear 28 1017 62 16093 4.1 70 01:58 30.06.2019
5466 Clear 29 1018 69 16093 3.6 50 00:48 30.06.2019
5467 Clear 30 1018 69 16093 3.6 50 00:24 30.06.2019
5468 Clouds 30 1018 59 16093 1.46 24.72 23:53 29.06.2019
5469 Clear 30 1018 59 16093 1.46 24.72 23:23 29.06.2019
5470 Clouds 30 1019 58 16093 1.5 50 22:48 29.06.2019
5471 Clouds 31 1019 58 16093 1.5 50 22:25 29.06.2019
5472 Clouds 30 1019 58 16093 2.6 60 21:56 29.06.2019
5473 Clouds 31 1019 59 16093 1.17 24.342 21:25 29.06.2019
5474 Clouds 31 1019 59 16093 1.17 24.342 21:25 29.06.2019
5475 Clouds 30 1020 65 16093 3.6 10 20:57 29.06.2019
5476 Clouds 30 1019 52 16093 1.17 24.342 20:36 29.06.2019
5477 Clouds 30 1019 54 16093 3.6 90 20:18 29.06.2019
5478 Clear 30 1020 48 16093 2.1 200 19:42 29.06.2019
5479 Clouds 30 1019 58 16093 4.1 80 19:21 29.06.2019
5480 Clear 30 1020 58 16093 1.17 24.342 18:47 29.06.2019
5481 Clear 29 1020 62 16093 1.74 68.601 18:24 29.06.2019
5482 Clear 28 1020 65 16093 1.74 68.601 17:39 29.06.2019
5483 Clouds 28 1019 61 16093 2.1 340 17:20 29.06.2019
5484 Clear 27 1020 69 16093 1.74 68.601 16:44 29.06.2019
5485 Clear 26 1020 69 16093 1.74 68.601 16:25 29.06.2019
5486 Clouds 25 1020 83 16093 2.6 260 15:33 29.06.2019
5487 Clear 23 1020 78 16093 2.1 280 14:59 29.06.2019
5488 Clouds 23 1020 94 16093 1.02 8.862 14:40 29.06.2019
5489 Clouds 22 1019 78 16093 2.1 260 14:21 29.06.2019
5490 Clear 21 1020 100 16093 1.02 8.862 13:43 29.06.2019
5491 Clear 21 1019 88 16093 1.25 10.538 13:24 29.06.2019
5492 Mist 20 1019 94 16093 1.25 10.538 12:42 29.06.2019
5493 Clouds 20 1019 83 16093 1.95 247.068 12:23 29.06.2019
5494 Clouds 20 1019 100 11265 1.95 247.068 11:48 29.06.2019
5495 Clouds 21 1019 100 11265 1.95 247.068 11:28 29.06.2019
5496 Clear 21 1019 94 11265 1.95 247.068 10:52 29.06.2019
5497 Clear 21 1019 94 11265 1.95 247.068 10:26 29.06.2019
5498 Clouds 21 1019 88 16093 1.95 247.068 09:58 29.06.2019
5499 Clear 22 1019 94 11265 1.9 210.296 09:22 29.06.2019
5500 Clear 22 1020 94 11265 2.61 243.484 08:37 29.06.2019
5501 Clear 22 1020 83 16093 2.61 243.484 07:46 29.06.2019
5502 Clear 22 1020 83 16093 2.61 243.484 07:19 29.06.2019
5503 Clear 23 1019 65 16093 1.5 230 06:41 29.06.2019
5504 Clear 24 1019 65 16093 1.5 230 06:20 29.06.2019
5505 Rain 29 1018 61 16093 4.05 227.231 02:26 29.06.2019
5506 Thunderstorm 31 1018 43 16093 4.6 200 00:57 29.06.2019
5507 Clouds 31 1018 45 16093 5.1 220 23:58 28.06.2019
5508 Clear 31 1018 66 16093 1.5 120 23:23 28.06.2019
5509 Clouds 30 1018 49 16093 6.2 200 22:52 28.06.2019
5510 Clouds 30 1018 58 16093 6.2 180 22:27 28.06.2019
5511 Clear 29 1019 62 16093 3.6 170 21:46 28.06.2019
5512 Clouds 28 1019 69 16093 5.7 130 21:20 28.06.2019
5513 Clouds 27 1020 69 16093 2.1 80 20:44 28.06.2019
5514 Rain 27 1020 73 16093 4.1 100 20:21 28.06.2019
5515 Rain 26 1020 83 16093 3.6 90 19:45 28.06.2019
5516 Rain 27 1020 88 16093 3.6 130 19:27 28.06.2019
5517 Rain 27 1022 83 16093 4.1 30 18:44 28.06.2019
5518 Rain 26 1021 69 16093 4.1 70 18:22 28.06.2019
5519 Rain 27 1022 65 16093 2.6 260 17:56 28.06.2019
5520 Rain 27 1022 69 16093 1.5 230 17:29 28.06.2019
5521 Clear 27 1022 69 16093 4.49 226.255 16:49 28.06.2019
5522 Clouds 26 1021 69 16093 3.1 230 16:24 28.06.2019
5523 Clear 25 1022 78 16093 4.49 226.255 15:48 28.06.2019
5524 Clear 25 1021 78 16093 4.72 193.047 15:23 28.06.2019
5525 Clear 24 1021 88 16093 4.72 193.047 14:43 28.06.2019
5526 Clear 24 1021 88 16093 4.72 193.047 14:43 28.06.2019
5527 Clouds 23 1020 83 16093 2.1 180 14:22 28.06.2019
5528 Clear 22 1021 88 16093 4.72 193.047 13:55 28.06.2019
5529 Clouds 22 1021 88 16093 4.72 193.047 13:37 28.06.2019
5530 Rain 22 1021 78 16093 1.5 240 13:19 28.06.2019
5531 Rain 22 1020 94 16093 4.45 176.018 12:44 28.06.2019
5532 Clear 22 1020 83 16093 1.5 220 11:54 28.06.2019
5533 Clear 22 1020 94 11265 2.58 240.305 11:22 28.06.2019
5534 Clear 22 1020 83 11265 1.5 160 10:45 28.06.2019
5535 Clear 22 1020 83 11265 1.5 160 10:21 28.06.2019
5536 Clear 22 1020 83 11265 2.1 160 09:48 28.06.2019
5537 Haze 22 1020 78 8047 2.1 150 09:29 28.06.2019
5538 Clear 22 1020 78 11265 3.1 150 08:47 28.06.2019
5539 Clear 22 1020 78 16093 3.6 140 08:26 28.06.2019
5540 Clear 21 1021 83 11265 2.6 150 07:46 28.06.2019
5541 Clear 21 1022 88 16093 3.33 227.962 06:58 28.06.2019
5542 Clear 21 1022 83 16093 3.82 205.08 06:21 28.06.2019
5543 Clear 31 1020 55 16093 2.1 250 01:23 28.06.2019
5544 Clear 32 1020 62 16093 4.6 200 00:39 28.06.2019
5545 Clear 32 1020 66 16093 3.6 190 23:49 27.06.2019
5546 Clear 32 1020 66 16093 3.6 190 23:26 27.06.2019
5547 Clouds 32 1020 58 16093 3.1 180 22:56 27.06.2019
5548 Clear 32 1020 70 16093 1.5 160 22:37 27.06.2019
5549 Rain 31 1019 58 16093 4.6 180 22:18 27.06.2019
5550 Rain 31 1019 58 16093 4.6 180 22:18 27.06.2019
5551 Clouds 31 1021 70 16093 4.11 222.899 21:48 27.06.2019
5552 Clouds 31 1021 70 16093 4.11 222.899 21:29 27.06.2019
5553 Clouds 31 1021 70 16093 2.6 190 20:55 27.06.2019
5554 Clouds 30 1021 66 16093 3.1 180 20:37 27.06.2019
5555 Clouds 30 1021 58 16093 3.1 190 20:19 27.06.2019
5556 Clouds 30 1021 62 16093 2.1 170 19:44 27.06.2019
5557 Clouds 29 1021 62 16093 2.1 170 19:24 27.06.2019
5558 Clouds 29 1022 74 16093 2.6 180 18:42 27.06.2019
5559 Clouds 28 1021 65 16093 3.1 130 18:19 27.06.2019
5560 Clear 27 1021 74 16093 2.57 89.911 17:43 27.06.2019
5561 Clouds 27 1021 74 16093 2.6 210 17:22 27.06.2019
5562 Clear 26 1022 73 16093 3.6 240 16:40 27.06.2019
5563 Clouds 25 1021 78 16093 4.1 260 16:19 27.06.2019
5564 Clouds 25 1022 73 16093 3.6 240 15:55 27.06.2019
5565 Clear 24 1022 83 16093 4.1 260 15:35 27.06.2019
5566 Clear 23 1022 83 16093 2.1 230 14:58 27.06.2019
5567 Clear 22 1021 100 16093 1.1 359.325 14:38 27.06.2019
5568 Clouds 22 1021 73 16093 3.6 250 14:18 27.06.2019
5569 Clear 20 1021 100 16093 1.1 359.325 13:42 27.06.2019
5570 Clear 20 1021 100 16093 0.43 273.041 13:24 27.06.2019
5571 Clear 20 1020 100 16093 0.43 273.041 12:48 27.06.2019
5572 Clouds 20 1020 83 16093 2.6 230 12:24 27.06.2019
5573 Rain 20 1020 88 16093 1.5 200 11:47 27.06.2019
5574 Rain 20 1020 88 16093 1.5 200 11:23 27.06.2019
5575 Rain 20 1020 88 16093 1.5 200 11:23 27.06.2019
5576 Rain 20 1020 88 16093 1.28 239.419 10:57 27.06.2019
5577 Rain 20 1020 88 16093 2.1 190 10:37 27.06.2019
5578 Rain 20 1020 88 16093 2.1 190 10:19 27.06.2019
5579 Rain 20 1020 94 16093 3.6 200 09:38 27.06.2019
5580 Rain 20 1020 94 16093 3.6 200 09:20 27.06.2019
5581 Thunderstorm 20 1020 100 16093 3.6 130 08:46 27.06.2019
5582 Thunderstorm 20 1020 100 16093 3.6 130 08:46 27.06.2019
5583 Clear 20 1020 94 16093 2.1 170 08:26 27.06.2019
5584 Thunderstorm 20 1020 88 16093 4.1 180 07:44 27.06.2019
5585 Rain 21 1020 94 16093 3.6 140 06:56 27.06.2019
5586 Rain 21 1020 94 16093 4.6 150 06:30 27.06.2019
5587 Rain 22 1018 94 16093 1.14 256.245 03:51 27.06.2019
5588 Rain 26 1017 51 16093 5.7 90 02:41 27.06.2019
5589 Rain 29 1017 48 16093 5.1 100 01:19 27.06.2019
5590 Clouds 30 1017 51 16093 0.19 1.232 00:48 27.06.2019
5591 Clouds 30 1017 48 16093 3.14 261.161 00:26 27.06.2019
5592 Clouds 30 1017 51 16093 2.1 360 23:48 26.06.2019
5593 Clear 31 1017 43 16093 1.5 220 23:22 26.06.2019
5594 Clear 31 1017 43 16093 1.5 220 23:22 26.06.2019
5595 Clouds 31 1017 52 16093 3.1 190 22:57 26.06.2019
5596 Clouds 31 1017 48 16093 3.14 261.161 22:38 26.06.2019
5597 Clouds 31 1017 43 16093 3.1 220 22:18 26.06.2019
5598 Clouds 31 1018 51 16093 4.1 200 21:41 26.06.2019
5599 Clouds 30 1017 40 16093 2.6 210 21:20 26.06.2019
5600 Clear 30 1019 48 16093 2.1 320 20:51 26.06.2019
5601 Clear 30 1019 48 16093 2.1 320 20:31 26.06.2019
5602 Clear 30 1018 51 16093 2.1 220 20:00 26.06.2019
5603 Clear 30 1019 48 16093 3.59 248.812 19:40 26.06.2019
5604 Clouds 29 1019 48 16093 1.5 240 19:22 26.06.2019
5605 Clear 29 1019 48 16093 3.59 248.812 18:45 26.06.2019
5606 Clouds 28 1019 48 16093 0.14 68.121 18:22 26.06.2019
5607 Clear 28 1019 61 16093 0.14 68.121 17:57 26.06.2019
5608 Clouds 27 1019 61 16093 0.14 68.121 17:27 26.06.2019
5609 Clouds 26 1019 69 16093 0.14 68.121 16:53 26.06.2019
5610 Clouds 25 1019 69 16093 0.14 68.121 16:30 26.06.2019
5611 Clouds 24 1018 69 24140 2.1 240 15:58 26.06.2019
5612 Clouds 23 1018 73 16093 0.14 68.121 15:30 26.06.2019
5613 Clouds 22 1018 69 32186 2.6 250 14:58 26.06.2019
5614 Clouds 22 1018 77 16093 1.68 295.683 14:37 26.06.2019
5615 Clouds 22 1018 77 16093 1.68 295.683 14:37 26.06.2019
5616 Clouds 21 1017 69 16093 2.6 290 14:19 26.06.2019
5617 Clear 20 1017 82 16093 1.91 266.639 13:41 26.06.2019
5618 Rain 19 1016 77 16093 3.1 260 13:19 26.06.2019
5619 Clear 19 1016 77 16093 1.91 266.639 12:41 26.06.2019
5620 Clear 19 1016 77 16093 1.91 266.639 12:41 26.06.2019
5621 Clouds 20 1016 77 16093 3.6 260 12:21 26.06.2019
5622 Clear 20 1016 73 11265 2.6 250 11:42 26.06.2019
5623 Clear 20 1016 73 11265 2.6 250 11:19 26.06.2019
5624 Clear 21 1015 73 16093 2.6 240 10:41 26.06.2019
5625 Clear 21 1015 73 16093 2.6 240 10:21 26.06.2019
5626 Clear 21 1015 73 16093 2.1 220 09:41 26.06.2019
5627 Clear 22 1015 73 16093 2.1 220 09:18 26.06.2019
5628 Clear 22 1015 69 16093 2.6 230 08:39 26.06.2019
5629 Clouds 23 1014 64 16093 3.1 230 08:19 26.06.2019
5630 Clear 23 1014 69 16093 1.5 220 07:45 26.06.2019
5631 Clear 23 1014 61 16093 1.5 210 06:34 26.06.2019
5632 Clear 24 1014 57 16093 2.1 220 05:55 26.06.2019
5633 Rain 28 1011 40 16093 8.2 230 00:57 26.06.2019
5634 Rain 28 1010 61 16093 6.2 240 00:19 26.06.2019
5635 Rain 28 1010 45 16093 11.3 220 23:41 25.06.2019
5636 Rain 29 1011 47 16093 3.6 270 23:23 25.06.2019
5637 Clouds 28 1012 39 16093 7.7 230 22:55 25.06.2019
5638 Rain 28 1012 45 16093 7.7 220 22:37 25.06.2019
5639 Rain 28 1011 42 16093 9.8 230 22:18 25.06.2019
5640 Rain 29 1012 45 16093 8.7 200 21:37 25.06.2019
5641 Clouds 29 1011 42 16093 8.7 220 21:19 25.06.2019
5642 Clear 29 1013 51 16093 6.2 220 20:38 25.06.2019
5643 Clear 29 1013 51 16093 6.2 220 20:38 25.06.2019
5644 Clouds 29 1012 48 16093 7.7 210 20:19 25.06.2019
5645 Clear 28 1013 51 16093 6.7 220 19:45 25.06.2019
5646 Clear 28 1012 54 16093 4.1 220 19:22 25.06.2019
5647 Clear 27 1013 57 16093 5.1 250 18:43 25.06.2019
5648 Clear 27 1013 57 16093 5.1 250 18:43 25.06.2019
5649 Clear 27 1012 58 16093 3.6 240 18:25 25.06.2019
5650 -273 0 0 0 0 0 17:53 25.06.2019
5651 -273 0 0 0 0 0 17:52 25.06.2019
5652 -273 0 0 0 0 0 17:52 25.06.2019
5653 Rain 25 1012 64 16093 6.2 220 17:29 25.06.2019
5654 Rain 25 1012 64 16093 6.2 220 17:29 25.06.2019
5655 Rain 25 1012 64 16093 6.2 220 17:29 25.06.2019
5656 -273 0 0 0 0 0 17:29 25.06.2019
5657 Clear 24 1013 64 16093 4.6 250 16:57 25.06.2019
5658 Clouds 24 1013 69 16093 4.6 260 16:38 25.06.2019
5659 Clouds 23 1012 64 16093 5.1 240 16:19 25.06.2019
5660 Clear 21 1013 77 16093 3.6 250 15:40 25.06.2019
5661 Clear 20 1012 73 16093 4.6 260 15:21 25.06.2019
5662 Clear 19 1012 88 16093 3.1 220 14:53 25.06.2019
5663 Clear 19 1012 88 16093 3.1 220 14:53 25.06.2019
5664 Clear 19 1012 88 16093 3.1 220 14:33 25.06.2019
5665 Rain 17 1012 100 16093 3.1 210 13:45 25.06.2019
5666 Clouds 16 1011 82 16093 2.6 240 13:26 25.06.2019
5667 Clear 16 1011 93 16093 2.6 220 12:43 25.06.2019
5668 Clear 16 1010 88 16093 2.6 240 12:25 25.06.2019
5669 Clear 16 1010 93 16093 2.1 210 11:48 25.06.2019
5670 Clear 16 1010 93 16093 2.1 210 11:26 25.06.2019
5671 Clear 17 1010 100 16093 2.6 220 10:59 25.06.2019
5672 Clear 17 1009 93 16093 3.1 210 10:39 25.06.2019
5673 Clear 17 1008 88 16093 3.6 240 10:21 25.06.2019
5674 Clear 17 1009 88 16093 2.6 230 09:40 25.06.2019
5675 Clear 18 1009 88 16093 2.6 230 09:22 25.06.2019
5676 Clear 18 1009 88 16093 1.5 270 09:00 25.06.2019
5677 Clouds 18 1008 88 16093 3.1 240 08:32 25.06.2019
5678 Clear 19 1008 82 16093 3.1 240 07:58 25.06.2019
5679 Clear 19 1008 77 16093 2.1 220 07:36 25.06.2019
5680 Rain 19 1008 82 16093 3.1 250 06:52 25.06.2019
5681 Clear 19 1007 77 16093 4.1 240 06:25 25.06.2019
5682 Rain 22 1004 73 16093 5.7 240 02:45 25.06.2019
5683 Rain 22 1004 69 16093 7.7 240 01:38 25.06.2019
5684 Thunderstorm 24 1004 88 16093 5.7 220 00:35 25.06.2019
5685 Rain 24 1003 69 16093 5.1 240 23:53 24.06.2019
5686 Rain 25 1003 73 16093 5.1 230 23:34 24.06.2019
5687 Rain 25 1004 83 16093 6.2 230 22:59 24.06.2019
5688 Rain 24 1004 88 16093 6.2 220 22:39 24.06.2019
5689 Rain 24 1003 83 16093 5.7 230 22:18 24.06.2019
5690 Rain 22 1004 94 16093 5.7 240 21:38 24.06.2019
5691 Rain 22 1004 88 16093 4.1 240 21:19 24.06.2019
5692 Rain 21 1004 83 16093 3.6 220 20:55 24.06.2019
5693 Rain 21 1004 94 14484 5.1 250 20:37 24.06.2019
5694 Rain 21 1004 88 16093 5.1 250 20:18 24.06.2019
5695 Rain 21 1005 94 16093 4.6 230 19:41 24.06.2019
5696 Rain 21 1004 94 16093 2.1 240 19:21 24.06.2019
5697 Rain 21 1004 78 12874 5.7 280 18:44 24.06.2019
5698 Rain 22 1004 94 16093 2.1 280 18:25 24.06.2019
5699 Rain 22 1004 88 16093 4.6 220 17:46 24.06.2019
5700 Rain 22 1004 83 16093 6.7 230 17:25 24.06.2019
5701 Rain 22 1004 94 12874 3.6 210 16:46 24.06.2019
5702 Rain 21 1005 94 16093 5.1 220 16:20 24.06.2019
5703 Rain 21 1005 94 16093 5.1 210 15:47 24.06.2019
5704 Rain 21 1005 94 16093 5.1 210 15:29 24.06.2019
5705 Rain 21 1005 100 16093 6.2 200 14:43 24.06.2019
5706 Rain 21 1003 88 16093 3.1 210 14:24 24.06.2019
5707 Rain 21 1003 94 14484 2.1 210 13:46 24.06.2019
5708 Rain 21 1004 88 12874 2.1 190 13:24 24.06.2019
5709 Mist 20 1003 88 14484 2.1 200 12:43 24.06.2019
5710 Rain 20 1003 88 16093 2.1 210 12:21 24.06.2019
5711 Clouds 20 1004 100 16093 2.55 237.431 11:46 24.06.2019
5712 Rain 20 1003 94 16093 2.6 220 11:28 24.06.2019
5713 Clouds 20 1003 88 12874 1.5 190 10:56 24.06.2019
5714 Clouds 20 1004 100 11265 3.1 210 10:36 24.06.2019
5715 Rain 21 1004 94 16093 2.6 210 10:18 24.06.2019
5716 Rain 21 1004 88 16093 2.6 200 09:43 24.06.2019
5717 Rain 21 1005 100 16093 2.1 170 09:19 24.06.2019
5718 Rain 21 1005 100 16093 3.6 180 08:50 24.06.2019
5719 Rain 21 1005 88 16093 2.6 190 08:20 24.06.2019
5720 Rain 21 1006 100 16093 2.86 218.603 07:41 24.06.2019
5721 Rain 21 1005 94 16093 2.86 218.603 07:23 24.06.2019
5722 Rain 21 1005 94 11265 3.88 214.021 06:24 24.06.2019
5723 Rain 21 1006 100 16093 3.88 214.021 05:45 24.06.2019
5724 Rain 22 1006 94 16093 3.88 214.021 04:46 24.06.2019
5725 Rain 22 1006 100 16093 3.88 214.021 03:49 24.06.2019
5726 Rain 23 1007 100 16093 3.2 181.45 02:48 24.06.2019
5727 Rain 24 1007 100 12874 2.1 120 01:55 24.06.2019
5728 Rain 24 1007 88 16093 2.1 70 01:33 24.06.2019
5729 Rain 24 1006 73 16093 3.1 220 00:55 24.06.2019
5730 Rain 26 1007 69 16093 4.1 170 00:21 24.06.2019
5731 Rain 27 1008 94 3219 3.1 150 23:56 23.06.2019
5732 Rain 27 1008 69 16093 5.63 206.925 23:37 23.06.2019
5733 Rain 27 1008 69 16093 4.6 150 23:18 23.06.2019
5734 Rain 27 1009 88 16093 4.1 160 22:41 23.06.2019
5735 Rain 27 1008 69 16093 5.7 170 22:20 23.06.2019
5736 Clouds 26 1011 83 16093 3.6 150 21:42 23.06.2019
5737 Clouds 26 1010 65 16093 6.2 170 21:22 23.06.2019
5738 Rain 25 1011 74 16093 5.7 190 20:51 23.06.2019
5739 Rain 25 1012 78 11265 4.1 200 20:31 23.06.2019
5740 Clouds 24 1012 61 16093 7.7 150 19:55 23.06.2019
5741 Clouds 24 1011 65 16093 6.2 200 19:37 23.06.2019
5742 Clouds 24 1011 65 16093 6.2 190 19:19 23.06.2019
5743 Clear 24 1012 69 16093 7.2 140 18:43 23.06.2019
5744 Clouds 24 1011 65 16093 7.7 170 18:19 23.06.2019
5745 Clouds 24 1011 69 16093 8.2 160 17:41 23.06.2019
5746 Clouds 23 1011 78 16093 4.6 140 17:22 23.06.2019
5747 Clear 22 1013 83 16093 3.6 160 16:45 23.06.2019
5748 Clear 22 1013 83 16093 3.6 160 16:25 23.06.2019
5749 Rain 20 1014 83 16093 6.2 120 15:54 23.06.2019
5750 Rain 20 1015 88 16093 5.1 150 15:36 23.06.2019
5751 Rain 19 1014 82 16093 4.6 140 15:18 23.06.2019
5752 Rain 18 1014 88 16093 4.1 120 14:38 23.06.2019
5753 Rain 18 1014 88 16093 4.1 120 14:20 23.06.2019
5754 Rain 18 1015 77 16093 3.1 90 13:42 23.06.2019
5755 Rain 18 1016 68 12874 2.6 100 13:21 23.06.2019
5756 Rain 19 1015 64 16093 3.6 120 12:58 23.06.2019
5757 Thunderstorm 19 1015 72 16093 3.6 110 12:39 23.06.2019
5758 Thunderstorm 19 1015 68 16093 4.1 110 12:19 23.06.2019
5759 Thunderstorm 19 1015 64 11265 3.1 110 11:45 23.06.2019
5760 Clear 20 1015 64 11265 3.1 110 11:25 23.06.2019
5761 Rain 20 1016 56 11265 4.1 120 10:48 23.06.2019
5762 Rain 20 1016 60 11265 3.1 120 10:21 23.06.2019
5763 Rain 21 1017 60 16093 3.1 130 09:57 23.06.2019
5764 Rain 21 1017 56 16093 3.6 130 09:22 23.06.2019
5765 Clear 21 1017 73 16093 4.1 130 08:47 23.06.2019
5766 Clouds 21 1017 64 16093 4.6 130 08:28 23.06.2019
5767 Clouds 21 1017 64 16093 2.1 130 07:56 23.06.2019
5768 Clouds 22 1017 77 16093 3.1 150 07:38 23.06.2019
5769 Clouds 22 1016 73 16093 3.6 120 07:18 23.06.2019
5770 Clouds 22 1017 78 16093 3.6 130 06:43 23.06.2019
5771 Clouds 22 1018 69 11265 2.1 130 05:42 23.06.2019
5772 Rain 24 1017 65 16093 3.1 150 02:32 23.06.2019
5773 Clouds 25 1016 65 16093 4.1 140 01:39 23.06.2019
5774 Clouds 26 1016 65 16093 4.1 150 00:58 23.06.2019
5775 Clouds 26 1016 57 16093 3.6 100 00:27 23.06.2019
5776 Clouds 26 1016 61 16093 4.6 130 23:43 22.06.2019
5777 Clouds 26 1016 57 16093 5.7 90 23:24 22.06.2019
5778 Clouds 26 1017 61 16093 5.1 150 22:46 22.06.2019
5779 Clouds 26 1017 57 16093 5.1 120 22:25 22.06.2019
5780 Clouds 26 1018 65 16093 4.1 120 21:42 22.06.2019
5781 Clouds 26 1018 54 16093 5.7 100 21:20 22.06.2019
5782 Clouds 26 1018 54 16093 5.7 100 21:20 22.06.2019
5783 Clouds 26 1018 54 16093 3.6 120 20:56 22.06.2019
5784 Clouds 26 1018 61 16093 2.6 120 20:38 22.06.2019
5785 Clouds 26 1018 54 16093 6.2 80 20:19 22.06.2019
5786 Clear 25 1017 65 16093 5.7 120 19:40 22.06.2019
5787 Clouds 25 1017 57 16093 6.2 100 19:19 22.06.2019
5788 Clouds 24 1017 64 16093 6.2 140 18:42 22.06.2019
5789 Clouds 23 1017 60 16093 5.1 110 18:22 22.06.2019
5790 Clear 23 1017 73 16093 5.1 110 17:43 22.06.2019
5791 Clouds 22 1017 64 16093 5.7 90 17:25 22.06.2019
5792 Clear 22 1017 73 16093 5.1 110 16:42 22.06.2019
5793 Clear 21 1017 68 16093 2.1 60 16:22 22.06.2019
5794 Clouds 20 1017 77 16093 4.6 100 15:43 22.06.2019
5795 Clouds 18 1017 77 16093 4.6 100 15:25 22.06.2019
5796 Clouds 18 1017 77 16093 3.1 110 14:51 22.06.2019
5797 Clouds 17 1016 88 16093 1.5 90 14:31 22.06.2019
5798 Clouds 16 1017 100 16093 2.6 980 13:57 22.06.2019
5799 Clouds 16 1016 93 16093 2.93 69.831 13:38 22.06.2019
5800 Clouds 16 1016 93 16093 2.93 69.831 13:38 22.06.2019
5801 Clouds 15 1016 77 16093 2.6 100 13:18 22.06.2019
5802 Clear 15 1016 93 16093 2.93 69.831 12:42 22.06.2019
5803 Clouds 15 1015 72 16093 3.1 60 12:18 22.06.2019
5804 Clear 15 1015 100 16093 3.24 70.702 11:40 22.06.2019
5805 Rain 15 1016 100 16093 3.24 70.702 10:58 22.06.2019
5806 Clear 15 1016 93 16093 3.24 70.702 10:22 22.06.2019
5807 Clouds 15 1016 82 16093 3.24 70.702 09:56 22.06.2019
5808 Clear 15 1016 82 16093 3.1 60 09:29 22.06.2019
5809 Clear 15 1015 87 16093 2.1 50 08:47 22.06.2019
5810 Clear 15 1015 93 16093 2.1 40 08:28 22.06.2019
5811 Clear 15 1016 87 16093 3.1 30 07:44 22.06.2019
5812 Clouds 15 1016 59 16093 3.6 50 07:18 22.06.2019
5813 Clouds 15 1017 82 16093 2.96 41.182 06:33 22.06.2019
5814 Clouds 16 1015 55 16093 2.6 50 03:21 22.06.2019
5815 Rain 18 1015 55 16093 6.2 40 02:21 22.06.2019
5816 Drizzle 19 1015 63 16093 2.6 20 00:48 22.06.2019
5817 Clouds 20 1015 43 16093 5.1 100 00:24 22.06.2019
5818 Clouds 20 1017 52 16093 5.17 90.721 23:49 21.06.2019
5819 Thunderstorm 21 1016 46 16093 3.1 130 23:23 21.06.2019
5820 Clouds 21 1017 46 16093 2.1 110 22:54 21.06.2019
5821 Clear 21 1016 52 16093 2.6 70 22:27 21.06.2019
5822 Clouds 21 1017 52 16093 2.1 0 21:57 21.06.2019
5823 Clear 21 1017 49 16093 2.6 50 21:38 21.06.2019
5824 Clear 21 1017 49 16093 2.6 50 21:38 21.06.2019
5825 Clear 21 1017 49 16093 2.6 50 21:38 21.06.2019
5826 Clear 21 1017 49 16093 2.6 50 21:38 21.06.2019
5827 Clouds 22 1017 43 16093 3.6 90 21:19 21.06.2019
5828 Clear 22 1017 52 16093 4.1 40 20:47 21.06.2019
5829 Clouds 22 1017 46 16093 4.1 90 20:24 21.06.2019
5830 Clear 22 1017 49 16093 4.1 30 19:38 21.06.2019
5831 Clear 22 1017 52 16093 3.6 30 18:56 21.06.2019
5832 Rain 22 1017 46 16093 2.6 80 18:35 21.06.2019
5833 Rain 22 1017 52 16093 3.1 30 17:56 21.06.2019
5834 Rain 21 1017 52 16093 2.1 60 17:30 21.06.2019
5835 Rain 21 1017 56 16093 1.5 30 16:42 21.06.2019
5836 Rain 20 1017 52 16093 3.09 76.157 16:23 21.06.2019
5837 Rain 19 1017 59 24140 3.1 360 15:53 21.06.2019
5838 Rain 18 1016 68 16093 3.09 76.157 15:33 21.06.2019
5839 Clear 16 1016 100 16093 2.04 48.096 14:53 21.06.2019
5840 Clear 15 1016 100 16093 2.04 48.096 14:31 21.06.2019
5841 Mist 12 1016 100 11265 2.04 48.096 13:59 21.06.2019
5842 Mist 12 1016 100 16093 2.04 48.096 13:37 21.06.2019
5843 Mist 11 1015 87 16093 1.84 49.466 13:18 21.06.2019
5844 Mist 11 1015 87 8047 1.84 49.466 12:42 21.06.2019
5845 Fog 10 1016 100 16093 1.54 358.992 12:22 21.06.2019
5846 Mist 10 1015 100 8047 1.54 358.992 11:48 21.06.2019
5847 Mist 11 1015 100 8047 1.54 358.992 11:28 21.06.2019
5848 Mist 11 1014 100 6437 2.1 220 10:56 21.06.2019
5849 Mist 11 1014 100 8047 1.54 358.992 10:38 21.06.2019
5850 Mist 11 1014 100 8047 1.54 358.992 10:20 21.06.2019
5851 Mist 11 1014 100 4828 1.54 358.992 09:42 21.06.2019
5852 Mist 11 1014 100 4828 0.82 30.735 09:21 21.06.2019
5853 Mist 12 1014 93 16093 1.5 220 08:45 21.06.2019
5854 Mist 12 1014 93 16093 1.5 220 08:27 21.06.2019
5855 Clear 12 1014 100 16093 0.98 1.344 07:56 21.06.2019
5856 Clear 12 1014 100 16093 0.98 1.344 07:38 21.06.2019
5857 Rain 13 1013 93 16093 0.98 1.344 06:58 21.06.2019
5858 Clear 13 1013 100 16093 1.5 300 06:23 21.06.2019
5859 Clear 14 1013 100 16093 2.13 39.93 05:32 21.06.2019
5860 Rain 16 1012 87 16093 2.13 39.93 04:31 21.06.2019
5861 Clear 17 1011 87 16093 2.13 39.93 03:35 21.06.2019
5862 Clouds 18 1011 87 16093 2.6 340 02:53 21.06.2019
5863 Clear 19 1009 82 16093 3.6 20 01:56 21.06.2019
5864 Clouds 20 1009 82 16093 2.38 44.626 00:58 21.06.2019
5865 Clouds 20 1009 64 16093 3.6 360 00:27 21.06.2019
5866 Clouds 20 1009 93 16093 2.6 330 23:49 20.06.2019
5867 Clouds 20 1009 64 16093 2.1 320 23:24 20.06.2019
5868 Clouds 20 1009 100 16093 3.1 360 22:58 20.06.2019
5869 Clouds 19 1008 100 11265 2.6 10 22:39 20.06.2019
5870 Clouds 19 1009 68 16093 3.6 60 22:21 20.06.2019
5871 Drizzle 18 1008 100 16093 3.1 330 21:49 20.06.2019
5872 Rain 18 1008 88 16093 4.1 350 21:19 20.06.2019
5873 Rain 17 1008 82 16093 4.1 360 20:58 20.06.2019
5874 Rain 17 1008 82 16093 4.1 360 20:39 20.06.2019
5875 Rain 17 1007 87 3219 5.1 350 20:19 20.06.2019
5876 Mist 16 1006 82 16093 6.2 10 19:39 20.06.2019
5877 Rain 16 1006 82 14484 5.1 360 19:18 20.06.2019
5878 Rain 16 1006 100 11265 4.6 360 18:43 20.06.2019
5879 Rain 16 1006 88 11265 2.6 350 18:23 20.06.2019
5880 Drizzle 16 1005 100 4023 7.2 330 17:57 20.06.2019
5881 Drizzle 15 1005 93 4828 5.1 10 17:39 20.06.2019
5882 Rain 15 1004 100 16093 3.6 360 16:58 20.06.2019
5883 Rain 15 1004 100 16093 3.6 340 16:39 20.06.2019
5884 Rain 15 1004 100 16093 3.6 340 16:39 20.06.2019
5885 Rain 15 1004 100 11265 7.7 350 16:19 20.06.2019
5886 Rain 15 1004 100 11265 7.7 350 16:19 20.06.2019
5887 Rain 15 1004 100 8047 5.1 350 15:42 20.06.2019
5888 Rain 15 1005 100 11265 3.1 350 15:23 20.06.2019
5889 Rain 15 1003 100 2414 7.7 330 14:52 20.06.2019
5890 Rain 15 1004 93 8047 5.7 350 14:24 20.06.2019
5891 Rain 14 1003 100 1207 6.2 330 13:56 20.06.2019
5892 Rain 14 1003 100 4828 5.7 360 13:37 20.06.2019
5893 Rain 14 1002 100 3219 6.2 360 13:18 20.06.2019
5894 Rain 14 1002 93 9656 4.1 10 12:40 20.06.2019
5895 Rain 14 1002 100 4023 5.7 360 12:19 20.06.2019
5896 Rain 14 1002 100 4828 4.6 350 11:40 20.06.2019
5897 Rain 14 1001 100 11265 5.7 360 11:22 20.06.2019
5898 Rain 14 1001 100 8047 4.6 360 10:43 20.06.2019
5899 Rain 14 1001 100 8047 4.6 360 10:23 20.06.2019
5900 Rain 13 1002 100 9656 5.7 10 09:41 20.06.2019
5901 Rain 13 1001 100 6437 7.2 360 09:23 20.06.2019
5902 Rain 13 1003 93 8047 5.1 360 08:48 20.06.2019
5903 Rain 13 1003 100 11265 4.1 360 08:28 20.06.2019
5904 Rain 13 1003 100 16093 3.1 360 07:59 20.06.2019
5905 Rain 13 1004 93 11265 6.2 10 07:33 20.06.2019
5906 Rain 13 1003 100 11265 4.6 10 06:57 20.06.2019
5907 Rain 13 1005 93 6437 5.7 40 06:19 20.06.2019
5908 Rain 14 1005 100 8047 4.6 10 03:40 20.06.2019
5909 Rain 16 1006 100 11265 4.1 10 00:59 20.06.2019
5910 Rain 16 1006 100 11265 2.6 10 00:33 20.06.2019
5911 Haze 17 1006 93 8047 4.6 40 23:43 19.06.2019
5912 Haze 18 1006 93 8047 4.6 40 23:25 19.06.2019
5913 Mist 18 1006 77 16093 6.2 50 22:48 19.06.2019
5914 Mist 19 1007 88 16093 2.6 40 22:24 19.06.2019
5915 Rain 19 1007 100 1207 3.1 360 21:57 19.06.2019
5916 Rain 19 1007 77 16093 5.7 50 21:37 19.06.2019
5917 Rain 20 1007 68 16093 5.7 30 21:18 19.06.2019
5918 Rain 20 1008 82 16093 4.6 40 20:40 19.06.2019
5919 Rain 21 1008 64 16093 5.1 80 20:21 19.06.2019
5920 Clear 21 1009 77 16093 4.6 40 19:45 19.06.2019
5921 Clear 21 1009 77 16093 4.6 40 19:26 19.06.2019
5922 Mist 22 1009 82 11265 4.6 30 18:56 19.06.2019
5923 Mist 21 1009 69 16093 2.1 30 18:24 19.06.2019
5924 Rain 22 1008 69 16093 3.1 60 17:43 19.06.2019
5925 Rain 22 1009 73 16093 2.6 10 17:25 19.06.2019
5926 Mist 21 1009 73 16093 2.1 20 16:56 19.06.2019
5927 Mist 21 1009 73 16093 2.51 54.003 16:36 19.06.2019
5928 Mist 21 1009 64 12874 2.51 54.003 16:18 19.06.2019
5929 Haze 21 1009 83 16093 2.51 54.003 15:42 19.06.2019
5930 Haze 20 1008 77 8047 1.5 30 15:20 19.06.2019
5931 Mist 19 1009 100 8047 1.29 73.921 14:43 19.06.2019
5932 Mist 18 1009 82 11265 1.29 73.921 14:23 19.06.2019
5933 Mist 17 1009 100 8047 1.29 73.921 13:44 19.06.2019
5934 Mist 16 1009 93 16093 1.61 29.988 13:25 19.06.2019
5935 Mist 16 1009 93 16093 1.61 29.988 13:25 19.06.2019
5936 Haze 16 1009 77 4023 1.61 29.988 12:57 19.06.2019
5937 Mist 16 1009 100 8047 1.61 29.988 12:39 19.06.2019
5938 Mist 16 1009 82 16093 0.67 146.286 12:18 19.06.2019
5939 Mist 16 1009 100 2816 0.67 146.286 11:40 19.06.2019
5940 Mist 16 1009 100 2816 0.67 146.286 11:20 19.06.2019
5941 Mist 16 1010 100 4023 0.67 146.286 10:47 19.06.2019
5942 Mist 16 1010 100 4023 0.67 146.286 10:28 19.06.2019
5943 Mist 16 1010 100 8047 0.67 146.286 09:56 19.06.2019
5944 Mist 17 1011 100 2414 0.67 146.286 09:36 19.06.2019
5945 Mist 17 1011 100 2414 1.6 122.63 09:18 19.06.2019
5946 Mist 17 1011 100 3219 1.57 114.559 08:43 19.06.2019
5947 Mist 17 1011 100 3219 1.57 114.559 08:24 19.06.2019
5948 Clear 18 1011 93 11265 1.57 114.559 07:43 19.06.2019
5949 Clouds 18 1011 82 16093 1.57 114.559 07:22 19.06.2019
5950 Mist 19 1012 100 4828 1.57 114.559 06:36 19.06.2019
5951 Clouds 19 1011 72 16093 1.04 86.924 06:18 19.06.2019
5952 Clear 20 1012 93 11265 1.04 86.924 05:27 19.06.2019
5953 Clear 21 1011 57 16093 2.1 130 03:53 19.06.2019
5954 Clear 24 1012 68 16093 3.6 20 02:40 19.06.2019
5955 Clear 25 1012 69 16093 2.05 63.61 01:41 19.06.2019
5956 Clear 25 1012 69 16093 2.05 63.61 00:55 19.06.2019
5957 Clear 25 1012 69 16093 2.05 63.61 00:36 19.06.2019
5958 Clouds 25 1012 47 16093 2.6 80 00:18 19.06.2019
5959 Clear 25 1013 69 16093 1.72 41.789 23:42 18.06.2019
5960 Clouds 25 1012 47 16093 2.6 80 23:23 18.06.2019
5961 Clouds 26 1013 69 16093 1.72 41.789 22:41 18.06.2019
5962 Clouds 25 1013 60 16093 3.1 70 22:22 18.06.2019
5963 Clouds 25 1014 73 16093 1.72 41.789 21:44 18.06.2019
5964 Clear 25 1013 54 16093 1.9 90.843 21:22 18.06.2019
5965 Clouds 24 1014 73 16093 1.9 90.843 20:59 18.06.2019
5966 Clouds 24 1014 78 16093 0.9 114.433 20:39 18.06.2019
5967 Clouds 24 1014 68 16093 3.1 100 20:19 18.06.2019
5968 Clouds 24 1015 82 16093 0.9 114.433 19:39 18.06.2019
5969 Clouds 23 1015 73 16093 2.6 120 19:21 18.06.2019
5970 Clouds 23 1015 77 16093 1.5 0 18:49 18.06.2019
5971 Clouds 21 1016 88 16093 2.1 20 18:25 18.06.2019
5972 Mist 20 1016 100 2414 1.36 81.565 17:48 18.06.2019
5973 Mist 19 1015 82 16093 1.36 81.565 17:22 18.06.2019
5974 Mist 18 1016 100 4828 1.36 81.565 16:58 18.06.2019
5975 Mist 17 1015 87 8047 1.36 81.565 16:39 18.06.2019
5976 Mist 16 1015 88 4828 2.1 60 16:21 18.06.2019
5977 Mist 15 1015 93 1609 1.36 81.565 15:41 18.06.2019
5978 Mist 15 1016 87 2012 1.08 36.393 15:22 18.06.2019
5979 Fog 14 1015 100 805 1.08 36.393 14:56 18.06.2019
5980 Fog 14 1015 100 1609 2.6 30 14:37 18.06.2019
5981 Mist 14 1015 93 2012 1.08 36.393 14:18 18.06.2019
5982 Mist 13 1015 100 3219 1.08 36.393 13:46 18.06.2019
5983 Mist 13 1015 100 0 0.89 48.766 13:28 18.06.2019
5984 Mist 13 1015 100 2414 2.1 30 12:46 18.06.2019
5985 Mist 13 1015 100 2414 2.1 30 12:46 18.06.2019
5986 Mist 13 1015 100 4023 0.89 48.766 12:27 18.06.2019
5987 Fog 13 1015 100 805 1.5 10 11:50 18.06.2019
5988 Mist 13 1015 100 11265 2.1 350 11:23 18.06.2019
5989 Mist 13 1016 100 402 2.1 30 10:58 18.06.2019
5990 Mist 13 1015 100 8047 0.94 51.819 10:39 18.06.2019
5991 Mist 13 1015 100 8047 0.94 51.819 10:20 18.06.2019
5992 Mist 13 1016 100 1207 0.94 51.819 09:51 18.06.2019
5993 Mist 13 1016 100 402 1.4 80.028 09:24 18.06.2019
5994 Mist 13 1016 100 402 1.4 80.028 08:48 18.06.2019
5995 Mist 13 1016 100 805 1.5 50 08:22 18.06.2019
5996 Mist 14 1016 87 9656 2.6 110 07:46 18.06.2019
5997 Mist 14 1016 100 402 1.5 40 07:24 18.06.2019
5998 Fog 14 1017 100 402 2.6 30 06:48 18.06.2019
5999 Mist 15 1017 100 8047 2.1 20 05:24 18.06.2019
6000 Mist 16 1016 77 14484 2.1 70 04:21 18.06.2019
6001 Mist 18 1016 77 16093 3.1 40 02:45 18.06.2019
6002 Mist 18 1016 72 16093 2.6 60 01:26 18.06.2019
6003 Mist 19 1016 100 2414 3.1 20 00:57 18.06.2019
6004 Mist 20 1016 82 16093 3.6 30 00:30 18.06.2019
6005 Clouds 20 1016 88 11265 4.1 40 23:42 17.06.2019
6006 Clouds 21 1016 68 16093 2.1 60 23:23 17.06.2019
6007 Clouds 21 1016 82 11265 3.1 10 22:58 17.06.2019
6008 Clouds 21 1016 82 11265 2.6 30 22:38 17.06.2019
6009 Clouds 21 1016 68 14484 3.6 40 22:20 17.06.2019
6010 Clouds 21 1016 82 11265 3.6 20 21:42 17.06.2019
6011 Haze 20 1016 68 16093 2.6 60 21:23 17.06.2019
6012 Haze 20 1016 68 16093 2.6 60 21:23 17.06.2019
6013 Clouds 20 1016 77 11265 2.6 30 20:40 17.06.2019
6014 Clouds 20 1016 73 16093 3.1 90 20:21 17.06.2019
6015 Clouds 19 1017 87 11265 2.1 10 19:56 17.06.2019
6016 Mist 19 1017 88 16093 3.1 350 19:38 17.06.2019
6017 Clouds 19 1017 72 16093 3.6 40 19:19 17.06.2019
6018 Clouds 19 1017 77 14484 3.6 30 18:39 17.06.2019
6019 Clouds 18 1017 77 14484 4.1 10 18:18 17.06.2019
6020 Mist 17 1017 100 6437 3.1 20 17:48 17.06.2019
6021 Mist 17 1017 100 6437 3.1 20 17:48 17.06.2019
6022 Mist 17 1017 100 6437 3.1 20 17:29 17.06.2019
6023 Fog 16 1016 82 12874 4.1 360 16:56 17.06.2019
6024 Fog 16 1016 100 4023 3.1 10 16:38 17.06.2019
6025 Fog 15 1016 100 4023 3.1 10 16:20 17.06.2019
6026 Fog 15 1016 100 1207 2.03 45.279 15:43 17.06.2019
6027 Mist 14 1016 100 1207 1.93 21.061 15:20 17.06.2019
6028 Mist 14 1016 100 4023 1.93 21.061 14:56 17.06.2019
6029 Mist 14 1016 87 16093 3.6 10 14:36 17.06.2019
6030 Mist 14 1016 87 16093 3.6 10 14:36 17.06.2019
6031 Mist 13 1015 100 3219 1.93 21.061 14:18 17.06.2019
6032 Mist 13 1015 100 4828 1.5 10 13:40 17.06.2019
6033 Mist 13 1015 100 4828 1.5 10 13:20 17.06.2019
6034 Mist 13 1014 100 3219 2.34 12.765 12:40 17.06.2019
6035 Mist 13 1014 100 3219 2.34 62.845 12:19 17.06.2019
6036 Mist 13 1014 100 3219 2.34 62.845 12:19 17.06.2019
6037 Fog 13 1014 100 1609 2.34 62.845 11:43 17.06.2019
6038 Fog 13 1014 100 1609 2.34 62.845 11:25 17.06.2019
6039 Mist 13 1014 100 1207 2.34 62.845 10:47 17.06.2019
6040 Mist 13 1014 100 4828 2.34 62.845 10:29 17.06.2019
6041 Fog 13 1014 87 16093 3.6 40 09:56 17.06.2019
6042 Fog 13 1014 100 8047 2.34 62.845 09:34 17.06.2019
6043 Mist 13 1014 93 16093 3.1 30 08:55 17.06.2019
6044 Mist 13 1014 100 4828 2.79 36.029 08:36 17.06.2019
6045 Mist 13 1014 100 4828 2.79 36.029 08:18 17.06.2019
6046 Mist 13 1014 100 8047 2.79 36.029 07:38 17.06.2019
6047 Mist 13 1014 82 16093 3.1 10 07:18 17.06.2019
6048 Mist 13 1014 100 11265 2.54 43.787 06:22 17.06.2019
6049 Mist 13 1015 71 16093 1.5 10 05:29 17.06.2019
6050 Rain 14 1014 76 16093 2.6 10 04:32 17.06.2019
6051 Mist 14 1013 100 11265 3.6 10 03:32 17.06.2019
6052 Fog 14 1012 100 16093 1.5 10 02:46 17.06.2019
6053 Fog 14 1013 82 16093 3.1 20 02:28 17.06.2019
6054 Rain 14 1013 82 16093 5.1 20 01:36 17.06.2019
6055 Rain 15 1013 87 16093 5.7 30 00:58 17.06.2019
6056 Mist 15 1012 87 16093 4.6 40 00:38 17.06.2019
6057 Mist 15 1012 87 16093 4.6 40 00:19 17.06.2019
6058 Rain 16 1012 87 16093 2.1 30 23:39 16.06.2019
6059 Rain 16 1012 87 16093 2.1 30 23:20 16.06.2019
6060 Mist 17 1011 87 16093 3.1 40 22:45 16.06.2019
6061 Mist 17 1011 87 16093 3.1 40 22:20 16.06.2019
6062 Mist 17 1012 87 16093 5.7 30 21:58 16.06.2019
6063 Rain 17 1011 77 16093 4.1 20 21:40 16.06.2019
6064 Rain 16 1011 77 16093 4.1 20 21:21 16.06.2019
6065 Mist 16 1012 87 16093 5.1 20 20:54 16.06.2019
6066 Mist 16 1011 93 6437 4.32 9.275 20:36 16.06.2019
6067 Mist 16 1011 87 9656 6.7 30 20:18 16.06.2019
6068 Mist 16 1011 77 16093 2.6 360 19:39 16.06.2019
6069 Mist 16 1011 77 16093 2.6 360 19:21 16.06.2019
6070 Mist 16 1011 100 4023 2.1 50 19:21 16.06.2019
6071 Mist 16 1011 87 4023 4.1 30 18:57 16.06.2019
6072 Rain 16 1011 100 4828 4.32 9.275 18:36 16.06.2019
6073 Rain 16 1011 93 4023 4.1 30 18:18 16.06.2019
6074 Mist 16 1011 93 3219 4.6 30 17:42 16.06.2019
6075 Mist 16 1011 93 3219 4.6 30 17:21 16.06.2019
6076 Mist 15 1009 100 4828 1.5 310 16:56 16.06.2019
6077 Mist 15 1009 100 1609 4.1 30 16:38 16.06.2019
6078 Mist 15 1009 100 1609 2.83 2.191 16:19 16.06.2019
6079 Mist 15 1009 100 805 2.83 2.191 15:41 16.06.2019
6080 Mist 15 1009 100 805 2.83 2.191 15:41 16.06.2019
6081 Mist 15 1009 100 805 2.09 41.302 15:23 16.06.2019
6082 Rain 15 1009 100 402 2.09 41.302 14:42 16.06.2019
6083 Rain 14 1009 100 402 2.09 41.302 14:23 16.06.2019
6084 Rain 14 1008 100 3219 2.09 41.302 13:51 16.06.2019
6085 Mist 14 1008 100 402 2.09 41.302 13:26 16.06.2019
6086 Mist 14 1007 100 1609 3.6 10 12:57 16.06.2019
6087 Mist 14 1007 100 1609 3.6 10 12:57 16.06.2019
6088 Rain 14 1007 100 1207 2.24 47.37 12:38 16.06.2019
6089 Rain 14 1007 100 1207 2.06 49.76 12:18 16.06.2019
6090 Rain 14 1007 93 1207 2.6 360 11:40 16.06.2019
6091 Rain 14 1006 100 6437 2.06 49.76 11:19 16.06.2019
6092 Rain 14 1007 100 4828 2.06 49.76 10:45 16.06.2019
6093 Rain 14 1007 100 4828 2.06 49.76 10:21 16.06.2019
6094 Rain 14 1007 100 8047 2.1 350 09:48 16.06.2019
6095 Rain 14 1006 100 2816 3.6 20 09:26 16.06.2019
6096 Rain 14 1007 100 805 3.1 30 08:56 16.06.2019
6097 Rain 14 1008 93 2816 1.5 20 08:38 16.06.2019
6098 Rain 14 1007 100 2012 3.59 55.819 08:18 16.06.2019
6099 Rain 14 1008 93 4023 2.1 30 07:42 16.06.2019
6100 Rain 14 1008 93 6437 4.1 40 06:57 16.06.2019
6101 Mist 14 1009 100 2414 3.59 55.819 06:30 16.06.2019
6102 Rain 16 1009 100 3219 3.1 40 05:40 16.06.2019
6103 Mist 16 1008 100 4023 3.6 10 04:36 16.06.2019
6104 Mist 17 1008 93 4828 5.1 360 03:53 16.06.2019
6105 Rain 18 1008 100 4828 2.14 63.854 03:30 16.06.2019
6106 Rain 20 1008 93 12874 1.5 120 01:59 16.06.2019
6107 Rain 20 1007 94 6437 1.5 170 01:40 16.06.2019
6108 Rain 20 1007 94 6437 1.5 170 01:21 16.06.2019
6109 Rain 20 1008 100 11265 1.01 46.6 00:39 16.06.2019
6110 Rain 20 1008 88 12874 2.6 160 00:19 16.06.2019
6111 Rain 20 1008 94 9656 2.6 120 23:42 15.06.2019
6112 Rain 20 1008 94 9656 2.6 120 23:22 15.06.2019
6113 Rain 20 1008 94 11265 2.1 130 22:49 15.06.2019
6114 Rain 19 1009 100 11265 1.35 208.631 22:26 15.06.2019
6115 Rain 19 1008 100 16093 3.1 180 21:47 15.06.2019
6116 Rain 19 1008 100 11265 2.6 190 21:29 15.06.2019
6117 Rain 19 1009 82 9656 2.6 200 20:56 15.06.2019
6118 Rain 19 1009 100 16093 4.1 200 20:36 15.06.2019
6119 Rain 19 1009 100 16093 4.1 200 20:18 15.06.2019
6120 Rain 19 1009 88 16093 3.6 200 19:40 15.06.2019
6121 Rain 19 1009 88 16093 3.6 200 19:22 15.06.2019
6122 Rain 20 1010 88 16093 7.7 210 18:39 15.06.2019
6123 Rain 20 1010 88 16093 7.7 210 18:20 15.06.2019
6124 Rain 21 1009 82 16093 6.2 220 17:43 15.06.2019
6125 Rain 21 1009 82 16093 6.2 220 17:43 15.06.2019
6126 Rain 20 1010 82 16093 5.1 200 17:21 15.06.2019
6127 Drizzle 20 1010 82 16093 6.7 200 16:46 15.06.2019
6128 Drizzle 20 1010 82 16093 6.7 200 16:19 15.06.2019
6129 Clouds 19 1010 82 16093 5.7 210 15:43 15.06.2019
6130 Clouds 19 1010 82 16093 5.7 210 15:23 15.06.2019
6131 Clouds 19 1010 77 16093 5.7 210 14:42 15.06.2019
6132 Clouds 18 1009 72 16093 5.1 200 14:19 15.06.2019
6133 Clouds 18 1009 72 16093 5.1 200 13:56 15.06.2019
6134 Clouds 18 1010 82 16093 6.2 210 13:38 15.06.2019
6135 Clouds 18 1010 82 16093 6.2 210 13:38 15.06.2019
6136 Clouds 18 1008 72 16093 4.6 200 13:18 15.06.2019
6137 Clouds 18 1010 82 16093 5.7 210 12:44 15.06.2019
6138 Clouds 18 1010 82 16093 5.7 210 12:23 15.06.2019
6139 Clouds 18 1010 77 16093 5.7 210 11:49 15.06.2019
6140 Clouds 18 1010 77 16093 6.2 210 11:30 15.06.2019
6141 Rain 18 1010 77 16093 5.7 210 10:46 15.06.2019
6142 Rain 17 1011 72 16093 7.2 210 10:25 15.06.2019
6143 Clouds 17 1011 72 16093 6.7 200 09:48 15.06.2019
6144 Clouds 17 1011 72 16093 6.7 200 09:28 15.06.2019
6145 Clouds 17 1011 77 16093 6.7 200 08:56 15.06.2019
6146 Rain 17 1011 77 16093 4.6 190 08:38 15.06.2019
6147 Rain 17 1011 77 16093 4.6 190 08:18 15.06.2019
6148 Rain 17 1012 77 16093 3.6 190 07:26 15.06.2019
6149 Rain 16 1012 88 16093 2.1 200 06:49 15.06.2019
6150 Rain 16 1013 82 16093 2.1 210 06:29 15.06.2019
6151 Rain 16 1014 68 16093 8.7 220 05:40 15.06.2019
6152 Rain 17 1013 63 16093 6.7 210 04:59 15.06.2019
6153 Rain 17 1013 63 16093 6.7 210 04:59 15.06.2019
6154 Rain 19 1012 56 16093 7.2 210 04:29 15.06.2019
6155 Clouds 22 1012 46 16093 8.7 220 03:33 15.06.2019
6156 Clouds 22 1012 46 16093 8.7 220 03:33 15.06.2019
6157 Clouds 23 1012 38 16093 8.7 210 02:37 15.06.2019
6158 Clouds 23 1012 36 16093 8.7 220 01:58 15.06.2019
6159 Clouds 25 1012 36 16093 10.3 210 01:24 15.06.2019
6160 Clouds 26 1012 36 16093 8.2 220 00:42 15.06.2019
6161 Clouds 26 1012 36 16093 8.2 220 00:24 15.06.2019
6162 Clear 26 1012 38 16093 10.3 210 23:50 14.06.2019
6163 Clear 26 1012 41 16093 7.7 210 23:20 14.06.2019
6164 Clear 26 1013 41 16093 7.2 210 22:42 14.06.2019
6165 Clear 25 1013 41 16093 7.2 210 22:21 14.06.2019
6166 Clear 25 1014 41 16093 6.2 210 21:49 14.06.2019
6167 Clear 25 1014 41 16093 7.7 230 21:28 14.06.2019
6168 Clear 25 1015 41 16093 8.2 210 20:57 14.06.2019
6169 Clear 25 1015 41 16093 9.3 220 20:38 14.06.2019
6170 Clear 25 1015 41 16093 9.3 220 20:18 14.06.2019
6171 Clear 24 1016 41 16093 7.7 220 19:41 14.06.2019
6172 Clear 24 1016 41 16093 7.7 220 19:22 14.06.2019
6173 Clouds 24 1015 38 16093 8.7 220 18:54 14.06.2019
6174 Clouds 24 1015 44 16093 2.6 230 18:54 14.06.2019
6175 Clear 23 1017 43 16093 6.7 220 18:36 14.06.2019
6176 Clear 23 1017 43 16093 6.7 220 18:18 14.06.2019
6177 Clouds 22 1017 49 16093 6.7 230 17:44 14.06.2019
6178 Clouds 21 1017 49 16093 6.7 230 17:23 14.06.2019
6179 Clouds 20 1018 52 16093 6.2 210 16:50 14.06.2019
6180 Clear 19 1018 52 16093 5.1 210 16:24 14.06.2019
6181 Clear 19 1018 52 16093 5.1 210 16:24 14.06.2019
6182 Clear 19 1018 52 16093 5.1 210 16:24 14.06.2019
6183 Clear 18 1018 55 16093 4.6 220 15:59 14.06.2019
6184 Clear 18 1018 55 16093 4.6 220 15:59 14.06.2019
6185 Clear 17 1019 59 16093 3.1 210 15:39 14.06.2019
6186 Clear 16 1019 59 16093 3.1 210 15:20 14.06.2019
6187 Clear 15 1018 71 16093 3.1 210 14:47 14.06.2019
6188 Clear 14 1018 76 16093 2.6 220 14:29 14.06.2019
6189 Clouds 12 1017 71 16093 3.1 200 13:47 14.06.2019
6190 Clear 11 1018 87 16093 4.17 221.889 13:29 14.06.2019
6191 Clouds 9 1017 71 16093 3.1 210 12:59 14.06.2019
6192 Clouds 9 1017 71 16093 3.1 210 12:59 14.06.2019
6193 Clouds 9 1017 71 16093 3.1 210 12:59 14.06.2019
6194 Clear 9 1018 87 16093 4.17 221.889 12:39 14.06.2019
6195 Clear 9 1018 87 16093 4.17 221.889 12:39 14.06.2019
6196 Clear 9 1018 87 16093 3.71 243.987 12:21 14.06.2019
6197 Clear 9 1018 87 16093 3.71 243.987 12:21 14.06.2019
6198 Clear 10 1018 93 16093 3.71 243.987 11:42 14.06.2019
6199 Clear 10 1018 93 16093 3.71 243.987 11:23 14.06.2019
6200 Clear 10 1017 93 16093 1.5 210 10:48 14.06.2019
6201 Clear 10 1017 93 16093 3.71 243.987 10:22 14.06.2019
6202 Clear 10 1017 87 16093 3.71 243.987 09:55 14.06.2019
6203 Clear 10 1017 87 16093 2.62 280.189 09:34 14.06.2019
6204 Clear 11 1017 71 16093 1.5 220 08:49 14.06.2019
6205 Clear 12 1017 62 16093 2.6 250 08:21 14.06.2019
6206 Clear 12 1017 62 16093 2.6 250 08:21 14.06.2019
6207 Clear 12 1017 71 16093 2.1 220 07:58 14.06.2019
6208 Clear 12 1017 87 16093 4.21 293.581 07:39 14.06.2019
6209 Clear 12 1017 87 16093 4.21 293.581 07:18 14.06.2019
6210 Clear 13 1017 87 16093 4.35 287.528 06:27 14.06.2019
6211 Clear 13 1017 76 16093 1.5 210 05:49 14.06.2019
6212 Clear 14 1016 71 16093 4.35 287.528 04:55 14.06.2019
6213 Clear 14 1016 87 16093 4.35 287.528 04:28 14.06.2019
6214 Clear 17 1016 67 16093 4.35 287.528 03:41 14.06.2019
6215 Clouds 18 1016 34 16093 4.6 310 03:22 14.06.2019
6216 Clouds 19 1015 34 16093 5.1 310 02:41 14.06.2019
6217 Clouds 19 1015 32 16093 5.1 300 01:53 14.06.2019
6218 Clouds 19 1016 55 16093 4.1 20 00:41 14.06.2019
6219 Clouds 19 1016 55 16093 4.1 20 00:22 14.06.2019
6220 Clouds 19 1015 59 16093 3.1 50 23:50 13.06.2019
6221 Clouds 19 1015 59 16093 3.1 50 23:50 13.06.2019
6222 Clouds 19 1015 59 16093 4.1 20 23:26 13.06.2019
6223 -273 0 0 0 0 0 22:57 13.06.2019
6224 Clouds 19 1014 52 16093 3.6 10 22:37 13.06.2019
6225 Clouds 19 1014 40 16093 7.2 340 22:18 13.06.2019
6226 Clouds 18 1014 59 16093 6.7 20 21:38 13.06.2019
6227 Clouds 18 1014 42 16093 6.2 330 21:19 13.06.2019
6228 Clouds 18 1014 55 16093 8.2 300 20:45 13.06.2019
6229 Rain 17 1014 63 16093 5.7 330 20:20 13.06.2019
6230 Rain 17 1013 67 16093 7.7 300 19:55 13.06.2019
6231 Rain 17 1013 67 16093 5.1 330 19:36 13.06.2019
6232 Rain 16 1013 59 16093 7.2 330 19:18 13.06.2019
6233 Rain 15 1012 76 16093 5.7 320 18:42 13.06.2019
6234 Rain 15 1012 76 16093 5.7 320 18:23 13.06.2019
6235 Rain 14 1012 62 16093 7.7 330 17:56 13.06.2019
6236 Rain 14 1012 62 16093 7.2 330 17:36 13.06.2019
6237 Rain 14 1011 81 16093 4.6 330 17:18 13.06.2019
6238 Rain 13 1011 76 16093 5.7 310 16:41 13.06.2019
6239 Rain 13 1011 81 16093 4.1 330 16:20 13.06.2019
6240 Rain 12 1010 81 16093 5.7 330 15:43 13.06.2019
6241 Rain 12 1010 81 16093 5.7 330 15:24 13.06.2019
6242 Rain 12 1011 71 16093 6.2 320 14:54 13.06.2019
6243 Rain 12 1010 76 16093 8.2 320 14:31 13.06.2019
6244 Rain 12 1009 76 16093 8.7 320 13:59 13.06.2019
6245 Rain 11 1008 87 16093 6.7 320 13:39 13.06.2019
6246 Rain 11 1008 87 16093 6.7 320 13:21 13.06.2019
6247 Rain 11 1008 87 16093 9.3 330 12:42 13.06.2019
6248 Rain 11 1008 87 16093 9.3 330 12:22 13.06.2019
6249 Rain 11 1007 87 16093 5.1 330 11:47 13.06.2019
6250 Rain 11 1007 87 16093 6.7 330 11:29 13.06.2019
6251 Rain 11 1007 93 16093 10.8 310 10:55 13.06.2019
6252 Rain 11 1007 100 16093 5.7 310 10:37 13.06.2019
6253 Rain 11 1007 100 16093 5.7 310 10:18 13.06.2019
6254 Rain 11 1006 100 16093 4.1 320 09:42 13.06.2019
6255 Rain 11 1006 100 16093 4.1 320 09:22 13.06.2019
6256 Rain 12 1007 93 16093 8.7 320 08:44 13.06.2019
6257 Rain 12 1006 100 11265 3.6 280 08:23 13.06.2019
6258 Rain 12 1007 87 16093 8.2 330 07:52 13.06.2019
6259 Rain 13 1007 100 12874 3.1 280 07:25 13.06.2019
6260 Rain 13 1008 100 16093 2.69 48.086 06:47 13.06.2019
6261 Rain 14 1008 100 4828 4.1 250 06:23 13.06.2019
6262 Rain 14 1008 87 12874 3.1 310 05:55 13.06.2019
6263 Rain 14 1008 87 4828 2.6 310 05:36 13.06.2019
6264 Rain 14 1008 100 12874 3.1 190 04:57 13.06.2019
6265 Rain 16 1009 77 16093 2.6 170 02:26 13.06.2019
6266 Rain 16 1009 72 16093 1.5 220 00:55 13.06.2019
6267 Rain 16 1010 63 16093 2.79 244.886 00:22 13.06.2019
6268 Rain 16 1010 72 16093 3.1 260 23:24 12.06.2019
6269 Rain 16 1011 93 16093 1.5 270 22:45 12.06.2019
6270 Rain 16 1011 87 9656 5.1 260 22:26 12.06.2019
6271 Rain 17 1012 82 8047 8.7 160 21:57 12.06.2019
6272 Rain 17 1012 56 16093 5.7 280 21:38 12.06.2019
6273 Rain 18 1012 56 16093 5.7 280 21:18 12.06.2019
6274 Rain 20 1012 49 16093 4.1 220 20:38 12.06.2019
6275 Rain 20 1012 49 16093 4.1 220 20:20 12.06.2019
6276 Rain 21 1012 43 16093 5.7 170 19:42 12.06.2019
6277 Rain 21 1012 43 16093 5.7 170 19:23 12.06.2019
6278 Clouds 21 1012 52 16093 6.2 260 18:57 12.06.2019
6279 Rain 21 1013 46 16093 7.2 170 18:39 12.06.2019
6280 Rain 21 1013 46 16093 7.2 170 18:19 12.06.2019
6281 Clouds 21 1013 49 16093 5.1 180 17:44 12.06.2019
6282 Clouds 21 1014 49 16093 6.7 190 17:21 12.06.2019
6283 Clouds 21 1014 52 16093 6.2 190 16:42 12.06.2019
6284 Clouds 21 1014 52 16093 6.2 190 16:23 12.06.2019
6285 Clear 20 1015 52 16093 5.1 200 15:54 12.06.2019
6286 Clear 20 1015 56 16093 5.7 190 15:32 12.06.2019
6287 Rain 19 1015 63 16093 3.6 200 14:50 12.06.2019
6288 Rain 19 1015 67 16093 4.6 190 14:29 12.06.2019
6289 Clouds 18 1015 63 16093 3.1 200 13:55 12.06.2019
6290 Clouds 18 1015 63 16093 3.6 190 13:36 12.06.2019
6291 Rain 18 1014 48 16093 2.6 180 13:18 12.06.2019
6292 Rain 19 1016 63 16093 3.1 190 12:39 12.06.2019
6293 Clear 19 1016 63 16093 3.1 190 12:19 12.06.2019
6294 Clouds 19 1015 56 16093 3.1 190 11:47 12.06.2019
6295 Clouds 19 1015 56 16093 3.1 190 11:47 12.06.2019
6296 Clouds 19 1015 45 16093 5.1 190 11:29 12.06.2019
6297 Clear 19 1016 45 16093 3.1 180 10:54 12.06.2019
6298 Clear 19 1016 59 16093 3.6 180 10:35 12.06.2019
6299 Clouds 19 1017 45 16093 3.1 180 09:58 12.06.2019
6300 Clouds 19 1016 43 16093 5.1 190 09:40 12.06.2019
6301 Clouds 19 1017 42 16093 2.1 180 09:18 12.06.2019
6302 Clear 19 1017 59 16093 3.1 190 08:26 12.06.2019
6303 Clear 19 1017 35 16093 3.6 170 07:52 12.06.2019
6304 Clouds 19 1016 40 16093 4.1 170 06:55 12.06.2019
6305 Clear 19 1017 45 16093 2.6 150 06:29 12.06.2019
6306 Clear 19 1018 40 16093 3.6 150 05:25 12.06.2019
6307 Clouds 24 1017 36 16093 3.1 150 02:20 12.06.2019
6308 Clear 25 1018 34 16093 3.6 160 00:41 12.06.2019
6309 Clouds 26 1019 34 16093 2.1 190 23:53 11.06.2019
6310 Clouds 26 1019 34 16093 3.6 150 23:35 11.06.2019
6311 Clouds 27 1019 28 16093 2.6 240 22:45 11.06.2019
6312 Clouds 27 1020 36 16093 2.6 150 22:24 11.06.2019
6313 Clouds 27 1019 24 16093 5.1 190 21:59 11.06.2019
6314 Clouds 27 1020 34 16093 3.1 110 21:40 11.06.2019
6315 Clouds 27 1020 34 16093 3.1 110 21:22 11.06.2019
6316 Clear 27 1021 31 16093 3.35 229.536 20:50 11.06.2019
6317 Clear 27 1021 34 16093 2.1 200 20:28 11.06.2019
6318 Clouds 27 1021 26 16093 3.35 229.536 19:59 11.06.2019
6319 Clear 27 1022 36 16093 1.5 140 19:40 11.06.2019
6320 Clear 26 1022 36 16093 1.5 140 19:22 11.06.2019
6321 Clear 26 1022 41 16093 3.1 220 18:41 11.06.2019
6322 Clear 25 1022 41 16093 3.1 220 18:19 11.06.2019
6323 Clear 24 1023 44 16093 4.1 240 17:41 11.06.2019
6324 Clear 24 1023 44 16093 4.1 240 17:20 11.06.2019
6325 Clear 23 1023 49 16093 3.6 210 16:43 11.06.2019
6326 Clear 22 1023 49 16093 3.6 210 16:23 11.06.2019
6327 Clouds 21 1023 40 32186 3.6 210 15:43 11.06.2019
6328 Clear 19 1023 59 16093 2.6 220 15:25 11.06.2019
6329 Clear 18 1023 67 16093 2.81 216.67 14:56 11.06.2019
6330 Clear 17 1023 72 16093 1.5 200 14:38 11.06.2019
6331 Clear 16 1023 63 16093 1.5 230 14:19 11.06.2019
6332 Clear 14 1023 82 16093 2.81 216.67 13:42 11.06.2019
6333 Clear 13 1023 82 16093 2.81 216.67 13:21 11.06.2019
6334 Clear 12 1022 87 16093 3.04 220.415 12:42 11.06.2019
6335 Clear 12 1022 87 16093 1.87 212.584 12:22 11.06.2019
6336 Clear 12 1022 81 16093 1.87 212.584 11:56 11.06.2019
6337 Clear 12 1022 81 16093 1.5 200 11:32 11.06.2019
6338 Clear 13 1022 67 16093 1.87 212.584 10:51 11.06.2019
6339 Clear 13 1022 67 16093 1.87 212.584 10:51 11.06.2019
6340 Clear 13 1022 81 16093 2.1 190 10:27 11.06.2019
6341 Clear 13 1022 81 16093 2.1 190 10:27 11.06.2019
6342 Clear 12 1022 76 16093 1.87 212.584 09:51 11.06.2019
6343 Clear 12 1022 81 16093 1.5 210 09:26 11.06.2019
6344 Clear 13 1022 100 16093 0.93 296.233 08:59 11.06.2019
6345 Clear 13 1022 87 16093 0.93 296.233 08:40 11.06.2019
6346 Clear 13 1022 87 16093 0.93 296.233 08:20 11.06.2019
6347 Clear 13 1022 93 16093 1.5 230 07:34 11.06.2019
6348 Clear 14 1021 55 16093 2.1 190 06:53 11.06.2019
6349 Clear 16 1022 71 16093 3.14 323.397 05:21 11.06.2019
6350 Clear 17 1021 63 16093 1.5 140 04:38 11.06.2019
6351 Clouds 22 1020 31 16093 6.7 330 02:26 11.06.2019
6352 Clear 23 1020 46 16093 3.6 20 00:52 11.06.2019
6353 Clear 23 1020 40 16093 4.1 10 00:26 11.06.2019
6354 Clear 23 1020 49 16093 4.1 50 23:45 10.06.2019
6355 Clear 23 1020 49 16093 4.1 50 23:21 10.06.2019
6356 Clear 23 1020 46 16093 3.6 30 22:45 10.06.2019
6357 Clear 23 1020 46 16093 3.6 30 22:27 10.06.2019
6358 Clear 23 1020 31 16093 7.7 320 21:56 10.06.2019
6359 Clear 23 1020 46 16093 5.1 10 21:38 10.06.2019
6360 Clear 23 1020 46 16093 5.1 10 21:19 10.06.2019
6361 Clear 22 1020 52 16093 2.6 20 20:42 10.06.2019
6362 Clear 22 1020 52 16093 2.6 20 20:21 10.06.2019
6363 Clouds 22 1020 49 16093 5.1 340 19:44 10.06.2019
6364 Clouds 21 1020 49 16093 5.1 340 19:23 10.06.2019
6365 Clouds 21 1019 40 16093 8.7 340 18:57 10.06.2019
6366 Clear 21 1019 52 16093 6.7 320 18:39 10.06.2019
6367 Clear 20 1019 52 16093 6.7 320 18:20 10.06.2019
6368 Clear 19 1019 55 16093 7.2 340 17:44 10.06.2019
6369 Clear 19 1019 55 16093 7.2 340 17:24 10.06.2019
6370 Clouds 19 1019 68 16093 5.7 320 16:49 10.06.2019
6371 Clouds 18 1019 72 16093 3.6 320 16:30 10.06.2019
6372 Clear 17 1019 55 16093 7.2 340 15:59 10.06.2019
6373 Clouds 17 1018 72 16093 3.6 330 15:40 10.06.2019
6374 Clouds 16 1018 72 16093 3.6 330 15:22 10.06.2019
6375 Clouds 16 1017 82 16093 5.7 340 14:45 10.06.2019
6376 Clouds 16 1017 82 16093 5.7 340 14:25 10.06.2019
6377 Clouds 16 1016 88 16093 5.1 330 13:47 10.06.2019
6378 Clouds 16 1016 88 16093 5.1 330 13:28 10.06.2019
6379 Clouds 17 1015 100 16093 4.1 330 12:55 10.06.2019
6380 Clouds 17 1015 100 16093 5.1 330 12:32 10.06.2019
6381 Mist 17 1015 77 16093 5.7 310 11:59 10.06.2019
6382 Mist 17 1014 82 16093 8.7 330 11:39 10.06.2019
6383 Mist 18 1014 82 16093 8.7 330 11:19 10.06.2019
6384 Mist 18 1014 100 805 2.6 290 10:41 10.06.2019
6385 Mist 18 1014 100 805 2.6 290 10:19 10.06.2019
6386 Mist 18 1013 100 402 1.5 270 09:52 10.06.2019
6387 Mist 18 1013 100 8047 2.1 310 09:29 10.06.2019
6388 Mist 18 1014 100 805 2.46 308.94 08:50 10.06.2019
6389 Mist 18 1014 100 2012 2.46 308.94 08:27 10.06.2019
6390 Mist 18 1014 100 805 2.46 308.94 07:46 10.06.2019
6391 Mist 19 1014 100 2012 1.5 40 04:44 10.06.2019
6392 Mist 21 1014 88 11265 2.6 110 03:29 10.06.2019
6393 Mist 22 1014 83 14484 3.1 90 01:56 10.06.2019
6394 Mist 22 1014 100 4023 1.5 20 01:23 10.06.2019
6395 Rain 22 1014 100 4023 2.1 10 00:47 10.06.2019
6396 Mist 23 1014 100 6437 2.1 30 23:49 09.06.2019
6397 Mist 23 1014 100 11265 1.5 10 23:25 09.06.2019
6398 Rain 23 1014 83 11265 2.1 80 22:59 09.06.2019
6399 Mist 23 1014 73 16093 2.1 90 22:39 09.06.2019
6400 Mist 23 1014 73 16093 2.1 90 22:21 09.06.2019
6401 Rain 23 1014 100 16093 3.44 79.55 21:39 09.06.2019
6402 Rain 23 1014 100 16093 2.27 74.619 21:21 09.06.2019
6403 Rain 23 1014 94 11265 2.27 74.619 20:42 09.06.2019
6404 Rain 23 1014 94 11265 2.27 74.619 20:22 09.06.2019
6405 Rain 23 1014 69 16093 1.5 70 19:46 09.06.2019
6406 Rain 23 1015 100 11265 2.6 100 19:46 09.06.2019
6407 Rain 22 1015 73 16093 1.5 100 19:19 09.06.2019
6408 Rain 22 1015 73 16093 1.5 100 18:56 09.06.2019
6409 Rain 22 1015 73 16093 2.6 130 18:37 09.06.2019
6410 Rain 22 1015 100 4828 2.1 90 18:19 09.06.2019
6411 Rain 21 1015 100 4828 2.05 76.235 17:43 09.06.2019
6412 Rain 21 1015 100 4828 2.05 76.235 17:23 09.06.2019
6413 Clouds 20 1015 82 16093 2.05 76.235 16:41 09.06.2019
6414 Clouds 20 1015 82 16093 2.05 76.235 16:21 09.06.2019
6415 Clouds 19 1015 64 16093 3.6 60 15:56 09.06.2019
6416 Clouds 19 1015 77 16093 2.05 76.235 15:38 09.06.2019
6417 Clouds 19 1015 77 16093 2.76 62.905 15:20 09.06.2019
6418 Clouds 18 1015 88 16093 2.1 20 14:42 09.06.2019
6419 Clouds 18 1015 88 16093 2.1 20 14:21 09.06.2019
6420 Clouds 18 1015 82 16093 2.1 30 13:50 09.06.2019
6421 Clouds 18 1014 82 16093 2.1 20 13:19 09.06.2019
6422 Clouds 18 1014 82 16093 2.6 30 12:40 09.06.2019
6423 Clouds 18 1014 82 16093 2.6 30 12:21 09.06.2019
6424 Clouds 19 1014 77 16093 3.1 40 11:39 09.06.2019
6425 Rain 19 1014 77 16093 3.1 40 11:21 09.06.2019
6426 Rain 19 1014 82 16093 2.6 60 10:45 09.06.2019
6427 Rain 19 1014 72 16093 3.1 50 10:23 09.06.2019
6428 Clouds 20 1014 68 16093 2.1 40 09:41 09.06.2019
6429 Clouds 20 1014 68 16093 2.1 40 09:41 09.06.2019
6430 Clouds 20 1014 68 16093 2.1 40 09:41 09.06.2019
6431 Clouds 20 1014 68 16093 2.1 40 09:41 09.06.2019
6432 Clouds 20 1014 68 16093 2.1 40 09:22 09.06.2019
6433 Rain 20 1015 68 16093 2.6 30 08:47 09.06.2019
6434 Rain 20 1014 73 16093 2.6 100 08:28 09.06.2019
6435 Rain 20 1014 68 16093 2.1 80 07:21 09.06.2019
6436 Rain 20 1014 64 16093 3.6 100 06:30 09.06.2019
6437 Drizzle 21 1014 60 16093 4.6 90 04:59 09.06.2019
6438 Drizzle 22 1014 72 16093 2.1 20 01:39 09.06.2019
6439 Drizzle 23 1014 72 16093 2.1 20 01:21 09.06.2019
6440 Rain 23 1015 53 16093 4.6 40 01:21 09.06.2019
6441 Rain 23 1015 53 16093 4.6 40 00:59 09.06.2019
6442 Clear 24 1014 60 16093 3.1 20 23:45 08.06.2019
6443 Clear 24 1014 60 16093 3.1 20 23:25 08.06.2019
6444 Clear 24 1016 49 16093 3.1 60 22:58 08.06.2019
6445 Clear 24 1015 64 16093 4.1 40 22:40 08.06.2019
6446 Clear 24 1015 64 16093 4.1 40 22:19 08.06.2019
6447 Clear 24 1015 64 16093 4.1 40 22:19 08.06.2019
6448 Clear 24 1015 64 16093 4.1 40 22:19 08.06.2019
6449 Clear 24 1015 69 16093 4.1 20 21:51 08.06.2019
6450 Clear 24 1015 69 16093 4.1 20 21:51 08.06.2019
6451 Clear 24 1015 64 16093 4.1 30 21:27 08.06.2019
6452 Clear 24 1015 64 16093 3.1 20 20:58 08.06.2019
6453 Clear 24 1015 60 16093 4.1 30 20:40 08.06.2019
6454 Clear 24 1015 60 16093 4.1 30 20:19 08.06.2019
6455 Clear 24 1016 64 16093 3.1 40 19:40 08.06.2019
6456 Clear 24 1016 64 16093 3.1 40 19:20 08.06.2019
6457 Clouds 24 1016 49 16093 4.6 70 18:56 08.06.2019
6458 Clear 24 1016 72 16093 3.6 30 18:35 08.06.2019
6459 Clouds 23 1016 53 16093 5.1 50 17:57 08.06.2019
6460 Clouds 23 1016 52 16093 5.7 60 17:38 08.06.2019
6461 Clouds 22 1016 52 16093 5.7 60 17:18 08.06.2019
6462 Clear 22 1016 72 16093 4.05 74.397 16:38 08.06.2019
6463 Clear 21 1016 72 16093 4.05 74.397 16:18 08.06.2019
6464 Clear 21 1016 68 16093 2.6 60 15:37 08.06.2019
6465 Clear 19 1016 68 16093 2.6 60 14:53 08.06.2019
6466 Clear 18 1016 77 16093 2.6 60 14:31 08.06.2019
6467 Clear 17 1015 77 16093 3.48 76.239 13:56 08.06.2019
6468 Clear 16 1015 82 16093 3.48 76.239 13:24 08.06.2019
6469 Clear 15 1016 77 16093 2.1 60 12:45 08.06.2019
6470 Clouds 15 1015 67 16093 3.1 70 12:19 08.06.2019
6471 Clear 15 1015 87 16093 3.19 85.043 11:40 08.06.2019
6472 Clear 15 1015 87 16093 3.19 85.043 11:21 08.06.2019
6473 Clear 15 1015 93 16093 3.19 85.043 10:44 08.06.2019
6474 Clear 15 1015 93 16093 3.19 85.043 10:22 08.06.2019
6475 Mist 15 1015 100 16093 3.19 85.043 09:43 08.06.2019
6476 Mist 15 1015 100 8047 3.01 66.669 08:59 08.06.2019
6477 Clear 15 1015 93 16093 3.01 66.669 08:28 08.06.2019
6478 Clear 16 1016 100 16093 3.01 66.669 07:47 08.06.2019
6479 Clear 16 1016 93 16093 3.88 86.81 06:48 08.06.2019
6480 Clear 18 1015 87 16093 3.97 54.653 04:19 08.06.2019
6481 Clouds 24 1014 57 16093 6.2 40 02:21 08.06.2019
6482 Clouds 26 1014 53 16093 6.2 40 00:58 08.06.2019
6483 Clear 26 1014 68 16093 6.7 40 00:24 08.06.2019
6484 Clouds 26 1014 54 16093 6.7 50 23:41 07.06.2019
6485 Clouds 26 1014 54 16093 6.7 50 23:19 07.06.2019
6486 Clear 26 1014 69 16093 4.6 20 22:36 07.06.2019
6487 Clear 26 1015 69 16093 4.1 40 21:58 07.06.2019
6488 Clouds 26 1014 54 16093 5.7 80 21:40 07.06.2019
6489 Clear 26 1014 73 16093 6.7 40 21:21 07.06.2019
6490 Clear 25 1015 69 16093 5.1 30 20:54 07.06.2019
6491 Clear 25 1015 69 16093 6.2 20 20:35 07.06.2019
6492 Clear 26 1015 69 11265 5.1 20 19:46 07.06.2019
6493 Clear 25 1015 69 11265 5.1 20 19:20 07.06.2019
6494 Clear 25 1016 69 11265 4.1 40 18:50 07.06.2019
6495 Clear 25 1016 69 11265 4.1 40 18:28 07.06.2019
6496 Clear 24 1016 61 16093 2.1 70 17:47 07.06.2019
6497 Clear 23 1015 68 16093 3.6 30 17:26 07.06.2019
6498 Clear 23 1015 73 16093 3.1 60 16:48 07.06.2019
6499 Clear 22 1015 73 16093 3.45 69.705 16:30 07.06.2019
6500 Clear 20 1015 77 16093 2.1 60 15:50 07.06.2019
6501 Clear 18 1015 82 16093 2.14 60.175 15:21 07.06.2019
6502 Clear 17 1015 87 16093 2.14 60.175 14:47 07.06.2019
6503 Clouds 15 1015 100 14484 2.14 60.175 14:23 07.06.2019
6504 Clear 14 1015 100 11265 2.14 60.175 13:42 07.06.2019
6505 Clear 13 1015 100 11265 2.14 60.175 13:22 07.06.2019
6506 Mist 13 1014 100 8047 2.52 59.539 12:44 07.06.2019
6507 Mist 13 1014 100 8047 2.63 54.558 12:20 07.06.2019
6508 Mist 13 1014 100 6437 2.63 54.558 11:41 07.06.2019
6509 Mist 13 1014 100 6437 2.63 54.558 11:22 07.06.2019
6510 Mist 13 1014 100 16093 2.63 54.558 10:48 07.06.2019
6511 Mist 13 1014 100 6437 2.63 54.558 10:22 07.06.2019
6512 Mist 13 1014 100 16093 2.63 54.558 09:50 07.06.2019
6513 Mist 14 1014 100 6437 2.66 58.525 09:29 07.06.2019
6514 Mist 14 1014 100 11265 1.5 360 08:56 07.06.2019
6515 Mist 14 1014 100 4828 2.64 58.08 08:28 07.06.2019
6516 Mist 14 1014 93 16093 2.1 20 07:55 07.06.2019
6517 Mist 14 1014 100 2012 2.64 58.08 07:24 07.06.2019
6518 Mist 14 1014 100 402 2.6 10 06:50 07.06.2019
6519 Mist 15 1015 93 1609 2.1 20 06:28 07.06.2019
6520 Mist 16 1014 100 1207 3.1 10 05:46 07.06.2019
6521 Mist 17 1013 93 6437 1.5 50 03:34 07.06.2019
6522 Clear 23 1013 77 11265 3.6 40 01:39 07.06.2019
6523 Clear 23 1013 77 16093 3.1 20 00:51 07.06.2019
6524 Clear 24 1013 77 16093 4.1 20 00:26 07.06.2019
6525 Clear 24 1013 77 16093 2.1 30 23:43 06.06.2019
6526 Clear 25 1013 77 16093 2.1 30 23:22 06.06.2019
6527 Clear 25 1013 73 16093 4.1 40 22:39 06.06.2019
6528 Clear 24 1013 73 16093 4.1 40 22:21 06.06.2019
6529 Clear 24 1014 64 16093 2.6 40 21:57 06.06.2019
6530 Clear 25 1013 77 16093 3.1 30 21:39 06.06.2019
6531 Clear 25 1013 77 16093 3.1 30 21:20 06.06.2019
6532 Clear 24 1013 77 11265 2.96 59.983 20:46 06.06.2019
6533 Clear 24 1013 77 11265 2.96 59.983 20:24 06.06.2019
6534 Clear 24 1013 77 16093 2.96 59.983 19:39 06.06.2019
6535 Clouds 24 1013 64 16093 2.6 0 19:20 06.06.2019
6536 Clouds 23 1013 64 16093 2.6 0 18:56 06.06.2019
6537 Clear 23 1013 82 16093 2.6 30 18:32 06.06.2019
6538 Clouds 22 1013 68 16093 2.6 90 17:58 06.06.2019
6539 Clear 22 1013 77 16093 2.6 30 17:40 06.06.2019
6540 Clear 21 1013 77 16093 2.6 30 17:20 06.06.2019
6541 Mist 20 1013 88 6437 2.65 50.738 16:44 06.06.2019
6542 Mist 20 1013 88 6437 2.65 50.738 16:22 06.06.2019
6543 Haze 19 1013 82 16093 2.65 50.738 15:48 06.06.2019
6544 Haze 18 1013 100 3219 2.06 49.384 15:27 06.06.2019
6545 Mist 17 1013 100 3219 2.06 49.384 15:27 06.06.2019
6546 Mist 16 1012 100 2012 2.06 49.384 14:46 06.06.2019
6547 Mist 16 1012 100 2012 2.06 49.384 14:20 06.06.2019
6548 Mist 15 1012 100 4828 2.06 49.384 13:55 06.06.2019
6549 Mist 15 1012 100 4828 2.06 49.384 13:37 06.06.2019
6550 Mist 15 1011 87 6437 2.6 40 13:18 06.06.2019
6551 Mist 14 1012 100 805 2.1 360 12:43 06.06.2019
6552 Mist 14 1011 87 6437 3.1 30 12:21 06.06.2019
6553 Mist 15 1011 100 4828 2.48 38.147 11:49 06.06.2019
6554 Mist 15 1011 100 2816 2.48 38.147 11:28 06.06.2019
6555 Mist 15 1011 100 8047 1.5 10 10:50 06.06.2019
6556 Mist 15 1011 100 1609 2.48 38.147 10:29 06.06.2019
6557 Mist 15 1011 100 2012 2.48 38.147 09:49 06.06.2019
6558 Mist 15 1011 100 2012 2.13 53.901 09:30 06.06.2019
6559 Mist 15 1011 100 1207 2.6 10 08:54 06.06.2019
6560 Mist 15 1012 82 11265 2.13 53.901 08:28 06.06.2019
6561 Mist 16 1011 87 6437 2.1 10 07:55 06.06.2019
6562 Mist 16 1012 82 12874 2.13 53.901 07:35 06.06.2019
6563 Mist 16 1012 100 1609 2.1 340 06:51 06.06.2019
6564 Mist 17 1012 82 11265 3.17 40.548 06:25 06.06.2019
6565 Mist 18 1009 93 11265 2.1 40 04:39 06.06.2019
6566 Clear 19 1008 88 16093 3.6 30 03:38 06.06.2019
6567 Clear 25 1007 65 16093 2.6 60 01:58 06.06.2019
6568 Clouds 27 1007 65 16093 3.1 60 01:21 06.06.2019
6569 Clouds 28 1007 61 16093 3.6 40 00:33 06.06.2019
6570 Clouds 28 1007 54 16093 3.6 320 23:54 05.06.2019
6571 Clear 28 1007 54 16093 3.1 290 23:31 05.06.2019
6572 Clouds 28 1006 51 16093 4.6 290 22:55 05.06.2019
6573 Clouds 28 1006 54 16093 3.6 260 22:37 05.06.2019
6574 Clouds 28 1006 51 16093 4.1 250 22:18 05.06.2019
6575 Clouds 28 1007 65 16093 3.1 300 21:43 05.06.2019
6576 Clouds 27 1007 65 16093 3.1 300 21:24 05.06.2019
6577 Clouds 27 1007 69 16093 2.02 287.745 20:46 05.06.2019
6578 Clouds 27 1007 69 16093 2.02 287.745 20:26 05.06.2019
6579 Clouds 26 1007 65 16093 3.1 300 19:46 05.06.2019
6580 Clouds 26 1007 69 16093 3.1 300 19:23 05.06.2019
6581 Clouds 25 1007 73 16093 2.02 287.745 18:50 05.06.2019
6582 Clouds 25 1007 73 16093 2.1 290 18:31 05.06.2019
6583 Clouds 25 1007 69 19312 5.1 260 17:51 05.06.2019
6584 Clouds 24 1007 78 16093 2.1 270 17:29 05.06.2019
6585 Clear 23 1007 83 16093 3.6 260 16:45 05.06.2019
6586 Clear 23 1007 83 16093 3.6 260 16:45 05.06.2019
6587 Clear 22 1007 83 16093 3.6 260 16:25 05.06.2019
6588 Clouds 21 1006 83 16093 5.1 230 15:58 05.06.2019
6589 Rain 21 1006 100 16093 3.6 210 15:37 05.06.2019
6590 Rain 20 1006 100 16093 3.6 210 15:19 05.06.2019
6591 Rain 19 1007 100 16093 2.4 251.595 14:40 05.06.2019
6592 Rain 19 1008 100 11265 2.4 251.595 14:21 05.06.2019
6593 Rain 19 1008 100 11265 2.4 251.595 13:55 05.06.2019
6594 Rain 19 1008 100 11265 2.4 251.595 13:37 05.06.2019
6595 Rain 19 1008 100 11265 2.4 251.595 13:18 05.06.2019
6596 Rain 19 1008 100 11265 3.1 230 12:43 05.06.2019
6597 Rain 19 1008 100 11265 3.1 230 12:19 05.06.2019
6598 Rain 19 1008 100 8047 2.98 246.418 11:44 05.06.2019
6599 Rain 19 1008 100 8047 2.98 246.418 11:21 05.06.2019
6600 Rain 19 1007 100 11265 2.98 246.418 10:46 05.06.2019
6601 Rain 19 1007 94 16093 2.98 246.418 10:25 05.06.2019
6602 Rain 20 1008 88 16093 6.7 240 09:52 05.06.2019
6603 Rain 20 1007 88 16093 2.6 270 09:28 05.06.2019
6604 Rain 21 1007 78 16093 3.1 180 08:50 05.06.2019
6605 Thunderstorm 22 1006 73 16093 4.1 180 07:59 05.06.2019
6606 Thunderstorm 22 1008 77 16093 3.62 223.465 07:34 05.06.2019
6607 Clouds 22 1007 73 16093 3.1 190 06:52 05.06.2019
6608 Clouds 22 1008 53 16093 3.1 160 06:19 05.06.2019
6609 Clouds 24 1009 73 16093 3.93 224.104 04:32 05.06.2019
6610 Clouds 27 1008 61 16093 5.1 210 02:34 05.06.2019
6611 Clouds 27 1009 54 16093 5.1 200 01:30 05.06.2019
6612 Clear 28 1010 51 16093 7.7 210 00:48 05.06.2019
6613 Clouds 27 1010 44 16093 5.7 210 23:56 04.06.2019
6614 Clear 27 1011 47 16093 7.7 210 23:38 04.06.2019
6615 Clear 27 1011 47 16093 7.7 210 23:18 04.06.2019
6616 Rain 27 1012 44 16093 6.7 210 22:43 04.06.2019
6617 Rain 27 1012 44 16093 6.7 210 22:25 04.06.2019
6618 Clouds 26 1011 47 16093 8.2 200 21:57 04.06.2019
6619 Clouds 26 1011 47 16093 8.2 200 21:57 04.06.2019
6620 Clouds 25 1014 47 16093 5.1 180 21:39 04.06.2019
6621 Clouds 24 1014 47 16093 5.1 180 21:20 04.06.2019
6622 Rain 22 1015 73 16093 3.1 170 20:38 04.06.2019
6623 Rain 21 1014 72 16093 3.6 160 20:19 04.06.2019
6624 Rain 19 1016 82 16093 5.97 215.064 19:48 04.06.2019
6625 Rain 19 1016 82 16093 5.97 215.064 19:23 04.06.2019
6626 Rain 19 1016 82 16093 5.97 215.064 19:23 04.06.2019
6627 Rain 17 1016 77 6437 3.6 210 18:51 04.06.2019
6628 Rain 16 1016 77 6437 3.6 210 18:28 04.06.2019
6629 Rain 16 1016 87 4828 8.7 210 17:58 04.06.2019
6630</